<?xml version='1.0' encoding='UTF-8'?><gpx version="1.1" creator="JPX - https://github.com/jenetics/jpx" xmlns="http://www.topografix.com/GPX/1/1"><trk><trkseg><trkpt lat="42.4088327" lon="12.8036831"><ele>379.0</ele><time>2026-04-04T07:29:54.039Z</time></trkpt><trkpt lat="42.4089283" lon="12.8037017"><ele>379.0</ele><time>2026-04-04T07:31:10.041Z</time></trkpt><trkpt lat="42.4090033" lon="12.803745"><ele>379.0</ele><time>2026-04-04T07:31:14.041Z</time></trkpt><trkpt lat="42.409035" lon="12.8038267"><ele>379.0</ele><time>2026-04-04T07:31:16.04Z</time></trkpt><trkpt lat="42.4090533" lon="12.80396"><ele>379.0</ele><time>2026-04-04T07:31:18.041Z</time></trkpt><trkpt lat="42.4090467" lon="12.8040933"><ele>379.0</ele><time>2026-04-04T07:31:20.04Z</time></trkpt><trkpt lat="42.4090117" lon="12.8042583"><ele>378.8333333333333</ele><time>2026-04-04T07:31:22.04Z</time></trkpt><trkpt lat="42.4090017" lon="12.804345"><ele>378.66666666666663</ele><time>2026-04-04T07:31:23.044Z</time></trkpt><trkpt lat="42.408995" lon="12.80443"><ele>378.5</ele><time>2026-04-04T07:31:24.039Z</time></trkpt><trkpt lat="42.4089933" lon="12.804605"><ele>378.3333333333333</ele><time>2026-04-04T07:31:26.04Z</time></trkpt><trkpt lat="42.4089883" lon="12.8047"><ele>378.1666666666667</ele><time>2026-04-04T07:31:27.042Z</time></trkpt><trkpt lat="42.4089883" lon="12.8047967"><ele>378.0</ele><time>2026-04-04T07:31:28.041Z</time></trkpt><trkpt lat="42.4089883" lon="12.8049"><ele>378.0</ele><time>2026-04-04T07:31:29.04Z</time></trkpt><trkpt lat="42.4089867" lon="12.8050083"><ele>378.0</ele><time>2026-04-04T07:31:30.042Z</time></trkpt><trkpt lat="42.408985" lon="12.8051217"><ele>378.0</ele><time>2026-04-04T07:31:31.042Z</time></trkpt><trkpt lat="42.408985" lon="12.805235"><ele>378.0</ele><time>2026-04-04T07:31:32.043Z</time></trkpt><trkpt lat="42.40898" lon="12.8053667"><ele>378.0</ele><time>2026-04-04T07:31:33.044Z</time></trkpt><trkpt lat="42.4089783" lon="12.8055"><ele>378.0</ele><time>2026-04-04T07:31:34.042Z</time></trkpt><trkpt lat="42.4089783" lon="12.80563"><ele>378.0</ele><time>2026-04-04T07:31:35.041Z</time></trkpt><trkpt lat="42.4089817" lon="12.8057633"><ele>378.0</ele><time>2026-04-04T07:31:36.042Z</time></trkpt><trkpt lat="42.4089833" lon="12.8059"><ele>378.0</ele><time>2026-04-04T07:31:37.046Z</time></trkpt><trkpt lat="42.40898" lon="12.8060383"><ele>378.0</ele><time>2026-04-04T07:31:38.042Z</time></trkpt><trkpt lat="42.4089783" lon="12.8061783"><ele>378.0</ele><time>2026-04-04T07:31:39.041Z</time></trkpt><trkpt lat="42.4089767" lon="12.8063233"><ele>378.0</ele><time>2026-04-04T07:31:40.041Z</time></trkpt><trkpt lat="42.4089783" lon="12.8064683"><ele>378.0</ele><time>2026-04-04T07:31:41.043Z</time></trkpt><trkpt lat="42.40898" lon="12.8066117"><ele>378.0</ele><time>2026-04-04T07:31:42.04Z</time></trkpt><trkpt lat="42.4089817" lon="12.8067583"><ele>378.0</ele><time>2026-04-04T07:31:43.041Z</time></trkpt><trkpt lat="42.4089817" lon="12.8069067"><ele>378.0</ele><time>2026-04-04T07:31:44.042Z</time></trkpt><trkpt lat="42.4089783" lon="12.8070633"><ele>378.25</ele><time>2026-04-04T07:31:45.043Z</time></trkpt><trkpt lat="42.4089783" lon="12.807225"><ele>378.5</ele><time>2026-04-04T07:31:46.04Z</time></trkpt><trkpt lat="42.4089783" lon="12.8073867"><ele>378.75</ele><time>2026-04-04T07:31:47.04Z</time></trkpt><trkpt lat="42.4089817" lon="12.8075483"><ele>379.0</ele><time>2026-04-04T07:31:48.044Z</time></trkpt><trkpt lat="42.4089817" lon="12.8077083"><ele>379.0</ele><time>2026-04-04T07:31:49.039Z</time></trkpt><trkpt lat="42.4089833" lon="12.8078733"><ele>379.0</ele><time>2026-04-04T07:31:50.041Z</time></trkpt><trkpt lat="42.4089833" lon="12.8080417"><ele>379.0</ele><time>2026-04-04T07:31:51.04Z</time></trkpt><trkpt lat="42.4089817" lon="12.8082133"><ele>379.0</ele><time>2026-04-04T07:31:52.041Z</time></trkpt><trkpt lat="42.4089833" lon="12.808385"><ele>378.75</ele><time>2026-04-04T07:31:53.042Z</time></trkpt><trkpt lat="42.4089867" lon="12.8085567"><ele>378.5</ele><time>2026-04-04T07:31:54.043Z</time></trkpt><trkpt lat="42.408985" lon="12.8087317"><ele>378.25</ele><time>2026-04-04T07:31:55.041Z</time></trkpt><trkpt lat="42.4089833" lon="12.8089067"><ele>378.0</ele><time>2026-04-04T07:31:56.041Z</time></trkpt><trkpt lat="42.4089833" lon="12.8090833"><ele>378.0</ele><time>2026-04-04T07:31:57.041Z</time></trkpt><trkpt lat="42.4089817" lon="12.8092583"><ele>378.0</ele><time>2026-04-04T07:31:58.041Z</time></trkpt><trkpt lat="42.4089817" lon="12.8094333"><ele>378.0</ele><time>2026-04-04T07:31:59.041Z</time></trkpt><trkpt lat="42.40898" lon="12.80961"><ele>378.0</ele><time>2026-04-04T07:32:00.042Z</time></trkpt><trkpt lat="42.4089833" lon="12.8097917"><ele>378.0</ele><time>2026-04-04T07:32:01.042Z</time></trkpt><trkpt lat="42.4089817" lon="12.809975"><ele>378.0</ele><time>2026-04-04T07:32:02.043Z</time></trkpt><trkpt lat="42.40898" lon="12.8101583"><ele>378.0</ele><time>2026-04-04T07:32:03.041Z</time></trkpt><trkpt lat="42.4089783" lon="12.8103383"><ele>378.0</ele><time>2026-04-04T07:32:04.042Z</time></trkpt><trkpt lat="42.4089767" lon="12.8105083"><ele>378.0</ele><time>2026-04-04T07:32:05.041Z</time></trkpt><trkpt lat="42.4089733" lon="12.8106733"><ele>378.0</ele><time>2026-04-04T07:32:06.042Z</time></trkpt><trkpt lat="42.408975" lon="12.8108267"><ele>378.0</ele><time>2026-04-04T07:32:07.044Z</time></trkpt><trkpt lat="42.4089733" lon="12.8109717"><ele>378.0</ele><time>2026-04-04T07:32:08.041Z</time></trkpt><trkpt lat="42.4089733" lon="12.8111067"><ele>378.0</ele><time>2026-04-04T07:32:09.041Z</time></trkpt><trkpt lat="42.40897" lon="12.8112317"><ele>378.0</ele><time>2026-04-04T07:32:10.042Z</time></trkpt><trkpt lat="42.4089733" lon="12.8113533"><ele>378.0</ele><time>2026-04-04T07:32:11.041Z</time></trkpt><trkpt lat="42.408975" lon="12.8114667"><ele>378.0</ele><time>2026-04-04T07:32:12.04Z</time></trkpt><trkpt lat="42.4089817" lon="12.8115733"><ele>378.0</ele><time>2026-04-04T07:32:13.041Z</time></trkpt><trkpt lat="42.4089867" lon="12.8116633"><ele>378.0</ele><time>2026-04-04T07:32:14.041Z</time></trkpt><trkpt lat="42.4089917" lon="12.8118167"><ele>378.0</ele><time>2026-04-04T07:32:16.041Z</time></trkpt><trkpt lat="42.4089617" lon="12.8119033"><ele>378.0</ele><time>2026-04-04T07:32:18.04Z</time></trkpt><trkpt lat="42.4088683" lon="12.81194"><ele>378.0</ele><time>2026-04-04T07:32:20.042Z</time></trkpt><trkpt lat="42.4087933" lon="12.8119433"><ele>378.0</ele><time>2026-04-04T07:32:21.042Z</time></trkpt><trkpt lat="42.40871" lon="12.811945"><ele>378.0</ele><time>2026-04-04T07:32:22.041Z</time></trkpt><trkpt lat="42.4086167" lon="12.8119483"><ele>378.0</ele><time>2026-04-04T07:32:23.041Z</time></trkpt><trkpt lat="42.4085217" lon="12.8119517"><ele>378.0</ele><time>2026-04-04T07:32:24.043Z</time></trkpt><trkpt lat="42.4084217" lon="12.8119567"><ele>378.0</ele><time>2026-04-04T07:32:25.042Z</time></trkpt><trkpt lat="42.4083033" lon="12.8119683"><ele>378.0</ele><time>2026-04-04T07:32:26.041Z</time></trkpt><trkpt lat="42.4081767" lon="12.8119817"><ele>378.0</ele><time>2026-04-04T07:32:27.041Z</time></trkpt><trkpt lat="42.4080417" lon="12.8119967"><ele>378.0</ele><time>2026-04-04T07:32:28.043Z</time></trkpt><trkpt lat="42.4078983" lon="12.812015"><ele>378.0</ele><time>2026-04-04T07:32:29.042Z</time></trkpt><trkpt lat="42.4077417" lon="12.81203"><ele>378.0</ele><time>2026-04-04T07:32:30.043Z</time></trkpt><trkpt lat="42.4075867" lon="12.8120433"><ele>378.0</ele><time>2026-04-04T07:32:31.044Z</time></trkpt><trkpt lat="42.407425" lon="12.8120583"><ele>378.0</ele><time>2026-04-04T07:32:32.042Z</time></trkpt><trkpt lat="42.40726" lon="12.81208"><ele>378.0</ele><time>2026-04-04T07:32:33.04Z</time></trkpt><trkpt lat="42.4070867" lon="12.812105"><ele>378.0</ele><time>2026-04-04T07:32:34.041Z</time></trkpt><trkpt lat="42.4069117" lon="12.8121317"><ele>377.6666666666667</ele><time>2026-04-04T07:32:35.04Z</time></trkpt><trkpt lat="42.4067433" lon="12.8121533"><ele>377.33333333333337</ele><time>2026-04-04T07:32:36.042Z</time></trkpt><trkpt lat="42.40658" lon="12.8121733"><ele>377.0</ele><time>2026-04-04T07:32:37.041Z</time></trkpt><trkpt lat="42.4064267" lon="12.8121917"><ele>377.5</ele><time>2026-04-04T07:32:38.043Z</time></trkpt><trkpt lat="42.4062867" lon="12.8122033"><ele>378.0</ele><time>2026-04-04T07:32:39.041Z</time></trkpt><trkpt lat="42.4061583" lon="12.8122133"><ele>378.5</ele><time>2026-04-04T07:32:40.04Z</time></trkpt><trkpt lat="42.4060383" lon="12.8122183"><ele>379.0</ele><time>2026-04-04T07:32:41.04Z</time></trkpt><trkpt lat="42.4059317" lon="12.8122267"><ele>379.0</ele><time>2026-04-04T07:32:42.04Z</time></trkpt><trkpt lat="42.4058367" lon="12.812235"><ele>379.0</ele><time>2026-04-04T07:32:43.041Z</time></trkpt><trkpt lat="42.4057483" lon="12.8122433"><ele>379.0</ele><time>2026-04-04T07:32:44.04Z</time></trkpt><trkpt lat="42.4056667" lon="12.8122517"><ele>379.0</ele><time>2026-04-04T07:32:45.042Z</time></trkpt><trkpt lat="42.4055917" lon="12.8122583"><ele>379.0</ele><time>2026-04-04T07:32:46.041Z</time></trkpt><trkpt lat="42.4055267" lon="12.812265"><ele>379.0</ele><time>2026-04-04T07:32:47.042Z</time></trkpt><trkpt lat="42.40542" lon="12.8123383"><ele>379.16666666666663</ele><time>2026-04-04T07:32:49.041Z</time></trkpt><trkpt lat="42.4053883" lon="12.8124133"><ele>379.3333333333333</ele><time>2026-04-04T07:32:50.042Z</time></trkpt><trkpt lat="42.40536" lon="12.8125033"><ele>379.5</ele><time>2026-04-04T07:32:51.042Z</time></trkpt><trkpt lat="42.4053483" lon="12.812615"><ele>379.6666666666667</ele><time>2026-04-04T07:32:52.041Z</time></trkpt><trkpt lat="42.40535" lon="12.812735"><ele>379.83333333333337</ele><time>2026-04-04T07:32:53.041Z</time></trkpt><trkpt lat="42.4053433" lon="12.8128567"><ele>380.0</ele><time>2026-04-04T07:32:54.041Z</time></trkpt><trkpt lat="42.4053367" lon="12.81299"><ele>380.0</ele><time>2026-04-04T07:32:55.041Z</time></trkpt><trkpt lat="42.4053233" lon="12.813135"><ele>380.0</ele><time>2026-04-04T07:32:56.041Z</time></trkpt><trkpt lat="42.4053117" lon="12.813295"><ele>380.0</ele><time>2026-04-04T07:32:57.043Z</time></trkpt><trkpt lat="42.4053133" lon="12.8134683"><ele>380.0</ele><time>2026-04-04T07:32:58.041Z</time></trkpt><trkpt lat="42.4053017" lon="12.813645"><ele>379.5</ele><time>2026-04-04T07:32:59.041Z</time></trkpt><trkpt lat="42.4052967" lon="12.8138217"><ele>379.0</ele><time>2026-04-04T07:33:00.046Z</time></trkpt><trkpt lat="42.4052783" lon="12.8140033"><ele>378.5</ele><time>2026-04-04T07:33:01.042Z</time></trkpt><trkpt lat="42.4052717" lon="12.8141933"><ele>378.0</ele><time>2026-04-04T07:33:02.041Z</time></trkpt><trkpt lat="42.4052667" lon="12.8143933"><ele>378.0</ele><time>2026-04-04T07:33:03.042Z</time></trkpt><trkpt lat="42.4052583" lon="12.8146033"><ele>378.0</ele><time>2026-04-04T07:33:04.041Z</time></trkpt><trkpt lat="42.4052467" lon="12.8148117"><ele>378.0</ele><time>2026-04-04T07:33:05.04Z</time></trkpt><trkpt lat="42.4052367" lon="12.8150217"><ele>378.0</ele><time>2026-04-04T07:33:06.044Z</time></trkpt><trkpt lat="42.4052333" lon="12.8152333"><ele>378.0</ele><time>2026-04-04T07:33:07.041Z</time></trkpt><trkpt lat="42.4052267" lon="12.8154483"><ele>378.0</ele><time>2026-04-04T07:33:08.041Z</time></trkpt><trkpt lat="42.4052167" lon="12.8156683"><ele>378.0</ele><time>2026-04-04T07:33:09.041Z</time></trkpt><trkpt lat="42.4052067" lon="12.8158917"><ele>378.0</ele><time>2026-04-04T07:33:10.04Z</time></trkpt><trkpt lat="42.4052" lon="12.81612"><ele>378.0</ele><time>2026-04-04T07:33:11.041Z</time></trkpt><trkpt lat="42.4052017" lon="12.816355"><ele>378.0</ele><time>2026-04-04T07:33:12.042Z</time></trkpt><trkpt lat="42.4052067" lon="12.8165933"><ele>378.0</ele><time>2026-04-04T07:33:13.041Z</time></trkpt><trkpt lat="42.4052133" lon="12.81684"><ele>378.0</ele><time>2026-04-04T07:33:14.041Z</time></trkpt><trkpt lat="42.4052167" lon="12.81709"><ele>378.0</ele><time>2026-04-04T07:33:15.04Z</time></trkpt><trkpt lat="42.4052233" lon="12.8173483"><ele>378.0</ele><time>2026-04-04T07:33:16.043Z</time></trkpt><trkpt lat="42.4052283" lon="12.8176083"><ele>378.0</ele><time>2026-04-04T07:33:17.042Z</time></trkpt><trkpt lat="42.405235" lon="12.81787"><ele>378.0</ele><time>2026-04-04T07:33:18.042Z</time></trkpt><trkpt lat="42.4052433" lon="12.81813"><ele>378.0</ele><time>2026-04-04T07:33:19.042Z</time></trkpt><trkpt lat="42.405245" lon="12.8183867"><ele>378.0</ele><time>2026-04-04T07:33:20.042Z</time></trkpt><trkpt lat="42.4052367" lon="12.818645"><ele>378.0</ele><time>2026-04-04T07:33:21.041Z</time></trkpt><trkpt lat="42.4052333" lon="12.818905"><ele>378.0</ele><time>2026-04-04T07:33:22.04Z</time></trkpt><trkpt lat="42.40523" lon="12.819165"><ele>378.0</ele><time>2026-04-04T07:33:23.041Z</time></trkpt><trkpt lat="42.4052267" lon="12.8194267"><ele>378.3333333333333</ele><time>2026-04-04T07:33:24.04Z</time></trkpt><trkpt lat="42.405225" lon="12.8196917"><ele>378.66666666666663</ele><time>2026-04-04T07:33:25.041Z</time></trkpt><trkpt lat="42.4052233" lon="12.8199567"><ele>379.0</ele><time>2026-04-04T07:33:26.041Z</time></trkpt><trkpt lat="42.4052167" lon="12.8202267"><ele>379.0</ele><time>2026-04-04T07:33:27.04Z</time></trkpt><trkpt lat="42.4052133" lon="12.8205"><ele>379.0</ele><time>2026-04-04T07:33:28.041Z</time></trkpt><trkpt lat="42.4052117" lon="12.820775"><ele>379.0</ele><time>2026-04-04T07:33:29.042Z</time></trkpt><trkpt lat="42.405205" lon="12.8210467"><ele>379.0</ele><time>2026-04-04T07:33:30.042Z</time></trkpt><trkpt lat="42.4052" lon="12.82132"><ele>379.0</ele><time>2026-04-04T07:33:31.041Z</time></trkpt><trkpt lat="42.40519" lon="12.8215933"><ele>379.0</ele><time>2026-04-04T07:33:32.042Z</time></trkpt><trkpt lat="42.405185" lon="12.8218633"><ele>379.0</ele><time>2026-04-04T07:33:33.04Z</time></trkpt><trkpt lat="42.4051733" lon="12.8221367"><ele>379.0</ele><time>2026-04-04T07:33:34.041Z</time></trkpt><trkpt lat="42.405165" lon="12.822405"><ele>379.0</ele><time>2026-04-04T07:33:35.041Z</time></trkpt><trkpt lat="42.4051567" lon="12.8226767"><ele>379.0</ele><time>2026-04-04T07:33:36.041Z</time></trkpt><trkpt lat="42.4051483" lon="12.8229467"><ele>379.0</ele><time>2026-04-04T07:33:37.041Z</time></trkpt><trkpt lat="42.405145" lon="12.8232183"><ele>379.0</ele><time>2026-04-04T07:33:38.041Z</time></trkpt><trkpt lat="42.405135" lon="12.8234867"><ele>379.0</ele><time>2026-04-04T07:33:39.043Z</time></trkpt><trkpt lat="42.40513" lon="12.8237533"><ele>379.0</ele><time>2026-04-04T07:33:40.041Z</time></trkpt><trkpt lat="42.4051233" lon="12.82402"><ele>379.0</ele><time>2026-04-04T07:33:41.042Z</time></trkpt><trkpt lat="42.40511" lon="12.8242867"><ele>379.0</ele><time>2026-04-04T07:33:42.041Z</time></trkpt><trkpt lat="42.4050983" lon="12.8245517"><ele>379.0</ele><time>2026-04-04T07:33:43.041Z</time></trkpt><trkpt lat="42.4050867" lon="12.8248133"><ele>379.0</ele><time>2026-04-04T07:33:44.041Z</time></trkpt><trkpt lat="42.4050767" lon="12.8250717"><ele>379.3333333333333</ele><time>2026-04-04T07:33:45.045Z</time></trkpt><trkpt lat="42.4050683" lon="12.82533"><ele>379.6666666666667</ele><time>2026-04-04T07:33:46.04Z</time></trkpt><trkpt lat="42.405065" lon="12.8255883"><ele>380.0</ele><time>2026-04-04T07:33:47.042Z</time></trkpt><trkpt lat="42.4050717" lon="12.8258467"><ele>380.0</ele><time>2026-04-04T07:33:48.041Z</time></trkpt><trkpt lat="42.405075" lon="12.826105"><ele>380.0</ele><time>2026-04-04T07:33:49.042Z</time></trkpt><trkpt lat="42.4050667" lon="12.8263633"><ele>380.0</ele><time>2026-04-04T07:33:50.042Z</time></trkpt><trkpt lat="42.405045" lon="12.8266233"><ele>380.0</ele><time>2026-04-04T07:33:51.04Z</time></trkpt><trkpt lat="42.4050117" lon="12.8268833"><ele>380.0</ele><time>2026-04-04T07:33:52.04Z</time></trkpt><trkpt lat="42.4049783" lon="12.8271417"><ele>380.0</ele><time>2026-04-04T07:33:53.041Z</time></trkpt><trkpt lat="42.4049467" lon="12.827405"><ele>380.0</ele><time>2026-04-04T07:33:54.041Z</time></trkpt><trkpt lat="42.4049233" lon="12.8276683"><ele>380.0</ele><time>2026-04-04T07:33:55.041Z</time></trkpt><trkpt lat="42.4049083" lon="12.8279283"><ele>380.0</ele><time>2026-04-04T07:33:56.041Z</time></trkpt><trkpt lat="42.4048967" lon="12.8281867"><ele>380.0</ele><time>2026-04-04T07:33:57.042Z</time></trkpt><trkpt lat="42.4048867" lon="12.8284433"><ele>380.0</ele><time>2026-04-04T07:33:58.04Z</time></trkpt><trkpt lat="42.4048717" lon="12.828695"><ele>380.0</ele><time>2026-04-04T07:33:59.043Z</time></trkpt><trkpt lat="42.404855" lon="12.8289383"><ele>380.33333333333337</ele><time>2026-04-04T07:34:00.044Z</time></trkpt><trkpt lat="42.4048267" lon="12.8291783"><ele>380.6666666666667</ele><time>2026-04-04T07:34:01.04Z</time></trkpt><trkpt lat="42.4048117" lon="12.8294183"><ele>381.0</ele><time>2026-04-04T07:34:02.042Z</time></trkpt><trkpt lat="42.4048033" lon="12.8296583"><ele>381.0</ele><time>2026-04-04T07:34:03.045Z</time></trkpt><trkpt lat="42.404785" lon="12.8299"><ele>381.0</ele><time>2026-04-04T07:34:04.04Z</time></trkpt><trkpt lat="42.4047633" lon="12.830145"><ele>381.0</ele><time>2026-04-04T07:34:05.04Z</time></trkpt><trkpt lat="42.40472" lon="12.83039"><ele>381.0</ele><time>2026-04-04T07:34:06.041Z</time></trkpt><trkpt lat="42.4046533" lon="12.8306317"><ele>381.0</ele><time>2026-04-04T07:34:07.042Z</time></trkpt><trkpt lat="42.4045767" lon="12.830875"><ele>381.0</ele><time>2026-04-04T07:34:08.041Z</time></trkpt><trkpt lat="42.4045" lon="12.831115"><ele>381.0</ele><time>2026-04-04T07:34:09.042Z</time></trkpt><trkpt lat="42.4044217" lon="12.8313567"><ele>381.0</ele><time>2026-04-04T07:34:10.042Z</time></trkpt><trkpt lat="42.4043433" lon="12.831605"><ele>381.0</ele><time>2026-04-04T07:34:11.041Z</time></trkpt><trkpt lat="42.4042683" lon="12.8318517"><ele>380.6666666666667</ele><time>2026-04-04T07:34:12.041Z</time></trkpt><trkpt lat="42.4041983" lon="12.8321017"><ele>380.33333333333337</ele><time>2026-04-04T07:34:13.04Z</time></trkpt><trkpt lat="42.404125" lon="12.83235"><ele>380.0</ele><time>2026-04-04T07:34:14.042Z</time></trkpt><trkpt lat="42.4040533" lon="12.8326033"><ele>379.6666666666667</ele><time>2026-04-04T07:34:15.042Z</time></trkpt><trkpt lat="42.40399" lon="12.8328667"><ele>379.3333333333333</ele><time>2026-04-04T07:34:16.041Z</time></trkpt><trkpt lat="42.40393" lon="12.8331317"><ele>379.0</ele><time>2026-04-04T07:34:17.041Z</time></trkpt><trkpt lat="42.4038733" lon="12.8333983"><ele>380.0</ele><time>2026-04-04T07:34:18.042Z</time></trkpt><trkpt lat="42.4038133" lon="12.8336633"><ele>381.0</ele><time>2026-04-04T07:34:19.041Z</time></trkpt><trkpt lat="42.40375" lon="12.8339267"><ele>382.0</ele><time>2026-04-04T07:34:20.041Z</time></trkpt><trkpt lat="42.4036733" lon="12.834185"><ele>381.66666666666663</ele><time>2026-04-04T07:34:21.042Z</time></trkpt><trkpt lat="42.4035817" lon="12.834435"><ele>381.3333333333333</ele><time>2026-04-04T07:34:22.04Z</time></trkpt><trkpt lat="42.4034783" lon="12.8346717"><ele>381.0</ele><time>2026-04-04T07:34:23.041Z</time></trkpt><trkpt lat="42.4033617" lon="12.8348983"><ele>381.0</ele><time>2026-04-04T07:34:24.041Z</time></trkpt><trkpt lat="42.4032333" lon="12.8351233"><ele>381.0</ele><time>2026-04-04T07:34:25.042Z</time></trkpt><trkpt lat="42.403085" lon="12.8353267"><ele>381.0</ele><time>2026-04-04T07:34:26.04Z</time></trkpt><trkpt lat="42.4029217" lon="12.83552"><ele>381.0</ele><time>2026-04-04T07:34:27.041Z</time></trkpt><trkpt lat="42.4027567" lon="12.8357067"><ele>381.0</ele><time>2026-04-04T07:34:28.04Z</time></trkpt><trkpt lat="42.40259" lon="12.8358933"><ele>381.0</ele><time>2026-04-04T07:34:29.044Z</time></trkpt><trkpt lat="42.4024267" lon="12.836075"><ele>381.0</ele><time>2026-04-04T07:34:30.041Z</time></trkpt><trkpt lat="42.4022683" lon="12.83625"><ele>381.0</ele><time>2026-04-04T07:34:31.041Z</time></trkpt><trkpt lat="42.40211" lon="12.8364217"><ele>381.0</ele><time>2026-04-04T07:34:32.042Z</time></trkpt><trkpt lat="42.401955" lon="12.8365833"><ele>381.3333333333333</ele><time>2026-04-04T07:34:33.041Z</time></trkpt><trkpt lat="42.4017933" lon="12.83674"><ele>381.66666666666663</ele><time>2026-04-04T07:34:34.042Z</time></trkpt><trkpt lat="42.4016267" lon="12.836875"><ele>382.0</ele><time>2026-04-04T07:34:35.04Z</time></trkpt><trkpt lat="42.401445" lon="12.8369833"><ele>381.66666666666663</ele><time>2026-04-04T07:34:36.041Z</time></trkpt><trkpt lat="42.4012567" lon="12.837065"><ele>381.3333333333333</ele><time>2026-04-04T07:34:37.042Z</time></trkpt><trkpt lat="42.40106" lon="12.8371233"><ele>381.0</ele><time>2026-04-04T07:34:38.041Z</time></trkpt><trkpt lat="42.40086" lon="12.8371667"><ele>381.0</ele><time>2026-04-04T07:34:39.042Z</time></trkpt><trkpt lat="42.4006583" lon="12.837195"><ele>381.0</ele><time>2026-04-04T07:34:40.041Z</time></trkpt><trkpt lat="42.40046" lon="12.8372133"><ele>381.0</ele><time>2026-04-04T07:34:41.041Z</time></trkpt><trkpt lat="42.4002683" lon="12.83723"><ele>381.3333333333333</ele><time>2026-04-04T07:34:42.04Z</time></trkpt><trkpt lat="42.400085" lon="12.8372433"><ele>381.66666666666663</ele><time>2026-04-04T07:34:43.041Z</time></trkpt><trkpt lat="42.399915" lon="12.8372633"><ele>382.0</ele><time>2026-04-04T07:34:44.041Z</time></trkpt><trkpt lat="42.3997583" lon="12.8372833"><ele>382.0</ele><time>2026-04-04T07:34:45.043Z</time></trkpt><trkpt lat="42.399615" lon="12.8373117"><ele>382.0</ele><time>2026-04-04T07:34:46.04Z</time></trkpt><trkpt lat="42.3994817" lon="12.8373567"><ele>382.0</ele><time>2026-04-04T07:34:47.04Z</time></trkpt><trkpt lat="42.3993583" lon="12.83743"><ele>382.0</ele><time>2026-04-04T07:34:48.041Z</time></trkpt><trkpt lat="42.399245" lon="12.8375333"><ele>381.75</ele><time>2026-04-04T07:34:49.042Z</time></trkpt><trkpt lat="42.399155" lon="12.8376767"><ele>381.5</ele><time>2026-04-04T07:34:50.04Z</time></trkpt><trkpt lat="42.399085" lon="12.837845"><ele>381.25</ele><time>2026-04-04T07:34:51.041Z</time></trkpt><trkpt lat="42.3990417" lon="12.8380333"><ele>381.0</ele><time>2026-04-04T07:34:52.04Z</time></trkpt><trkpt lat="42.399025" lon="12.8382367"><ele>381.0</ele><time>2026-04-04T07:34:53.041Z</time></trkpt><trkpt lat="42.39902" lon="12.83845"><ele>381.0</ele><time>2026-04-04T07:34:54.041Z</time></trkpt><trkpt lat="42.399015" lon="12.8386667"><ele>381.0</ele><time>2026-04-04T07:34:55.041Z</time></trkpt><trkpt lat="42.3990133" lon="12.8388933"><ele>381.0</ele><time>2026-04-04T07:34:56.04Z</time></trkpt><trkpt lat="42.39901" lon="12.8391283"><ele>381.0</ele><time>2026-04-04T07:34:57.041Z</time></trkpt><trkpt lat="42.3990067" lon="12.8393717"><ele>381.0</ele><time>2026-04-04T07:34:58.04Z</time></trkpt><trkpt lat="42.399" lon="12.839625"><ele>381.3333333333333</ele><time>2026-04-04T07:34:59.041Z</time></trkpt><trkpt lat="42.3989917" lon="12.83989"><ele>381.66666666666663</ele><time>2026-04-04T07:35:00.042Z</time></trkpt><trkpt lat="42.398985" lon="12.8401533"><ele>382.0</ele><time>2026-04-04T07:35:01.04Z</time></trkpt><trkpt lat="42.3989767" lon="12.8404117"><ele>382.66666666666663</ele><time>2026-04-04T07:35:02.041Z</time></trkpt><trkpt lat="42.39897" lon="12.84067"><ele>383.3333333333333</ele><time>2026-04-04T07:35:03.042Z</time></trkpt><trkpt lat="42.3989617" lon="12.84093"><ele>384.0</ele><time>2026-04-04T07:35:04.04Z</time></trkpt><trkpt lat="42.3989533" lon="12.841185"><ele>384.0</ele><time>2026-04-04T07:35:05.045Z</time></trkpt><trkpt lat="42.3989433" lon="12.8414333"><ele>384.0</ele><time>2026-04-04T07:35:06.041Z</time></trkpt><trkpt lat="42.3989317" lon="12.8416733"><ele>384.0</ele><time>2026-04-04T07:35:07.042Z</time></trkpt><trkpt lat="42.398925" lon="12.8418983"><ele>384.0</ele><time>2026-04-04T07:35:08.042Z</time></trkpt><trkpt lat="42.398915" lon="12.8421117"><ele>384.0</ele><time>2026-04-04T07:35:09.045Z</time></trkpt><trkpt lat="42.3989083" lon="12.8423117"><ele>384.0</ele><time>2026-04-04T07:35:10.041Z</time></trkpt><trkpt lat="42.3989017" lon="12.8424983"><ele>384.0</ele><time>2026-04-04T07:35:11.041Z</time></trkpt><trkpt lat="42.3988967" lon="12.842675"><ele>384.0</ele><time>2026-04-04T07:35:12.041Z</time></trkpt><trkpt lat="42.3988967" lon="12.8428417"><ele>384.0</ele><time>2026-04-04T07:35:13.041Z</time></trkpt><trkpt lat="42.3989" lon="12.8429983"><ele>384.0</ele><time>2026-04-04T07:35:14.041Z</time></trkpt><trkpt lat="42.3989033" lon="12.843145"><ele>384.0</ele><time>2026-04-04T07:35:15.041Z</time></trkpt><trkpt lat="42.3989117" lon="12.8432833"><ele>384.0</ele><time>2026-04-04T07:35:16.043Z</time></trkpt><trkpt lat="42.3989183" lon="12.8434083"><ele>384.0</ele><time>2026-04-04T07:35:17.043Z</time></trkpt><trkpt lat="42.3989083" lon="12.84352"><ele>384.0</ele><time>2026-04-04T07:35:18.041Z</time></trkpt><trkpt lat="42.398885" lon="12.8436267"><ele>384.0</ele><time>2026-04-04T07:35:19.042Z</time></trkpt><trkpt lat="42.3988383" lon="12.8437233"><ele>384.0</ele><time>2026-04-04T07:35:20.04Z</time></trkpt><trkpt lat="42.39878" lon="12.8438217"><ele>384.0</ele><time>2026-04-04T07:35:21.041Z</time></trkpt><trkpt lat="42.3987117" lon="12.843925"><ele>383.79999999999995</ele><time>2026-04-04T07:35:22.04Z</time></trkpt><trkpt lat="42.3986433" lon="12.844035"><ele>383.59999999999997</ele><time>2026-04-04T07:35:23.041Z</time></trkpt><trkpt lat="42.3985783" lon="12.8441417"><ele>383.4</ele><time>2026-04-04T07:35:24.041Z</time></trkpt><trkpt lat="42.3985167" lon="12.84423"><ele>383.2</ele><time>2026-04-04T07:35:25.041Z</time></trkpt><trkpt lat="42.3984517" lon="12.8443017"><ele>383.0</ele><time>2026-04-04T07:35:26.041Z</time></trkpt><trkpt lat="42.398375" lon="12.8443583"><ele>383.0</ele><time>2026-04-04T07:35:27.04Z</time></trkpt><trkpt lat="42.39829" lon="12.8444033"><ele>383.0</ele><time>2026-04-04T07:35:28.042Z</time></trkpt><trkpt lat="42.398195" lon="12.8444167"><ele>383.0</ele><time>2026-04-04T07:35:29.041Z</time></trkpt><trkpt lat="42.3980883" lon="12.8444117"><ele>383.0</ele><time>2026-04-04T07:35:30.042Z</time></trkpt><trkpt lat="42.39798" lon="12.8443817"><ele>383.0</ele><time>2026-04-04T07:35:31.044Z</time></trkpt><trkpt lat="42.3978683" lon="12.8443383"><ele>383.0</ele><time>2026-04-04T07:35:32.042Z</time></trkpt><trkpt lat="42.39775" lon="12.84429"><ele>383.0</ele><time>2026-04-04T07:35:33.041Z</time></trkpt><trkpt lat="42.3976283" lon="12.8442467"><ele>383.0</ele><time>2026-04-04T07:35:34.042Z</time></trkpt><trkpt lat="42.3975133" lon="12.8442033"><ele>383.0</ele><time>2026-04-04T07:35:35.04Z</time></trkpt><trkpt lat="42.397415" lon="12.8441667"><ele>383.0</ele><time>2026-04-04T07:35:36.041Z</time></trkpt><trkpt lat="42.3973367" lon="12.8441433"><ele>383.0</ele><time>2026-04-04T07:35:37.04Z</time></trkpt><trkpt lat="42.3972717" lon="12.8441367"><ele>383.0</ele><time>2026-04-04T07:35:38.04Z</time></trkpt><trkpt lat="42.39718" lon="12.8441633"><ele>383.0</ele><time>2026-04-04T07:35:40.043Z</time></trkpt><trkpt lat="42.3971283" lon="12.8442267"><ele>383.0</ele><time>2026-04-04T07:35:42.04Z</time></trkpt><trkpt lat="42.3971567" lon="12.8443267"><ele>383.0</ele><time>2026-04-04T07:35:46.041Z</time></trkpt><trkpt lat="42.3972533" lon="12.8443733"><ele>383.0</ele><time>2026-04-04T07:38:36.039Z</time></trkpt><trkpt lat="42.3973133" lon="12.8443017"><ele>383.0</ele><time>2026-04-04T07:38:39.041Z</time></trkpt><trkpt lat="42.3972633" lon="12.8441967"><ele>383.0</ele><time>2026-04-04T07:38:41.04Z</time></trkpt><trkpt lat="42.39719" lon="12.844095"><ele>383.0</ele><time>2026-04-04T07:38:43.041Z</time></trkpt><trkpt lat="42.3970717" lon="12.8439817"><ele>383.0</ele><time>2026-04-04T07:38:45.039Z</time></trkpt><trkpt lat="42.3969783" lon="12.84393"><ele>383.0</ele><time>2026-04-04T07:38:46.039Z</time></trkpt><trkpt lat="42.3968317" lon="12.843895"><ele>383.0</ele><time>2026-04-04T07:38:47.042Z</time></trkpt><trkpt lat="42.396665" lon="12.8438467"><ele>383.0</ele><time>2026-04-04T07:38:48.042Z</time></trkpt><trkpt lat="42.39648" lon="12.8437867"><ele>383.33333333333337</ele><time>2026-04-04T07:38:49.043Z</time></trkpt><trkpt lat="42.396285" lon="12.84372"><ele>383.6666666666667</ele><time>2026-04-04T07:38:50.044Z</time></trkpt><trkpt lat="42.3960783" lon="12.8436517"><ele>384.0</ele><time>2026-04-04T07:38:51.041Z</time></trkpt><trkpt lat="42.3958783" lon="12.8435833"><ele>384.0</ele><time>2026-04-04T07:38:52.043Z</time></trkpt><trkpt lat="42.3956867" lon="12.8435183"><ele>384.0</ele><time>2026-04-04T07:38:53.043Z</time></trkpt><trkpt lat="42.3955083" lon="12.84346"><ele>384.0</ele><time>2026-04-04T07:38:54.043Z</time></trkpt><trkpt lat="42.395335" lon="12.8434017"><ele>384.0</ele><time>2026-04-04T07:38:55.045Z</time></trkpt><trkpt lat="42.3951783" lon="12.8433417"><ele>384.0</ele><time>2026-04-04T07:38:56.041Z</time></trkpt><trkpt lat="42.3950283" lon="12.8432917"><ele>384.0</ele><time>2026-04-04T07:38:57.041Z</time></trkpt><trkpt lat="42.39489" lon="12.8432367"><ele>384.0</ele><time>2026-04-04T07:38:58.043Z</time></trkpt><trkpt lat="42.3947567" lon="12.8431817"><ele>384.0</ele><time>2026-04-04T07:38:59.045Z</time></trkpt><trkpt lat="42.3946267" lon="12.8431317"><ele>384.0</ele><time>2026-04-04T07:39:00.041Z</time></trkpt><trkpt lat="42.3944983" lon="12.843085"><ele>384.0</ele><time>2026-04-04T07:39:01.043Z</time></trkpt><trkpt lat="42.39437" lon="12.843045"><ele>383.75</ele><time>2026-04-04T07:39:02.042Z</time></trkpt><trkpt lat="42.3942467" lon="12.8430067"><ele>383.5</ele><time>2026-04-04T07:39:03.043Z</time></trkpt><trkpt lat="42.394125" lon="12.8429717"><ele>383.25</ele><time>2026-04-04T07:39:04.043Z</time></trkpt><trkpt lat="42.3940083" lon="12.8429433"><ele>383.0</ele><time>2026-04-04T07:39:05.042Z</time></trkpt><trkpt lat="42.3938967" lon="12.84292"><ele>383.2</ele><time>2026-04-04T07:39:06.042Z</time></trkpt><trkpt lat="42.3937917" lon="12.8428983"><ele>383.4</ele><time>2026-04-04T07:39:07.039Z</time></trkpt><trkpt lat="42.3936883" lon="12.8428833"><ele>383.59999999999997</ele><time>2026-04-04T07:39:08.043Z</time></trkpt><trkpt lat="42.3935883" lon="12.842875"><ele>383.79999999999995</ele><time>2026-04-04T07:39:09.044Z</time></trkpt><trkpt lat="42.393495" lon="12.8428667"><ele>384.0</ele><time>2026-04-04T07:39:10.042Z</time></trkpt><trkpt lat="42.3934067" lon="12.8428633"><ele>384.0</ele><time>2026-04-04T07:39:11.042Z</time></trkpt><trkpt lat="42.3933217" lon="12.84286"><ele>384.0</ele><time>2026-04-04T07:39:12.04Z</time></trkpt><trkpt lat="42.393245" lon="12.8428533"><ele>384.0</ele><time>2026-04-04T07:39:13.043Z</time></trkpt><trkpt lat="42.39318" lon="12.8428417"><ele>384.0</ele><time>2026-04-04T07:39:14.04Z</time></trkpt><trkpt lat="42.3930717" lon="12.8427883"><ele>384.0</ele><time>2026-04-04T07:39:16.043Z</time></trkpt><trkpt lat="42.3929733" lon="12.8427283"><ele>384.6</ele><time>2026-04-04T07:39:18.04Z</time></trkpt><trkpt lat="42.3928567" lon="12.8427167"><ele>385.2</ele><time>2026-04-04T07:39:20.04Z</time></trkpt><trkpt lat="42.3927533" lon="12.842825"><ele>385.8</ele><time>2026-04-04T07:39:22.04Z</time></trkpt><trkpt lat="42.3927367" lon="12.84294"><ele>386.40000000000003</ele><time>2026-04-04T07:39:23.04Z</time></trkpt><trkpt lat="42.392735" lon="12.8430717"><ele>387.0</ele><time>2026-04-04T07:39:24.041Z</time></trkpt><trkpt lat="42.3927133" lon="12.8431983"><ele>387.0</ele><time>2026-04-04T07:39:25.039Z</time></trkpt><trkpt lat="42.3926883" lon="12.8433367"><ele>387.0</ele><time>2026-04-04T07:39:26.041Z</time></trkpt><trkpt lat="42.3926667" lon="12.8434917"><ele>387.0</ele><time>2026-04-04T07:39:27.041Z</time></trkpt><trkpt lat="42.39266" lon="12.84366"><ele>387.0</ele><time>2026-04-04T07:39:28.039Z</time></trkpt><trkpt lat="42.3926583" lon="12.8438283"><ele>387.0</ele><time>2026-04-04T07:39:29.04Z</time></trkpt><trkpt lat="42.3926583" lon="12.8440117"><ele>387.0</ele><time>2026-04-04T07:39:30.04Z</time></trkpt><trkpt lat="42.3926733" lon="12.8442033"><ele>387.0</ele><time>2026-04-04T07:39:31.041Z</time></trkpt><trkpt lat="42.3926833" lon="12.8444067"><ele>387.0</ele><time>2026-04-04T07:39:32.041Z</time></trkpt><trkpt lat="42.39269" lon="12.8446217"><ele>387.0</ele><time>2026-04-04T07:39:33.039Z</time></trkpt><trkpt lat="42.3926967" lon="12.8448333"><ele>387.0</ele><time>2026-04-04T07:39:34.04Z</time></trkpt><trkpt lat="42.3927067" lon="12.8450483"><ele>387.0</ele><time>2026-04-04T07:39:35.04Z</time></trkpt><trkpt lat="42.3927217" lon="12.84527"><ele>387.0</ele><time>2026-04-04T07:39:36.04Z</time></trkpt><trkpt lat="42.3927417" lon="12.8454933"><ele>387.0</ele><time>2026-04-04T07:39:37.04Z</time></trkpt><trkpt lat="42.39278" lon="12.8457183"><ele>387.0</ele><time>2026-04-04T07:39:38.041Z</time></trkpt><trkpt lat="42.392815" lon="12.845945"><ele>386.66666666666663</ele><time>2026-04-04T07:39:39.04Z</time></trkpt><trkpt lat="42.3928567" lon="12.8461733"><ele>386.3333333333333</ele><time>2026-04-04T07:39:40.039Z</time></trkpt><trkpt lat="42.3929067" lon="12.846395"><ele>386.0</ele><time>2026-04-04T07:39:41.041Z</time></trkpt><trkpt lat="42.39296" lon="12.8466133"><ele>385.66666666666663</ele><time>2026-04-04T07:39:42.039Z</time></trkpt><trkpt lat="42.3930183" lon="12.84683"><ele>385.33333333333337</ele><time>2026-04-04T07:39:43.04Z</time></trkpt><trkpt lat="42.393085" lon="12.8470333"><ele>385.0</ele><time>2026-04-04T07:39:44.04Z</time></trkpt><trkpt lat="42.3931567" lon="12.8472283"><ele>385.0</ele><time>2026-04-04T07:39:45.04Z</time></trkpt><trkpt lat="42.393225" lon="12.8474133"><ele>385.0</ele><time>2026-04-04T07:39:46.04Z</time></trkpt><trkpt lat="42.393295" lon="12.8475933"><ele>385.0</ele><time>2026-04-04T07:39:47.043Z</time></trkpt><trkpt lat="42.3933467" lon="12.8477817"><ele>385.6666666666667</ele><time>2026-04-04T07:39:48.044Z</time></trkpt><trkpt lat="42.3933817" lon="12.847975"><ele>386.33333333333337</ele><time>2026-04-04T07:39:49.039Z</time></trkpt><trkpt lat="42.3934067" lon="12.84818"><ele>387.0</ele><time>2026-04-04T07:39:50.041Z</time></trkpt><trkpt lat="42.393425" lon="12.84839"><ele>387.0</ele><time>2026-04-04T07:39:51.042Z</time></trkpt><trkpt lat="42.3934283" lon="12.8485983"><ele>387.0</ele><time>2026-04-04T07:39:52.039Z</time></trkpt><trkpt lat="42.393425" lon="12.8488133"><ele>387.0</ele><time>2026-04-04T07:39:53.041Z</time></trkpt><trkpt lat="42.3934217" lon="12.8490233"><ele>387.0</ele><time>2026-04-04T07:39:54.041Z</time></trkpt><trkpt lat="42.3934183" lon="12.8492367"><ele>387.0</ele><time>2026-04-04T07:39:55.041Z</time></trkpt><trkpt lat="42.3934167" lon="12.8494517"><ele>387.0</ele><time>2026-04-04T07:39:56.04Z</time></trkpt><trkpt lat="42.393425" lon="12.84967"><ele>387.0</ele><time>2026-04-04T07:39:57.041Z</time></trkpt><trkpt lat="42.3934333" lon="12.8498833"><ele>387.0</ele><time>2026-04-04T07:39:58.043Z</time></trkpt><trkpt lat="42.3934533" lon="12.8500917"><ele>387.0</ele><time>2026-04-04T07:39:59.04Z</time></trkpt><trkpt lat="42.393495" lon="12.8502933"><ele>387.0</ele><time>2026-04-04T07:40:00.04Z</time></trkpt><trkpt lat="42.39355" lon="12.850495"><ele>387.0</ele><time>2026-04-04T07:40:01.044Z</time></trkpt><trkpt lat="42.3936083" lon="12.8506883"><ele>387.0</ele><time>2026-04-04T07:40:02.042Z</time></trkpt><trkpt lat="42.393665" lon="12.8508783"><ele>387.0</ele><time>2026-04-04T07:40:03.043Z</time></trkpt><trkpt lat="42.3937283" lon="12.8510683"><ele>387.0</ele><time>2026-04-04T07:40:04.043Z</time></trkpt><trkpt lat="42.39379" lon="12.8512567"><ele>387.0</ele><time>2026-04-04T07:40:05.043Z</time></trkpt><trkpt lat="42.3938483" lon="12.8514383"><ele>387.0</ele><time>2026-04-04T07:40:06.04Z</time></trkpt><trkpt lat="42.3939083" lon="12.8516133"><ele>387.0</ele><time>2026-04-04T07:40:07.042Z</time></trkpt><trkpt lat="42.3939667" lon="12.8517833"><ele>387.0</ele><time>2026-04-04T07:40:08.041Z</time></trkpt><trkpt lat="42.3940233" lon="12.85195"><ele>387.0</ele><time>2026-04-04T07:40:09.04Z</time></trkpt><trkpt lat="42.3940733" lon="12.85211"><ele>387.0</ele><time>2026-04-04T07:40:10.042Z</time></trkpt><trkpt lat="42.39412" lon="12.852265"><ele>387.0</ele><time>2026-04-04T07:40:11.042Z</time></trkpt><trkpt lat="42.3941583" lon="12.85241"><ele>387.0</ele><time>2026-04-04T07:40:12.043Z</time></trkpt><trkpt lat="42.39419" lon="12.852555"><ele>387.0</ele><time>2026-04-04T07:40:13.042Z</time></trkpt><trkpt lat="42.3942183" lon="12.8526967"><ele>387.0</ele><time>2026-04-04T07:40:14.041Z</time></trkpt><trkpt lat="42.3942433" lon="12.8528333"><ele>387.0</ele><time>2026-04-04T07:40:15.042Z</time></trkpt><trkpt lat="42.3942683" lon="12.85296"><ele>387.0</ele><time>2026-04-04T07:40:16.04Z</time></trkpt><trkpt lat="42.3942883" lon="12.85308"><ele>387.0</ele><time>2026-04-04T07:40:17.041Z</time></trkpt><trkpt lat="42.3943033" lon="12.85319"><ele>387.0</ele><time>2026-04-04T07:40:18.041Z</time></trkpt><trkpt lat="42.3943217" lon="12.853295"><ele>387.0</ele><time>2026-04-04T07:40:19.04Z</time></trkpt><trkpt lat="42.39434" lon="12.853395"><ele>387.0</ele><time>2026-04-04T07:40:20.041Z</time></trkpt><trkpt lat="42.3943617" lon="12.85349"><ele>387.0</ele><time>2026-04-04T07:40:21.041Z</time></trkpt><trkpt lat="42.3943733" lon="12.8535817"><ele>387.0</ele><time>2026-04-04T07:40:22.041Z</time></trkpt><trkpt lat="42.3943883" lon="12.8536767"><ele>387.0</ele><time>2026-04-04T07:40:23.041Z</time></trkpt><trkpt lat="42.3944117" lon="12.8537883"><ele>387.0</ele><time>2026-04-04T07:40:24.041Z</time></trkpt><trkpt lat="42.3944367" lon="12.853915"><ele>387.0</ele><time>2026-04-04T07:40:25.04Z</time></trkpt><trkpt lat="42.3944667" lon="12.8540567"><ele>387.0</ele><time>2026-04-04T07:40:26.041Z</time></trkpt><trkpt lat="42.3945" lon="12.85421"><ele>387.0</ele><time>2026-04-04T07:40:27.04Z</time></trkpt><trkpt lat="42.3945383" lon="12.85436"><ele>387.0</ele><time>2026-04-04T07:40:28.04Z</time></trkpt><trkpt lat="42.39458" lon="12.8545117"><ele>387.0</ele><time>2026-04-04T07:40:29.041Z</time></trkpt><trkpt lat="42.3946267" lon="12.8546667"><ele>387.0</ele><time>2026-04-04T07:40:30.041Z</time></trkpt><trkpt lat="42.3946833" lon="12.85482"><ele>387.0</ele><time>2026-04-04T07:40:31.041Z</time></trkpt><trkpt lat="42.3947417" lon="12.8549633"><ele>387.0</ele><time>2026-04-04T07:40:32.041Z</time></trkpt><trkpt lat="42.3947967" lon="12.8551033"><ele>387.0</ele><time>2026-04-04T07:40:33.041Z</time></trkpt><trkpt lat="42.3948483" lon="12.8552333"><ele>387.0</ele><time>2026-04-04T07:40:34.041Z</time></trkpt><trkpt lat="42.3949" lon="12.85536"><ele>387.0</ele><time>2026-04-04T07:40:35.04Z</time></trkpt><trkpt lat="42.3949483" lon="12.8554833"><ele>387.0</ele><time>2026-04-04T07:40:36.04Z</time></trkpt><trkpt lat="42.3949983" lon="12.8556"><ele>387.0</ele><time>2026-04-04T07:40:37.041Z</time></trkpt><trkpt lat="42.395045" lon="12.85571"><ele>387.0</ele><time>2026-04-04T07:40:38.041Z</time></trkpt><trkpt lat="42.3950833" lon="12.8558167"><ele>387.0</ele><time>2026-04-04T07:40:39.041Z</time></trkpt><trkpt lat="42.39511" lon="12.8559183"><ele>387.0</ele><time>2026-04-04T07:40:40.041Z</time></trkpt><trkpt lat="42.3951167" lon="12.85602"><ele>387.0</ele><time>2026-04-04T07:40:41.041Z</time></trkpt><trkpt lat="42.39511" lon="12.856115"><ele>387.0</ele><time>2026-04-04T07:40:42.042Z</time></trkpt><trkpt lat="42.3950833" lon="12.8562117"><ele>387.0</ele><time>2026-04-04T07:40:43.039Z</time></trkpt><trkpt lat="42.3950483" lon="12.856315"><ele>387.0</ele><time>2026-04-04T07:40:44.041Z</time></trkpt><trkpt lat="42.3950133" lon="12.8564267"><ele>387.0</ele><time>2026-04-04T07:40:45.044Z</time></trkpt><trkpt lat="42.394985" lon="12.8565567"><ele>387.0</ele><time>2026-04-04T07:40:46.041Z</time></trkpt><trkpt lat="42.3949583" lon="12.8567067"><ele>387.0</ele><time>2026-04-04T07:40:47.041Z</time></trkpt><trkpt lat="42.39493" lon="12.8568617"><ele>387.0</ele><time>2026-04-04T07:40:48.04Z</time></trkpt><trkpt lat="42.39491" lon="12.8570133"><ele>386.8</ele><time>2026-04-04T07:40:49.04Z</time></trkpt><trkpt lat="42.3948933" lon="12.857155"><ele>386.6</ele><time>2026-04-04T07:40:50.04Z</time></trkpt><trkpt lat="42.3948767" lon="12.8572967"><ele>386.40000000000003</ele><time>2026-04-04T07:40:51.041Z</time></trkpt><trkpt lat="42.39486" lon="12.85744"><ele>386.20000000000005</ele><time>2026-04-04T07:40:52.039Z</time></trkpt><trkpt lat="42.3948433" lon="12.85758"><ele>386.0</ele><time>2026-04-04T07:40:53.039Z</time></trkpt><trkpt lat="42.3948267" lon="12.8577167"><ele>386.4</ele><time>2026-04-04T07:40:54.042Z</time></trkpt><trkpt lat="42.3948133" lon="12.8578467"><ele>386.8</ele><time>2026-04-04T07:40:55.044Z</time></trkpt><trkpt lat="42.3948067" lon="12.8579733"><ele>387.2</ele><time>2026-04-04T07:40:56.041Z</time></trkpt><trkpt lat="42.3947967" lon="12.858105"><ele>387.59999999999997</ele><time>2026-04-04T07:40:57.041Z</time></trkpt><trkpt lat="42.39478" lon="12.8582433"><ele>388.0</ele><time>2026-04-04T07:40:58.04Z</time></trkpt><trkpt lat="42.3947617" lon="12.858385"><ele>388.59999999999997</ele><time>2026-04-04T07:40:59.04Z</time></trkpt><trkpt lat="42.39474" lon="12.8585317"><ele>389.2</ele><time>2026-04-04T07:41:00.039Z</time></trkpt><trkpt lat="42.3947233" lon="12.8586783"><ele>389.8</ele><time>2026-04-04T07:41:01.04Z</time></trkpt><trkpt lat="42.3947067" lon="12.858815"><ele>390.4</ele><time>2026-04-04T07:41:02.042Z</time></trkpt><trkpt lat="42.3946917" lon="12.858945"><ele>391.0</ele><time>2026-04-04T07:41:03.042Z</time></trkpt><trkpt lat="42.3946783" lon="12.8590667"><ele>391.00000000000006</ele><time>2026-04-04T07:41:04.04Z</time></trkpt><trkpt lat="42.3946717" lon="12.8591767"><ele>391.0</ele><time>2026-04-04T07:41:05.042Z</time></trkpt><trkpt lat="42.39466" lon="12.859275"><ele>391.0</ele><time>2026-04-04T07:41:06.043Z</time></trkpt><trkpt lat="42.3946483" lon="12.85936"><ele>391.0</ele><time>2026-04-04T07:41:07.043Z</time></trkpt><trkpt lat="42.394605" lon="12.8594933"><ele>391.00000000000006</ele><time>2026-04-04T07:41:09.041Z</time></trkpt><trkpt lat="42.3945167" lon="12.8596083"><ele>391.0</ele><time>2026-04-04T07:41:11.041Z</time></trkpt><trkpt lat="42.39445" lon="12.85964"><ele>391.0</ele><time>2026-04-04T07:41:12.042Z</time></trkpt><trkpt lat="42.3943617" lon="12.8596533"><ele>391.0</ele><time>2026-04-04T07:41:13.039Z</time></trkpt><trkpt lat="42.3942517" lon="12.85965"><ele>391.0</ele><time>2026-04-04T07:41:14.04Z</time></trkpt><trkpt lat="42.39413" lon="12.859635"><ele>391.0</ele><time>2026-04-04T07:41:15.042Z</time></trkpt><trkpt lat="42.3940117" lon="12.8596183"><ele>391.0</ele><time>2026-04-04T07:41:16.04Z</time></trkpt><trkpt lat="42.3938783" lon="12.8595883"><ele>390.25</ele><time>2026-04-04T07:41:17.04Z</time></trkpt><trkpt lat="42.39374" lon="12.8595583"><ele>389.5</ele><time>2026-04-04T07:41:18.04Z</time></trkpt><trkpt lat="42.3935983" lon="12.8595367"><ele>388.75</ele><time>2026-04-04T07:41:19.041Z</time></trkpt><trkpt lat="42.3934583" lon="12.859515"><ele>388.0</ele><time>2026-04-04T07:41:20.04Z</time></trkpt><trkpt lat="42.393315" lon="12.85949"><ele>388.0</ele><time>2026-04-04T07:41:21.041Z</time></trkpt><trkpt lat="42.39318" lon="12.8594717"><ele>388.0</ele><time>2026-04-04T07:41:22.04Z</time></trkpt><trkpt lat="42.3930467" lon="12.859455"><ele>388.0</ele><time>2026-04-04T07:41:23.04Z</time></trkpt><trkpt lat="42.3929183" lon="12.8594317"><ele>388.0</ele><time>2026-04-04T07:41:24.04Z</time></trkpt><trkpt lat="42.3927883" lon="12.8594083"><ele>388.0</ele><time>2026-04-04T07:41:25.04Z</time></trkpt><trkpt lat="42.392655" lon="12.859385"><ele>388.0</ele><time>2026-04-04T07:41:26.041Z</time></trkpt><trkpt lat="42.3925233" lon="12.8593583"><ele>388.0</ele><time>2026-04-04T07:41:27.041Z</time></trkpt><trkpt lat="42.3923983" lon="12.859335"><ele>388.0</ele><time>2026-04-04T07:41:28.039Z</time></trkpt><trkpt lat="42.392285" lon="12.85931"><ele>388.0</ele><time>2026-04-04T07:41:29.041Z</time></trkpt><trkpt lat="42.3921783" lon="12.859285"><ele>388.0</ele><time>2026-04-04T07:41:30.041Z</time></trkpt><trkpt lat="42.3920767" lon="12.8592617"><ele>388.0</ele><time>2026-04-04T07:41:31.04Z</time></trkpt><trkpt lat="42.3919833" lon="12.8592483"><ele>388.0</ele><time>2026-04-04T07:41:32.04Z</time></trkpt><trkpt lat="42.3918933" lon="12.8592383"><ele>388.0</ele><time>2026-04-04T07:41:33.041Z</time></trkpt><trkpt lat="42.3917983" lon="12.8592283"><ele>388.1666666666667</ele><time>2026-04-04T07:41:34.04Z</time></trkpt><trkpt lat="42.3917083" lon="12.8592217"><ele>388.33333333333337</ele><time>2026-04-04T07:41:35.044Z</time></trkpt><trkpt lat="42.3916183" lon="12.8592233"><ele>388.5</ele><time>2026-04-04T07:41:36.044Z</time></trkpt><trkpt lat="42.3915333" lon="12.8592317"><ele>388.66666666666663</ele><time>2026-04-04T07:41:37.041Z</time></trkpt><trkpt lat="42.391455" lon="12.8592517"><ele>388.8333333333333</ele><time>2026-04-04T07:41:38.041Z</time></trkpt><trkpt lat="42.3913867" lon="12.8592733"><ele>389.0</ele><time>2026-04-04T07:41:39.044Z</time></trkpt><trkpt lat="42.3913183" lon="12.859295"><ele>389.0</ele><time>2026-04-04T07:41:40.04Z</time></trkpt><trkpt lat="42.391215" lon="12.8593217"><ele>389.0</ele><time>2026-04-04T07:41:42.044Z</time></trkpt><trkpt lat="42.3911333" lon="12.8593433"><ele>389.0</ele><time>2026-04-04T07:41:46.04Z</time></trkpt><trkpt lat="42.3910217" lon="12.8593183"><ele>389.0</ele><time>2026-04-04T07:41:48.039Z</time></trkpt><trkpt lat="42.3909483" lon="12.859305"><ele>389.0</ele><time>2026-04-04T07:41:49.04Z</time></trkpt><trkpt lat="42.390865" lon="12.8592817"><ele>389.75</ele><time>2026-04-04T07:41:50.039Z</time></trkpt><trkpt lat="42.3907717" lon="12.8592467"><ele>390.5</ele><time>2026-04-04T07:41:51.041Z</time></trkpt><trkpt lat="42.3906617" lon="12.8592067"><ele>391.25</ele><time>2026-04-04T07:41:52.039Z</time></trkpt><trkpt lat="42.3905433" lon="12.8591783"><ele>392.0</ele><time>2026-04-04T07:41:53.041Z</time></trkpt><trkpt lat="42.3904167" lon="12.8591567"><ele>392.0</ele><time>2026-04-04T07:41:54.041Z</time></trkpt><trkpt lat="42.390285" lon="12.85914"><ele>392.0</ele><time>2026-04-04T07:41:55.039Z</time></trkpt><trkpt lat="42.390155" lon="12.8591183"><ele>392.0</ele><time>2026-04-04T07:41:56.04Z</time></trkpt><trkpt lat="42.39001" lon="12.8590983"><ele>392.0</ele><time>2026-04-04T07:41:57.041Z</time></trkpt><trkpt lat="42.3898567" lon="12.8590783"><ele>392.0</ele><time>2026-04-04T07:41:58.04Z</time></trkpt><trkpt lat="42.3897083" lon="12.8590433"><ele>392.0</ele><time>2026-04-04T07:41:59.039Z</time></trkpt><trkpt lat="42.38956" lon="12.8590083"><ele>392.0</ele><time>2026-04-04T07:42:00.041Z</time></trkpt><trkpt lat="42.38941" lon="12.8589767"><ele>391.3333333333333</ele><time>2026-04-04T07:42:01.041Z</time></trkpt><trkpt lat="42.3892533" lon="12.8589533"><ele>390.66666666666663</ele><time>2026-04-04T07:42:02.041Z</time></trkpt><trkpt lat="42.3890933" lon="12.85893"><ele>390.0</ele><time>2026-04-04T07:42:03.04Z</time></trkpt><trkpt lat="42.38893" lon="12.8589033"><ele>390.0</ele><time>2026-04-04T07:42:04.039Z</time></trkpt><trkpt lat="42.3887683" lon="12.85888"><ele>390.0</ele><time>2026-04-04T07:42:05.041Z</time></trkpt><trkpt lat="42.388605" lon="12.8588517"><ele>390.0</ele><time>2026-04-04T07:42:06.04Z</time></trkpt><trkpt lat="42.388445" lon="12.858825"><ele>390.0</ele><time>2026-04-04T07:42:07.041Z</time></trkpt><trkpt lat="42.38829" lon="12.8587967"><ele>390.0</ele><time>2026-04-04T07:42:08.041Z</time></trkpt><trkpt lat="42.38815" lon="12.8587667"><ele>390.0</ele><time>2026-04-04T07:42:09.041Z</time></trkpt><trkpt lat="42.3880067" lon="12.85874"><ele>390.0</ele><time>2026-04-04T07:42:10.04Z</time></trkpt><trkpt lat="42.387865" lon="12.8587167"><ele>390.0</ele><time>2026-04-04T07:42:11.04Z</time></trkpt><trkpt lat="42.38773" lon="12.8586983"><ele>390.0</ele><time>2026-04-04T07:42:12.04Z</time></trkpt><trkpt lat="42.3875917" lon="12.8586783"><ele>390.0</ele><time>2026-04-04T07:42:13.039Z</time></trkpt><trkpt lat="42.3874517" lon="12.8586583"><ele>390.0</ele><time>2026-04-04T07:42:14.039Z</time></trkpt><trkpt lat="42.3873067" lon="12.8586317"><ele>390.0</ele><time>2026-04-04T07:42:15.041Z</time></trkpt><trkpt lat="42.387165" lon="12.8586083"><ele>390.0</ele><time>2026-04-04T07:42:16.039Z</time></trkpt><trkpt lat="42.387025" lon="12.8585917"><ele>390.0</ele><time>2026-04-04T07:42:17.04Z</time></trkpt><trkpt lat="42.386885" lon="12.8585717"><ele>390.0</ele><time>2026-04-04T07:42:18.042Z</time></trkpt><trkpt lat="42.386745" lon="12.858555"><ele>390.0</ele><time>2026-04-04T07:42:19.041Z</time></trkpt><trkpt lat="42.386605" lon="12.8585367"><ele>390.0</ele><time>2026-04-04T07:42:20.039Z</time></trkpt><trkpt lat="42.3864533" lon="12.8585167"><ele>390.0</ele><time>2026-04-04T07:42:21.042Z</time></trkpt><trkpt lat="42.386305" lon="12.8585"><ele>390.0</ele><time>2026-04-04T07:42:22.039Z</time></trkpt><trkpt lat="42.3861483" lon="12.858485"><ele>390.33333333333337</ele><time>2026-04-04T07:42:23.039Z</time></trkpt><trkpt lat="42.3859917" lon="12.8584667"><ele>390.6666666666667</ele><time>2026-04-04T07:42:24.041Z</time></trkpt><trkpt lat="42.3858267" lon="12.858435"><ele>391.0</ele><time>2026-04-04T07:42:25.041Z</time></trkpt><trkpt lat="42.385645" lon="12.8583867"><ele>391.33333333333337</ele><time>2026-04-04T07:42:26.041Z</time></trkpt><trkpt lat="42.3854517" lon="12.858345"><ele>391.66666666666663</ele><time>2026-04-04T07:42:27.041Z</time></trkpt><trkpt lat="42.3852533" lon="12.8583017"><ele>392.0</ele><time>2026-04-04T07:42:28.039Z</time></trkpt><trkpt lat="42.385055" lon="12.8582633"><ele>392.0</ele><time>2026-04-04T07:42:29.044Z</time></trkpt><trkpt lat="42.3848567" lon="12.8582267"><ele>392.0</ele><time>2026-04-04T07:42:30.04Z</time></trkpt><trkpt lat="42.3846533" lon="12.858195"><ele>392.0</ele><time>2026-04-04T07:42:31.04Z</time></trkpt><trkpt lat="42.38445" lon="12.858165"><ele>394.3333333333333</ele><time>2026-04-04T07:42:32.04Z</time></trkpt><trkpt lat="42.3842433" lon="12.8581417"><ele>396.66666666666663</ele><time>2026-04-04T07:42:33.041Z</time></trkpt><trkpt lat="42.38404" lon="12.8581217"><ele>399.0</ele><time>2026-04-04T07:42:34.04Z</time></trkpt><trkpt lat="42.3838333" lon="12.8581283"><ele>401.33333333333337</ele><time>2026-04-04T07:42:35.04Z</time></trkpt><trkpt lat="42.3836233" lon="12.8581633"><ele>403.6666666666667</ele><time>2026-04-04T07:42:36.04Z</time></trkpt><trkpt lat="42.3834167" lon="12.8582433"><ele>406.0</ele><time>2026-04-04T07:42:37.04Z</time></trkpt><trkpt lat="42.3832083" lon="12.8583467"><ele>402.33333333333337</ele><time>2026-04-04T07:42:38.04Z</time></trkpt><trkpt lat="42.3830033" lon="12.8584733"><ele>398.66666666666663</ele><time>2026-04-04T07:42:39.041Z</time></trkpt><trkpt lat="42.3828067" lon="12.858585"><ele>395.0</ele><time>2026-04-04T07:42:40.04Z</time></trkpt><trkpt lat="42.382615" lon="12.858705"><ele>395.0</ele><time>2026-04-04T07:42:41.042Z</time></trkpt><trkpt lat="42.3824317" lon="12.8588133"><ele>395.0</ele><time>2026-04-04T07:42:42.041Z</time></trkpt><trkpt lat="42.3822583" lon="12.8589217"><ele>395.0</ele><time>2026-04-04T07:42:43.041Z</time></trkpt><trkpt lat="42.3820783" lon="12.8590283"><ele>397.66666666666663</ele><time>2026-04-04T07:42:44.04Z</time></trkpt><trkpt lat="42.3818933" lon="12.859105"><ele>400.33333333333337</ele><time>2026-04-04T07:42:45.041Z</time></trkpt><trkpt lat="42.381715" lon="12.8591717"><ele>403.0</ele><time>2026-04-04T07:42:46.04Z</time></trkpt><trkpt lat="42.3815217" lon="12.8592083"><ele>402.6666666666667</ele><time>2026-04-04T07:42:47.04Z</time></trkpt><trkpt lat="42.3813217" lon="12.85924"><ele>402.33333333333337</ele><time>2026-04-04T07:42:48.04Z</time></trkpt><trkpt lat="42.3811317" lon="12.8592617"><ele>402.0</ele><time>2026-04-04T07:42:49.042Z</time></trkpt><trkpt lat="42.38094" lon="12.8592567"><ele>402.0</ele><time>2026-04-04T07:42:50.042Z</time></trkpt><trkpt lat="42.38075" lon="12.85923"><ele>402.0</ele><time>2026-04-04T07:42:51.042Z</time></trkpt><trkpt lat="42.3805633" lon="12.8591883"><ele>402.0</ele><time>2026-04-04T07:42:52.041Z</time></trkpt><trkpt lat="42.380385" lon="12.8591083"><ele>400.0</ele><time>2026-04-04T07:42:53.041Z</time></trkpt><trkpt lat="42.3801917" lon="12.8590317"><ele>398.0</ele><time>2026-04-04T07:42:54.041Z</time></trkpt><trkpt lat="42.3800083" lon="12.85895"><ele>396.0</ele><time>2026-04-04T07:42:55.041Z</time></trkpt><trkpt lat="42.3798217" lon="12.858875"><ele>395.33333333333337</ele><time>2026-04-04T07:42:56.041Z</time></trkpt><trkpt lat="42.3796217" lon="12.858815"><ele>394.6666666666667</ele><time>2026-04-04T07:42:57.042Z</time></trkpt><trkpt lat="42.37941" lon="12.8587933"><ele>394.0</ele><time>2026-04-04T07:42:58.04Z</time></trkpt><trkpt lat="42.3792033" lon="12.8587767"><ele>394.0</ele><time>2026-04-04T07:42:59.041Z</time></trkpt><trkpt lat="42.378995" lon="12.85876"><ele>394.0</ele><time>2026-04-04T07:43:00.041Z</time></trkpt><trkpt lat="42.3787867" lon="12.8587333"><ele>394.0</ele><time>2026-04-04T07:43:01.041Z</time></trkpt><trkpt lat="42.3785733" lon="12.8587133"><ele>394.0</ele><time>2026-04-04T07:43:02.043Z</time></trkpt><trkpt lat="42.3783567" lon="12.858705"><ele>394.0</ele><time>2026-04-04T07:43:03.041Z</time></trkpt><trkpt lat="42.3781317" lon="12.8586683"><ele>394.0</ele><time>2026-04-04T07:43:04.041Z</time></trkpt><trkpt lat="42.3778983" lon="12.8586667"><ele>394.0</ele><time>2026-04-04T07:43:05.041Z</time></trkpt><trkpt lat="42.37767" lon="12.8586833"><ele>394.0</ele><time>2026-04-04T07:43:06.041Z</time></trkpt><trkpt lat="42.3774483" lon="12.8587217"><ele>394.0</ele><time>2026-04-04T07:43:07.042Z</time></trkpt><trkpt lat="42.3772267" lon="12.858755"><ele>394.0</ele><time>2026-04-04T07:43:08.04Z</time></trkpt><trkpt lat="42.377005" lon="12.8587917"><ele>394.0</ele><time>2026-04-04T07:43:09.042Z</time></trkpt><trkpt lat="42.3767817" lon="12.8588283"><ele>395.0</ele><time>2026-04-04T07:43:10.041Z</time></trkpt><trkpt lat="42.3765567" lon="12.8588783"><ele>396.0</ele><time>2026-04-04T07:43:11.041Z</time></trkpt><trkpt lat="42.3763383" lon="12.8589133"><ele>397.0</ele><time>2026-04-04T07:43:12.04Z</time></trkpt><trkpt lat="42.3761233" lon="12.8589517"><ele>397.0</ele><time>2026-04-04T07:43:13.041Z</time></trkpt><trkpt lat="42.3759117" lon="12.8590083"><ele>397.0</ele><time>2026-04-04T07:43:14.042Z</time></trkpt><trkpt lat="42.3757" lon="12.85907"><ele>397.0</ele><time>2026-04-04T07:43:15.04Z</time></trkpt><trkpt lat="42.3754867" lon="12.85913"><ele>398.0</ele><time>2026-04-04T07:43:16.04Z</time></trkpt><trkpt lat="42.37527" lon="12.8592"><ele>399.0</ele><time>2026-04-04T07:43:17.041Z</time></trkpt><trkpt lat="42.375055" lon="12.8592683"><ele>400.0</ele><time>2026-04-04T07:43:18.041Z</time></trkpt><trkpt lat="42.37484" lon="12.85933"><ele>398.0</ele><time>2026-04-04T07:43:19.041Z</time></trkpt><trkpt lat="42.3746267" lon="12.859395"><ele>396.0</ele><time>2026-04-04T07:43:20.041Z</time></trkpt><trkpt lat="42.37441" lon="12.8594667"><ele>394.0</ele><time>2026-04-04T07:43:21.04Z</time></trkpt><trkpt lat="42.3741933" lon="12.8595333"><ele>394.0</ele><time>2026-04-04T07:43:22.039Z</time></trkpt><trkpt lat="42.3739733" lon="12.8595917"><ele>394.0</ele><time>2026-04-04T07:43:23.041Z</time></trkpt><trkpt lat="42.3737583" lon="12.85965"><ele>394.0</ele><time>2026-04-04T07:43:24.041Z</time></trkpt><trkpt lat="42.3735467" lon="12.8596933"><ele>395.0</ele><time>2026-04-04T07:43:25.04Z</time></trkpt><trkpt lat="42.3733383" lon="12.8597233"><ele>396.0</ele><time>2026-04-04T07:43:26.042Z</time></trkpt><trkpt lat="42.3731283" lon="12.85973"><ele>397.0</ele><time>2026-04-04T07:43:27.041Z</time></trkpt><trkpt lat="42.372915" lon="12.8597283"><ele>397.0</ele><time>2026-04-04T07:43:28.041Z</time></trkpt><trkpt lat="42.372695" lon="12.85974"><ele>397.0</ele><time>2026-04-04T07:43:29.041Z</time></trkpt><trkpt lat="42.3724767" lon="12.8597633"><ele>397.0</ele><time>2026-04-04T07:43:30.041Z</time></trkpt><trkpt lat="42.3722667" lon="12.8598033"><ele>397.6666666666667</ele><time>2026-04-04T07:43:31.041Z</time></trkpt><trkpt lat="42.3720517" lon="12.85987"><ele>398.33333333333337</ele><time>2026-04-04T07:43:32.043Z</time></trkpt><trkpt lat="42.37184" lon="12.859915"><ele>399.0</ele><time>2026-04-04T07:43:33.041Z</time></trkpt><trkpt lat="42.371615" lon="12.859985"><ele>399.0</ele><time>2026-04-04T07:43:34.041Z</time></trkpt><trkpt lat="42.371395" lon="12.8600533"><ele>399.0</ele><time>2026-04-04T07:43:35.042Z</time></trkpt><trkpt lat="42.37118" lon="12.86011"><ele>399.0</ele><time>2026-04-04T07:43:36.04Z</time></trkpt><trkpt lat="42.3709683" lon="12.860155"><ele>398.0</ele><time>2026-04-04T07:43:37.041Z</time></trkpt><trkpt lat="42.370755" lon="12.86019"><ele>397.0</ele><time>2026-04-04T07:43:38.04Z</time></trkpt><trkpt lat="42.3705467" lon="12.86023"><ele>396.0</ele><time>2026-04-04T07:43:39.041Z</time></trkpt><trkpt lat="42.37034" lon="12.8602717"><ele>396.0</ele><time>2026-04-04T07:43:40.041Z</time></trkpt><trkpt lat="42.37013" lon="12.860335"><ele>396.0</ele><time>2026-04-04T07:43:41.041Z</time></trkpt><trkpt lat="42.3699283" lon="12.8604267"><ele>396.0</ele><time>2026-04-04T07:43:42.041Z</time></trkpt><trkpt lat="42.3697417" lon="12.8605317"><ele>398.33333333333337</ele><time>2026-04-04T07:43:43.042Z</time></trkpt><trkpt lat="42.36955" lon="12.8606317"><ele>400.6666666666667</ele><time>2026-04-04T07:43:44.042Z</time></trkpt><trkpt lat="42.3693617" lon="12.8607333"><ele>403.0</ele><time>2026-04-04T07:43:45.041Z</time></trkpt><trkpt lat="42.369185" lon="12.8608233"><ele>403.0</ele><time>2026-04-04T07:43:46.04Z</time></trkpt><trkpt lat="42.3690117" lon="12.8609083"><ele>403.0</ele><time>2026-04-04T07:43:47.04Z</time></trkpt><trkpt lat="42.3688417" lon="12.86097"><ele>403.0</ele><time>2026-04-04T07:43:48.039Z</time></trkpt><trkpt lat="42.3686767" lon="12.8610033"><ele>400.0</ele><time>2026-04-04T07:43:49.041Z</time></trkpt><trkpt lat="42.368505" lon="12.861005"><ele>397.0</ele><time>2026-04-04T07:43:50.041Z</time></trkpt><trkpt lat="42.3683267" lon="12.8610033"><ele>394.0</ele><time>2026-04-04T07:43:51.043Z</time></trkpt><trkpt lat="42.3681467" lon="12.8609983"><ele>394.0</ele><time>2026-04-04T07:43:52.039Z</time></trkpt><trkpt lat="42.367955" lon="12.860985"><ele>394.0</ele><time>2026-04-04T07:43:53.041Z</time></trkpt><trkpt lat="42.3677617" lon="12.86097"><ele>394.0</ele><time>2026-04-04T07:43:54.043Z</time></trkpt><trkpt lat="42.3675617" lon="12.860945"><ele>395.6666666666667</ele><time>2026-04-04T07:43:55.042Z</time></trkpt><trkpt lat="42.3673667" lon="12.8609317"><ele>397.33333333333337</ele><time>2026-04-04T07:43:56.04Z</time></trkpt><trkpt lat="42.3671683" lon="12.860915"><ele>399.0</ele><time>2026-04-04T07:43:57.041Z</time></trkpt><trkpt lat="42.3669683" lon="12.8609"><ele>399.0</ele><time>2026-04-04T07:43:58.04Z</time></trkpt><trkpt lat="42.36677" lon="12.8608733"><ele>399.0</ele><time>2026-04-04T07:43:59.041Z</time></trkpt><trkpt lat="42.366575" lon="12.860835"><ele>399.0</ele><time>2026-04-04T07:44:00.041Z</time></trkpt><trkpt lat="42.36638" lon="12.8607933"><ele>398.66666666666663</ele><time>2026-04-04T07:44:01.043Z</time></trkpt><trkpt lat="42.3661867" lon="12.860745"><ele>398.3333333333333</ele><time>2026-04-04T07:44:02.044Z</time></trkpt><trkpt lat="42.366" lon="12.8606967"><ele>398.0</ele><time>2026-04-04T07:44:03.045Z</time></trkpt><trkpt lat="42.365825" lon="12.86065"><ele>398.0</ele><time>2026-04-04T07:44:04.043Z</time></trkpt><trkpt lat="42.36566" lon="12.8605983"><ele>398.0</ele><time>2026-04-04T07:44:05.04Z</time></trkpt><trkpt lat="42.3654967" lon="12.8605433"><ele>398.0</ele><time>2026-04-04T07:44:06.044Z</time></trkpt><trkpt lat="42.36533" lon="12.8604667"><ele>397.3333333333333</ele><time>2026-04-04T07:44:07.04Z</time></trkpt><trkpt lat="42.3651667" lon="12.8603667"><ele>396.66666666666663</ele><time>2026-04-04T07:44:08.039Z</time></trkpt><trkpt lat="42.3650117" lon="12.8602433"><ele>396.0</ele><time>2026-04-04T07:44:09.04Z</time></trkpt><trkpt lat="42.3648633" lon="12.8601133"><ele>396.0</ele><time>2026-04-04T07:44:10.04Z</time></trkpt><trkpt lat="42.3647267" lon="12.8599883"><ele>396.0</ele><time>2026-04-04T07:44:11.042Z</time></trkpt><trkpt lat="42.364605" lon="12.8598633"><ele>396.0</ele><time>2026-04-04T07:44:12.041Z</time></trkpt><trkpt lat="42.3644833" lon="12.8597467"><ele>396.0</ele><time>2026-04-04T07:44:13.041Z</time></trkpt><trkpt lat="42.3643583" lon="12.8596217"><ele>396.0</ele><time>2026-04-04T07:44:14.04Z</time></trkpt><trkpt lat="42.364235" lon="12.8594917"><ele>396.0</ele><time>2026-04-04T07:44:15.041Z</time></trkpt><trkpt lat="42.3641017" lon="12.8593733"><ele>397.0</ele><time>2026-04-04T07:44:16.041Z</time></trkpt><trkpt lat="42.3639517" lon="12.8592783"><ele>398.0</ele><time>2026-04-04T07:44:17.042Z</time></trkpt><trkpt lat="42.3637933" lon="12.8592"><ele>399.0</ele><time>2026-04-04T07:44:18.041Z</time></trkpt><trkpt lat="42.3636217" lon="12.8591467"><ele>399.0</ele><time>2026-04-04T07:44:19.041Z</time></trkpt><trkpt lat="42.3634383" lon="12.8591283"><ele>399.0</ele><time>2026-04-04T07:44:20.041Z</time></trkpt><trkpt lat="42.3632517" lon="12.85913"><ele>399.0</ele><time>2026-04-04T07:44:21.041Z</time></trkpt><trkpt lat="42.36306" lon="12.8591567"><ele>399.66666666666663</ele><time>2026-04-04T07:44:22.04Z</time></trkpt><trkpt lat="42.362865" lon="12.859205"><ele>400.3333333333333</ele><time>2026-04-04T07:44:23.041Z</time></trkpt><trkpt lat="42.3626733" lon="12.8592533"><ele>401.0</ele><time>2026-04-04T07:44:24.041Z</time></trkpt><trkpt lat="42.3624833" lon="12.8592833"><ele>401.66666666666663</ele><time>2026-04-04T07:44:25.04Z</time></trkpt><trkpt lat="42.3622933" lon="12.85929"><ele>402.33333333333337</ele><time>2026-04-04T07:44:26.041Z</time></trkpt><trkpt lat="42.3620967" lon="12.8592733"><ele>403.0</ele><time>2026-04-04T07:44:27.042Z</time></trkpt><trkpt lat="42.3619017" lon="12.8592467"><ele>403.0</ele><time>2026-04-04T07:44:28.044Z</time></trkpt><trkpt lat="42.3617117" lon="12.859195"><ele>403.0</ele><time>2026-04-04T07:44:29.043Z</time></trkpt><trkpt lat="42.36153" lon="12.859125"><ele>403.0</ele><time>2026-04-04T07:44:30.04Z</time></trkpt><trkpt lat="42.3613583" lon="12.85904"><ele>401.6666666666667</ele><time>2026-04-04T07:44:31.04Z</time></trkpt><trkpt lat="42.3612033" lon="12.858935"><ele>400.33333333333337</ele><time>2026-04-04T07:44:32.041Z</time></trkpt><trkpt lat="42.3610567" lon="12.8588133"><ele>399.0</ele><time>2026-04-04T07:44:33.041Z</time></trkpt><trkpt lat="42.36092" lon="12.858665"><ele>399.0</ele><time>2026-04-04T07:44:34.04Z</time></trkpt><trkpt lat="42.3607867" lon="12.8585067"><ele>399.0</ele><time>2026-04-04T07:44:35.041Z</time></trkpt><trkpt lat="42.3606467" lon="12.85834"><ele>399.0</ele><time>2026-04-04T07:44:36.041Z</time></trkpt><trkpt lat="42.3605" lon="12.858175"><ele>399.0</ele><time>2026-04-04T07:44:37.041Z</time></trkpt><trkpt lat="42.360345" lon="12.85802"><ele>399.0</ele><time>2026-04-04T07:44:38.041Z</time></trkpt><trkpt lat="42.3601767" lon="12.8578817"><ele>399.0</ele><time>2026-04-04T07:44:39.041Z</time></trkpt><trkpt lat="42.3599967" lon="12.8577617"><ele>399.0</ele><time>2026-04-04T07:44:40.039Z</time></trkpt><trkpt lat="42.3598083" lon="12.857665"><ele>399.0</ele><time>2026-04-04T07:44:41.042Z</time></trkpt><trkpt lat="42.3596167" lon="12.8575783"><ele>399.0</ele><time>2026-04-04T07:44:42.041Z</time></trkpt><trkpt lat="42.3594233" lon="12.8575033"><ele>399.0</ele><time>2026-04-04T07:44:43.04Z</time></trkpt><trkpt lat="42.3592267" lon="12.8574383"><ele>399.0</ele><time>2026-04-04T07:44:44.041Z</time></trkpt><trkpt lat="42.3590267" lon="12.8573767"><ele>399.0</ele><time>2026-04-04T07:44:45.042Z</time></trkpt><trkpt lat="42.3588233" lon="12.85732"><ele>399.0</ele><time>2026-04-04T07:44:46.042Z</time></trkpt><trkpt lat="42.35862" lon="12.8572617"><ele>399.0</ele><time>2026-04-04T07:44:47.04Z</time></trkpt><trkpt lat="42.358415" lon="12.8572033"><ele>399.0</ele><time>2026-04-04T07:44:48.041Z</time></trkpt><trkpt lat="42.3582083" lon="12.85715"><ele>398.66666666666663</ele><time>2026-04-04T07:44:49.04Z</time></trkpt><trkpt lat="42.3580033" lon="12.8570983"><ele>398.3333333333333</ele><time>2026-04-04T07:44:50.042Z</time></trkpt><trkpt lat="42.3578" lon="12.8570467"><ele>398.0</ele><time>2026-04-04T07:44:51.04Z</time></trkpt><trkpt lat="42.3575967" lon="12.857005"><ele>398.0</ele><time>2026-04-04T07:44:52.042Z</time></trkpt><trkpt lat="42.3573967" lon="12.8569767"><ele>398.0</ele><time>2026-04-04T07:44:53.04Z</time></trkpt><trkpt lat="42.3572033" lon="12.8569383"><ele>398.0</ele><time>2026-04-04T07:44:54.041Z</time></trkpt><trkpt lat="42.3570083" lon="12.8569183"><ele>398.3333333333333</ele><time>2026-04-04T07:44:55.041Z</time></trkpt><trkpt lat="42.35681" lon="12.85692"><ele>398.66666666666663</ele><time>2026-04-04T07:44:56.041Z</time></trkpt><trkpt lat="42.35661" lon="12.8569333"><ele>399.0</ele><time>2026-04-04T07:44:57.041Z</time></trkpt><trkpt lat="42.3564183" lon="12.8569317"><ele>399.66666666666663</ele><time>2026-04-04T07:44:58.132Z</time></trkpt><trkpt lat="42.3562317" lon="12.8569117"><ele>400.3333333333333</ele><time>2026-04-04T07:44:59.042Z</time></trkpt><trkpt lat="42.356055" lon="12.8568633"><ele>401.0</ele><time>2026-04-04T07:45:00.04Z</time></trkpt><trkpt lat="42.3558783" lon="12.8568217"><ele>402.66666666666663</ele><time>2026-04-04T07:45:01.04Z</time></trkpt><trkpt lat="42.35571" lon="12.85678"><ele>404.33333333333337</ele><time>2026-04-04T07:45:02.04Z</time></trkpt><trkpt lat="42.3555383" lon="12.8567683"><ele>406.0</ele><time>2026-04-04T07:45:03.041Z</time></trkpt><trkpt lat="42.355365" lon="12.8567683"><ele>406.33333333333337</ele><time>2026-04-04T07:45:04.04Z</time></trkpt><trkpt lat="42.3551917" lon="12.8567417"><ele>406.66666666666663</ele><time>2026-04-04T07:45:05.043Z</time></trkpt><trkpt lat="42.3550133" lon="12.85669"><ele>407.0</ele><time>2026-04-04T07:45:06.041Z</time></trkpt><trkpt lat="42.35483" lon="12.8566117"><ele>406.66666666666663</ele><time>2026-04-04T07:45:07.04Z</time></trkpt><trkpt lat="42.35465" lon="12.8565117"><ele>406.33333333333337</ele><time>2026-04-04T07:45:08.04Z</time></trkpt><trkpt lat="42.3544667" lon="12.856415"><ele>406.0</ele><time>2026-04-04T07:45:09.042Z</time></trkpt><trkpt lat="42.3542883" lon="12.85631"><ele>406.0</ele><time>2026-04-04T07:45:10.044Z</time></trkpt><trkpt lat="42.3541133" lon="12.8562033"><ele>406.0</ele><time>2026-04-04T07:45:11.042Z</time></trkpt><trkpt lat="42.35395" lon="12.8560717"><ele>406.0</ele><time>2026-04-04T07:45:12.041Z</time></trkpt><trkpt lat="42.353795" lon="12.8559283"><ele>406.6666666666667</ele><time>2026-04-04T07:45:13.041Z</time></trkpt><trkpt lat="42.3536417" lon="12.8557833"><ele>407.33333333333337</ele><time>2026-04-04T07:45:14.04Z</time></trkpt><trkpt lat="42.3534917" lon="12.85565"><ele>408.0</ele><time>2026-04-04T07:45:15.042Z</time></trkpt><trkpt lat="42.3533383" lon="12.8555383"><ele>408.0</ele><time>2026-04-04T07:45:16.041Z</time></trkpt><trkpt lat="42.3531867" lon="12.85544"><ele>408.0</ele><time>2026-04-04T07:45:17.04Z</time></trkpt><trkpt lat="42.3530383" lon="12.855355"><ele>408.0</ele><time>2026-04-04T07:45:18.04Z</time></trkpt><trkpt lat="42.3528917" lon="12.8552683"><ele>408.0</ele><time>2026-04-04T07:45:19.041Z</time></trkpt><trkpt lat="42.3527567" lon="12.85516"><ele>408.0</ele><time>2026-04-04T07:45:20.046Z</time></trkpt><trkpt lat="42.35263" lon="12.8550283"><ele>408.0</ele><time>2026-04-04T07:45:21.04Z</time></trkpt><trkpt lat="42.352515" lon="12.8548633"><ele>408.0</ele><time>2026-04-04T07:45:22.041Z</time></trkpt><trkpt lat="42.3524067" lon="12.854685"><ele>408.0</ele><time>2026-04-04T07:45:23.042Z</time></trkpt><trkpt lat="42.3523017" lon="12.8544983"><ele>408.0</ele><time>2026-04-04T07:45:24.041Z</time></trkpt><trkpt lat="42.3522" lon="12.8543183"><ele>407.5</ele><time>2026-04-04T07:45:25.041Z</time></trkpt><trkpt lat="42.3521033" lon="12.85415"><ele>407.0</ele><time>2026-04-04T07:45:26.041Z</time></trkpt><trkpt lat="42.3520133" lon="12.85399"><ele>406.5</ele><time>2026-04-04T07:45:27.041Z</time></trkpt><trkpt lat="42.351925" lon="12.853845"><ele>406.0</ele><time>2026-04-04T07:45:28.04Z</time></trkpt><trkpt lat="42.351845" lon="12.8537033"><ele>406.0</ele><time>2026-04-04T07:45:29.041Z</time></trkpt><trkpt lat="42.3517583" lon="12.85357"><ele>406.0</ele><time>2026-04-04T07:45:30.041Z</time></trkpt><trkpt lat="42.3516583" lon="12.8534583"><ele>406.0</ele><time>2026-04-04T07:45:31.041Z</time></trkpt><trkpt lat="42.351545" lon="12.8533617"><ele>406.0</ele><time>2026-04-04T07:45:32.041Z</time></trkpt><trkpt lat="42.35143" lon="12.853285"><ele>409.25</ele><time>2026-04-04T07:45:33.042Z</time></trkpt><trkpt lat="42.351305" lon="12.8532317"><ele>412.5</ele><time>2026-04-04T07:45:34.041Z</time></trkpt><trkpt lat="42.3511767" lon="12.8531917"><ele>415.75</ele><time>2026-04-04T07:45:35.041Z</time></trkpt><trkpt lat="42.3510433" lon="12.853175"><ele>419.0</ele><time>2026-04-04T07:45:36.041Z</time></trkpt><trkpt lat="42.3509033" lon="12.85318"><ele>419.0</ele><time>2026-04-04T07:45:37.041Z</time></trkpt><trkpt lat="42.3507567" lon="12.853205"><ele>419.0</ele><time>2026-04-04T07:45:38.041Z</time></trkpt><trkpt lat="42.3506117" lon="12.8532383"><ele>419.0</ele><time>2026-04-04T07:45:39.043Z</time></trkpt><trkpt lat="42.3504667" lon="12.8532883"><ele>419.0</ele><time>2026-04-04T07:45:40.039Z</time></trkpt><trkpt lat="42.350325" lon="12.85333"><ele>419.75</ele><time>2026-04-04T07:45:41.042Z</time></trkpt><trkpt lat="42.3501933" lon="12.853375"><ele>420.5</ele><time>2026-04-04T07:45:42.042Z</time></trkpt><trkpt lat="42.350065" lon="12.8534117"><ele>421.25</ele><time>2026-04-04T07:45:43.045Z</time></trkpt><trkpt lat="42.349945" lon="12.8534433"><ele>422.0</ele><time>2026-04-04T07:45:44.04Z</time></trkpt><trkpt lat="42.34983" lon="12.8534717"><ele>418.25</ele><time>2026-04-04T07:45:45.041Z</time></trkpt><trkpt lat="42.3497117" lon="12.85351"><ele>414.5</ele><time>2026-04-04T07:45:46.044Z</time></trkpt><trkpt lat="42.34959" lon="12.8535517"><ele>410.75</ele><time>2026-04-04T07:45:47.043Z</time></trkpt><trkpt lat="42.3494617" lon="12.853595"><ele>407.0</ele><time>2026-04-04T07:45:48.04Z</time></trkpt><trkpt lat="42.3493283" lon="12.8536383"><ele>407.0</ele><time>2026-04-04T07:45:49.04Z</time></trkpt><trkpt lat="42.3491883" lon="12.8536833"><ele>407.0</ele><time>2026-04-04T07:45:50.04Z</time></trkpt><trkpt lat="42.3490383" lon="12.8537417"><ele>407.0</ele><time>2026-04-04T07:45:51.041Z</time></trkpt><trkpt lat="42.3488967" lon="12.853795"><ele>407.0</ele><time>2026-04-04T07:45:52.04Z</time></trkpt><trkpt lat="42.3487617" lon="12.85384"><ele>408.5</ele><time>2026-04-04T07:45:53.04Z</time></trkpt><trkpt lat="42.34863" lon="12.85388"><ele>410.0</ele><time>2026-04-04T07:45:54.04Z</time></trkpt><trkpt lat="42.3484967" lon="12.85393"><ele>411.5</ele><time>2026-04-04T07:45:55.043Z</time></trkpt><trkpt lat="42.3483667" lon="12.8539767"><ele>413.0</ele><time>2026-04-04T07:45:56.04Z</time></trkpt><trkpt lat="42.3482367" lon="12.8540283"><ele>413.0</ele><time>2026-04-04T07:45:57.043Z</time></trkpt><trkpt lat="42.3481067" lon="12.8540833"><ele>413.0</ele><time>2026-04-04T07:45:58.04Z</time></trkpt><trkpt lat="42.3479733" lon="12.8541433"><ele>413.0</ele><time>2026-04-04T07:45:59.04Z</time></trkpt><trkpt lat="42.3478383" lon="12.8542067"><ele>413.0</ele><time>2026-04-04T07:46:00.041Z</time></trkpt><trkpt lat="42.3476983" lon="12.8542717"><ele>413.0</ele><time>2026-04-04T07:46:01.041Z</time></trkpt><trkpt lat="42.3475583" lon="12.85434"><ele>413.0</ele><time>2026-04-04T07:46:02.04Z</time></trkpt><trkpt lat="42.3474183" lon="12.854405"><ele>413.0</ele><time>2026-04-04T07:46:03.04Z</time></trkpt><trkpt lat="42.3472733" lon="12.8544683"><ele>413.0</ele><time>2026-04-04T07:46:04.041Z</time></trkpt><trkpt lat="42.3471283" lon="12.85453"><ele>413.0</ele><time>2026-04-04T07:46:05.041Z</time></trkpt><trkpt lat="42.346985" lon="12.8545917"><ele>413.0</ele><time>2026-04-04T07:46:06.041Z</time></trkpt><trkpt lat="42.3468467" lon="12.854645"><ele>413.0</ele><time>2026-04-04T07:46:07.041Z</time></trkpt><trkpt lat="42.3467067" lon="12.8546933"><ele>413.0</ele><time>2026-04-04T07:46:08.041Z</time></trkpt><trkpt lat="42.3465733" lon="12.854725"><ele>413.0</ele><time>2026-04-04T07:46:09.041Z</time></trkpt><trkpt lat="42.3464367" lon="12.8547617"><ele>413.0</ele><time>2026-04-04T07:46:10.042Z</time></trkpt><trkpt lat="42.346295" lon="12.8548"><ele>413.0</ele><time>2026-04-04T07:46:11.043Z</time></trkpt><trkpt lat="42.3461567" lon="12.8548367"><ele>413.0</ele><time>2026-04-04T07:46:12.043Z</time></trkpt><trkpt lat="42.3460233" lon="12.8548683"><ele>414.25</ele><time>2026-04-04T07:46:13.039Z</time></trkpt><trkpt lat="42.3458933" lon="12.8548967"><ele>415.5</ele><time>2026-04-04T07:46:14.043Z</time></trkpt><trkpt lat="42.3457683" lon="12.8549183"><ele>416.75</ele><time>2026-04-04T07:46:15.04Z</time></trkpt><trkpt lat="42.3456467" lon="12.8549233"><ele>418.0</ele><time>2026-04-04T07:46:16.043Z</time></trkpt><trkpt lat="42.3455283" lon="12.8549267"><ele>418.0</ele><time>2026-04-04T07:46:17.041Z</time></trkpt><trkpt lat="42.3454133" lon="12.8549167"><ele>418.0</ele><time>2026-04-04T07:46:18.04Z</time></trkpt><trkpt lat="42.3453083" lon="12.854905"><ele>418.0</ele><time>2026-04-04T07:46:19.042Z</time></trkpt><trkpt lat="42.3452183" lon="12.8548783"><ele>418.0</ele><time>2026-04-04T07:46:20.04Z</time></trkpt><trkpt lat="42.3451367" lon="12.85485"><ele>418.0</ele><time>2026-04-04T07:46:21.041Z</time></trkpt><trkpt lat="42.34506" lon="12.8548383"><ele>418.0</ele><time>2026-04-04T07:46:22.041Z</time></trkpt><trkpt lat="42.3449867" lon="12.8548283"><ele>418.0</ele><time>2026-04-04T07:46:23.041Z</time></trkpt><trkpt lat="42.34492" lon="12.8548233"><ele>418.0</ele><time>2026-04-04T07:46:24.04Z</time></trkpt><trkpt lat="42.3448567" lon="12.8548217"><ele>418.0</ele><time>2026-04-04T07:46:25.041Z</time></trkpt><trkpt lat="42.3447917" lon="12.8548233"><ele>418.0</ele><time>2026-04-04T07:46:26.041Z</time></trkpt><trkpt lat="42.344725" lon="12.8548333"><ele>418.0</ele><time>2026-04-04T07:46:27.041Z</time></trkpt><trkpt lat="42.3446567" lon="12.8548533"><ele>418.0</ele><time>2026-04-04T07:46:28.042Z</time></trkpt><trkpt lat="42.3445833" lon="12.854875"><ele>417.4</ele><time>2026-04-04T07:46:29.04Z</time></trkpt><trkpt lat="42.3445017" lon="12.8548967"><ele>416.79999999999995</ele><time>2026-04-04T07:46:30.041Z</time></trkpt><trkpt lat="42.3444067" lon="12.8549283"><ele>416.2</ele><time>2026-04-04T07:46:31.042Z</time></trkpt><trkpt lat="42.3443133" lon="12.85496"><ele>415.6</ele><time>2026-04-04T07:46:32.04Z</time></trkpt><trkpt lat="42.344215" lon="12.8549867"><ele>415.0</ele><time>2026-04-04T07:46:33.041Z</time></trkpt><trkpt lat="42.3441183" lon="12.8550033"><ele>415.0</ele><time>2026-04-04T07:46:34.044Z</time></trkpt><trkpt lat="42.3440217" lon="12.85501"><ele>415.0</ele><time>2026-04-04T07:46:35.042Z</time></trkpt><trkpt lat="42.34391" lon="12.855045"><ele>415.0</ele><time>2026-04-04T07:46:36.042Z</time></trkpt><trkpt lat="42.3437917" lon="12.8550767"><ele>415.0</ele><time>2026-04-04T07:46:37.041Z</time></trkpt><trkpt lat="42.3436683" lon="12.8551117"><ele>414.75</ele><time>2026-04-04T07:46:38.041Z</time></trkpt><trkpt lat="42.343545" lon="12.8551417"><ele>414.5</ele><time>2026-04-04T07:46:39.042Z</time></trkpt><trkpt lat="42.3434233" lon="12.8551683"><ele>414.25</ele><time>2026-04-04T07:46:40.041Z</time></trkpt><trkpt lat="42.3432983" lon="12.855195"><ele>414.0</ele><time>2026-04-04T07:46:41.041Z</time></trkpt><trkpt lat="42.3431783" lon="12.8552317"><ele>414.0</ele><time>2026-04-04T07:46:42.041Z</time></trkpt><trkpt lat="42.34306" lon="12.85526"><ele>414.0</ele><time>2026-04-04T07:46:43.041Z</time></trkpt><trkpt lat="42.34295" lon="12.8552867"><ele>414.0</ele><time>2026-04-04T07:46:44.041Z</time></trkpt><trkpt lat="42.3428433" lon="12.8553167"><ele>414.0</ele><time>2026-04-04T07:46:45.041Z</time></trkpt><trkpt lat="42.3427483" lon="12.855345"><ele>414.0</ele><time>2026-04-04T07:46:46.043Z</time></trkpt><trkpt lat="42.3426583" lon="12.85537"><ele>414.6666666666667</ele><time>2026-04-04T07:46:47.041Z</time></trkpt><trkpt lat="42.34257" lon="12.8553967"><ele>415.33333333333337</ele><time>2026-04-04T07:46:48.04Z</time></trkpt><trkpt lat="42.3424783" lon="12.8554183"><ele>416.0</ele><time>2026-04-04T07:46:49.041Z</time></trkpt><trkpt lat="42.3423867" lon="12.8554417"><ele>416.6666666666667</ele><time>2026-04-04T07:46:50.041Z</time></trkpt><trkpt lat="42.342305" lon="12.8554617"><ele>417.33333333333337</ele><time>2026-04-04T07:46:51.041Z</time></trkpt><trkpt lat="42.3422267" lon="12.8554817"><ele>418.0</ele><time>2026-04-04T07:46:52.041Z</time></trkpt><trkpt lat="42.3421583" lon="12.8554983"><ele>419.2</ele><time>2026-04-04T07:46:53.04Z</time></trkpt><trkpt lat="42.34205" lon="12.8555217"><ele>420.4</ele><time>2026-04-04T07:46:55.041Z</time></trkpt><trkpt lat="42.3419667" lon="12.855485"><ele>421.59999999999997</ele><time>2026-04-04T07:46:57.04Z</time></trkpt><trkpt lat="42.34192" lon="12.8553733"><ele>422.79999999999995</ele><time>2026-04-04T07:46:59.04Z</time></trkpt><trkpt lat="42.3418867" lon="12.85521"><ele>424.0</ele><time>2026-04-04T07:47:01.041Z</time></trkpt><trkpt lat="42.3418667" lon="12.8551133"><ele>425.33333333333337</ele><time>2026-04-04T07:47:02.04Z</time></trkpt><trkpt lat="42.341835" lon="12.8550167"><ele>426.6666666666667</ele><time>2026-04-04T07:47:03.041Z</time></trkpt><trkpt lat="42.3418017" lon="12.8549233"><ele>428.0</ele><time>2026-04-04T07:47:04.041Z</time></trkpt><trkpt lat="42.3417533" lon="12.854835"><ele>429.33333333333337</ele><time>2026-04-04T07:47:05.041Z</time></trkpt><trkpt lat="42.3416917" lon="12.8547567"><ele>430.6666666666667</ele><time>2026-04-04T07:47:06.041Z</time></trkpt><trkpt lat="42.3416283" lon="12.8546633"><ele>432.0</ele><time>2026-04-04T07:47:07.041Z</time></trkpt><trkpt lat="42.3415333" lon="12.854585"><ele>432.0</ele><time>2026-04-04T07:47:08.04Z</time></trkpt><trkpt lat="42.341425" lon="12.8545033"><ele>432.0</ele><time>2026-04-04T07:47:09.04Z</time></trkpt><trkpt lat="42.34131" lon="12.854415"><ele>432.0</ele><time>2026-04-04T07:47:10.041Z</time></trkpt><trkpt lat="42.3412" lon="12.8543217"><ele>432.0</ele><time>2026-04-04T07:47:11.041Z</time></trkpt><trkpt lat="42.3410933" lon="12.8542233"><ele>435.25</ele><time>2026-04-04T07:47:12.04Z</time></trkpt><trkpt lat="42.3409833" lon="12.8541267"><ele>438.5</ele><time>2026-04-04T07:47:13.041Z</time></trkpt><trkpt lat="42.3408783" lon="12.8540333"><ele>441.75</ele><time>2026-04-04T07:47:14.04Z</time></trkpt><trkpt lat="42.34077" lon="12.8539417"><ele>445.0</ele><time>2026-04-04T07:47:15.041Z</time></trkpt><trkpt lat="42.34066" lon="12.8538517"><ele>445.0</ele><time>2026-04-04T07:47:16.041Z</time></trkpt><trkpt lat="42.3405533" lon="12.853755"><ele>445.0</ele><time>2026-04-04T07:47:17.041Z</time></trkpt><trkpt lat="42.3404367" lon="12.8536633"><ele>445.0</ele><time>2026-04-04T07:47:18.04Z</time></trkpt><trkpt lat="42.3403133" lon="12.85356"><ele>445.0</ele><time>2026-04-04T07:47:19.041Z</time></trkpt><trkpt lat="42.3401667" lon="12.8534617"><ele>444.0</ele><time>2026-04-04T07:47:20.04Z</time></trkpt><trkpt lat="42.3400117" lon="12.853365"><ele>443.0</ele><time>2026-04-04T07:47:21.041Z</time></trkpt><trkpt lat="42.3398583" lon="12.85328"><ele>442.0</ele><time>2026-04-04T07:47:22.039Z</time></trkpt><trkpt lat="42.3397067" lon="12.8531867"><ele>451.0</ele><time>2026-04-04T07:47:23.041Z</time></trkpt><trkpt lat="42.339555" lon="12.853095"><ele>460.0</ele><time>2026-04-04T07:47:24.04Z</time></trkpt><trkpt lat="42.3394017" lon="12.8529983"><ele>469.0</ele><time>2026-04-04T07:47:25.04Z</time></trkpt><trkpt lat="42.3392567" lon="12.8528983"><ele>469.0</ele><time>2026-04-04T07:47:26.04Z</time></trkpt><trkpt lat="42.339125" lon="12.8527983"><ele>469.0</ele><time>2026-04-04T07:47:27.041Z</time></trkpt><trkpt lat="42.3390033" lon="12.8526867"><ele>469.0</ele><time>2026-04-04T07:47:28.041Z</time></trkpt><trkpt lat="42.3388867" lon="12.852575"><ele>469.0</ele><time>2026-04-04T07:47:29.04Z</time></trkpt><trkpt lat="42.3387783" lon="12.8524667"><ele>468.25</ele><time>2026-04-04T07:47:30.039Z</time></trkpt><trkpt lat="42.338665" lon="12.85237"><ele>467.5</ele><time>2026-04-04T07:47:31.041Z</time></trkpt><trkpt lat="42.3385483" lon="12.8522767"><ele>466.75</ele><time>2026-04-04T07:47:32.04Z</time></trkpt><trkpt lat="42.3384317" lon="12.85219"><ele>466.0</ele><time>2026-04-04T07:47:33.04Z</time></trkpt><trkpt lat="42.338315" lon="12.8521083"><ele>466.0</ele><time>2026-04-04T07:47:34.04Z</time></trkpt><trkpt lat="42.3382033" lon="12.85201"><ele>466.0</ele><time>2026-04-04T07:47:35.04Z</time></trkpt><trkpt lat="42.338095" lon="12.8519067"><ele>466.0</ele><time>2026-04-04T07:47:36.04Z</time></trkpt><trkpt lat="42.3379983" lon="12.851775"><ele>466.0</ele><time>2026-04-04T07:47:37.041Z</time></trkpt><trkpt lat="42.3379117" lon="12.8516433"><ele>468.25</ele><time>2026-04-04T07:47:38.04Z</time></trkpt><trkpt lat="42.337845" lon="12.8515133"><ele>470.5</ele><time>2026-04-04T07:47:39.042Z</time></trkpt><trkpt lat="42.337785" lon="12.8513933"><ele>472.75</ele><time>2026-04-04T07:47:40.039Z</time></trkpt><trkpt lat="42.33772" lon="12.8512717"><ele>475.0</ele><time>2026-04-04T07:47:41.041Z</time></trkpt><trkpt lat="42.33764" lon="12.85115"><ele>475.0</ele><time>2026-04-04T07:47:42.042Z</time></trkpt><trkpt lat="42.3375317" lon="12.85103"><ele>475.0</ele><time>2026-04-04T07:47:43.041Z</time></trkpt><trkpt lat="42.3374083" lon="12.8508967"><ele>475.0</ele><time>2026-04-04T07:47:44.039Z</time></trkpt><trkpt lat="42.3372867" lon="12.8507567"><ele>477.25</ele><time>2026-04-04T07:47:45.041Z</time></trkpt><trkpt lat="42.3371717" lon="12.85061"><ele>479.5</ele><time>2026-04-04T07:47:46.04Z</time></trkpt><trkpt lat="42.3370633" lon="12.85047"><ele>481.75</ele><time>2026-04-04T07:47:47.04Z</time></trkpt><trkpt lat="42.3369667" lon="12.8503417"><ele>484.0</ele><time>2026-04-04T07:47:48.04Z</time></trkpt><trkpt lat="42.3368667" lon="12.8502267"><ele>476.5</ele><time>2026-04-04T07:47:49.04Z</time></trkpt><trkpt lat="42.3367567" lon="12.8501233"><ele>469.0</ele><time>2026-04-04T07:47:50.04Z</time></trkpt><trkpt lat="42.336645" lon="12.85003"><ele>461.5</ele><time>2026-04-04T07:47:51.04Z</time></trkpt><trkpt lat="42.3365333" lon="12.84994"><ele>454.0</ele><time>2026-04-04T07:47:52.04Z</time></trkpt><trkpt lat="42.33643" lon="12.8498583"><ele>458.0</ele><time>2026-04-04T07:47:53.042Z</time></trkpt><trkpt lat="42.3363367" lon="12.84978"><ele>462.0</ele><time>2026-04-04T07:47:54.041Z</time></trkpt><trkpt lat="42.33625" lon="12.8497183"><ele>466.0</ele><time>2026-04-04T07:47:55.04Z</time></trkpt><trkpt lat="42.33616" lon="12.8496717"><ele>470.0</ele><time>2026-04-04T07:47:56.04Z</time></trkpt><trkpt lat="42.336065" lon="12.8496267"><ele>474.0</ele><time>2026-04-04T07:47:57.045Z</time></trkpt><trkpt lat="42.3359533" lon="12.84961"><ele>474.0</ele><time>2026-04-04T07:47:58.04Z</time></trkpt><trkpt lat="42.33583" lon="12.84959"><ele>474.0</ele><time>2026-04-04T07:47:59.041Z</time></trkpt><trkpt lat="42.3357067" lon="12.8495717"><ele>474.0</ele><time>2026-04-04T07:48:00.04Z</time></trkpt><trkpt lat="42.3355883" lon="12.8495367"><ele>474.0</ele><time>2026-04-04T07:48:01.042Z</time></trkpt><trkpt lat="42.3354683" lon="12.8495"><ele>470.5</ele><time>2026-04-04T07:48:02.04Z</time></trkpt><trkpt lat="42.335345" lon="12.8494367"><ele>467.0</ele><time>2026-04-04T07:48:03.041Z</time></trkpt><trkpt lat="42.335225" lon="12.84936"><ele>463.5</ele><time>2026-04-04T07:48:04.039Z</time></trkpt><trkpt lat="42.3351267" lon="12.8492783"><ele>460.0</ele><time>2026-04-04T07:48:05.039Z</time></trkpt><trkpt lat="42.33504" lon="12.849195"><ele>460.0</ele><time>2026-04-04T07:48:06.04Z</time></trkpt><trkpt lat="42.3349517" lon="12.849125"><ele>460.0</ele><time>2026-04-04T07:48:07.042Z</time></trkpt><trkpt lat="42.3348667" lon="12.8490617"><ele>460.0</ele><time>2026-04-04T07:48:08.04Z</time></trkpt><trkpt lat="42.3347883" lon="12.849005"><ele>460.0</ele><time>2026-04-04T07:48:09.041Z</time></trkpt><trkpt lat="42.3346917" lon="12.84898"><ele>460.0</ele><time>2026-04-04T07:48:10.04Z</time></trkpt><trkpt lat="42.3345733" lon="12.8489733"><ele>462.5</ele><time>2026-04-04T07:48:11.039Z</time></trkpt><trkpt lat="42.3344433" lon="12.8489833"><ele>465.0</ele><time>2026-04-04T07:48:12.04Z</time></trkpt><trkpt lat="42.3342817" lon="12.849015"><ele>467.5</ele><time>2026-04-04T07:48:13.04Z</time></trkpt><trkpt lat="42.3341283" lon="12.84902"><ele>470.0</ele><time>2026-04-04T07:48:14.04Z</time></trkpt><trkpt lat="42.3339767" lon="12.8490217"><ele>472.0</ele><time>2026-04-04T07:48:15.041Z</time></trkpt><trkpt lat="42.333825" lon="12.849025"><ele>474.0</ele><time>2026-04-04T07:48:16.039Z</time></trkpt><trkpt lat="42.33366" lon="12.8490317"><ele>476.0</ele><time>2026-04-04T07:48:17.04Z</time></trkpt><trkpt lat="42.3334983" lon="12.84903"><ele>476.0</ele><time>2026-04-04T07:48:18.039Z</time></trkpt><trkpt lat="42.3333517" lon="12.8490167"><ele>476.0</ele><time>2026-04-04T07:48:19.041Z</time></trkpt><trkpt lat="42.3332133" lon="12.84901"><ele>476.0</ele><time>2026-04-04T07:48:20.041Z</time></trkpt><trkpt lat="42.3330783" lon="12.8489933"><ele>476.0</ele><time>2026-04-04T07:48:21.04Z</time></trkpt><trkpt lat="42.33295" lon="12.8489317"><ele>477.5</ele><time>2026-04-04T07:48:22.039Z</time></trkpt><trkpt lat="42.3328317" lon="12.8488433"><ele>479.0</ele><time>2026-04-04T07:48:23.04Z</time></trkpt><trkpt lat="42.33272" lon="12.8487533"><ele>480.5</ele><time>2026-04-04T07:48:24.042Z</time></trkpt><trkpt lat="42.3326267" lon="12.8486367"><ele>482.0</ele><time>2026-04-04T07:48:25.041Z</time></trkpt><trkpt lat="42.3325383" lon="12.848515"><ele>479.20000000000005</ele><time>2026-04-04T07:48:26.041Z</time></trkpt><trkpt lat="42.3324667" lon="12.84841"><ele>476.40000000000003</ele><time>2026-04-04T07:48:27.042Z</time></trkpt><trkpt lat="42.33241" lon="12.8483233"><ele>473.59999999999997</ele><time>2026-04-04T07:48:28.039Z</time></trkpt><trkpt lat="42.3323533" lon="12.84826"><ele>470.79999999999995</ele><time>2026-04-04T07:48:29.041Z</time></trkpt><trkpt lat="42.33224" lon="12.848195"><ele>468.0</ele><time>2026-04-04T07:48:31.04Z</time></trkpt><trkpt lat="42.3321767" lon="12.848175"><ele>468.0</ele><time>2026-04-04T07:48:32.039Z</time></trkpt><trkpt lat="42.3321" lon="12.8481617"><ele>468.0</ele><time>2026-04-04T07:48:33.04Z</time></trkpt><trkpt lat="42.3320183" lon="12.8481533"><ele>468.0</ele><time>2026-04-04T07:48:34.039Z</time></trkpt><trkpt lat="42.3319283" lon="12.8481717"><ele>468.0</ele><time>2026-04-04T07:48:35.04Z</time></trkpt><trkpt lat="42.3318417" lon="12.8482183"><ele>468.0</ele><time>2026-04-04T07:48:36.039Z</time></trkpt><trkpt lat="42.3317617" lon="12.8482833"><ele>468.0</ele><time>2026-04-04T07:48:37.04Z</time></trkpt><trkpt lat="42.3316867" lon="12.8483333"><ele>468.0</ele><time>2026-04-04T07:48:38.041Z</time></trkpt><trkpt lat="42.331615" lon="12.8483617"><ele>468.0</ele><time>2026-04-04T07:48:39.041Z</time></trkpt><trkpt lat="42.3315333" lon="12.84837"><ele>468.0</ele><time>2026-04-04T07:48:40.04Z</time></trkpt><trkpt lat="42.3314483" lon="12.8483783"><ele>468.0</ele><time>2026-04-04T07:48:41.041Z</time></trkpt><trkpt lat="42.3313633" lon="12.848375"><ele>468.0</ele><time>2026-04-04T07:48:42.04Z</time></trkpt><trkpt lat="42.3312717" lon="12.8483867"><ele>468.0</ele><time>2026-04-04T07:48:43.04Z</time></trkpt><trkpt lat="42.3311917" lon="12.8483883"><ele>469.1666666666667</ele><time>2026-04-04T07:48:44.04Z</time></trkpt><trkpt lat="42.33111" lon="12.8484"><ele>470.33333333333337</ele><time>2026-04-04T07:48:45.041Z</time></trkpt><trkpt lat="42.3310367" lon="12.8484183"><ele>471.5</ele><time>2026-04-04T07:48:46.039Z</time></trkpt><trkpt lat="42.33096" lon="12.8484617"><ele>472.6666666666667</ele><time>2026-04-04T07:48:47.039Z</time></trkpt><trkpt lat="42.3308683" lon="12.8485183"><ele>473.83333333333337</ele><time>2026-04-04T07:48:48.041Z</time></trkpt><trkpt lat="42.3307833" lon="12.8485583"><ele>475.0</ele><time>2026-04-04T07:48:49.039Z</time></trkpt><trkpt lat="42.3306933" lon="12.848585"><ele>478.00000000000006</ele><time>2026-04-04T07:48:50.039Z</time></trkpt><trkpt lat="42.3306117" lon="12.848615"><ele>481.0</ele><time>2026-04-04T07:48:51.04Z</time></trkpt><trkpt lat="42.3305267" lon="12.8486567"><ele>484.0</ele><time>2026-04-04T07:48:52.04Z</time></trkpt><trkpt lat="42.33045" lon="12.8487"><ele>487.0</ele><time>2026-04-04T07:48:53.04Z</time></trkpt><trkpt lat="42.3303783" lon="12.8487483"><ele>490.00000000000006</ele><time>2026-04-04T07:48:54.041Z</time></trkpt><trkpt lat="42.3303083" lon="12.8488167"><ele>493.0</ele><time>2026-04-04T07:48:55.04Z</time></trkpt><trkpt lat="42.3302567" lon="12.848895"><ele>493.0</ele><time>2026-04-04T07:48:56.041Z</time></trkpt><trkpt lat="42.3302" lon="12.8489583"><ele>492.99999999999994</ele><time>2026-04-04T07:48:57.041Z</time></trkpt><trkpt lat="42.330125" lon="12.8490367"><ele>492.99999999999994</ele><time>2026-04-04T07:48:58.039Z</time></trkpt><trkpt lat="42.330055" lon="12.84911"><ele>493.0</ele><time>2026-04-04T07:48:59.04Z</time></trkpt><trkpt lat="42.3300233" lon="12.849195"><ele>493.0</ele><time>2026-04-04T07:49:00.04Z</time></trkpt><trkpt lat="42.3299533" lon="12.8493367"><ele>495.6666666666667</ele><time>2026-04-04T07:49:02.04Z</time></trkpt><trkpt lat="42.3299117" lon="12.849405"><ele>498.33333333333337</ele><time>2026-04-04T07:49:03.04Z</time></trkpt><trkpt lat="42.329835" lon="12.8495317"><ele>501.0</ele><time>2026-04-04T07:49:05.041Z</time></trkpt><trkpt lat="42.3298" lon="12.8496267"><ele>503.66666666666663</ele><time>2026-04-04T07:49:07.041Z</time></trkpt><trkpt lat="42.3297133" lon="12.8496133"><ele>506.3333333333333</ele><time>2026-04-04T07:49:08.04Z</time></trkpt><trkpt lat="42.3296283" lon="12.8496667"><ele>509.0</ele><time>2026-04-04T07:49:10.039Z</time></trkpt><trkpt lat="42.3295583" lon="12.8495733"><ele>511.5</ele><time>2026-04-04T07:49:13.041Z</time></trkpt><trkpt lat="42.3295167" lon="12.849415"><ele>514.0</ele><time>2026-04-04T07:49:15.041Z</time></trkpt><trkpt lat="42.3294367" lon="12.8493033"><ele>516.5</ele><time>2026-04-04T07:49:17.04Z</time></trkpt><trkpt lat="42.32937" lon="12.84919"><ele>519.0</ele><time>2026-04-04T07:49:19.041Z</time></trkpt><trkpt lat="42.329295" lon="12.8490917"><ele>520.4</ele><time>2026-04-04T07:49:21.041Z</time></trkpt><trkpt lat="42.3291633" lon="12.8490483"><ele>521.8</ele><time>2026-04-04T07:49:23.04Z</time></trkpt><trkpt lat="42.3290783" lon="12.8490433"><ele>523.2</ele><time>2026-04-04T07:49:24.041Z</time></trkpt><trkpt lat="42.3289783" lon="12.8491167"><ele>524.6</ele><time>2026-04-04T07:49:26.04Z</time></trkpt><trkpt lat="42.32891" lon="12.8492317"><ele>526.0</ele><time>2026-04-04T07:49:28.038Z</time></trkpt><trkpt lat="42.3288283" lon="12.849345"><ele>526.0</ele><time>2026-04-04T07:49:30.04Z</time></trkpt><trkpt lat="42.3287767" lon="12.8494017"><ele>526.0</ele><time>2026-04-04T07:49:31.041Z</time></trkpt><trkpt lat="42.3287267" lon="12.8494583"><ele>526.0</ele><time>2026-04-04T07:49:32.041Z</time></trkpt><trkpt lat="42.32866" lon="12.8495067"><ele>526.0</ele><time>2026-04-04T07:49:33.04Z</time></trkpt><trkpt lat="42.328595" lon="12.849545"><ele>526.0</ele><time>2026-04-04T07:49:34.039Z</time></trkpt><trkpt lat="42.3285333" lon="12.8495883"><ele>526.0</ele><time>2026-04-04T07:49:35.04Z</time></trkpt><trkpt lat="42.3284667" lon="12.8496217"><ele>526.0</ele><time>2026-04-04T07:49:36.04Z</time></trkpt><trkpt lat="42.3284033" lon="12.8496633"><ele>526.0</ele><time>2026-04-04T07:49:37.041Z</time></trkpt><trkpt lat="42.328345" lon="12.8497067"><ele>526.0</ele><time>2026-04-04T07:49:38.039Z</time></trkpt><trkpt lat="42.328285" lon="12.84975"><ele>526.0</ele><time>2026-04-04T07:49:39.041Z</time></trkpt><trkpt lat="42.3281833" lon="12.84983"><ele>526.0</ele><time>2026-04-04T07:49:41.04Z</time></trkpt><trkpt lat="42.32812" lon="12.84986"><ele>526.0</ele><time>2026-04-04T07:49:42.041Z</time></trkpt><trkpt lat="42.3280517" lon="12.8498717"><ele>526.0</ele><time>2026-04-04T07:49:43.04Z</time></trkpt><trkpt lat="42.3279833" lon="12.8498767"><ele>529.4</ele><time>2026-04-04T07:49:44.041Z</time></trkpt><trkpt lat="42.3279117" lon="12.84988"><ele>532.8</ele><time>2026-04-04T07:49:45.041Z</time></trkpt><trkpt lat="42.3278433" lon="12.849865"><ele>536.1999999999999</ele><time>2026-04-04T07:49:46.039Z</time></trkpt><trkpt lat="42.3277383" lon="12.8498083"><ele>539.6</ele><time>2026-04-04T07:49:48.04Z</time></trkpt><trkpt lat="42.32764" lon="12.8497367"><ele>543.0</ele><time>2026-04-04T07:49:50.041Z</time></trkpt><trkpt lat="42.3275383" lon="12.849675"><ele>543.0</ele><time>2026-04-04T07:49:52.04Z</time></trkpt><trkpt lat="42.3274617" lon="12.8495717"><ele>543.0</ele><time>2026-04-04T07:49:54.041Z</time></trkpt><trkpt lat="42.3274017" lon="12.84947"><ele>543.0</ele><time>2026-04-04T07:49:56.041Z</time></trkpt><trkpt lat="42.3273517" lon="12.8493617"><ele>543.0</ele><time>2026-04-04T07:49:58.039Z</time></trkpt><trkpt lat="42.327305" lon="12.8492133"><ele>543.0</ele><time>2026-04-04T07:50:00.04Z</time></trkpt><trkpt lat="42.3272683" lon="12.8490583"><ele>542.8333333333334</ele><time>2026-04-04T07:50:02.04Z</time></trkpt><trkpt lat="42.32724" lon="12.8489267"><ele>542.6666666666666</ele><time>2026-04-04T07:50:04.04Z</time></trkpt><trkpt lat="42.327245" lon="12.84881"><ele>542.5</ele><time>2026-04-04T07:50:06.042Z</time></trkpt><trkpt lat="42.3272733" lon="12.8487267"><ele>542.3333333333333</ele><time>2026-04-04T07:50:08.04Z</time></trkpt><trkpt lat="42.3273317" lon="12.8486217"><ele>542.1666666666666</ele><time>2026-04-04T07:50:11.04Z</time></trkpt><trkpt lat="42.3273767" lon="12.84853"><ele>542.0</ele><time>2026-04-04T07:50:13.041Z</time></trkpt><trkpt lat="42.3273667" lon="12.8483933"><ele>542.6</ele><time>2026-04-04T07:50:15.04Z</time></trkpt><trkpt lat="42.3273" lon="12.84827"><ele>543.2</ele><time>2026-04-04T07:50:17.04Z</time></trkpt><trkpt lat="42.3272367" lon="12.84815"><ele>543.8</ele><time>2026-04-04T07:50:19.041Z</time></trkpt><trkpt lat="42.3271833" lon="12.8480117"><ele>544.4</ele><time>2026-04-04T07:50:21.04Z</time></trkpt><trkpt lat="42.327145" lon="12.8478883"><ele>545.0</ele><time>2026-04-04T07:50:23.04Z</time></trkpt><trkpt lat="42.3271117" lon="12.8477583"><ele>549.0</ele><time>2026-04-04T07:50:25.041Z</time></trkpt><trkpt lat="42.3270767" lon="12.84763"><ele>553.0</ele><time>2026-04-04T07:50:27.041Z</time></trkpt><trkpt lat="42.32703" lon="12.8475167"><ele>557.0</ele><time>2026-04-04T07:50:29.04Z</time></trkpt><trkpt lat="42.3269633" lon="12.8474517"><ele>561.0</ele><time>2026-04-04T07:50:31.041Z</time></trkpt><trkpt lat="42.326825" lon="12.8474233"><ele>565.0</ele><time>2026-04-04T07:50:33.041Z</time></trkpt><trkpt lat="42.3267467" lon="12.84741"><ele>565.0</ele><time>2026-04-04T07:50:34.04Z</time></trkpt><trkpt lat="42.3266633" lon="12.8473983"><ele>565.0</ele><time>2026-04-04T07:50:35.04Z</time></trkpt><trkpt lat="42.326585" lon="12.84737"><ele>565.0</ele><time>2026-04-04T07:50:36.04Z</time></trkpt><trkpt lat="42.3265017" lon="12.847325"><ele>565.0</ele><time>2026-04-04T07:50:37.041Z</time></trkpt><trkpt lat="42.3264183" lon="12.8472933"><ele>565.0</ele><time>2026-04-04T07:50:38.04Z</time></trkpt><trkpt lat="42.3263517" lon="12.8472567"><ele>565.0</ele><time>2026-04-04T07:50:39.041Z</time></trkpt><trkpt lat="42.32628" lon="12.8472017"><ele>566.6</ele><time>2026-04-04T07:50:40.039Z</time></trkpt><trkpt lat="42.3262183" lon="12.8471533"><ele>568.2</ele><time>2026-04-04T07:50:41.039Z</time></trkpt><trkpt lat="42.3261633" lon="12.84709"><ele>569.8</ele><time>2026-04-04T07:50:42.04Z</time></trkpt><trkpt lat="42.3261133" lon="12.8470233"><ele>571.4</ele><time>2026-04-04T07:50:43.041Z</time></trkpt><trkpt lat="42.3260117" lon="12.8469133"><ele>573.0</ele><time>2026-04-04T07:50:45.04Z</time></trkpt><trkpt lat="42.3259117" lon="12.846865"><ele>573.0</ele><time>2026-04-04T07:50:47.04Z</time></trkpt><trkpt lat="42.3258017" lon="12.84687"><ele>573.0</ele><time>2026-04-04T07:50:49.041Z</time></trkpt><trkpt lat="42.32572" lon="12.8469167"><ele>573.0</ele><time>2026-04-04T07:50:50.04Z</time></trkpt><trkpt lat="42.3256433" lon="12.8469567"><ele>573.0</ele><time>2026-04-04T07:50:51.041Z</time></trkpt><trkpt lat="42.325565" lon="12.8469667"><ele>573.0</ele><time>2026-04-04T07:50:52.04Z</time></trkpt><trkpt lat="42.3254733" lon="12.8469917"><ele>571.8333333333334</ele><time>2026-04-04T07:50:53.041Z</time></trkpt><trkpt lat="42.32539" lon="12.846985"><ele>570.6666666666666</ele><time>2026-04-04T07:50:54.041Z</time></trkpt><trkpt lat="42.3253067" lon="12.846965"><ele>569.5</ele><time>2026-04-04T07:50:55.042Z</time></trkpt><trkpt lat="42.325235" lon="12.8469283"><ele>568.3333333333333</ele><time>2026-04-04T07:50:56.042Z</time></trkpt><trkpt lat="42.325165" lon="12.8468767"><ele>567.1666666666666</ele><time>2026-04-04T07:50:57.04Z</time></trkpt><trkpt lat="42.3250933" lon="12.8468267"><ele>566.0</ele><time>2026-04-04T07:50:58.041Z</time></trkpt><trkpt lat="42.3250233" lon="12.846785"><ele>566.0</ele><time>2026-04-04T07:50:59.04Z</time></trkpt><trkpt lat="42.3249517" lon="12.8467467"><ele>566.0</ele><time>2026-04-04T07:51:00.041Z</time></trkpt><trkpt lat="42.3248583" lon="12.8467333"><ele>566.0</ele><time>2026-04-04T07:51:01.042Z</time></trkpt><trkpt lat="42.3247667" lon="12.8467167"><ele>566.0</ele><time>2026-04-04T07:51:02.041Z</time></trkpt><trkpt lat="42.3246833" lon="12.84669"><ele>566.0</ele><time>2026-04-04T07:51:03.041Z</time></trkpt><trkpt lat="42.324615" lon="12.8466533"><ele>566.0</ele><time>2026-04-04T07:51:04.042Z</time></trkpt><trkpt lat="42.324565" lon="12.8465967"><ele>568.8</ele><time>2026-04-04T07:51:05.041Z</time></trkpt><trkpt lat="42.32448" lon="12.846485"><ele>571.6</ele><time>2026-04-04T07:51:07.042Z</time></trkpt><trkpt lat="42.3244517" lon="12.84639"><ele>574.4</ele><time>2026-04-04T07:51:08.041Z</time></trkpt><trkpt lat="42.3244117" lon="12.8463083"><ele>577.2</ele><time>2026-04-04T07:51:09.041Z</time></trkpt><trkpt lat="42.32434" lon="12.8461667"><ele>580.0</ele><time>2026-04-04T07:51:11.041Z</time></trkpt><trkpt lat="42.324295" lon="12.8460933"><ele>580.0</ele><time>2026-04-04T07:51:12.042Z</time></trkpt><trkpt lat="42.324255" lon="12.84601"><ele>580.0</ele><time>2026-04-04T07:51:13.041Z</time></trkpt><trkpt lat="42.324205" lon="12.8459483"><ele>580.0</ele><time>2026-04-04T07:51:14.042Z</time></trkpt><trkpt lat="42.3241667" lon="12.8458767"><ele>580.0</ele><time>2026-04-04T07:51:15.042Z</time></trkpt><trkpt lat="42.3241233" lon="12.845745"><ele>580.0</ele><time>2026-04-04T07:51:17.041Z</time></trkpt><trkpt lat="42.324125" lon="12.845655"><ele>580.0</ele><time>2026-04-04T07:51:19.041Z</time></trkpt><trkpt lat="42.323995" lon="12.8456817"><ele>580.6666666666667</ele><time>2026-04-04T07:51:20.042Z</time></trkpt><trkpt lat="42.3240033" lon="12.84559"><ele>581.3333333333334</ele><time>2026-04-04T07:51:22.04Z</time></trkpt><trkpt lat="42.3240333" lon="12.8455067"><ele>582.0</ele><time>2026-04-04T07:51:24.042Z</time></trkpt><trkpt lat="42.324065" lon="12.84539"><ele>582.6666666666666</ele><time>2026-04-04T07:51:26.043Z</time></trkpt><trkpt lat="42.3241217" lon="12.84527"><ele>583.3333333333333</ele><time>2026-04-04T07:51:28.041Z</time></trkpt><trkpt lat="42.3241767" lon="12.84517"><ele>584.0</ele><time>2026-04-04T07:51:30.042Z</time></trkpt><trkpt lat="42.324245" lon="12.8451017"><ele>586.0</ele><time>2026-04-04T07:51:32.041Z</time></trkpt><trkpt lat="42.3242817" lon="12.8450083"><ele>588.0</ele><time>2026-04-04T07:51:34.04Z</time></trkpt><trkpt lat="42.3243033" lon="12.8449083"><ele>590.0</ele><time>2026-04-04T07:51:37.041Z</time></trkpt><trkpt lat="42.3242833" lon="12.844825"><ele>592.0</ele><time>2026-04-04T07:51:39.041Z</time></trkpt><trkpt lat="42.3243217" lon="12.8447517"><ele>594.0</ele><time>2026-04-04T07:51:41.047Z</time></trkpt><trkpt lat="42.3242167" lon="12.8446467"><ele>596.0</ele><time>2026-04-04T07:51:42.042Z</time></trkpt><trkpt lat="42.32415" lon="12.8445867"><ele>596.0</ele><time>2026-04-04T07:51:44.04Z</time></trkpt><trkpt lat="42.324" lon="12.8445667"><ele>596.0</ele><time>2026-04-04T07:51:47.041Z</time></trkpt><trkpt lat="42.3239" lon="12.8445517"><ele>596.0</ele><time>2026-04-04T07:51:49.042Z</time></trkpt><trkpt lat="42.323785" lon="12.844545"><ele>596.0</ele><time>2026-04-04T07:51:51.042Z</time></trkpt><trkpt lat="42.3237217" lon="12.8445367"><ele>596.0</ele><time>2026-04-04T07:51:52.042Z</time></trkpt><trkpt lat="42.3236533" lon="12.8445217"><ele>599.3333333333333</ele><time>2026-04-04T07:51:53.041Z</time></trkpt><trkpt lat="42.3235883" lon="12.844505"><ele>602.6666666666666</ele><time>2026-04-04T07:51:54.042Z</time></trkpt><trkpt lat="42.3235233" lon="12.8444783"><ele>606.0</ele><time>2026-04-04T07:51:55.041Z</time></trkpt><trkpt lat="42.3234133" lon="12.8444217"><ele>609.3333333333334</ele><time>2026-04-04T07:51:57.041Z</time></trkpt><trkpt lat="42.3233183" lon="12.8443217"><ele>612.6666666666667</ele><time>2026-04-04T07:51:59.04Z</time></trkpt><trkpt lat="42.323275" lon="12.8442517"><ele>616.0</ele><time>2026-04-04T07:52:00.041Z</time></trkpt><trkpt lat="42.3232283" lon="12.84418"><ele>619.3333333333334</ele><time>2026-04-04T07:52:01.041Z</time></trkpt><trkpt lat="42.3231683" lon="12.8441217"><ele>622.6666666666667</ele><time>2026-04-04T07:52:02.041Z</time></trkpt><trkpt lat="42.3231017" lon="12.844085"><ele>626.0</ele><time>2026-04-04T07:52:03.042Z</time></trkpt><trkpt lat="42.3230367" lon="12.8440517"><ele>629.3333333333334</ele><time>2026-04-04T07:52:04.041Z</time></trkpt><trkpt lat="42.32296" lon="12.8440383"><ele>632.6666666666666</ele><time>2026-04-04T07:52:05.04Z</time></trkpt><trkpt lat="42.32283" lon="12.8440317"><ele>636.0</ele><time>2026-04-04T07:52:07.041Z</time></trkpt><trkpt lat="42.32275" lon="12.8440383"><ele>637.1428571428571</ele><time>2026-04-04T07:52:08.041Z</time></trkpt><trkpt lat="42.3226617" lon="12.844"><ele>638.2857142857143</ele><time>2026-04-04T07:52:10.041Z</time></trkpt><trkpt lat="42.3226067" lon="12.8439483"><ele>639.4285714285714</ele><time>2026-04-04T07:52:11.04Z</time></trkpt><trkpt lat="42.322565" lon="12.8438783"><ele>640.5714285714286</ele><time>2026-04-04T07:52:12.041Z</time></trkpt><trkpt lat="42.3225117" lon="12.8438133"><ele>641.7142857142858</ele><time>2026-04-04T07:52:13.041Z</time></trkpt><trkpt lat="42.3224617" lon="12.8437533"><ele>642.8571428571429</ele><time>2026-04-04T07:52:14.041Z</time></trkpt><trkpt lat="42.322415" lon="12.8436867"><ele>644.0</ele><time>2026-04-04T07:52:15.042Z</time></trkpt><trkpt lat="42.3223733" lon="12.84361"><ele>645.0</ele><time>2026-04-04T07:52:16.042Z</time></trkpt><trkpt lat="42.3223167" lon="12.84346"><ele>646.0</ele><time>2026-04-04T07:52:18.041Z</time></trkpt><trkpt lat="42.3222833" lon="12.84338"><ele>647.0</ele><time>2026-04-04T07:52:19.04Z</time></trkpt><trkpt lat="42.3222567" lon="12.843295"><ele>648.0</ele><time>2026-04-04T07:52:20.044Z</time></trkpt><trkpt lat="42.3222317" lon="12.8432067"><ele>649.0</ele><time>2026-04-04T07:52:21.042Z</time></trkpt><trkpt lat="42.322205" lon="12.84311"><ele>650.0</ele><time>2026-04-04T07:52:22.04Z</time></trkpt><trkpt lat="42.32221" lon="12.8430083"><ele>650.0</ele><time>2026-04-04T07:52:23.041Z</time></trkpt><trkpt lat="42.3222033" lon="12.842905"><ele>650.0</ele><time>2026-04-04T07:52:24.04Z</time></trkpt><trkpt lat="42.3222033" lon="12.84279"><ele>650.0</ele><time>2026-04-04T07:52:25.041Z</time></trkpt><trkpt lat="42.3221983" lon="12.8426717"><ele>650.0</ele><time>2026-04-04T07:52:26.041Z</time></trkpt><trkpt lat="42.3221933" lon="12.8425517"><ele>650.0</ele><time>2026-04-04T07:52:27.042Z</time></trkpt><trkpt lat="42.322185" lon="12.8424367"><ele>650.0</ele><time>2026-04-04T07:52:28.041Z</time></trkpt><trkpt lat="42.3221533" lon="12.8422933"><ele>649.8</ele><time>2026-04-04T07:52:30.043Z</time></trkpt><trkpt lat="42.3220733" lon="12.8421433"><ele>649.6</ele><time>2026-04-04T07:52:32.041Z</time></trkpt><trkpt lat="42.3220217" lon="12.842065"><ele>649.4000000000001</ele><time>2026-04-04T07:52:33.042Z</time></trkpt><trkpt lat="42.3219833" lon="12.84199"><ele>649.2</ele><time>2026-04-04T07:52:34.041Z</time></trkpt><trkpt lat="42.3219533" lon="12.8419083"><ele>649.0</ele><time>2026-04-04T07:52:35.041Z</time></trkpt><trkpt lat="42.3218983" lon="12.8417667"><ele>649.0</ele><time>2026-04-04T07:52:37.041Z</time></trkpt><trkpt lat="42.3218617" lon="12.84164"><ele>649.0</ele><time>2026-04-04T07:52:39.042Z</time></trkpt><trkpt lat="42.3217983" lon="12.8415217"><ele>649.0</ele><time>2026-04-04T07:52:41.04Z</time></trkpt><trkpt lat="42.3217333" lon="12.841405"><ele>649.0</ele><time>2026-04-04T07:52:43.042Z</time></trkpt><trkpt lat="42.3217" lon="12.8412667"><ele>649.0</ele><time>2026-04-04T07:52:45.041Z</time></trkpt><trkpt lat="42.3216467" lon="12.8411317"><ele>649.0</ele><time>2026-04-04T07:52:47.04Z</time></trkpt><trkpt lat="42.3216033" lon="12.8409933"><ele>649.0</ele><time>2026-04-04T07:52:49.042Z</time></trkpt><trkpt lat="42.3215817" lon="12.8408483"><ele>649.0</ele><time>2026-04-04T07:52:51.042Z</time></trkpt><trkpt lat="42.321575" lon="12.8407233"><ele>649.0</ele><time>2026-04-04T07:52:53.041Z</time></trkpt><trkpt lat="42.3215783" lon="12.8405883"><ele>649.0</ele><time>2026-04-04T07:52:55.042Z</time></trkpt><trkpt lat="42.3215483" lon="12.84045"><ele>643.4000000000001</ele><time>2026-04-04T07:52:57.041Z</time></trkpt><trkpt lat="42.3215467" lon="12.8403633"><ele>637.8000000000001</ele><time>2026-04-04T07:52:58.04Z</time></trkpt><trkpt lat="42.321515" lon="12.8402117"><ele>632.2</ele><time>2026-04-04T07:53:00.044Z</time></trkpt><trkpt lat="42.3215283" lon="12.84007"><ele>626.6</ele><time>2026-04-04T07:53:02.043Z</time></trkpt><trkpt lat="42.3215233" lon="12.8399267"><ele>621.0</ele><time>2026-04-04T07:53:04.043Z</time></trkpt><trkpt lat="42.32151" lon="12.83968"><ele>623.1666666666666</ele><time>2026-04-04T07:53:07.04Z</time></trkpt><trkpt lat="42.3214567" lon="12.8395533"><ele>625.3333333333334</ele><time>2026-04-04T07:53:10.04Z</time></trkpt><trkpt lat="42.3214117" lon="12.8394917"><ele>627.5</ele><time>2026-04-04T07:53:11.041Z</time></trkpt><trkpt lat="42.321355" lon="12.83943"><ele>629.6666666666667</ele><time>2026-04-04T07:53:12.041Z</time></trkpt><trkpt lat="42.3213033" lon="12.83938"><ele>631.8333333333334</ele><time>2026-04-04T07:53:13.041Z</time></trkpt><trkpt lat="42.3212383" lon="12.8392217"><ele>634.0</ele><time>2026-04-04T07:53:15.041Z</time></trkpt><trkpt lat="42.32106" lon="12.8393017"><ele>634.0</ele><time>2026-04-04T07:53:16.04Z</time></trkpt><trkpt lat="42.3209733" lon="12.8392733"><ele>634.0</ele><time>2026-04-04T07:53:17.041Z</time></trkpt><trkpt lat="42.320905" lon="12.8391917"><ele>634.0</ele><time>2026-04-04T07:53:19.04Z</time></trkpt><trkpt lat="42.320735" lon="12.839215"><ele>634.0</ele><time>2026-04-04T07:53:21.042Z</time></trkpt><trkpt lat="42.32065" lon="12.8392167"><ele>634.0</ele><time>2026-04-04T07:53:22.04Z</time></trkpt><trkpt lat="42.3205767" lon="12.8391983"><ele>643.25</ele><time>2026-04-04T07:53:23.04Z</time></trkpt><trkpt lat="42.320375" lon="12.8393533"><ele>652.5</ele><time>2026-04-04T07:53:24.041Z</time></trkpt><trkpt lat="42.3202933" lon="12.839325"><ele>661.75</ele><time>2026-04-04T07:53:25.04Z</time></trkpt><trkpt lat="42.3201917" lon="12.8393567"><ele>671.0</ele><time>2026-04-04T07:53:26.04Z</time></trkpt><trkpt lat="42.3201117" lon="12.8392717"><ele>671.0</ele><time>2026-04-04T07:53:28.039Z</time></trkpt><trkpt lat="42.320035" lon="12.839205"><ele>671.0</ele><time>2026-04-04T07:53:30.041Z</time></trkpt><trkpt lat="42.3200167" lon="12.8390767"><ele>671.0</ele><time>2026-04-04T07:53:31.042Z</time></trkpt><trkpt lat="42.3199483" lon="12.8389933"><ele>671.0</ele><time>2026-04-04T07:53:33.042Z</time></trkpt><trkpt lat="42.3198083" lon="12.8391167"><ele>671.0</ele><time>2026-04-04T07:53:34.04Z</time></trkpt><trkpt lat="42.3197167" lon="12.83918"><ele>676.0</ele><time>2026-04-04T07:53:35.042Z</time></trkpt><trkpt lat="42.3196217" lon="12.8392417"><ele>681.0</ele><time>2026-04-04T07:53:36.042Z</time></trkpt><trkpt lat="42.3195317" lon="12.83923"><ele>686.0</ele><time>2026-04-04T07:53:38.04Z</time></trkpt><trkpt lat="42.31944" lon="12.83922"><ele>691.0</ele><time>2026-04-04T07:53:40.041Z</time></trkpt><trkpt lat="42.3194267" lon="12.8390617"><ele>696.0</ele><time>2026-04-04T07:53:41.042Z</time></trkpt><trkpt lat="42.3194083" lon="12.8389433"><ele>696.0</ele><time>2026-04-04T07:53:42.04Z</time></trkpt><trkpt lat="42.3190367" lon="12.8386283"><ele>696.0</ele><time>2026-04-04T07:53:43.041Z</time></trkpt><trkpt lat="42.3189433" lon="12.8384833"><ele>718.5</ele><time>2026-04-04T07:53:44.041Z</time></trkpt><trkpt lat="42.3188483" lon="12.83844"><ele>741.0</ele><time>2026-04-04T07:53:45.042Z</time></trkpt><trkpt lat="42.31856" lon="12.83814"><ele>741.0</ele><time>2026-04-04T07:53:46.041Z</time></trkpt><trkpt lat="42.3183833" lon="12.8379333"><ele>741.0</ele><time>2026-04-04T07:53:47.041Z</time></trkpt><trkpt lat="42.3183667" lon="12.8378017"><ele>741.0</ele><time>2026-04-04T07:53:48.042Z</time></trkpt><trkpt lat="42.31827" lon="12.8376267"><ele>745.4</ele><time>2026-04-04T07:53:49.042Z</time></trkpt><trkpt lat="42.3183283" lon="12.8375817"><ele>749.8</ele><time>2026-04-04T07:53:50.042Z</time></trkpt><trkpt lat="42.3182133" lon="12.8374283"><ele>754.1999999999999</ele><time>2026-04-04T07:53:51.041Z</time></trkpt><trkpt lat="42.3181867" lon="12.8373267"><ele>758.5999999999999</ele><time>2026-04-04T07:53:52.041Z</time></trkpt><trkpt lat="42.318245" lon="12.8372267"><ele>763.0</ele><time>2026-04-04T07:53:54.042Z</time></trkpt><trkpt lat="42.3182383" lon="12.8371183"><ele>763.0</ele><time>2026-04-04T07:53:56.043Z</time></trkpt><trkpt lat="42.3183067" lon="12.837015"><ele>763.0</ele><time>2026-04-04T07:53:58.04Z</time></trkpt><trkpt lat="42.3182967" lon="12.836895"><ele>763.0</ele><time>2026-04-04T07:54:00.041Z</time></trkpt><trkpt lat="42.3182717" lon="12.8367817"><ele>763.0</ele><time>2026-04-04T07:54:02.04Z</time></trkpt><trkpt lat="42.3183333" lon="12.836755"><ele>763.0</ele><time>2026-04-04T07:54:03.041Z</time></trkpt><trkpt lat="42.3181367" lon="12.836655"><ele>767.3333333333334</ele><time>2026-04-04T07:54:06.041Z</time></trkpt><trkpt lat="42.318065" lon="12.8366817"><ele>771.6666666666667</ele><time>2026-04-04T07:54:08.041Z</time></trkpt><trkpt lat="42.317995" lon="12.8367133"><ele>776.0</ele><time>2026-04-04T07:54:09.043Z</time></trkpt><trkpt lat="42.3200567" lon="12.83571"><ele>749.25</ele><time>2026-04-04T07:54:10.04Z</time></trkpt><trkpt lat="42.3200367" lon="12.83533"><ele>722.5</ele><time>2026-04-04T07:54:11.042Z</time></trkpt><trkpt lat="42.3199767" lon="12.8352867"><ele>695.75</ele><time>2026-04-04T07:54:12.041Z</time></trkpt><trkpt lat="42.3199083" lon="12.83528"><ele>669.0</ele><time>2026-04-04T07:54:13.042Z</time></trkpt><trkpt lat="42.3198217" lon="12.8352517"><ele>669.0</ele><time>2026-04-04T07:54:14.041Z</time></trkpt><trkpt lat="42.3197433" lon="12.8352533"><ele>669.0</ele><time>2026-04-04T07:54:15.042Z</time></trkpt><trkpt lat="42.3196333" lon="12.8351567"><ele>669.0</ele><time>2026-04-04T07:54:16.04Z</time></trkpt><trkpt lat="42.3195567" lon="12.8350233"><ele>669.0</ele><time>2026-04-04T07:54:18.041Z</time></trkpt><trkpt lat="42.3194667" lon="12.8350267"><ele>669.0</ele><time>2026-04-04T07:54:20.041Z</time></trkpt><trkpt lat="42.3194017" lon="12.835025"><ele>674.6</ele><time>2026-04-04T07:54:22.039Z</time></trkpt><trkpt lat="42.3193367" lon="12.8352017"><ele>680.2</ele><time>2026-04-04T07:54:24.04Z</time></trkpt><trkpt lat="42.3192833" lon="12.83532"><ele>685.8000000000001</ele><time>2026-04-04T07:54:26.04Z</time></trkpt><trkpt lat="42.3192083" lon="12.83529"><ele>691.4000000000001</ele><time>2026-04-04T07:54:29.04Z</time></trkpt><trkpt lat="42.3191033" lon="12.8352567"><ele>697.0</ele><time>2026-04-04T07:54:31.04Z</time></trkpt><trkpt lat="42.3190183" lon="12.83524"><ele>697.0</ele><time>2026-04-04T07:54:32.04Z</time></trkpt><trkpt lat="42.3189633" lon="12.835285"><ele>697.0</ele><time>2026-04-04T07:54:33.041Z</time></trkpt><trkpt lat="42.3188867" lon="12.835285"><ele>697.0</ele><time>2026-04-04T07:54:34.04Z</time></trkpt><trkpt lat="42.318805" lon="12.835255"><ele>697.0</ele><time>2026-04-04T07:54:35.043Z</time></trkpt><trkpt lat="42.31874" lon="12.8352367"><ele>697.0</ele><time>2026-04-04T07:54:36.04Z</time></trkpt><trkpt lat="42.3186433" lon="12.83531"><ele>697.0</ele><time>2026-04-04T07:54:38.04Z</time></trkpt><trkpt lat="42.3185617" lon="12.83536"><ele>704.0</ele><time>2026-04-04T07:54:41.04Z</time></trkpt><trkpt lat="42.3185167" lon="12.8354383"><ele>711.0</ele><time>2026-04-04T07:54:42.04Z</time></trkpt><trkpt lat="42.3184133" lon="12.8353767"><ele>718.0</ele><time>2026-04-04T07:54:43.041Z</time></trkpt><trkpt lat="42.3183467" lon="12.8353817"><ele>725.0</ele><time>2026-04-04T07:54:44.041Z</time></trkpt><trkpt lat="42.3182983" lon="12.8354517"><ele>732.0</ele><time>2026-04-04T07:54:45.042Z</time></trkpt><trkpt lat="42.3181933" lon="12.835465"><ele>739.0</ele><time>2026-04-04T07:54:47.041Z</time></trkpt><trkpt lat="42.3164833" lon="12.8386417"><ele>749.0</ele><time>2026-04-04T07:54:49.04Z</time></trkpt><trkpt lat="42.3159867" lon="12.8393133"><ele>749.0</ele><time>2026-04-04T07:54:50.04Z</time></trkpt><trkpt lat="42.315825" lon="12.8393883"><ele>749.0</ele><time>2026-04-04T07:54:51.04Z</time></trkpt><trkpt lat="42.315675" lon="12.83947"><ele>749.0</ele><time>2026-04-04T07:54:52.039Z</time></trkpt><trkpt lat="42.31557" lon="12.8395733"><ele>749.0</ele><time>2026-04-04T07:54:53.04Z</time></trkpt><trkpt lat="42.315575" lon="12.83966"><ele>749.0</ele><time>2026-04-04T07:54:54.041Z</time></trkpt><trkpt lat="42.3155383" lon="12.839745"><ele>749.0</ele><time>2026-04-04T07:54:55.041Z</time></trkpt><trkpt lat="42.3176667" lon="12.83968"><ele>745.5</ele><time>2026-04-04T07:54:56.041Z</time></trkpt><trkpt lat="42.317805" lon="12.8397083"><ele>742.0</ele><time>2026-04-04T07:54:57.042Z</time></trkpt><trkpt lat="42.3178683" lon="12.8397833"><ele>738.5</ele><time>2026-04-04T07:54:58.04Z</time></trkpt><trkpt lat="42.31807" lon="12.83985"><ele>735.0</ele><time>2026-04-04T07:54:59.04Z</time></trkpt><trkpt lat="42.3181617" lon="12.8398517"><ele>735.0</ele><time>2026-04-04T07:55:00.04Z</time></trkpt><trkpt lat="42.31808" lon="12.839895"><ele>735.0</ele><time>2026-04-04T07:55:03.04Z</time></trkpt><trkpt lat="42.31799" lon="12.8398667"><ele>735.0</ele><time>2026-04-04T07:56:09.041Z</time></trkpt><trkpt lat="42.3179033" lon="12.839825"><ele>735.0</ele><time>2026-04-04T07:56:12.041Z</time></trkpt><trkpt lat="42.31784" lon="12.83979"><ele>735.0</ele><time>2026-04-04T07:56:14.041Z</time></trkpt><trkpt lat="42.317785" lon="12.8397467"><ele>735.0</ele><time>2026-04-04T07:56:16.041Z</time></trkpt><trkpt lat="42.3177183" lon="12.8397167"><ele>735.0</ele><time>2026-04-04T07:56:18.04Z</time></trkpt><trkpt lat="42.3176467" lon="12.8396967"><ele>735.0</ele><time>2026-04-04T07:56:20.042Z</time></trkpt><trkpt lat="42.3175717" lon="12.8396583"><ele>735.0</ele><time>2026-04-04T07:56:23.041Z</time></trkpt><trkpt lat="42.317485" lon="12.8396333"><ele>735.0</ele><time>2026-04-04T07:56:26.041Z</time></trkpt><trkpt lat="42.3174283" lon="12.8395917"><ele>735.0</ele><time>2026-04-04T07:56:28.04Z</time></trkpt><trkpt lat="42.3173717" lon="12.839545"><ele>735.0</ele><time>2026-04-04T07:56:30.042Z</time></trkpt><trkpt lat="42.3172967" lon="12.8394783"><ele>737.4</ele><time>2026-04-04T07:56:33.04Z</time></trkpt><trkpt lat="42.3172317" lon="12.8394383"><ele>739.8</ele><time>2026-04-04T07:56:35.041Z</time></trkpt><trkpt lat="42.3171867" lon="12.839375"><ele>742.2</ele><time>2026-04-04T07:56:37.04Z</time></trkpt><trkpt lat="42.3171017" lon="12.8393283"><ele>744.6</ele><time>2026-04-04T07:56:39.041Z</time></trkpt><trkpt lat="42.31701" lon="12.839285"><ele>747.0</ele><time>2026-04-04T07:56:41.04Z</time></trkpt><trkpt lat="42.316885" lon="12.8392583"><ele>750.3333333333334</ele><time>2026-04-04T07:56:43.042Z</time></trkpt><trkpt lat="42.31681" lon="12.8392383"><ele>753.6666666666666</ele><time>2026-04-04T07:56:44.04Z</time></trkpt><trkpt lat="42.316735" lon="12.839235"><ele>757.0</ele><time>2026-04-04T07:56:45.041Z</time></trkpt><trkpt lat="42.3166567" lon="12.83922"><ele>760.3333333333333</ele><time>2026-04-04T07:56:46.04Z</time></trkpt><trkpt lat="42.3165717" lon="12.8392067"><ele>763.6666666666666</ele><time>2026-04-04T07:56:47.041Z</time></trkpt><trkpt lat="42.316505" lon="12.8391583"><ele>767.0</ele><time>2026-04-04T07:56:48.04Z</time></trkpt><trkpt lat="42.3164333" lon="12.8391083"><ele>764.8333333333333</ele><time>2026-04-04T07:56:49.043Z</time></trkpt><trkpt lat="42.3163717" lon="12.839045"><ele>762.6666666666666</ele><time>2026-04-04T07:56:50.04Z</time></trkpt><trkpt lat="42.316305" lon="12.8390067"><ele>760.5</ele><time>2026-04-04T07:56:51.04Z</time></trkpt><trkpt lat="42.3162333" lon="12.8389683"><ele>758.3333333333334</ele><time>2026-04-04T07:56:52.039Z</time></trkpt><trkpt lat="42.3161683" lon="12.8389367"><ele>756.1666666666667</ele><time>2026-04-04T07:56:53.04Z</time></trkpt><trkpt lat="42.31611" lon="12.83889"><ele>754.0</ele><time>2026-04-04T07:56:54.04Z</time></trkpt><trkpt lat="42.3159967" lon="12.8389067"><ele>754.0</ele><time>2026-04-04T07:56:56.04Z</time></trkpt><trkpt lat="42.3159117" lon="12.8389883"><ele>754.0</ele><time>2026-04-04T07:56:59.041Z</time></trkpt><trkpt lat="42.31585" lon="12.838935"><ele>754.0</ele><time>2026-04-04T07:57:01.043Z</time></trkpt><trkpt lat="42.3157817" lon="12.8388267"><ele>754.0</ele><time>2026-04-04T07:57:03.04Z</time></trkpt><trkpt lat="42.31575" lon="12.8387517"><ele>754.0</ele><time>2026-04-04T07:57:04.04Z</time></trkpt><trkpt lat="42.31571" lon="12.8386817"><ele>754.0</ele><time>2026-04-04T07:57:05.041Z</time></trkpt><trkpt lat="42.315665" lon="12.8385617"><ele>754.0</ele><time>2026-04-04T07:57:07.04Z</time></trkpt><trkpt lat="42.3156183" lon="12.8384683"><ele>754.0</ele><time>2026-04-04T07:57:08.041Z</time></trkpt><trkpt lat="42.3155817" lon="12.8383683"><ele>754.0</ele><time>2026-04-04T07:57:09.044Z</time></trkpt><trkpt lat="42.3155433" lon="12.8382017"><ele>754.0</ele><time>2026-04-04T07:57:11.041Z</time></trkpt><trkpt lat="42.315515" lon="12.8381183"><ele>754.0</ele><time>2026-04-04T07:57:12.041Z</time></trkpt><trkpt lat="42.3154833" lon="12.838035"><ele>754.0</ele><time>2026-04-04T07:57:13.04Z</time></trkpt><trkpt lat="42.3154967" lon="12.837935"><ele>749.8000000000001</ele><time>2026-04-04T07:57:14.041Z</time></trkpt><trkpt lat="42.3154933" lon="12.837835"><ele>745.6</ele><time>2026-04-04T07:57:15.043Z</time></trkpt><trkpt lat="42.3155083" lon="12.8376633"><ele>741.4</ele><time>2026-04-04T07:57:17.039Z</time></trkpt><trkpt lat="42.3155183" lon="12.8375733"><ele>737.2</ele><time>2026-04-04T07:57:18.041Z</time></trkpt><trkpt lat="42.3155333" lon="12.8374833"><ele>733.0</ele><time>2026-04-04T07:57:19.04Z</time></trkpt><trkpt lat="42.3155483" lon="12.8373183"><ele>732.9999999999999</ele><time>2026-04-04T07:57:21.042Z</time></trkpt><trkpt lat="42.3155483" lon="12.83723"><ele>733.0</ele><time>2026-04-04T07:57:22.039Z</time></trkpt><trkpt lat="42.3155383" lon="12.8371267"><ele>733.0</ele><time>2026-04-04T07:57:23.041Z</time></trkpt><trkpt lat="42.3155217" lon="12.8370233"><ele>733.0</ele><time>2026-04-04T07:57:24.041Z</time></trkpt><trkpt lat="42.315505" lon="12.8369267"><ele>733.0</ele><time>2026-04-04T07:57:25.04Z</time></trkpt><trkpt lat="42.3154783" lon="12.83684"><ele>732.9999999999999</ele><time>2026-04-04T07:57:26.041Z</time></trkpt><trkpt lat="42.3154483" lon="12.83675"><ele>733.0</ele><time>2026-04-04T07:57:27.042Z</time></trkpt><trkpt lat="42.3154133" lon="12.8366533"><ele>734.0</ele><time>2026-04-04T07:57:28.04Z</time></trkpt><trkpt lat="42.3153683" lon="12.836565"><ele>735.0</ele><time>2026-04-04T07:57:29.041Z</time></trkpt><trkpt lat="42.3153217" lon="12.8364783"><ele>736.0</ele><time>2026-04-04T07:57:30.04Z</time></trkpt><trkpt lat="42.3152617" lon="12.8363883"><ele>737.0</ele><time>2026-04-04T07:57:31.04Z</time></trkpt><trkpt lat="42.3151783" lon="12.8363017"><ele>738.0</ele><time>2026-04-04T07:57:32.04Z</time></trkpt><trkpt lat="42.3151167" lon="12.8362183"><ele>739.0</ele><time>2026-04-04T07:57:33.041Z</time></trkpt><trkpt lat="42.3150617" lon="12.8361483"><ele>739.0</ele><time>2026-04-04T07:57:34.041Z</time></trkpt><trkpt lat="42.315005" lon="12.8360817"><ele>739.0</ele><time>2026-04-04T07:57:35.04Z</time></trkpt><trkpt lat="42.314935" lon="12.8360233"><ele>739.0</ele><time>2026-04-04T07:57:36.041Z</time></trkpt><trkpt lat="42.31487" lon="12.8359833"><ele>739.0</ele><time>2026-04-04T07:57:37.041Z</time></trkpt><trkpt lat="42.3147383" lon="12.8359417"><ele>739.0</ele><time>2026-04-04T07:57:39.041Z</time></trkpt><trkpt lat="42.314665" lon="12.835935"><ele>739.0</ele><time>2026-04-04T07:57:40.04Z</time></trkpt><trkpt lat="42.3145817" lon="12.83592"><ele>740.0</ele><time>2026-04-04T07:57:41.041Z</time></trkpt><trkpt lat="42.3144533" lon="12.8359633"><ele>741.0</ele><time>2026-04-04T07:57:42.042Z</time></trkpt><trkpt lat="42.314365" lon="12.8359833"><ele>742.0</ele><time>2026-04-04T07:57:43.041Z</time></trkpt><trkpt lat="42.314275" lon="12.8359967"><ele>743.0</ele><time>2026-04-04T07:57:44.041Z</time></trkpt><trkpt lat="42.3141817" lon="12.8360067"><ele>744.0</ele><time>2026-04-04T07:57:45.041Z</time></trkpt><trkpt lat="42.3140883" lon="12.8360167"><ele>744.0</ele><time>2026-04-04T07:57:46.04Z</time></trkpt><trkpt lat="42.3139983" lon="12.836045"><ele>744.0</ele><time>2026-04-04T07:57:47.041Z</time></trkpt><trkpt lat="42.313905" lon="12.8360883"><ele>744.0</ele><time>2026-04-04T07:57:48.039Z</time></trkpt><trkpt lat="42.3138133" lon="12.8361483"><ele>744.0</ele><time>2026-04-04T07:57:49.04Z</time></trkpt><trkpt lat="42.31374" lon="12.83621"><ele>744.0</ele><time>2026-04-04T07:57:50.04Z</time></trkpt><trkpt lat="42.31368" lon="12.836275"><ele>747.1666666666666</ele><time>2026-04-04T07:57:51.041Z</time></trkpt><trkpt lat="42.3136133" lon="12.8363267"><ele>750.3333333333334</ele><time>2026-04-04T07:57:52.04Z</time></trkpt><trkpt lat="42.3135533" lon="12.8363933"><ele>753.5</ele><time>2026-04-04T07:57:53.04Z</time></trkpt><trkpt lat="42.3134783" lon="12.8364217"><ele>756.6666666666667</ele><time>2026-04-04T07:57:54.042Z</time></trkpt><trkpt lat="42.3133933" lon="12.836435"><ele>759.8333333333334</ele><time>2026-04-04T07:57:55.04Z</time></trkpt><trkpt lat="42.31331" lon="12.8364733"><ele>763.0</ele><time>2026-04-04T07:57:56.041Z</time></trkpt><trkpt lat="42.313235" lon="12.8365167"><ele>763.0</ele><time>2026-04-04T07:57:57.042Z</time></trkpt><trkpt lat="42.3131633" lon="12.836525"><ele>763.0</ele><time>2026-04-04T07:57:58.04Z</time></trkpt><trkpt lat="42.31305" lon="12.8365367"><ele>763.0</ele><time>2026-04-04T07:58:00.041Z</time></trkpt><trkpt lat="42.3129417" lon="12.8364717"><ele>763.0</ele><time>2026-04-04T07:58:02.04Z</time></trkpt><trkpt lat="42.31287" lon="12.83636"><ele>763.0</ele><time>2026-04-04T07:58:04.04Z</time></trkpt><trkpt lat="42.312845" lon="12.8362683"><ele>762.5</ele><time>2026-04-04T07:58:05.042Z</time></trkpt><trkpt lat="42.3128383" lon="12.8361517"><ele>762.0</ele><time>2026-04-04T07:58:06.041Z</time></trkpt><trkpt lat="42.312815" lon="12.8360617"><ele>761.5</ele><time>2026-04-04T07:58:07.04Z</time></trkpt><trkpt lat="42.31278" lon="12.8359783"><ele>761.0</ele><time>2026-04-04T07:58:08.041Z</time></trkpt><trkpt lat="42.31274" lon="12.8358883"><ele>760.5</ele><time>2026-04-04T07:58:09.04Z</time></trkpt><trkpt lat="42.3126917" lon="12.8358133"><ele>760.0</ele><time>2026-04-04T07:58:10.04Z</time></trkpt><trkpt lat="42.31264" lon="12.8357433"><ele>764.6</ele><time>2026-04-04T07:58:11.041Z</time></trkpt><trkpt lat="42.3125267" lon="12.835675"><ele>769.2</ele><time>2026-04-04T07:58:13.04Z</time></trkpt><trkpt lat="42.312405" lon="12.8356333"><ele>773.8</ele><time>2026-04-04T07:58:15.041Z</time></trkpt><trkpt lat="42.3123233" lon="12.8356183"><ele>778.4</ele><time>2026-04-04T07:58:16.04Z</time></trkpt><trkpt lat="42.3122317" lon="12.8356183"><ele>783.0</ele><time>2026-04-04T07:58:17.041Z</time></trkpt><trkpt lat="42.31214" lon="12.8356567"><ele>784.8</ele><time>2026-04-04T07:58:18.043Z</time></trkpt><trkpt lat="42.3120417" lon="12.835675"><ele>786.5999999999999</ele><time>2026-04-04T07:58:19.041Z</time></trkpt><trkpt lat="42.3119533" lon="12.8356533"><ele>788.4000000000001</ele><time>2026-04-04T07:58:20.041Z</time></trkpt><trkpt lat="42.3118517" lon="12.8356617"><ele>790.2</ele><time>2026-04-04T07:58:21.041Z</time></trkpt><trkpt lat="42.311755" lon="12.835675"><ele>792.0</ele><time>2026-04-04T07:58:22.04Z</time></trkpt><trkpt lat="42.3116617" lon="12.8357"><ele>792.0</ele><time>2026-04-04T07:58:23.041Z</time></trkpt><trkpt lat="42.311555" lon="12.8357317"><ele>792.0</ele><time>2026-04-04T07:58:24.041Z</time></trkpt><trkpt lat="42.31146" lon="12.8357617"><ele>792.0</ele><time>2026-04-04T07:58:25.04Z</time></trkpt><trkpt lat="42.311365" lon="12.8357833"><ele>792.0</ele><time>2026-04-04T07:58:26.041Z</time></trkpt><trkpt lat="42.311275" lon="12.8358033"><ele>792.0</ele><time>2026-04-04T07:58:27.041Z</time></trkpt><trkpt lat="42.31119" lon="12.8358417"><ele>791.3333333333334</ele><time>2026-04-04T07:58:28.04Z</time></trkpt><trkpt lat="42.311105" lon="12.8358867"><ele>790.6666666666667</ele><time>2026-04-04T07:58:29.041Z</time></trkpt><trkpt lat="42.3110317" lon="12.835915"><ele>790.0</ele><time>2026-04-04T07:58:30.04Z</time></trkpt><trkpt lat="42.3109633" lon="12.8359367"><ele>789.3333333333334</ele><time>2026-04-04T07:58:31.04Z</time></trkpt><trkpt lat="42.3109033" lon="12.8359683"><ele>788.6666666666667</ele><time>2026-04-04T07:58:32.04Z</time></trkpt><trkpt lat="42.310795" lon="12.836005"><ele>788.0</ele><time>2026-04-04T07:58:34.04Z</time></trkpt><trkpt lat="42.3107083" lon="12.8359883"><ele>788.0</ele><time>2026-04-04T07:58:36.041Z</time></trkpt><trkpt lat="42.3106867" lon="12.8359067"><ele>788.0</ele><time>2026-04-04T07:58:38.039Z</time></trkpt><trkpt lat="42.3107283" lon="12.83575"><ele>788.0</ele><time>2026-04-04T07:58:40.04Z</time></trkpt><trkpt lat="42.3107533" lon="12.8356033"><ele>788.0</ele><time>2026-04-04T07:58:42.041Z</time></trkpt><trkpt lat="42.31082" lon="12.83545"><ele>788.0</ele><time>2026-04-04T07:58:44.042Z</time></trkpt><trkpt lat="42.3108917" lon="12.8353733"><ele>788.0</ele><time>2026-04-04T07:58:45.042Z</time></trkpt><trkpt lat="42.31096" lon="12.8352967"><ele>788.0</ele><time>2026-04-04T07:58:46.039Z</time></trkpt><trkpt lat="42.3110383" lon="12.8352033"><ele>788.0</ele><time>2026-04-04T07:58:47.041Z</time></trkpt><trkpt lat="42.311105" lon="12.8351067"><ele>788.0</ele><time>2026-04-04T07:58:48.041Z</time></trkpt><trkpt lat="42.31117" lon="12.83502"><ele>788.0</ele><time>2026-04-04T07:58:49.04Z</time></trkpt><trkpt lat="42.31124" lon="12.8349317"><ele>788.0</ele><time>2026-04-04T07:58:50.041Z</time></trkpt><trkpt lat="42.3113133" lon="12.8348383"><ele>788.0</ele><time>2026-04-04T07:58:51.041Z</time></trkpt><trkpt lat="42.3113867" lon="12.8347483"><ele>788.0</ele><time>2026-04-04T07:58:52.04Z</time></trkpt><trkpt lat="42.31146" lon="12.83467"><ele>788.0</ele><time>2026-04-04T07:58:53.04Z</time></trkpt><trkpt lat="42.311525" lon="12.8346083"><ele>788.0</ele><time>2026-04-04T07:58:54.041Z</time></trkpt><trkpt lat="42.3116067" lon="12.8345217"><ele>790.6666666666667</ele><time>2026-04-04T07:58:55.04Z</time></trkpt><trkpt lat="42.3116717" lon="12.8344233"><ele>793.3333333333334</ele><time>2026-04-04T07:58:56.041Z</time></trkpt><trkpt lat="42.311725" lon="12.8343167"><ele>796.0</ele><time>2026-04-04T07:58:57.04Z</time></trkpt><trkpt lat="42.311775" lon="12.8342067"><ele>798.6666666666667</ele><time>2026-04-04T07:58:58.04Z</time></trkpt><trkpt lat="42.3118217" lon="12.834135"><ele>801.3333333333334</ele><time>2026-04-04T07:58:59.04Z</time></trkpt><trkpt lat="42.3118583" lon="12.8340333"><ele>804.0</ele><time>2026-04-04T07:59:00.041Z</time></trkpt><trkpt lat="42.311875" lon="12.8339183"><ele>804.0</ele><time>2026-04-04T07:59:01.04Z</time></trkpt><trkpt lat="42.3118933" lon="12.8337983"><ele>804.0</ele><time>2026-04-04T07:59:02.042Z</time></trkpt><trkpt lat="42.3118917" lon="12.8336683"><ele>804.0</ele><time>2026-04-04T07:59:03.042Z</time></trkpt><trkpt lat="42.3118883" lon="12.833535"><ele>804.0</ele><time>2026-04-04T07:59:04.039Z</time></trkpt><trkpt lat="42.311885" lon="12.83342"><ele>804.0</ele><time>2026-04-04T07:59:05.041Z</time></trkpt><trkpt lat="42.3118833" lon="12.8333183"><ele>804.0</ele><time>2026-04-04T07:59:06.04Z</time></trkpt><trkpt lat="42.31188" lon="12.833185"><ele>804.0</ele><time>2026-04-04T07:59:07.04Z</time></trkpt><trkpt lat="42.31187" lon="12.8330433"><ele>804.0</ele><time>2026-04-04T07:59:08.04Z</time></trkpt><trkpt lat="42.3118533" lon="12.83292"><ele>804.0</ele><time>2026-04-04T07:59:09.039Z</time></trkpt><trkpt lat="42.3118417" lon="12.83279"><ele>804.0</ele><time>2026-04-04T07:59:10.039Z</time></trkpt><trkpt lat="42.3118233" lon="12.8326483"><ele>804.0</ele><time>2026-04-04T07:59:11.04Z</time></trkpt><trkpt lat="42.3118067" lon="12.832525"><ele>804.0</ele><time>2026-04-04T07:59:12.041Z</time></trkpt><trkpt lat="42.311785" lon="12.8323983"><ele>804.0</ele><time>2026-04-04T07:59:13.041Z</time></trkpt><trkpt lat="42.311775" lon="12.83229"><ele>804.0</ele><time>2026-04-04T07:59:14.041Z</time></trkpt><trkpt lat="42.311775" lon="12.8321983"><ele>804.0</ele><time>2026-04-04T07:59:15.041Z</time></trkpt><trkpt lat="42.31179" lon="12.8321017"><ele>804.0</ele><time>2026-04-04T07:59:16.039Z</time></trkpt><trkpt lat="42.31181" lon="12.8320083"><ele>804.0</ele><time>2026-04-04T07:59:17.04Z</time></trkpt><trkpt lat="42.3118483" lon="12.83192"><ele>804.0</ele><time>2026-04-04T07:59:18.04Z</time></trkpt><trkpt lat="42.311905" lon="12.831835"><ele>804.0</ele><time>2026-04-04T07:59:19.04Z</time></trkpt><trkpt lat="42.31197" lon="12.8317567"><ele>804.0</ele><time>2026-04-04T07:59:20.042Z</time></trkpt><trkpt lat="42.3120217" lon="12.8316817"><ele>804.0</ele><time>2026-04-04T07:59:21.041Z</time></trkpt><trkpt lat="42.3120717" lon="12.8316117"><ele>804.0</ele><time>2026-04-04T07:59:22.04Z</time></trkpt><trkpt lat="42.3121083" lon="12.8315167"><ele>804.0</ele><time>2026-04-04T07:59:23.04Z</time></trkpt><trkpt lat="42.3121467" lon="12.8314183"><ele>804.1666666666666</ele><time>2026-04-04T07:59:24.04Z</time></trkpt><trkpt lat="42.3121733" lon="12.8313183"><ele>804.3333333333333</ele><time>2026-04-04T07:59:25.041Z</time></trkpt><trkpt lat="42.3121967" lon="12.8312333"><ele>804.5</ele><time>2026-04-04T07:59:26.041Z</time></trkpt><trkpt lat="42.3122133" lon="12.8311283"><ele>804.6666666666666</ele><time>2026-04-04T07:59:27.04Z</time></trkpt><trkpt lat="42.3122117" lon="12.8310083"><ele>804.8333333333333</ele><time>2026-04-04T07:59:29.04Z</time></trkpt><trkpt lat="42.31218" lon="12.830865"><ele>805.0</ele><time>2026-04-04T07:59:31.04Z</time></trkpt><trkpt lat="42.3121133" lon="12.8306883"><ele>804.9999999999999</ele><time>2026-04-04T07:59:43.039Z</time></trkpt><trkpt lat="42.31208" lon="12.8306067"><ele>805.0</ele><time>2026-04-04T07:59:45.041Z</time></trkpt><trkpt lat="42.3120333" lon="12.8304667"><ele>805.0</ele><time>2026-04-04T07:59:47.039Z</time></trkpt><trkpt lat="42.31199" lon="12.83039"><ele>805.0</ele><time>2026-04-04T07:59:48.04Z</time></trkpt><trkpt lat="42.3119533" lon="12.8303133"><ele>804.9999999999999</ele><time>2026-04-04T07:59:49.04Z</time></trkpt><trkpt lat="42.3119233" lon="12.8302283"><ele>805.0</ele><time>2026-04-04T07:59:50.042Z</time></trkpt><trkpt lat="42.3118867" lon="12.83013"><ele>806.3333333333333</ele><time>2026-04-04T07:59:51.039Z</time></trkpt><trkpt lat="42.3118533" lon="12.8300233"><ele>807.6666666666666</ele><time>2026-04-04T07:59:52.04Z</time></trkpt><trkpt lat="42.3118133" lon="12.8299217"><ele>809.0</ele><time>2026-04-04T07:59:53.039Z</time></trkpt><trkpt lat="42.311775" lon="12.8298267"><ele>810.3333333333333</ele><time>2026-04-04T07:59:54.04Z</time></trkpt><trkpt lat="42.31173" lon="12.8297217"><ele>811.6666666666666</ele><time>2026-04-04T07:59:55.041Z</time></trkpt><trkpt lat="42.311685" lon="12.8296217"><ele>813.0</ele><time>2026-04-04T07:59:56.041Z</time></trkpt><trkpt lat="42.311645" lon="12.829525"><ele>813.0</ele><time>2026-04-04T07:59:57.041Z</time></trkpt><trkpt lat="42.3116133" lon="12.8294233"><ele>813.0</ele><time>2026-04-04T07:59:58.04Z</time></trkpt><trkpt lat="42.311575" lon="12.829315"><ele>813.0</ele><time>2026-04-04T07:59:59.041Z</time></trkpt><trkpt lat="42.311545" lon="12.829215"><ele>813.0</ele><time>2026-04-04T08:00:00.044Z</time></trkpt><trkpt lat="42.3115117" lon="12.8291183"><ele>813.0</ele><time>2026-04-04T08:00:01.041Z</time></trkpt><trkpt lat="42.311475" lon="12.8290417"><ele>813.0</ele><time>2026-04-04T08:00:02.041Z</time></trkpt><trkpt lat="42.31143" lon="12.8289767"><ele>814.1428571428572</ele><time>2026-04-04T08:00:03.041Z</time></trkpt><trkpt lat="42.3113417" lon="12.828905"><ele>815.2857142857142</ele><time>2026-04-04T08:00:05.039Z</time></trkpt><trkpt lat="42.3112783" lon="12.8289017"><ele>816.4285714285714</ele><time>2026-04-04T08:00:06.04Z</time></trkpt><trkpt lat="42.31121" lon="12.8289017"><ele>817.5714285714287</ele><time>2026-04-04T08:00:07.04Z</time></trkpt><trkpt lat="42.3111383" lon="12.8289033"><ele>818.7142857142858</ele><time>2026-04-04T08:00:08.041Z</time></trkpt><trkpt lat="42.311075" lon="12.8289"><ele>819.8571428571429</ele><time>2026-04-04T08:00:09.039Z</time></trkpt><trkpt lat="42.311" lon="12.8288833"><ele>821.0</ele><time>2026-04-04T08:00:10.04Z</time></trkpt><trkpt lat="42.3109367" lon="12.828855"><ele>821.0000000000001</ele><time>2026-04-04T08:00:11.039Z</time></trkpt><trkpt lat="42.310885" lon="12.828805"><ele>821.0</ele><time>2026-04-04T08:00:12.041Z</time></trkpt><trkpt lat="42.3108" lon="12.8286967"><ele>821.0</ele><time>2026-04-04T08:00:14.043Z</time></trkpt><trkpt lat="42.3107433" lon="12.8285417"><ele>821.0</ele><time>2026-04-04T08:00:16.039Z</time></trkpt><trkpt lat="42.3107133" lon="12.828455"><ele>821.0000000000001</ele><time>2026-04-04T08:00:17.039Z</time></trkpt><trkpt lat="42.3106933" lon="12.8283717"><ele>821.0</ele><time>2026-04-04T08:00:18.039Z</time></trkpt><trkpt lat="42.31064" lon="12.8282083"><ele>822.3333333333334</ele><time>2026-04-04T08:00:20.039Z</time></trkpt><trkpt lat="42.3106033" lon="12.8281383"><ele>823.6666666666667</ele><time>2026-04-04T08:00:21.04Z</time></trkpt><trkpt lat="42.310555" lon="12.8280667"><ele>825.0</ele><time>2026-04-04T08:00:22.039Z</time></trkpt><trkpt lat="42.3105033" lon="12.82801"><ele>826.3333333333333</ele><time>2026-04-04T08:00:23.04Z</time></trkpt><trkpt lat="42.3103667" lon="12.8279183"><ele>827.6666666666666</ele><time>2026-04-04T08:00:25.041Z</time></trkpt><trkpt lat="42.3102783" lon="12.8278767"><ele>829.0</ele><time>2026-04-04T08:00:26.041Z</time></trkpt><trkpt lat="42.310195" lon="12.8278167"><ele>829.0</ele><time>2026-04-04T08:00:27.041Z</time></trkpt><trkpt lat="42.3101017" lon="12.827745"><ele>829.0</ele><time>2026-04-04T08:00:28.04Z</time></trkpt><trkpt lat="42.3100167" lon="12.8276717"><ele>829.0</ele><time>2026-04-04T08:00:29.041Z</time></trkpt><trkpt lat="42.3099333" lon="12.8276233"><ele>829.0</ele><time>2026-04-04T08:00:30.041Z</time></trkpt><trkpt lat="42.3098483" lon="12.827545"><ele>829.0</ele><time>2026-04-04T08:00:31.041Z</time></trkpt><trkpt lat="42.3097633" lon="12.8274967"><ele>833.1666666666666</ele><time>2026-04-04T08:00:32.043Z</time></trkpt><trkpt lat="42.3096867" lon="12.827455"><ele>837.3333333333333</ele><time>2026-04-04T08:00:33.041Z</time></trkpt><trkpt lat="42.3096083" lon="12.8274117"><ele>841.5</ele><time>2026-04-04T08:00:34.04Z</time></trkpt><trkpt lat="42.3095367" lon="12.8273983"><ele>845.6666666666667</ele><time>2026-04-04T08:00:35.041Z</time></trkpt><trkpt lat="42.30947" lon="12.82741"><ele>849.8333333333334</ele><time>2026-04-04T08:00:36.042Z</time></trkpt><trkpt lat="42.3093967" lon="12.827445"><ele>854.0</ele><time>2026-04-04T08:00:37.04Z</time></trkpt><trkpt lat="42.3093283" lon="12.8274817"><ele>854.0000000000001</ele><time>2026-04-04T08:00:38.043Z</time></trkpt><trkpt lat="42.3092317" lon="12.8275967"><ele>854.0</ele><time>2026-04-04T08:00:40.041Z</time></trkpt><trkpt lat="42.3091883" lon="12.82767"><ele>854.0</ele><time>2026-04-04T08:00:41.041Z</time></trkpt><trkpt lat="42.3091467" lon="12.82775"><ele>854.0</ele><time>2026-04-04T08:00:42.042Z</time></trkpt><trkpt lat="42.30912" lon="12.8278433"><ele>854.0000000000001</ele><time>2026-04-04T08:00:43.041Z</time></trkpt><trkpt lat="42.3090883" lon="12.8279183"><ele>854.0</ele><time>2026-04-04T08:00:44.041Z</time></trkpt><trkpt lat="42.30905" lon="12.8279867"><ele>852.1666666666667</ele><time>2026-04-04T08:00:45.043Z</time></trkpt><trkpt lat="42.3089967" lon="12.8280533"><ele>850.3333333333334</ele><time>2026-04-04T08:00:46.04Z</time></trkpt><trkpt lat="42.30894" lon="12.8281183"><ele>848.5</ele><time>2026-04-04T08:00:47.042Z</time></trkpt><trkpt lat="42.3088783" lon="12.8281617"><ele>846.6666666666667</ele><time>2026-04-04T08:00:48.04Z</time></trkpt><trkpt lat="42.308765" lon="12.8282033"><ele>844.8333333333334</ele><time>2026-04-04T08:00:50.041Z</time></trkpt><trkpt lat="42.3087" lon="12.8281983"><ele>843.0</ele><time>2026-04-04T08:00:51.04Z</time></trkpt><trkpt lat="42.30864" lon="12.8281667"><ele>842.0</ele><time>2026-04-04T08:00:52.04Z</time></trkpt><trkpt lat="42.3085817" lon="12.8281217"><ele>841.0</ele><time>2026-04-04T08:00:53.041Z</time></trkpt><trkpt lat="42.3085367" lon="12.8280367"><ele>840.0</ele><time>2026-04-04T08:00:54.04Z</time></trkpt><trkpt lat="42.308495" lon="12.8279333"><ele>839.0</ele><time>2026-04-04T08:00:55.041Z</time></trkpt><trkpt lat="42.308465" lon="12.8278167"><ele>838.0</ele><time>2026-04-04T08:00:56.042Z</time></trkpt><trkpt lat="42.308445" lon="12.82769"><ele>837.0</ele><time>2026-04-04T08:00:57.041Z</time></trkpt><trkpt lat="42.3084283" lon="12.8275567"><ele>839.4000000000001</ele><time>2026-04-04T08:00:58.04Z</time></trkpt><trkpt lat="42.308415" lon="12.8274217"><ele>841.8000000000001</ele><time>2026-04-04T08:00:59.04Z</time></trkpt><trkpt lat="42.3084017" lon="12.8272783"><ele>844.2</ele><time>2026-04-04T08:01:00.042Z</time></trkpt><trkpt lat="42.3083867" lon="12.8271367"><ele>846.6</ele><time>2026-04-04T08:01:01.041Z</time></trkpt><trkpt lat="42.30836" lon="12.826995"><ele>849.0</ele><time>2026-04-04T08:01:02.042Z</time></trkpt><trkpt lat="42.3083417" lon="12.8268567"><ele>851.2</ele><time>2026-04-04T08:01:03.041Z</time></trkpt><trkpt lat="42.3083217" lon="12.82672"><ele>853.4000000000001</ele><time>2026-04-04T08:01:04.039Z</time></trkpt><trkpt lat="42.3082933" lon="12.8265833"><ele>855.6</ele><time>2026-04-04T08:01:05.042Z</time></trkpt><trkpt lat="42.308275" lon="12.8264617"><ele>857.8</ele><time>2026-04-04T08:01:06.041Z</time></trkpt><trkpt lat="42.3082567" lon="12.826325"><ele>860.0</ele><time>2026-04-04T08:01:07.04Z</time></trkpt><trkpt lat="42.3082367" lon="12.8261883"><ele>860.0000000000001</ele><time>2026-04-04T08:01:08.041Z</time></trkpt><trkpt lat="42.3082217" lon="12.82606"><ele>860.0</ele><time>2026-04-04T08:01:09.04Z</time></trkpt><trkpt lat="42.3082067" lon="12.8259383"><ele>860.0</ele><time>2026-04-04T08:01:10.041Z</time></trkpt><trkpt lat="42.3081867" lon="12.8258217"><ele>860.0</ele><time>2026-04-04T08:01:11.043Z</time></trkpt><trkpt lat="42.308165" lon="12.825705"><ele>860.0000000000001</ele><time>2026-04-04T08:01:12.041Z</time></trkpt><trkpt lat="42.3081367" lon="12.8255983"><ele>860.0</ele><time>2026-04-04T08:01:13.041Z</time></trkpt><trkpt lat="42.3081133" lon="12.8255"><ele>859.8333333333334</ele><time>2026-04-04T08:01:14.041Z</time></trkpt><trkpt lat="42.308085" lon="12.825405"><ele>859.6666666666667</ele><time>2026-04-04T08:01:15.042Z</time></trkpt><trkpt lat="42.3080483" lon="12.82531"><ele>859.5</ele><time>2026-04-04T08:01:16.039Z</time></trkpt><trkpt lat="42.308015" lon="12.8252167"><ele>859.3333333333333</ele><time>2026-04-04T08:01:17.04Z</time></trkpt><trkpt lat="42.3079817" lon="12.8251267"><ele>859.1666666666666</ele><time>2026-04-04T08:01:18.041Z</time></trkpt><trkpt lat="42.3079467" lon="12.8250383"><ele>859.0</ele><time>2026-04-04T08:01:19.041Z</time></trkpt><trkpt lat="42.3079133" lon="12.82495"><ele>858.9999999999999</ele><time>2026-04-04T08:01:20.041Z</time></trkpt><trkpt lat="42.3078833" lon="12.8248567"><ele>859.0</ele><time>2026-04-04T08:01:21.04Z</time></trkpt><trkpt lat="42.3078533" lon="12.8247617"><ele>859.0</ele><time>2026-04-04T08:01:22.042Z</time></trkpt><trkpt lat="42.3078217" lon="12.8246667"><ele>859.0</ele><time>2026-04-04T08:01:23.043Z</time></trkpt><trkpt lat="42.3077917" lon="12.8245817"><ele>859.0</ele><time>2026-04-04T08:01:24.041Z</time></trkpt><trkpt lat="42.3077617" lon="12.8245067"><ele>858.9999999999999</ele><time>2026-04-04T08:01:25.042Z</time></trkpt><trkpt lat="42.3077217" lon="12.82444"><ele>859.0</ele><time>2026-04-04T08:01:26.04Z</time></trkpt><trkpt lat="42.3076717" lon="12.8243767"><ele>861.6666666666666</ele><time>2026-04-04T08:01:27.042Z</time></trkpt><trkpt lat="42.307615" lon="12.8243083"><ele>864.3333333333333</ele><time>2026-04-04T08:01:28.041Z</time></trkpt><trkpt lat="42.3075533" lon="12.8242517"><ele>867.0</ele><time>2026-04-04T08:01:29.04Z</time></trkpt><trkpt lat="42.307495" lon="12.824195"><ele>869.6666666666667</ele><time>2026-04-04T08:01:30.04Z</time></trkpt><trkpt lat="42.3074333" lon="12.8241383"><ele>872.3333333333334</ele><time>2026-04-04T08:01:31.041Z</time></trkpt><trkpt lat="42.30736" lon="12.8240883"><ele>875.0</ele><time>2026-04-04T08:01:32.041Z</time></trkpt><trkpt lat="42.3072783" lon="12.8240433"><ele>873.6666666666667</ele><time>2026-04-04T08:01:33.044Z</time></trkpt><trkpt lat="42.3071867" lon="12.824"><ele>872.3333333333334</ele><time>2026-04-04T08:01:34.041Z</time></trkpt><trkpt lat="42.3071" lon="12.8239767"><ele>871.0</ele><time>2026-04-04T08:01:35.041Z</time></trkpt><trkpt lat="42.307015" lon="12.8239533"><ele>869.6666666666667</ele><time>2026-04-04T08:01:36.04Z</time></trkpt><trkpt lat="42.306935" lon="12.823925"><ele>868.3333333333334</ele><time>2026-04-04T08:01:37.042Z</time></trkpt><trkpt lat="42.3068483" lon="12.8238917"><ele>867.0</ele><time>2026-04-04T08:01:38.041Z</time></trkpt><trkpt lat="42.3067667" lon="12.8238433"><ele>867.0</ele><time>2026-04-04T08:01:39.042Z</time></trkpt><trkpt lat="42.3066783" lon="12.82379"><ele>867.0</ele><time>2026-04-04T08:01:40.04Z</time></trkpt><trkpt lat="42.306585" lon="12.8237517"><ele>867.0</ele><time>2026-04-04T08:01:41.042Z</time></trkpt><trkpt lat="42.3064933" lon="12.8237183"><ele>867.0</ele><time>2026-04-04T08:01:42.042Z</time></trkpt><trkpt lat="42.306405" lon="12.823685"><ele>867.0</ele><time>2026-04-04T08:01:43.041Z</time></trkpt><trkpt lat="42.306325" lon="12.823655"><ele>867.8333333333334</ele><time>2026-04-04T08:01:44.04Z</time></trkpt><trkpt lat="42.30625" lon="12.8236333"><ele>868.6666666666667</ele><time>2026-04-04T08:01:45.041Z</time></trkpt><trkpt lat="42.3061767" lon="12.8236133"><ele>869.5</ele><time>2026-04-04T08:01:46.041Z</time></trkpt><trkpt lat="42.3061067" lon="12.8235817"><ele>870.3333333333334</ele><time>2026-04-04T08:01:47.042Z</time></trkpt><trkpt lat="42.3060317" lon="12.8235583"><ele>871.1666666666667</ele><time>2026-04-04T08:01:48.041Z</time></trkpt><trkpt lat="42.305955" lon="12.8235333"><ele>872.0</ele><time>2026-04-04T08:01:49.04Z</time></trkpt><trkpt lat="42.3058867" lon="12.82349"><ele>872.0000000000001</ele><time>2026-04-04T08:01:50.041Z</time></trkpt><trkpt lat="42.3058183" lon="12.8234333"><ele>872.0</ele><time>2026-04-04T08:01:51.042Z</time></trkpt><trkpt lat="42.3057483" lon="12.8233717"><ele>872.0</ele><time>2026-04-04T08:01:52.04Z</time></trkpt><trkpt lat="42.3056833" lon="12.8233083"><ele>872.0</ele><time>2026-04-04T08:01:53.041Z</time></trkpt><trkpt lat="42.3056217" lon="12.82324"><ele>872.0000000000001</ele><time>2026-04-04T08:01:54.041Z</time></trkpt><trkpt lat="42.30556" lon="12.8231633"><ele>872.0</ele><time>2026-04-04T08:01:55.04Z</time></trkpt><trkpt lat="42.305495" lon="12.8230983"><ele>872.0000000000001</ele><time>2026-04-04T08:01:56.041Z</time></trkpt><trkpt lat="42.30543" lon="12.8230417"><ele>872.0</ele><time>2026-04-04T08:01:57.042Z</time></trkpt><trkpt lat="42.3053683" lon="12.8229817"><ele>872.0</ele><time>2026-04-04T08:01:58.04Z</time></trkpt><trkpt lat="42.305305" lon="12.8229367"><ele>872.0</ele><time>2026-04-04T08:01:59.042Z</time></trkpt><trkpt lat="42.3052417" lon="12.8228917"><ele>872.0000000000001</ele><time>2026-04-04T08:02:00.041Z</time></trkpt><trkpt lat="42.3051267" lon="12.82284"><ele>872.0</ele><time>2026-04-04T08:02:02.041Z</time></trkpt><trkpt lat="42.30501" lon="12.8228317"><ele>872.0</ele><time>2026-04-04T08:02:04.041Z</time></trkpt><trkpt lat="42.30489" lon="12.8229017"><ele>872.0</ele><time>2026-04-04T08:02:06.041Z</time></trkpt><trkpt lat="42.3048383" lon="12.8229617"><ele>872.0</ele><time>2026-04-04T08:02:07.04Z</time></trkpt><trkpt lat="42.3047433" lon="12.8230633"><ele>872.0</ele><time>2026-04-04T08:02:09.04Z</time></trkpt><trkpt lat="42.3046667" lon="12.8231783"><ele>872.0</ele><time>2026-04-04T08:02:11.041Z</time></trkpt><trkpt lat="42.3045883" lon="12.82332"><ele>869.0</ele><time>2026-04-04T08:02:13.041Z</time></trkpt><trkpt lat="42.3045533" lon="12.823395"><ele>866.0</ele><time>2026-04-04T08:02:14.041Z</time></trkpt><trkpt lat="42.3045217" lon="12.8235117"><ele>863.0</ele><time>2026-04-04T08:02:15.042Z</time></trkpt><trkpt lat="42.3045017" lon="12.823615"><ele>860.0</ele><time>2026-04-04T08:02:16.04Z</time></trkpt><trkpt lat="42.3044867" lon="12.82373"><ele>857.0</ele><time>2026-04-04T08:02:17.041Z</time></trkpt><trkpt lat="42.3044733" lon="12.82391"><ele>857.0</ele><time>2026-04-04T08:02:18.041Z</time></trkpt><trkpt lat="42.3045067" lon="12.824105"><ele>857.0</ele><time>2026-04-04T08:02:19.041Z</time></trkpt><trkpt lat="42.30454" lon="12.824305"><ele>857.0</ele><time>2026-04-04T08:02:20.042Z</time></trkpt><trkpt lat="42.30456" lon="12.82449"><ele>857.0</ele><time>2026-04-04T08:02:21.041Z</time></trkpt><trkpt lat="42.3045917" lon="12.82468"><ele>858.0</ele><time>2026-04-04T08:02:22.041Z</time></trkpt><trkpt lat="42.3046133" lon="12.8248283"><ele>859.0</ele><time>2026-04-04T08:02:23.041Z</time></trkpt><trkpt lat="42.304635" lon="12.8249583"><ele>860.0</ele><time>2026-04-04T08:02:24.042Z</time></trkpt><trkpt lat="42.3046533" lon="12.8250817"><ele>861.0</ele><time>2026-04-04T08:02:25.04Z</time></trkpt><trkpt lat="42.3046667" lon="12.8251983"><ele>862.0</ele><time>2026-04-04T08:02:26.041Z</time></trkpt><trkpt lat="42.304675" lon="12.825305"><ele>863.4285714285714</ele><time>2026-04-04T08:02:27.04Z</time></trkpt><trkpt lat="42.30468" lon="12.8254033"><ele>864.8571428571428</ele><time>2026-04-04T08:02:28.04Z</time></trkpt><trkpt lat="42.3046833" lon="12.8254933"><ele>866.2857142857142</ele><time>2026-04-04T08:02:29.041Z</time></trkpt><trkpt lat="42.3046733" lon="12.8255817"><ele>867.7142857142858</ele><time>2026-04-04T08:02:30.04Z</time></trkpt><trkpt lat="42.304665" lon="12.8256717"><ele>869.1428571428571</ele><time>2026-04-04T08:02:31.04Z</time></trkpt><trkpt lat="42.3046417" lon="12.8257583"><ele>870.5714285714286</ele><time>2026-04-04T08:02:32.041Z</time></trkpt><trkpt lat="42.3045917" lon="12.8258417"><ele>872.0</ele><time>2026-04-04T08:02:33.041Z</time></trkpt><trkpt lat="42.3045233" lon="12.8259133"><ele>872.0</ele><time>2026-04-04T08:02:34.04Z</time></trkpt><trkpt lat="42.304445" lon="12.82599"><ele>872.0</ele><time>2026-04-04T08:02:35.04Z</time></trkpt><trkpt lat="42.30435" lon="12.8260517"><ele>872.0</ele><time>2026-04-04T08:02:36.042Z</time></trkpt><trkpt lat="42.3042267" lon="12.8260883"><ele>872.0</ele><time>2026-04-04T08:02:37.047Z</time></trkpt><trkpt lat="42.3041183" lon="12.8261333"><ele>872.0</ele><time>2026-04-04T08:02:38.041Z</time></trkpt><trkpt lat="42.304035" lon="12.8261767"><ele>872.0</ele><time>2026-04-04T08:02:39.041Z</time></trkpt><trkpt lat="42.3039733" lon="12.8262417"><ele>872.0</ele><time>2026-04-04T08:02:40.039Z</time></trkpt><trkpt lat="42.3038983" lon="12.8263283"><ele>872.0</ele><time>2026-04-04T08:02:41.041Z</time></trkpt><trkpt lat="42.3038067" lon="12.8264217"><ele>872.0</ele><time>2026-04-04T08:02:42.041Z</time></trkpt><trkpt lat="42.3037283" lon="12.8265267"><ele>872.0</ele><time>2026-04-04T08:02:43.041Z</time></trkpt><trkpt lat="42.30366" lon="12.8266383"><ele>873.2</ele><time>2026-04-04T08:02:44.041Z</time></trkpt><trkpt lat="42.3035933" lon="12.826765"><ele>874.4000000000001</ele><time>2026-04-04T08:02:45.046Z</time></trkpt><trkpt lat="42.3035417" lon="12.8269"><ele>875.5999999999999</ele><time>2026-04-04T08:02:46.039Z</time></trkpt><trkpt lat="42.3034967" lon="12.8270367"><ele>876.8</ele><time>2026-04-04T08:02:47.043Z</time></trkpt><trkpt lat="42.3034567" lon="12.8271567"><ele>878.0</ele><time>2026-04-04T08:02:48.041Z</time></trkpt><trkpt lat="42.3034283" lon="12.82726"><ele>878.0</ele><time>2026-04-04T08:02:49.04Z</time></trkpt><trkpt lat="42.3034" lon="12.827355"><ele>878.0</ele><time>2026-04-04T08:02:50.041Z</time></trkpt><trkpt lat="42.3033633" lon="12.8274433"><ele>878.0</ele><time>2026-04-04T08:02:51.041Z</time></trkpt><trkpt lat="42.3033267" lon="12.8275183"><ele>878.0</ele><time>2026-04-04T08:02:52.04Z</time></trkpt><trkpt lat="42.3032917" lon="12.8276"><ele>878.0</ele><time>2026-04-04T08:02:53.041Z</time></trkpt><trkpt lat="42.3032533" lon="12.8276817"><ele>878.0</ele><time>2026-04-04T08:02:54.04Z</time></trkpt><trkpt lat="42.3032117" lon="12.8277633"><ele>878.0</ele><time>2026-04-04T08:02:55.041Z</time></trkpt><trkpt lat="42.3031667" lon="12.8278467"><ele>876.6666666666667</ele><time>2026-04-04T08:02:56.04Z</time></trkpt><trkpt lat="42.303125" lon="12.8279317"><ele>875.3333333333334</ele><time>2026-04-04T08:02:57.041Z</time></trkpt><trkpt lat="42.3030833" lon="12.8280283"><ele>874.0</ele><time>2026-04-04T08:02:58.041Z</time></trkpt><trkpt lat="42.303045" lon="12.8281283"><ele>872.6666666666667</ele><time>2026-04-04T08:02:59.042Z</time></trkpt><trkpt lat="42.3030167" lon="12.8282417"><ele>871.3333333333334</ele><time>2026-04-04T08:03:00.041Z</time></trkpt><trkpt lat="42.303" lon="12.8283767"><ele>870.0</ele><time>2026-04-04T08:03:01.04Z</time></trkpt><trkpt lat="42.30298" lon="12.8284833"><ele>866.8</ele><time>2026-04-04T08:03:02.041Z</time></trkpt><trkpt lat="42.302965" lon="12.8286233"><ele>863.6</ele><time>2026-04-04T08:03:03.041Z</time></trkpt><trkpt lat="42.3029367" lon="12.8287717"><ele>860.4000000000001</ele><time>2026-04-04T08:03:04.04Z</time></trkpt><trkpt lat="42.3029133" lon="12.8289267"><ele>857.2</ele><time>2026-04-04T08:03:05.04Z</time></trkpt><trkpt lat="42.3028933" lon="12.82907"><ele>854.0</ele><time>2026-04-04T08:03:06.041Z</time></trkpt><trkpt lat="42.30287" lon="12.8292117"><ele>855.6</ele><time>2026-04-04T08:03:07.041Z</time></trkpt><trkpt lat="42.302845" lon="12.8293617"><ele>857.2</ele><time>2026-04-04T08:03:08.041Z</time></trkpt><trkpt lat="42.3028217" lon="12.829495"><ele>858.8000000000001</ele><time>2026-04-04T08:03:09.04Z</time></trkpt><trkpt lat="42.30281" lon="12.8296217"><ele>860.4000000000001</ele><time>2026-04-04T08:03:10.042Z</time></trkpt><trkpt lat="42.3028017" lon="12.82975"><ele>862.0</ele><time>2026-04-04T08:03:11.041Z</time></trkpt><trkpt lat="42.3027917" lon="12.829915"><ele>862.0</ele><time>2026-04-04T08:03:12.043Z</time></trkpt><trkpt lat="42.3027833" lon="12.830075"><ele>862.0</ele><time>2026-04-04T08:03:13.04Z</time></trkpt><trkpt lat="42.302785" lon="12.8302233"><ele>862.0</ele><time>2026-04-04T08:03:14.042Z</time></trkpt><trkpt lat="42.302785" lon="12.8303817"><ele>862.0</ele><time>2026-04-04T08:03:15.041Z</time></trkpt><trkpt lat="42.3027867" lon="12.83055"><ele>862.0</ele><time>2026-04-04T08:03:16.04Z</time></trkpt><trkpt lat="42.3027883" lon="12.8307133"><ele>862.0</ele><time>2026-04-04T08:03:17.041Z</time></trkpt><trkpt lat="42.3027883" lon="12.8308533"><ele>862.0</ele><time>2026-04-04T08:03:18.041Z</time></trkpt><trkpt lat="42.3027867" lon="12.8309883"><ele>862.0</ele><time>2026-04-04T08:03:19.041Z</time></trkpt><trkpt lat="42.3027867" lon="12.8311183"><ele>862.0</ele><time>2026-04-04T08:03:20.04Z</time></trkpt><trkpt lat="42.3027767" lon="12.8312417"><ele>862.0</ele><time>2026-04-04T08:03:21.041Z</time></trkpt><trkpt lat="42.3027633" lon="12.8313667"><ele>862.0</ele><time>2026-04-04T08:03:22.039Z</time></trkpt><trkpt lat="42.3027467" lon="12.8314833"><ele>862.0</ele><time>2026-04-04T08:03:23.041Z</time></trkpt><trkpt lat="42.302735" lon="12.83161"><ele>862.0</ele><time>2026-04-04T08:03:24.04Z</time></trkpt><trkpt lat="42.3027433" lon="12.8317517"><ele>862.0</ele><time>2026-04-04T08:03:25.041Z</time></trkpt><trkpt lat="42.302755" lon="12.83191"><ele>860.8</ele><time>2026-04-04T08:03:26.041Z</time></trkpt><trkpt lat="42.3027633" lon="12.8320517"><ele>859.6</ele><time>2026-04-04T08:03:27.041Z</time></trkpt><trkpt lat="42.3027667" lon="12.8321867"><ele>858.3999999999999</ele><time>2026-04-04T08:03:28.039Z</time></trkpt><trkpt lat="42.3027717" lon="12.8323267"><ele>857.1999999999999</ele><time>2026-04-04T08:03:29.041Z</time></trkpt><trkpt lat="42.30277" lon="12.8324633"><ele>856.0</ele><time>2026-04-04T08:03:30.042Z</time></trkpt><trkpt lat="42.3027683" lon="12.8325867"><ele>855.9999999999999</ele><time>2026-04-04T08:03:31.041Z</time></trkpt><trkpt lat="42.3027667" lon="12.83272"><ele>856.0</ele><time>2026-04-04T08:03:32.041Z</time></trkpt><trkpt lat="42.3027633" lon="12.8328483"><ele>856.0</ele><time>2026-04-04T08:03:33.042Z</time></trkpt><trkpt lat="42.30276" lon="12.83296"><ele>856.0</ele><time>2026-04-04T08:03:34.039Z</time></trkpt><trkpt lat="42.3027567" lon="12.8330617"><ele>855.9999999999999</ele><time>2026-04-04T08:03:35.04Z</time></trkpt><trkpt lat="42.3027583" lon="12.8331633"><ele>856.0</ele><time>2026-04-04T08:03:36.042Z</time></trkpt><trkpt lat="42.30275" lon="12.83333"><ele>856.1999999999999</ele><time>2026-04-04T08:03:38.04Z</time></trkpt><trkpt lat="42.3027333" lon="12.833495"><ele>856.3999999999999</ele><time>2026-04-04T08:03:40.04Z</time></trkpt><trkpt lat="42.3027317" lon="12.8336083"><ele>856.6</ele><time>2026-04-04T08:03:41.041Z</time></trkpt><trkpt lat="42.3026917" lon="12.833715"><ele>856.8</ele><time>2026-04-04T08:03:42.043Z</time></trkpt><trkpt lat="42.3026517" lon="12.8338233"><ele>857.0</ele><time>2026-04-04T08:03:43.041Z</time></trkpt><trkpt lat="42.3026117" lon="12.833925"><ele>857.0000000000001</ele><time>2026-04-04T08:03:44.043Z</time></trkpt><trkpt lat="42.302575" lon="12.8340267"><ele>857.0</ele><time>2026-04-04T08:03:45.044Z</time></trkpt><trkpt lat="42.3025467" lon="12.834125"><ele>857.0</ele><time>2026-04-04T08:03:46.041Z</time></trkpt><trkpt lat="42.3025217" lon="12.83421"><ele>857.0</ele><time>2026-04-04T08:03:47.042Z</time></trkpt><trkpt lat="42.3024833" lon="12.8343617"><ele>857.0000000000001</ele><time>2026-04-04T08:03:49.04Z</time></trkpt><trkpt lat="42.3024567" lon="12.8344717"><ele>857.0</ele><time>2026-04-04T08:03:51.041Z</time></trkpt><trkpt lat="42.3023917" lon="12.834605"><ele>856.8</ele><time>2026-04-04T08:04:56.04Z</time></trkpt><trkpt lat="42.3023767" lon="12.8347133"><ele>856.6</ele><time>2026-04-04T08:05:10.041Z</time></trkpt><trkpt lat="42.30237" lon="12.83482"><ele>856.3999999999999</ele><time>2026-04-04T08:05:12.042Z</time></trkpt><trkpt lat="42.302365" lon="12.8349567"><ele>856.1999999999999</ele><time>2026-04-04T08:05:14.041Z</time></trkpt><trkpt lat="42.3023533" lon="12.8350967"><ele>856.0</ele><time>2026-04-04T08:05:16.039Z</time></trkpt><trkpt lat="42.3023333" lon="12.835245"><ele>856.6666666666666</ele><time>2026-04-04T08:05:18.04Z</time></trkpt><trkpt lat="42.3023167" lon="12.8353283"><ele>857.3333333333333</ele><time>2026-04-04T08:05:19.04Z</time></trkpt><trkpt lat="42.302295" lon="12.83541"><ele>858.0</ele><time>2026-04-04T08:05:20.041Z</time></trkpt><trkpt lat="42.3022767" lon="12.835495"><ele>858.6666666666667</ele><time>2026-04-04T08:05:21.04Z</time></trkpt><trkpt lat="42.3022417" lon="12.83565"><ele>859.3333333333334</ele><time>2026-04-04T08:05:23.041Z</time></trkpt><trkpt lat="42.3021967" lon="12.83579"><ele>860.0</ele><time>2026-04-04T08:05:25.041Z</time></trkpt><trkpt lat="42.30213" lon="12.835935"><ele>858.0000000000001</ele><time>2026-04-04T08:05:27.04Z</time></trkpt><trkpt lat="42.3020917" lon="12.8360033"><ele>856.0</ele><time>2026-04-04T08:05:28.04Z</time></trkpt><trkpt lat="42.3020117" lon="12.8361333"><ele>854.0</ele><time>2026-04-04T08:05:30.041Z</time></trkpt><trkpt lat="42.30193" lon="12.83626"><ele>852.0</ele><time>2026-04-04T08:05:32.041Z</time></trkpt><trkpt lat="42.3018817" lon="12.8363183"><ele>850.0000000000001</ele><time>2026-04-04T08:05:33.041Z</time></trkpt><trkpt lat="42.301835" lon="12.8363783"><ele>848.0</ele><time>2026-04-04T08:05:34.039Z</time></trkpt><trkpt lat="42.301785" lon="12.8364317"><ele>848.0</ele><time>2026-04-04T08:05:35.041Z</time></trkpt><trkpt lat="42.3016867" lon="12.8365183"><ele>848.0</ele><time>2026-04-04T08:05:37.041Z</time></trkpt><trkpt lat="42.3015817" lon="12.8365933"><ele>848.0</ele><time>2026-04-04T08:05:39.041Z</time></trkpt><trkpt lat="42.3014717" lon="12.836675"><ele>848.0</ele><time>2026-04-04T08:05:41.041Z</time></trkpt><trkpt lat="42.301415" lon="12.8367167"><ele>848.0</ele><time>2026-04-04T08:05:42.041Z</time></trkpt><trkpt lat="42.3013567" lon="12.8367517"><ele>846.8333333333334</ele><time>2026-04-04T08:05:43.041Z</time></trkpt><trkpt lat="42.3013" lon="12.8367967"><ele>845.6666666666667</ele><time>2026-04-04T08:05:44.04Z</time></trkpt><trkpt lat="42.3012367" lon="12.8368383"><ele>844.5</ele><time>2026-04-04T08:05:45.041Z</time></trkpt><trkpt lat="42.3011783" lon="12.836875"><ele>843.3333333333333</ele><time>2026-04-04T08:05:46.04Z</time></trkpt><trkpt lat="42.30106" lon="12.8369367"><ele>842.1666666666666</ele><time>2026-04-04T08:05:48.041Z</time></trkpt><trkpt lat="42.301" lon="12.83697"><ele>841.0</ele><time>2026-04-04T08:05:49.04Z</time></trkpt><trkpt lat="42.3008783" lon="12.8370283"><ele>839.0</ele><time>2026-04-04T08:05:51.04Z</time></trkpt><trkpt lat="42.300815" lon="12.83706"><ele>837.0</ele><time>2026-04-04T08:05:52.04Z</time></trkpt><trkpt lat="42.3007517" lon="12.8370917"><ele>835.0</ele><time>2026-04-04T08:05:53.042Z</time></trkpt><trkpt lat="42.30069" lon="12.8371317"><ele>833.0</ele><time>2026-04-04T08:05:54.041Z</time></trkpt><trkpt lat="42.3006267" lon="12.8371717"><ele>831.0</ele><time>2026-04-04T08:05:55.04Z</time></trkpt><trkpt lat="42.3005717" lon="12.8372233"><ele>829.0</ele><time>2026-04-04T08:05:56.043Z</time></trkpt><trkpt lat="42.30051" lon="12.8372633"><ele>827.0</ele><time>2026-04-04T08:05:57.041Z</time></trkpt><trkpt lat="42.300445" lon="12.8373"><ele>825.6666666666667</ele><time>2026-04-04T08:05:58.039Z</time></trkpt><trkpt lat="42.3003783" lon="12.8373367"><ele>824.3333333333334</ele><time>2026-04-04T08:05:59.04Z</time></trkpt><trkpt lat="42.3003117" lon="12.8373783"><ele>823.0</ele><time>2026-04-04T08:06:00.041Z</time></trkpt><trkpt lat="42.3002417" lon="12.8374233"><ele>821.6666666666667</ele><time>2026-04-04T08:06:01.041Z</time></trkpt><trkpt lat="42.3001733" lon="12.8374667"><ele>820.3333333333334</ele><time>2026-04-04T08:06:02.041Z</time></trkpt><trkpt lat="42.3001" lon="12.8375167"><ele>819.0</ele><time>2026-04-04T08:06:03.04Z</time></trkpt><trkpt lat="42.300025" lon="12.8375717"><ele>819.0</ele><time>2026-04-04T08:06:04.04Z</time></trkpt><trkpt lat="42.2999483" lon="12.837625"><ele>819.0</ele><time>2026-04-04T08:06:05.041Z</time></trkpt><trkpt lat="42.2998767" lon="12.83768"><ele>819.0</ele><time>2026-04-04T08:06:06.041Z</time></trkpt><trkpt lat="42.2998083" lon="12.837735"><ele>819.0</ele><time>2026-04-04T08:06:07.041Z</time></trkpt><trkpt lat="42.2997467" lon="12.8377983"><ele>819.0</ele><time>2026-04-04T08:06:08.04Z</time></trkpt><trkpt lat="42.29969" lon="12.83786"><ele>819.0</ele><time>2026-04-04T08:06:09.04Z</time></trkpt><trkpt lat="42.2996333" lon="12.8379117"><ele>818.0</ele><time>2026-04-04T08:06:10.038Z</time></trkpt><trkpt lat="42.2995367" lon="12.8379917"><ele>817.0</ele><time>2026-04-04T08:06:12.041Z</time></trkpt><trkpt lat="42.2994433" lon="12.8380017"><ele>816.0</ele><time>2026-04-04T08:06:14.041Z</time></trkpt><trkpt lat="42.2993833" lon="12.8379717"><ele>815.0</ele><time>2026-04-04T08:06:15.041Z</time></trkpt><trkpt lat="42.2993283" lon="12.83793"><ele>814.0</ele><time>2026-04-04T08:06:16.039Z</time></trkpt><trkpt lat="42.2992517" lon="12.8378483"><ele>813.0</ele><time>2026-04-04T08:06:18.041Z</time></trkpt><trkpt lat="42.29922" lon="12.837735"><ele>812.5</ele><time>2026-04-04T08:06:20.044Z</time></trkpt><trkpt lat="42.299245" lon="12.8376117"><ele>812.0</ele><time>2026-04-04T08:06:22.039Z</time></trkpt><trkpt lat="42.2993283" lon="12.8374767"><ele>811.5</ele><time>2026-04-04T08:06:24.041Z</time></trkpt><trkpt lat="42.29938" lon="12.8374067"><ele>811.0</ele><time>2026-04-04T08:06:25.04Z</time></trkpt><trkpt lat="42.299425" lon="12.8373367"><ele>810.5</ele><time>2026-04-04T08:06:26.041Z</time></trkpt><trkpt lat="42.2994683" lon="12.8372633"><ele>810.0</ele><time>2026-04-04T08:06:27.041Z</time></trkpt><trkpt lat="42.2995117" lon="12.837195"><ele>810.0</ele><time>2026-04-04T08:06:28.039Z</time></trkpt><trkpt lat="42.2995517" lon="12.83712"><ele>810.0</ele><time>2026-04-04T08:06:29.04Z</time></trkpt><trkpt lat="42.2995867" lon="12.8370367"><ele>810.0</ele><time>2026-04-04T08:06:30.042Z</time></trkpt><trkpt lat="42.29961" lon="12.8369467"><ele>810.0</ele><time>2026-04-04T08:06:31.042Z</time></trkpt><trkpt lat="42.2996283" lon="12.8367933"><ele>810.0</ele><time>2026-04-04T08:06:33.041Z</time></trkpt><trkpt lat="42.2996183" lon="12.8366483"><ele>810.0</ele><time>2026-04-04T08:06:35.04Z</time></trkpt><trkpt lat="42.2995483" lon="12.8365267"><ele>808.1428571428571</ele><time>2026-04-04T08:06:37.041Z</time></trkpt><trkpt lat="42.299495" lon="12.83647"><ele>806.2857142857142</ele><time>2026-04-04T08:06:38.041Z</time></trkpt><trkpt lat="42.29943" lon="12.8364083"><ele>804.4285714285713</ele><time>2026-04-04T08:06:39.042Z</time></trkpt><trkpt lat="42.299375" lon="12.8363567"><ele>802.5714285714286</ele><time>2026-04-04T08:06:40.04Z</time></trkpt><trkpt lat="42.299325" lon="12.8363"><ele>800.7142857142858</ele><time>2026-04-04T08:06:41.042Z</time></trkpt><trkpt lat="42.299275" lon="12.8362317"><ele>798.8571428571428</ele><time>2026-04-04T08:06:42.041Z</time></trkpt><trkpt lat="42.299235" lon="12.8361583"><ele>797.0</ele><time>2026-04-04T08:06:43.041Z</time></trkpt><trkpt lat="42.2992" lon="12.836005"><ele>798.2</ele><time>2026-04-04T08:06:45.043Z</time></trkpt><trkpt lat="42.299195" lon="12.835845"><ele>799.4000000000001</ele><time>2026-04-04T08:06:47.041Z</time></trkpt><trkpt lat="42.2992" lon="12.835695"><ele>800.5999999999999</ele><time>2026-04-04T08:06:49.04Z</time></trkpt><trkpt lat="42.29919" lon="12.8355767"><ele>801.8</ele><time>2026-04-04T08:06:51.041Z</time></trkpt><trkpt lat="42.2991417" lon="12.835495"><ele>803.0</ele><time>2026-04-04T08:06:53.04Z</time></trkpt><trkpt lat="42.2990717" lon="12.8354467"><ele>803.0</ele><time>2026-04-04T08:06:55.04Z</time></trkpt><trkpt lat="42.29895" lon="12.8354833"><ele>803.0</ele><time>2026-04-04T08:06:57.04Z</time></trkpt><trkpt lat="42.298875" lon="12.8355567"><ele>803.0</ele><time>2026-04-04T08:06:58.042Z</time></trkpt><trkpt lat="42.298795" lon="12.835635"><ele>803.0</ele><time>2026-04-04T08:06:59.057Z</time></trkpt><trkpt lat="42.2987117" lon="12.8356983"><ele>803.0</ele><time>2026-04-04T08:07:00.042Z</time></trkpt><trkpt lat="42.2986417" lon="12.83574"><ele>800.9999999999999</ele><time>2026-04-04T08:07:01.04Z</time></trkpt><trkpt lat="42.2985667" lon="12.835775"><ele>799.0</ele><time>2026-04-04T08:07:02.042Z</time></trkpt><trkpt lat="42.298495" lon="12.8358"><ele>797.0</ele><time>2026-04-04T08:07:03.042Z</time></trkpt><trkpt lat="42.298425" lon="12.8358117"><ele>795.0</ele><time>2026-04-04T08:07:04.041Z</time></trkpt><trkpt lat="42.2983567" lon="12.83582"><ele>793.0</ele><time>2026-04-04T08:07:05.04Z</time></trkpt><trkpt lat="42.29829" lon="12.835825"><ele>790.9999999999999</ele><time>2026-04-04T08:07:06.041Z</time></trkpt><trkpt lat="42.2982267" lon="12.8358167"><ele>789.0</ele><time>2026-04-04T08:07:07.04Z</time></trkpt><trkpt lat="42.2981583" lon="12.8357967"><ele>789.0</ele><time>2026-04-04T08:07:08.041Z</time></trkpt><trkpt lat="42.298095" lon="12.835765"><ele>789.0</ele><time>2026-04-04T08:07:09.041Z</time></trkpt><trkpt lat="42.2980317" lon="12.8357267"><ele>789.0</ele><time>2026-04-04T08:07:10.04Z</time></trkpt><trkpt lat="42.2979617" lon="12.83568"><ele>789.0</ele><time>2026-04-04T08:07:11.041Z</time></trkpt><trkpt lat="42.2978833" lon="12.8356183"><ele>789.0</ele><time>2026-04-04T08:07:12.04Z</time></trkpt><trkpt lat="42.2977983" lon="12.8355583"><ele>789.0</ele><time>2026-04-04T08:07:13.041Z</time></trkpt><trkpt lat="42.2977117" lon="12.8354883"><ele>785.6</ele><time>2026-04-04T08:07:14.041Z</time></trkpt><trkpt lat="42.2976183" lon="12.8354217"><ele>782.2</ele><time>2026-04-04T08:07:15.041Z</time></trkpt><trkpt lat="42.2975233" lon="12.83536"><ele>778.8000000000001</ele><time>2026-04-04T08:07:16.039Z</time></trkpt><trkpt lat="42.2974233" lon="12.8353033"><ele>775.4000000000001</ele><time>2026-04-04T08:07:17.043Z</time></trkpt><trkpt lat="42.2973317" lon="12.8352467"><ele>772.0</ele><time>2026-04-04T08:07:18.041Z</time></trkpt><trkpt lat="42.29725" lon="12.8352"><ele>771.6666666666666</ele><time>2026-04-04T08:07:19.041Z</time></trkpt><trkpt lat="42.297175" lon="12.83516"><ele>771.3333333333333</ele><time>2026-04-04T08:07:20.041Z</time></trkpt><trkpt lat="42.297105" lon="12.83512"><ele>771.0</ele><time>2026-04-04T08:07:21.04Z</time></trkpt><trkpt lat="42.297045" lon="12.83507"><ele>770.6666666666667</ele><time>2026-04-04T08:07:22.039Z</time></trkpt><trkpt lat="42.296985" lon="12.83501"><ele>770.3333333333334</ele><time>2026-04-04T08:07:23.041Z</time></trkpt><trkpt lat="42.2969267" lon="12.83494"><ele>770.0</ele><time>2026-04-04T08:07:24.04Z</time></trkpt><trkpt lat="42.29687" lon="12.8348483"><ele>770.0000000000001</ele><time>2026-04-04T08:07:25.041Z</time></trkpt><trkpt lat="42.29682" lon="12.8347383"><ele>770.0</ele><time>2026-04-04T08:07:26.041Z</time></trkpt><trkpt lat="42.296775" lon="12.83463"><ele>770.0</ele><time>2026-04-04T08:07:27.042Z</time></trkpt><trkpt lat="42.29673" lon="12.834525"><ele>770.0</ele><time>2026-04-04T08:07:28.041Z</time></trkpt><trkpt lat="42.2966833" lon="12.8344233"><ele>770.0000000000001</ele><time>2026-04-04T08:07:29.039Z</time></trkpt><trkpt lat="42.2966433" lon="12.834325"><ele>770.0</ele><time>2026-04-04T08:07:30.04Z</time></trkpt><trkpt lat="42.2966167" lon="12.8342283"><ele>771.5000000000001</ele><time>2026-04-04T08:07:31.041Z</time></trkpt><trkpt lat="42.2965883" lon="12.8341317"><ele>773.0</ele><time>2026-04-04T08:07:32.04Z</time></trkpt><trkpt lat="42.2965667" lon="12.8340233"><ele>774.5</ele><time>2026-04-04T08:07:33.041Z</time></trkpt><trkpt lat="42.2965533" lon="12.8339133"><ele>776.0</ele><time>2026-04-04T08:07:34.041Z</time></trkpt><trkpt lat="42.296545" lon="12.8337983"><ele>777.5000000000001</ele><time>2026-04-04T08:07:35.041Z</time></trkpt><trkpt lat="42.2965333" lon="12.8336817"><ele>779.0</ele><time>2026-04-04T08:07:36.041Z</time></trkpt><trkpt lat="42.296525" lon="12.83357"><ele>780.3333333333334</ele><time>2026-04-04T08:07:37.041Z</time></trkpt><trkpt lat="42.2965217" lon="12.83346"><ele>781.6666666666667</ele><time>2026-04-04T08:07:38.041Z</time></trkpt><trkpt lat="42.2965267" lon="12.83335"><ele>783.0</ele><time>2026-04-04T08:07:39.041Z</time></trkpt><trkpt lat="42.2965267" lon="12.8332433"><ele>784.3333333333333</ele><time>2026-04-04T08:07:40.041Z</time></trkpt><trkpt lat="42.2965333" lon="12.8331433"><ele>785.6666666666666</ele><time>2026-04-04T08:07:41.04Z</time></trkpt><trkpt lat="42.2965367" lon="12.83299"><ele>787.0</ele><time>2026-04-04T08:07:43.04Z</time></trkpt><trkpt lat="42.2965083" lon="12.8328717"><ele>786.9999999999999</ele><time>2026-04-04T08:07:45.041Z</time></trkpt><trkpt lat="42.2964533" lon="12.8328083"><ele>787.0</ele><time>2026-04-04T08:07:47.041Z</time></trkpt><trkpt lat="42.2963717" lon="12.8328033"><ele>787.0</ele><time>2026-04-04T08:07:49.041Z</time></trkpt><trkpt lat="42.2962617" lon="12.8328767"><ele>787.0</ele><time>2026-04-04T08:07:51.042Z</time></trkpt><trkpt lat="42.2961983" lon="12.8329033"><ele>786.9999999999999</ele><time>2026-04-04T08:07:52.04Z</time></trkpt><trkpt lat="42.2961317" lon="12.8329333"><ele>787.0</ele><time>2026-04-04T08:07:53.041Z</time></trkpt><trkpt lat="42.296065" lon="12.8329617"><ele>785.0</ele><time>2026-04-04T08:07:54.042Z</time></trkpt><trkpt lat="42.296" lon="12.8329867"><ele>783.0</ele><time>2026-04-04T08:07:55.041Z</time></trkpt><trkpt lat="42.2958833" lon="12.8330133"><ele>781.0</ele><time>2026-04-04T08:07:57.041Z</time></trkpt><trkpt lat="42.295765" lon="12.8330183"><ele>779.0</ele><time>2026-04-04T08:07:59.041Z</time></trkpt><trkpt lat="42.295675" lon="12.8330117"><ele>777.0</ele><time>2026-04-04T08:08:01.04Z</time></trkpt><trkpt lat="42.2956017" lon="12.8330133"><ele>776.1666666666666</ele><time>2026-04-04T08:08:04.041Z</time></trkpt><trkpt lat="42.29553" lon="12.83302"><ele>775.3333333333333</ele><time>2026-04-04T08:08:11.041Z</time></trkpt><trkpt lat="42.2954733" lon="12.8330633"><ele>774.5</ele><time>2026-04-04T08:08:13.041Z</time></trkpt><trkpt lat="42.2954233" lon="12.8331617"><ele>773.6666666666666</ele><time>2026-04-04T08:08:15.04Z</time></trkpt><trkpt lat="42.2953933" lon="12.8332983"><ele>772.8333333333333</ele><time>2026-04-04T08:08:17.043Z</time></trkpt><trkpt lat="42.2953533" lon="12.83344"><ele>772.0</ele><time>2026-04-04T08:08:19.043Z</time></trkpt><trkpt lat="42.2953333" lon="12.8335217"><ele>771.9999999999999</ele><time>2026-04-04T08:08:20.043Z</time></trkpt><trkpt lat="42.29531" lon="12.8336133"><ele>772.0</ele><time>2026-04-04T08:08:21.042Z</time></trkpt><trkpt lat="42.2952817" lon="12.833705"><ele>772.0</ele><time>2026-04-04T08:08:22.039Z</time></trkpt><trkpt lat="42.2952517" lon="12.8337833"><ele>772.0</ele><time>2026-04-04T08:08:23.044Z</time></trkpt><trkpt lat="42.2951767" lon="12.8339083"><ele>771.9999999999999</ele><time>2026-04-04T08:08:25.041Z</time></trkpt><trkpt lat="42.29513" lon="12.8339767"><ele>772.0</ele><time>2026-04-04T08:08:26.043Z</time></trkpt><trkpt lat="42.29508" lon="12.8340467"><ele>772.0000000000001</ele><time>2026-04-04T08:08:27.042Z</time></trkpt><trkpt lat="42.2950267" lon="12.8341183"><ele>772.0</ele><time>2026-04-04T08:08:28.041Z</time></trkpt><trkpt lat="42.2949767" lon="12.83419"><ele>772.0</ele><time>2026-04-04T08:08:29.039Z</time></trkpt><trkpt lat="42.2949317" lon="12.8342567"><ele>772.0</ele><time>2026-04-04T08:08:30.041Z</time></trkpt><trkpt lat="42.294885" lon="12.83433"><ele>772.0</ele><time>2026-04-04T08:08:31.041Z</time></trkpt><trkpt lat="42.2948367" lon="12.8344083"><ele>772.0000000000001</ele><time>2026-04-04T08:08:32.041Z</time></trkpt><trkpt lat="42.2947867" lon="12.8344917"><ele>772.0</ele><time>2026-04-04T08:08:33.041Z</time></trkpt><trkpt lat="42.2947383" lon="12.8345767"><ele>770.6666666666666</ele><time>2026-04-04T08:08:34.041Z</time></trkpt><trkpt lat="42.2946867" lon="12.8346633"><ele>769.3333333333333</ele><time>2026-04-04T08:08:35.04Z</time></trkpt><trkpt lat="42.294635" lon="12.8347467"><ele>768.0</ele><time>2026-04-04T08:08:36.04Z</time></trkpt><trkpt lat="42.2945833" lon="12.8348283"><ele>766.6666666666666</ele><time>2026-04-04T08:08:37.04Z</time></trkpt><trkpt lat="42.2945283" lon="12.83491"><ele>765.3333333333333</ele><time>2026-04-04T08:08:38.041Z</time></trkpt><trkpt lat="42.2944717" lon="12.8350017"><ele>764.0</ele><time>2026-04-04T08:08:39.042Z</time></trkpt><trkpt lat="42.2944183" lon="12.8350967"><ele>763.5</ele><time>2026-04-04T08:08:40.04Z</time></trkpt><trkpt lat="42.2943617" lon="12.8351933"><ele>763.0</ele><time>2026-04-04T08:08:41.041Z</time></trkpt><trkpt lat="42.2943117" lon="12.8352817"><ele>762.5</ele><time>2026-04-04T08:08:42.041Z</time></trkpt><trkpt lat="42.29426" lon="12.8353683"><ele>762.0</ele><time>2026-04-04T08:08:43.043Z</time></trkpt><trkpt lat="42.294205" lon="12.8354567"><ele>761.5</ele><time>2026-04-04T08:08:44.04Z</time></trkpt><trkpt lat="42.2941517" lon="12.8355533"><ele>761.0</ele><time>2026-04-04T08:08:45.041Z</time></trkpt><trkpt lat="42.2941017" lon="12.8356417"><ele>761.0</ele><time>2026-04-04T08:08:46.041Z</time></trkpt><trkpt lat="42.2940533" lon="12.8357467"><ele>761.0</ele><time>2026-04-04T08:08:47.042Z</time></trkpt><trkpt lat="42.2940117" lon="12.8358567"><ele>761.0</ele><time>2026-04-04T08:08:48.041Z</time></trkpt><trkpt lat="42.2939783" lon="12.8359633"><ele>761.0</ele><time>2026-04-04T08:08:49.041Z</time></trkpt><trkpt lat="42.293945" lon="12.83606"><ele>761.0</ele><time>2026-04-04T08:08:50.042Z</time></trkpt><trkpt lat="42.2939167" lon="12.83616"><ele>761.0</ele><time>2026-04-04T08:08:51.042Z</time></trkpt><trkpt lat="42.293885" lon="12.83625"><ele>760.5999999999999</ele><time>2026-04-04T08:08:52.039Z</time></trkpt><trkpt lat="42.2938533" lon="12.8363283"><ele>760.2</ele><time>2026-04-04T08:08:53.039Z</time></trkpt><trkpt lat="42.293775" lon="12.8364483"><ele>759.8</ele><time>2026-04-04T08:08:55.042Z</time></trkpt><trkpt lat="42.2936617" lon="12.8365133"><ele>759.4000000000001</ele><time>2026-04-04T08:08:57.042Z</time></trkpt><trkpt lat="42.2935933" lon="12.836515"><ele>759.0</ele><time>2026-04-04T08:08:58.041Z</time></trkpt><trkpt lat="42.2935167" lon="12.8364967"><ele>759.0</ele><time>2026-04-04T08:08:59.041Z</time></trkpt><trkpt lat="42.2934383" lon="12.8364617"><ele>759.0</ele><time>2026-04-04T08:09:00.041Z</time></trkpt><trkpt lat="42.2933633" lon="12.836415"><ele>759.0</ele><time>2026-04-04T08:09:01.041Z</time></trkpt><trkpt lat="42.2932933" lon="12.8363567"><ele>759.0</ele><time>2026-04-04T08:09:02.04Z</time></trkpt><trkpt lat="42.293225" lon="12.8362767"><ele>759.0</ele><time>2026-04-04T08:09:03.042Z</time></trkpt><trkpt lat="42.29316" lon="12.83619"><ele>759.0</ele><time>2026-04-04T08:09:04.04Z</time></trkpt><trkpt lat="42.293095" lon="12.8361083"><ele>761.1666666666666</ele><time>2026-04-04T08:09:05.04Z</time></trkpt><trkpt lat="42.2930267" lon="12.8360317"><ele>763.3333333333333</ele><time>2026-04-04T08:09:06.042Z</time></trkpt><trkpt lat="42.2929583" lon="12.83596"><ele>765.5</ele><time>2026-04-04T08:09:07.041Z</time></trkpt><trkpt lat="42.29289" lon="12.835895"><ele>767.6666666666666</ele><time>2026-04-04T08:09:08.041Z</time></trkpt><trkpt lat="42.2928183" lon="12.835835"><ele>769.8333333333333</ele><time>2026-04-04T08:09:09.041Z</time></trkpt><trkpt lat="42.29274" lon="12.83578"><ele>772.0</ele><time>2026-04-04T08:09:10.039Z</time></trkpt><trkpt lat="42.292655" lon="12.8357283"><ele>772.0</ele><time>2026-04-04T08:09:11.041Z</time></trkpt><trkpt lat="42.2925617" lon="12.8356883"><ele>772.0</ele><time>2026-04-04T08:09:12.043Z</time></trkpt><trkpt lat="42.2924617" lon="12.83566"><ele>772.0</ele><time>2026-04-04T08:09:13.041Z</time></trkpt><trkpt lat="42.2923683" lon="12.8356367"><ele>772.0</ele><time>2026-04-04T08:09:14.042Z</time></trkpt><trkpt lat="42.2922817" lon="12.83561"><ele>772.0</ele><time>2026-04-04T08:09:15.043Z</time></trkpt><trkpt lat="42.2921967" lon="12.83559"><ele>773.3333333333333</ele><time>2026-04-04T08:09:16.041Z</time></trkpt><trkpt lat="42.2921117" lon="12.83556"><ele>774.6666666666666</ele><time>2026-04-04T08:09:17.04Z</time></trkpt><trkpt lat="42.2920367" lon="12.8355233"><ele>776.0</ele><time>2026-04-04T08:09:18.041Z</time></trkpt><trkpt lat="42.2919517" lon="12.83548"><ele>777.3333333333333</ele><time>2026-04-04T08:09:19.042Z</time></trkpt><trkpt lat="42.2918683" lon="12.83543"><ele>778.6666666666666</ele><time>2026-04-04T08:09:20.04Z</time></trkpt><trkpt lat="42.2918033" lon="12.83539"><ele>780.0</ele><time>2026-04-04T08:09:21.041Z</time></trkpt><trkpt lat="42.29174" lon="12.8353583"><ele>780.0</ele><time>2026-04-04T08:09:22.041Z</time></trkpt><trkpt lat="42.291625" lon="12.8353283"><ele>780.0</ele><time>2026-04-04T08:09:24.04Z</time></trkpt><trkpt lat="42.2915217" lon="12.8353717"><ele>780.0</ele><time>2026-04-04T08:09:26.04Z</time></trkpt><trkpt lat="42.291465" lon="12.8354183"><ele>780.0</ele><time>2026-04-04T08:09:27.04Z</time></trkpt><trkpt lat="42.2914017" lon="12.8355517"><ele>780.0</ele><time>2026-04-04T08:09:29.041Z</time></trkpt><trkpt lat="42.29139" lon="12.8356617"><ele>776.8</ele><time>2026-04-04T08:09:30.04Z</time></trkpt><trkpt lat="42.2913717" lon="12.8357683"><ele>773.6</ele><time>2026-04-04T08:09:31.041Z</time></trkpt><trkpt lat="42.2913483" lon="12.8358867"><ele>770.4000000000001</ele><time>2026-04-04T08:09:32.041Z</time></trkpt><trkpt lat="42.2913217" lon="12.836015"><ele>767.2</ele><time>2026-04-04T08:09:33.041Z</time></trkpt><trkpt lat="42.2912917" lon="12.83614"><ele>764.0</ele><time>2026-04-04T08:09:34.04Z</time></trkpt><trkpt lat="42.2912583" lon="12.8362717"><ele>764.0</ele><time>2026-04-04T08:09:35.041Z</time></trkpt><trkpt lat="42.29123" lon="12.8364167"><ele>764.0</ele><time>2026-04-04T08:09:36.043Z</time></trkpt><trkpt lat="42.2912033" lon="12.8365633"><ele>764.0</ele><time>2026-04-04T08:09:37.04Z</time></trkpt><trkpt lat="42.2911717" lon="12.836695"><ele>764.0</ele><time>2026-04-04T08:09:38.041Z</time></trkpt><trkpt lat="42.2911367" lon="12.8368183"><ele>764.0</ele><time>2026-04-04T08:09:39.044Z</time></trkpt><trkpt lat="42.2911033" lon="12.8369367"><ele>765.5</ele><time>2026-04-04T08:09:40.041Z</time></trkpt><trkpt lat="42.291075" lon="12.8370533"><ele>767.0</ele><time>2026-04-04T08:09:41.04Z</time></trkpt><trkpt lat="42.291045" lon="12.837165"><ele>768.5</ele><time>2026-04-04T08:09:42.042Z</time></trkpt><trkpt lat="42.29102" lon="12.8372817"><ele>770.0</ele><time>2026-04-04T08:09:43.041Z</time></trkpt><trkpt lat="42.2909833" lon="12.8373817"><ele>771.5000000000001</ele><time>2026-04-04T08:09:44.041Z</time></trkpt><trkpt lat="42.2909433" lon="12.8374817"><ele>773.0</ele><time>2026-04-04T08:09:45.041Z</time></trkpt><trkpt lat="42.2909017" lon="12.837585"><ele>774.5000000000001</ele><time>2026-04-04T08:09:46.04Z</time></trkpt><trkpt lat="42.2908533" lon="12.8376833"><ele>776.0</ele><time>2026-04-04T08:09:47.041Z</time></trkpt><trkpt lat="42.2908067" lon="12.83778"><ele>777.5</ele><time>2026-04-04T08:09:48.041Z</time></trkpt><trkpt lat="42.2907633" lon="12.837875"><ele>779.0</ele><time>2026-04-04T08:09:49.041Z</time></trkpt><trkpt lat="42.2907217" lon="12.837965"><ele>780.5000000000001</ele><time>2026-04-04T08:09:50.04Z</time></trkpt><trkpt lat="42.2906783" lon="12.8380483"><ele>782.0</ele><time>2026-04-04T08:09:51.04Z</time></trkpt><trkpt lat="42.290635" lon="12.8381217"><ele>782.0000000000001</ele><time>2026-04-04T08:09:52.041Z</time></trkpt><trkpt lat="42.2905917" lon="12.83819"><ele>782.0</ele><time>2026-04-04T08:09:53.042Z</time></trkpt><trkpt lat="42.2905417" lon="12.83826"><ele>782.0</ele><time>2026-04-04T08:09:54.04Z</time></trkpt><trkpt lat="42.29049" lon="12.83831"><ele>782.0</ele><time>2026-04-04T08:09:55.041Z</time></trkpt><trkpt lat="42.290385" lon="12.83839"><ele>782.0000000000001</ele><time>2026-04-04T08:09:57.041Z</time></trkpt><trkpt lat="42.29027" lon="12.8384167"><ele>782.0</ele><time>2026-04-04T08:09:59.042Z</time></trkpt><trkpt lat="42.2901517" lon="12.8383667"><ele>781.8</ele><time>2026-04-04T08:10:01.041Z</time></trkpt><trkpt lat="42.2900917" lon="12.8383283"><ele>781.6</ele><time>2026-04-04T08:10:02.041Z</time></trkpt><trkpt lat="42.29004" lon="12.8382783"><ele>781.4</ele><time>2026-04-04T08:10:03.04Z</time></trkpt><trkpt lat="42.289925" lon="12.8382067"><ele>781.1999999999999</ele><time>2026-04-04T08:10:05.041Z</time></trkpt><trkpt lat="42.2898217" lon="12.8381433"><ele>781.0</ele><time>2026-04-04T08:10:07.04Z</time></trkpt><trkpt lat="42.2897383" lon="12.8380667"><ele>780.8</ele><time>2026-04-04T08:10:09.04Z</time></trkpt><trkpt lat="42.2896667" lon="12.8379883"><ele>780.5999999999999</ele><time>2026-04-04T08:10:11.041Z</time></trkpt><trkpt lat="42.2895883" lon="12.837955"><ele>780.4</ele><time>2026-04-04T08:10:13.041Z</time></trkpt><trkpt lat="42.2894967" lon="12.8379683"><ele>780.2</ele><time>2026-04-04T08:10:15.042Z</time></trkpt><trkpt lat="42.2893867" lon="12.8380467"><ele>780.0</ele><time>2026-04-04T08:10:17.041Z</time></trkpt><trkpt lat="42.28933" lon="12.8381033"><ele>780.0</ele><time>2026-04-04T08:10:18.042Z</time></trkpt><trkpt lat="42.2892567" lon="12.8381633"><ele>780.0</ele><time>2026-04-04T08:10:19.04Z</time></trkpt><trkpt lat="42.289185" lon="12.8382233"><ele>780.0</ele><time>2026-04-04T08:10:20.042Z</time></trkpt><trkpt lat="42.289115" lon="12.8382817"><ele>780.0</ele><time>2026-04-04T08:10:21.041Z</time></trkpt><trkpt lat="42.2890467" lon="12.8383467"><ele>780.0</ele><time>2026-04-04T08:10:22.04Z</time></trkpt><trkpt lat="42.2889783" lon="12.838405"><ele>780.0</ele><time>2026-04-04T08:10:23.04Z</time></trkpt><trkpt lat="42.2889083" lon="12.838455"><ele>779.0</ele><time>2026-04-04T08:10:24.041Z</time></trkpt><trkpt lat="42.2888333" lon="12.8385"><ele>778.0</ele><time>2026-04-04T08:10:25.041Z</time></trkpt><trkpt lat="42.2887583" lon="12.8385333"><ele>777.0</ele><time>2026-04-04T08:10:26.041Z</time></trkpt><trkpt lat="42.2886867" lon="12.838575"><ele>776.0</ele><time>2026-04-04T08:10:27.042Z</time></trkpt><trkpt lat="42.2886133" lon="12.8386117"><ele>775.0</ele><time>2026-04-04T08:10:28.04Z</time></trkpt><trkpt lat="42.288545" lon="12.83865"><ele>774.0</ele><time>2026-04-04T08:10:29.039Z</time></trkpt><trkpt lat="42.288475" lon="12.8386767"><ele>774.0</ele><time>2026-04-04T08:10:30.039Z</time></trkpt><trkpt lat="42.28841" lon="12.8387017"><ele>774.0</ele><time>2026-04-04T08:10:31.04Z</time></trkpt><trkpt lat="42.28834" lon="12.8387117"><ele>774.0</ele><time>2026-04-04T08:10:32.041Z</time></trkpt><trkpt lat="42.2882767" lon="12.8387283"><ele>774.0</ele><time>2026-04-04T08:10:33.041Z</time></trkpt><trkpt lat="42.2881617" lon="12.8387367"><ele>774.0</ele><time>2026-04-04T08:10:35.041Z</time></trkpt><trkpt lat="42.2880517" lon="12.83868"><ele>774.0</ele><time>2026-04-04T08:10:37.041Z</time></trkpt><trkpt lat="42.2879967" lon="12.838625"><ele>774.1666666666666</ele><time>2026-04-04T08:10:38.041Z</time></trkpt><trkpt lat="42.28795" lon="12.8385433"><ele>774.3333333333333</ele><time>2026-04-04T08:10:39.042Z</time></trkpt><trkpt lat="42.2878967" lon="12.838455"><ele>774.5</ele><time>2026-04-04T08:10:40.043Z</time></trkpt><trkpt lat="42.28784" lon="12.8383717"><ele>774.6666666666666</ele><time>2026-04-04T08:10:41.041Z</time></trkpt><trkpt lat="42.2877917" lon="12.838275"><ele>774.8333333333333</ele><time>2026-04-04T08:10:42.041Z</time></trkpt><trkpt lat="42.28775" lon="12.8381767"><ele>775.0</ele><time>2026-04-04T08:10:43.041Z</time></trkpt><trkpt lat="42.287705" lon="12.8380767"><ele>774.9999999999999</ele><time>2026-04-04T08:10:44.041Z</time></trkpt><trkpt lat="42.2876617" lon="12.8379733"><ele>775.0</ele><time>2026-04-04T08:10:45.041Z</time></trkpt><trkpt lat="42.2876283" lon="12.8378717"><ele>775.0</ele><time>2026-04-04T08:10:46.041Z</time></trkpt><trkpt lat="42.28759" lon="12.837775"><ele>775.0</ele><time>2026-04-04T08:10:47.041Z</time></trkpt><trkpt lat="42.287555" lon="12.8376883"><ele>774.9999999999999</ele><time>2026-04-04T08:10:48.04Z</time></trkpt><trkpt lat="42.2875167" lon="12.8376133"><ele>775.0</ele><time>2026-04-04T08:10:49.041Z</time></trkpt><trkpt lat="42.287475" lon="12.8375417"><ele>774.2</ele><time>2026-04-04T08:10:50.04Z</time></trkpt><trkpt lat="42.28737" lon="12.83744"><ele>773.4</ele><time>2026-04-04T08:10:52.041Z</time></trkpt><trkpt lat="42.2873017" lon="12.837405"><ele>772.5999999999999</ele><time>2026-04-04T08:10:53.041Z</time></trkpt><trkpt lat="42.2872233" lon="12.837375"><ele>771.8</ele><time>2026-04-04T08:10:54.041Z</time></trkpt><trkpt lat="42.2871317" lon="12.837355"><ele>771.0</ele><time>2026-04-04T08:10:55.041Z</time></trkpt><trkpt lat="42.28704" lon="12.8373317"><ele>771.0</ele><time>2026-04-04T08:10:56.041Z</time></trkpt><trkpt lat="42.2869417" lon="12.8373117"><ele>771.0</ele><time>2026-04-04T08:10:57.042Z</time></trkpt><trkpt lat="42.28685" lon="12.8372883"><ele>771.0</ele><time>2026-04-04T08:10:58.04Z</time></trkpt><trkpt lat="42.28677" lon="12.8372633"><ele>771.0</ele><time>2026-04-04T08:10:59.041Z</time></trkpt><trkpt lat="42.2866867" lon="12.8372383"><ele>771.0</ele><time>2026-04-04T08:11:00.041Z</time></trkpt><trkpt lat="42.2866083" lon="12.8372083"><ele>771.0</ele><time>2026-04-04T08:11:01.041Z</time></trkpt><trkpt lat="42.286525" lon="12.8371683"><ele>771.0</ele><time>2026-04-04T08:11:02.041Z</time></trkpt><trkpt lat="42.2864467" lon="12.8371217"><ele>771.0</ele><time>2026-04-04T08:11:03.041Z</time></trkpt><trkpt lat="42.2863783" lon="12.8370483"><ele>771.0</ele><time>2026-04-04T08:11:04.041Z</time></trkpt><trkpt lat="42.286305" lon="12.8369783"><ele>771.0</ele><time>2026-04-04T08:11:05.04Z</time></trkpt><trkpt lat="42.286245" lon="12.8368867"><ele>771.0</ele><time>2026-04-04T08:11:06.042Z</time></trkpt><trkpt lat="42.28619" lon="12.83678"><ele>771.0</ele><time>2026-04-04T08:11:07.04Z</time></trkpt><trkpt lat="42.286135" lon="12.8366717"><ele>767.8</ele><time>2026-04-04T08:11:08.041Z</time></trkpt><trkpt lat="42.2860717" lon="12.83657"><ele>764.5999999999999</ele><time>2026-04-04T08:11:09.04Z</time></trkpt><trkpt lat="42.2860117" lon="12.8364667"><ele>761.4</ele><time>2026-04-04T08:11:10.041Z</time></trkpt><trkpt lat="42.2859617" lon="12.8363517"><ele>758.2</ele><time>2026-04-04T08:11:11.043Z</time></trkpt><trkpt lat="42.2859133" lon="12.8362367"><ele>755.0</ele><time>2026-04-04T08:11:12.041Z</time></trkpt><trkpt lat="42.285865" lon="12.8361267"><ele>755.0</ele><time>2026-04-04T08:11:13.04Z</time></trkpt><trkpt lat="42.2858233" lon="12.8360133"><ele>755.0</ele><time>2026-04-04T08:11:14.04Z</time></trkpt><trkpt lat="42.2857783" lon="12.8359067"><ele>755.0</ele><time>2026-04-04T08:11:15.041Z</time></trkpt><trkpt lat="42.2857317" lon="12.8358083"><ele>755.0</ele><time>2026-04-04T08:11:16.04Z</time></trkpt><trkpt lat="42.2856783" lon="12.8357067"><ele>755.0</ele><time>2026-04-04T08:11:17.04Z</time></trkpt><trkpt lat="42.2856233" lon="12.8356033"><ele>750.8</ele><time>2026-04-04T08:11:18.041Z</time></trkpt><trkpt lat="42.2855667" lon="12.8355"><ele>746.6</ele><time>2026-04-04T08:11:19.041Z</time></trkpt><trkpt lat="42.2855183" lon="12.83539"><ele>742.4000000000001</ele><time>2026-04-04T08:11:20.041Z</time></trkpt><trkpt lat="42.2854717" lon="12.8352733"><ele>738.2</ele><time>2026-04-04T08:11:21.041Z</time></trkpt><trkpt lat="42.2854383" lon="12.8351583"><ele>734.0</ele><time>2026-04-04T08:11:22.041Z</time></trkpt><trkpt lat="42.2854083" lon="12.835045"><ele>733.6</ele><time>2026-04-04T08:11:23.041Z</time></trkpt><trkpt lat="42.2853767" lon="12.8349333"><ele>733.2</ele><time>2026-04-04T08:11:24.041Z</time></trkpt><trkpt lat="42.2853383" lon="12.8348367"><ele>732.8000000000001</ele><time>2026-04-04T08:11:25.041Z</time></trkpt><trkpt lat="42.2852883" lon="12.8347367"><ele>732.4000000000001</ele><time>2026-04-04T08:11:26.043Z</time></trkpt><trkpt lat="42.2852267" lon="12.8346483"><ele>732.0</ele><time>2026-04-04T08:11:27.04Z</time></trkpt><trkpt lat="42.2851467" lon="12.8345483"><ele>732.0</ele><time>2026-04-04T08:11:28.039Z</time></trkpt><trkpt lat="42.2850633" lon="12.8344467"><ele>732.0</ele><time>2026-04-04T08:11:29.042Z</time></trkpt><trkpt lat="42.28497" lon="12.8343483"><ele>732.0</ele><time>2026-04-04T08:11:30.04Z</time></trkpt><trkpt lat="42.28487" lon="12.834265"><ele>732.0</ele><time>2026-04-04T08:11:31.04Z</time></trkpt><trkpt lat="42.2847667" lon="12.8341917"><ele>733.0</ele><time>2026-04-04T08:11:32.041Z</time></trkpt><trkpt lat="42.2846617" lon="12.8341167"><ele>734.0</ele><time>2026-04-04T08:11:33.042Z</time></trkpt><trkpt lat="42.2845633" lon="12.8340317"><ele>735.0</ele><time>2026-04-04T08:11:34.041Z</time></trkpt><trkpt lat="42.2844783" lon="12.8339433"><ele>736.0</ele><time>2026-04-04T08:11:35.039Z</time></trkpt><trkpt lat="42.2844" lon="12.8338533"><ele>737.0</ele><time>2026-04-04T08:11:36.041Z</time></trkpt><trkpt lat="42.2843233" lon="12.8337717"><ele>737.0</ele><time>2026-04-04T08:11:37.042Z</time></trkpt><trkpt lat="42.2842483" lon="12.83369"><ele>737.0</ele><time>2026-04-04T08:11:38.04Z</time></trkpt><trkpt lat="42.284175" lon="12.8336133"><ele>737.0</ele><time>2026-04-04T08:11:39.04Z</time></trkpt><trkpt lat="42.2841033" lon="12.8335367"><ele>737.0</ele><time>2026-04-04T08:11:40.041Z</time></trkpt><trkpt lat="42.2840333" lon="12.8334717"><ele>737.0</ele><time>2026-04-04T08:11:41.041Z</time></trkpt><trkpt lat="42.283965" lon="12.8334217"><ele>737.0</ele><time>2026-04-04T08:11:42.04Z</time></trkpt><trkpt lat="42.2838867" lon="12.8333867"><ele>738.8</ele><time>2026-04-04T08:11:43.04Z</time></trkpt><trkpt lat="42.2837967" lon="12.83336"><ele>740.6</ele><time>2026-04-04T08:11:44.041Z</time></trkpt><trkpt lat="42.2837033" lon="12.8333283"><ele>742.4</ele><time>2026-04-04T08:11:45.041Z</time></trkpt><trkpt lat="42.2836117" lon="12.83328"><ele>744.1999999999999</ele><time>2026-04-04T08:11:46.039Z</time></trkpt><trkpt lat="42.28353" lon="12.833225"><ele>746.0</ele><time>2026-04-04T08:11:47.04Z</time></trkpt><trkpt lat="42.2834517" lon="12.8331767"><ele>746.0</ele><time>2026-04-04T08:11:48.041Z</time></trkpt><trkpt lat="42.2833817" lon="12.8331317"><ele>746.0</ele><time>2026-04-04T08:11:49.041Z</time></trkpt><trkpt lat="42.283315" lon="12.8330883"><ele>746.0</ele><time>2026-04-04T08:11:50.041Z</time></trkpt><trkpt lat="42.2832517" lon="12.8330333"><ele>746.0</ele><time>2026-04-04T08:11:51.041Z</time></trkpt><trkpt lat="42.2831917" lon="12.83296"><ele>746.0</ele><time>2026-04-04T08:11:52.04Z</time></trkpt><trkpt lat="42.2831367" lon="12.832885"><ele>746.0</ele><time>2026-04-04T08:11:53.04Z</time></trkpt><trkpt lat="42.28309" lon="12.8327967"><ele>745.5714285714286</ele><time>2026-04-04T08:11:54.041Z</time></trkpt><trkpt lat="42.2830433" lon="12.8327083"><ele>745.1428571428571</ele><time>2026-04-04T08:11:55.041Z</time></trkpt><trkpt lat="42.283005" lon="12.832615"><ele>744.7142857142858</ele><time>2026-04-04T08:11:56.04Z</time></trkpt><trkpt lat="42.2829683" lon="12.8325317"><ele>744.2857142857142</ele><time>2026-04-04T08:11:57.042Z</time></trkpt><trkpt lat="42.2829233" lon="12.8324567"><ele>743.8571428571428</ele><time>2026-04-04T08:11:58.04Z</time></trkpt><trkpt lat="42.2828833" lon="12.8323783"><ele>743.4285714285714</ele><time>2026-04-04T08:11:59.041Z</time></trkpt><trkpt lat="42.282845" lon="12.8323033"><ele>743.0</ele><time>2026-04-04T08:12:00.041Z</time></trkpt><trkpt lat="42.2828017" lon="12.8322333"><ele>743.0</ele><time>2026-04-04T08:12:01.041Z</time></trkpt><trkpt lat="42.2827167" lon="12.8321183"><ele>743.0</ele><time>2026-04-04T08:12:03.041Z</time></trkpt><trkpt lat="42.2826383" lon="12.832035"><ele>743.0</ele><time>2026-04-04T08:12:05.04Z</time></trkpt><trkpt lat="42.28259" lon="12.8319733"><ele>743.0</ele><time>2026-04-04T08:12:07.04Z</time></trkpt><trkpt lat="42.2824761" lon="12.8319643"><ele>743.0</ele><time>2026-04-04T08:15:30.041Z</time></trkpt><trkpt lat="42.2824557" lon="12.8320981"><ele>743.0</ele><time>2026-04-04T08:16:12.749Z</time></trkpt><trkpt lat="42.2823059" lon="12.8320427"><ele>743.0</ele><time>2026-04-04T08:16:17.04Z</time></trkpt><trkpt lat="42.2823748" lon="12.8320407"><ele>743.0</ele><time>2026-04-04T08:16:19.041Z</time></trkpt><trkpt lat="42.2824414" lon="12.8319595"><ele>743.0</ele><time>2026-04-04T08:16:22.041Z</time></trkpt><trkpt lat="42.2825" lon="12.8319276"><ele>743.0</ele><time>2026-04-04T08:16:26.039Z</time></trkpt><trkpt lat="42.2824605" lon="12.8320011"><ele>743.0</ele><time>2026-04-04T08:18:12.041Z</time></trkpt><trkpt lat="42.282393" lon="12.8319925"><ele>743.0</ele><time>2026-04-04T08:18:23.043Z</time></trkpt><trkpt lat="42.2823774" lon="12.8319064"><ele>743.0</ele><time>2026-04-04T08:18:34.04Z</time></trkpt><trkpt lat="42.2823888" lon="12.8318037"><ele>743.0</ele><time>2026-04-04T08:20:23.042Z</time></trkpt><trkpt lat="42.2824314" lon="12.8317154"><ele>743.0</ele><time>2026-04-04T08:20:25.039Z</time></trkpt><trkpt lat="42.2824957" lon="12.8315926"><ele>743.0</ele><time>2026-04-04T08:20:27.041Z</time></trkpt><trkpt lat="42.2825645" lon="12.8314528"><ele>742.8333333333333</ele><time>2026-04-04T08:20:29.041Z</time></trkpt><trkpt lat="42.2826014" lon="12.8313815"><ele>742.6666666666666</ele><time>2026-04-04T08:20:30.039Z</time></trkpt><trkpt lat="42.2826485" lon="12.8313078"><ele>742.5</ele><time>2026-04-04T08:20:31.041Z</time></trkpt><trkpt lat="42.2827046" lon="12.8312284"><ele>742.3333333333334</ele><time>2026-04-04T08:20:32.04Z</time></trkpt><trkpt lat="42.2827649" lon="12.8311506"><ele>742.1666666666667</ele><time>2026-04-04T08:20:33.042Z</time></trkpt><trkpt lat="42.2828253" lon="12.8310778"><ele>742.0</ele><time>2026-04-04T08:20:34.04Z</time></trkpt><trkpt lat="42.2828767" lon="12.831009"><ele>740.5714285714286</ele><time>2026-04-04T08:20:35.041Z</time></trkpt><trkpt lat="42.2829218" lon="12.8309281"><ele>739.1428571428571</ele><time>2026-04-04T08:20:36.042Z</time></trkpt><trkpt lat="42.2829628" lon="12.8308372"><ele>737.7142857142858</ele><time>2026-04-04T08:20:37.04Z</time></trkpt><trkpt lat="42.2829906" lon="12.8307517"><ele>736.2857142857142</ele><time>2026-04-04T08:20:38.041Z</time></trkpt><trkpt lat="42.2830121" lon="12.8306619"><ele>734.8571428571429</ele><time>2026-04-04T08:20:39.043Z</time></trkpt><trkpt lat="42.2830216" lon="12.8305567"><ele>733.4285714285714</ele><time>2026-04-04T08:20:40.04Z</time></trkpt><trkpt lat="42.2830334" lon="12.8304642"><ele>732.0</ele><time>2026-04-04T08:20:41.039Z</time></trkpt><trkpt lat="42.28305" lon="12.8303467"><ele>732.0</ele><time>2026-04-04T08:20:43.04Z</time></trkpt><trkpt lat="42.2830433" lon="12.830225"><ele>732.0</ele><time>2026-04-04T08:20:46.04Z</time></trkpt><trkpt lat="42.283045" lon="12.8301333"><ele>732.0</ele><time>2026-04-04T08:20:49.041Z</time></trkpt><trkpt lat="42.2830533" lon="12.8300333"><ele>732.0</ele><time>2026-04-04T08:20:51.041Z</time></trkpt><trkpt lat="42.2830733" lon="12.8299483"><ele>732.0</ele><time>2026-04-04T08:20:53.041Z</time></trkpt><trkpt lat="42.283105" lon="12.8298533"><ele>732.0</ele><time>2026-04-04T08:20:55.041Z</time></trkpt><trkpt lat="42.2831617" lon="12.8297317"><ele>731.8333333333334</ele><time>2026-04-04T08:20:57.04Z</time></trkpt><trkpt lat="42.2832083" lon="12.8296683"><ele>731.6666666666666</ele><time>2026-04-04T08:20:58.041Z</time></trkpt><trkpt lat="42.2832667" lon="12.8296017"><ele>731.5</ele><time>2026-04-04T08:20:59.042Z</time></trkpt><trkpt lat="42.2833333" lon="12.8295317"><ele>731.3333333333333</ele><time>2026-04-04T08:21:00.041Z</time></trkpt><trkpt lat="42.28341" lon="12.8294617"><ele>731.1666666666666</ele><time>2026-04-04T08:21:01.04Z</time></trkpt><trkpt lat="42.28349" lon="12.8293883"><ele>731.0</ele><time>2026-04-04T08:21:02.041Z</time></trkpt><trkpt lat="42.28357" lon="12.82932"><ele>729.3333333333333</ele><time>2026-04-04T08:21:03.041Z</time></trkpt><trkpt lat="42.283635" lon="12.829255"><ele>727.6666666666666</ele><time>2026-04-04T08:21:04.04Z</time></trkpt><trkpt lat="42.28369" lon="12.8291867"><ele>726.0</ele><time>2026-04-04T08:21:05.039Z</time></trkpt><trkpt lat="42.28373" lon="12.8291133"><ele>724.3333333333334</ele><time>2026-04-04T08:21:06.039Z</time></trkpt><trkpt lat="42.28375" lon="12.829025"><ele>722.6666666666667</ele><time>2026-04-04T08:21:07.041Z</time></trkpt><trkpt lat="42.283745" lon="12.8289233"><ele>721.0</ele><time>2026-04-04T08:21:08.041Z</time></trkpt><trkpt lat="42.2837267" lon="12.8288133"><ele>721.0</ele><time>2026-04-04T08:21:09.042Z</time></trkpt><trkpt lat="42.2837033" lon="12.8286967"><ele>721.0</ele><time>2026-04-04T08:21:10.039Z</time></trkpt><trkpt lat="42.2836817" lon="12.82857"><ele>721.0</ele><time>2026-04-04T08:21:11.04Z</time></trkpt><trkpt lat="42.2836633" lon="12.828445"><ele>721.0</ele><time>2026-04-04T08:21:12.039Z</time></trkpt><trkpt lat="42.2836483" lon="12.8283217"><ele>721.0</ele><time>2026-04-04T08:21:13.04Z</time></trkpt><trkpt lat="42.283635" lon="12.828195"><ele>719.6666666666667</ele><time>2026-04-04T08:21:14.04Z</time></trkpt><trkpt lat="42.283625" lon="12.8280717"><ele>718.3333333333334</ele><time>2026-04-04T08:21:15.04Z</time></trkpt><trkpt lat="42.28361" lon="12.8279517"><ele>717.0</ele><time>2026-04-04T08:21:16.043Z</time></trkpt><trkpt lat="42.2836" lon="12.8278417"><ele>715.6666666666666</ele><time>2026-04-04T08:21:17.041Z</time></trkpt><trkpt lat="42.2835917" lon="12.8277367"><ele>714.3333333333333</ele><time>2026-04-04T08:21:18.04Z</time></trkpt><trkpt lat="42.28359" lon="12.8276333"><ele>713.0</ele><time>2026-04-04T08:21:19.041Z</time></trkpt><trkpt lat="42.2835867" lon="12.8275283"><ele>712.4285714285714</ele><time>2026-04-04T08:21:20.042Z</time></trkpt><trkpt lat="42.2835883" lon="12.8274317"><ele>711.8571428571429</ele><time>2026-04-04T08:21:21.044Z</time></trkpt><trkpt lat="42.2835883" lon="12.8273383"><ele>711.2857142857143</ele><time>2026-04-04T08:21:22.04Z</time></trkpt><trkpt lat="42.283585" lon="12.82724"><ele>710.7142857142858</ele><time>2026-04-04T08:21:23.041Z</time></trkpt><trkpt lat="42.2835783" lon="12.8271383"><ele>710.1428571428571</ele><time>2026-04-04T08:21:24.042Z</time></trkpt><trkpt lat="42.2835717" lon="12.8270383"><ele>709.5714285714287</ele><time>2026-04-04T08:21:25.041Z</time></trkpt><trkpt lat="42.2835617" lon="12.8269417"><ele>709.0</ele><time>2026-04-04T08:21:26.043Z</time></trkpt><trkpt lat="42.2835583" lon="12.8268433"><ele>707.8333333333334</ele><time>2026-04-04T08:21:27.043Z</time></trkpt><trkpt lat="42.2835467" lon="12.8267467"><ele>706.6666666666667</ele><time>2026-04-04T08:21:28.041Z</time></trkpt><trkpt lat="42.2835333" lon="12.826655"><ele>705.5</ele><time>2026-04-04T08:21:29.042Z</time></trkpt><trkpt lat="42.2835167" lon="12.82657"><ele>704.3333333333334</ele><time>2026-04-04T08:21:30.042Z</time></trkpt><trkpt lat="42.2834683" lon="12.8264233"><ele>703.1666666666666</ele><time>2026-04-04T08:21:32.043Z</time></trkpt><trkpt lat="42.283425" lon="12.8262783"><ele>702.0</ele><time>2026-04-04T08:21:34.041Z</time></trkpt><trkpt lat="42.2833683" lon="12.8261483"><ele>702.0</ele><time>2026-04-04T08:21:36.043Z</time></trkpt><trkpt lat="42.28331" lon="12.8260783"><ele>702.0</ele><time>2026-04-04T08:21:38.041Z</time></trkpt><trkpt lat="42.2832333" lon="12.8260717"><ele>702.0</ele><time>2026-04-04T08:21:40.04Z</time></trkpt><trkpt lat="42.2831617" lon="12.8261817"><ele>702.0</ele><time>2026-04-04T08:21:42.04Z</time></trkpt><trkpt lat="42.2831267" lon="12.8262683"><ele>702.0</ele><time>2026-04-04T08:21:43.039Z</time></trkpt><trkpt lat="42.2830917" lon="12.8263583"><ele>702.0</ele><time>2026-04-04T08:21:44.041Z</time></trkpt><trkpt lat="42.2830617" lon="12.8264433"><ele>701.1428571428572</ele><time>2026-04-04T08:21:45.041Z</time></trkpt><trkpt lat="42.2830367" lon="12.8265283"><ele>700.2857142857143</ele><time>2026-04-04T08:21:46.04Z</time></trkpt><trkpt lat="42.2830033" lon="12.8266067"><ele>699.4285714285714</ele><time>2026-04-04T08:21:47.041Z</time></trkpt><trkpt lat="42.2829633" lon="12.826685"><ele>698.5714285714287</ele><time>2026-04-04T08:21:48.041Z</time></trkpt><trkpt lat="42.282925" lon="12.82676"><ele>697.7142857142858</ele><time>2026-04-04T08:21:49.041Z</time></trkpt><trkpt lat="42.2828883" lon="12.8268317"><ele>696.8571428571429</ele><time>2026-04-04T08:21:50.042Z</time></trkpt><trkpt lat="42.2828333" lon="12.8269533"><ele>696.0</ele><time>2026-04-04T08:21:52.04Z</time></trkpt><trkpt lat="42.2827717" lon="12.82703"><ele>696.0</ele><time>2026-04-04T08:21:54.04Z</time></trkpt><trkpt lat="42.282695" lon="12.8270317"><ele>696.0</ele><time>2026-04-04T08:21:56.041Z</time></trkpt><trkpt lat="42.2826133" lon="12.8268833"><ele>696.0</ele><time>2026-04-04T08:21:58.04Z</time></trkpt><trkpt lat="42.2825883" lon="12.8267833"><ele>696.0</ele><time>2026-04-04T08:21:59.042Z</time></trkpt><trkpt lat="42.28257" lon="12.8266933"><ele>696.0</ele><time>2026-04-04T08:22:00.04Z</time></trkpt><trkpt lat="42.2825533" lon="12.8266067"><ele>696.0</ele><time>2026-04-04T08:22:01.042Z</time></trkpt><trkpt lat="42.2825367" lon="12.82652"><ele>694.8571428571429</ele><time>2026-04-04T08:22:02.042Z</time></trkpt><trkpt lat="42.2825233" lon="12.8264233"><ele>693.7142857142858</ele><time>2026-04-04T08:22:03.043Z</time></trkpt><trkpt lat="42.2825117" lon="12.826325"><ele>692.5714285714287</ele><time>2026-04-04T08:22:04.04Z</time></trkpt><trkpt lat="42.2825" lon="12.8262233"><ele>691.4285714285714</ele><time>2026-04-04T08:22:05.042Z</time></trkpt><trkpt lat="42.2824933" lon="12.826125"><ele>690.2857142857143</ele><time>2026-04-04T08:22:06.043Z</time></trkpt><trkpt lat="42.2824883" lon="12.826025"><ele>689.1428571428572</ele><time>2026-04-04T08:22:07.04Z</time></trkpt><trkpt lat="42.2824883" lon="12.825925"><ele>688.0</ele><time>2026-04-04T08:22:08.042Z</time></trkpt><trkpt lat="42.282485" lon="12.82583"><ele>686.1666666666667</ele><time>2026-04-04T08:22:09.042Z</time></trkpt><trkpt lat="42.28248" lon="12.8257367"><ele>684.3333333333334</ele><time>2026-04-04T08:22:10.041Z</time></trkpt><trkpt lat="42.2824717" lon="12.82563"><ele>682.5</ele><time>2026-04-04T08:22:11.041Z</time></trkpt><trkpt lat="42.282465" lon="12.825515"><ele>680.6666666666666</ele><time>2026-04-04T08:22:12.042Z</time></trkpt><trkpt lat="42.2824567" lon="12.8253833"><ele>678.8333333333333</ele><time>2026-04-04T08:22:13.041Z</time></trkpt><trkpt lat="42.2824483" lon="12.825235"><ele>677.0</ele><time>2026-04-04T08:22:14.042Z</time></trkpt><trkpt lat="42.2824333" lon="12.8250933"><ele>675.3333333333333</ele><time>2026-04-04T08:22:15.043Z</time></trkpt><trkpt lat="42.2824233" lon="12.8249667"><ele>673.6666666666666</ele><time>2026-04-04T08:22:16.041Z</time></trkpt><trkpt lat="42.2824133" lon="12.8248517"><ele>672.0</ele><time>2026-04-04T08:22:17.041Z</time></trkpt><trkpt lat="42.2824133" lon="12.824745"><ele>670.3333333333334</ele><time>2026-04-04T08:22:18.042Z</time></trkpt><trkpt lat="42.282415" lon="12.8246417"><ele>668.6666666666667</ele><time>2026-04-04T08:22:19.042Z</time></trkpt><trkpt lat="42.2824233" lon="12.82455"><ele>667.0</ele><time>2026-04-04T08:22:20.042Z</time></trkpt><trkpt lat="42.28246" lon="12.8243933"><ele>665.1666666666667</ele><time>2026-04-04T08:22:22.042Z</time></trkpt><trkpt lat="42.28254" lon="12.8242667"><ele>663.3333333333334</ele><time>2026-04-04T08:22:24.04Z</time></trkpt><trkpt lat="42.2825933" lon="12.8242133"><ele>661.5</ele><time>2026-04-04T08:22:25.041Z</time></trkpt><trkpt lat="42.28265" lon="12.8241583"><ele>659.6666666666666</ele><time>2026-04-04T08:22:26.043Z</time></trkpt><trkpt lat="42.28271" lon="12.8241017"><ele>657.8333333333333</ele><time>2026-04-04T08:22:27.043Z</time></trkpt><trkpt lat="42.2827667" lon="12.824035"><ele>656.0</ele><time>2026-04-04T08:22:28.041Z</time></trkpt><trkpt lat="42.2828267" lon="12.8239667"><ele>656.0</ele><time>2026-04-04T08:22:29.041Z</time></trkpt><trkpt lat="42.28288" lon="12.8239033"><ele>656.0</ele><time>2026-04-04T08:22:30.041Z</time></trkpt><trkpt lat="42.2829267" lon="12.823845"><ele>656.0</ele><time>2026-04-04T08:22:31.041Z</time></trkpt><trkpt lat="42.2830033" lon="12.8237233"><ele>656.0</ele><time>2026-04-04T08:22:33.042Z</time></trkpt><trkpt lat="42.28301" lon="12.823565"><ele>656.0</ele><time>2026-04-04T08:22:35.042Z</time></trkpt><trkpt lat="42.2829817" lon="12.8234833"><ele>656.0</ele><time>2026-04-04T08:22:36.043Z</time></trkpt><trkpt lat="42.2829317" lon="12.8234017"><ele>653.4</ele><time>2026-04-04T08:22:37.041Z</time></trkpt><trkpt lat="42.282865" lon="12.823315"><ele>650.8</ele><time>2026-04-04T08:22:38.041Z</time></trkpt><trkpt lat="42.282795" lon="12.823225"><ele>648.1999999999999</ele><time>2026-04-04T08:22:39.042Z</time></trkpt><trkpt lat="42.2827333" lon="12.8231283"><ele>645.5999999999999</ele><time>2026-04-04T08:22:40.04Z</time></trkpt><trkpt lat="42.2826783" lon="12.8230283"><ele>643.0</ele><time>2026-04-04T08:22:41.042Z</time></trkpt><trkpt lat="42.2826317" lon="12.8229333"><ele>643.0</ele><time>2026-04-04T08:22:42.042Z</time></trkpt><trkpt lat="42.2825883" lon="12.8228483"><ele>643.0</ele><time>2026-04-04T08:22:43.04Z</time></trkpt><trkpt lat="42.2825483" lon="12.8227633"><ele>643.0</ele><time>2026-04-04T08:22:44.042Z</time></trkpt><trkpt lat="42.2825183" lon="12.8226733"><ele>643.0</ele><time>2026-04-04T08:22:45.044Z</time></trkpt><trkpt lat="42.2825017" lon="12.8225783"><ele>643.0</ele><time>2026-04-04T08:22:46.041Z</time></trkpt><trkpt lat="42.2824883" lon="12.82248"><ele>643.0</ele><time>2026-04-04T08:22:47.043Z</time></trkpt><trkpt lat="42.2824783" lon="12.82239"><ele>643.0</ele><time>2026-04-04T08:22:48.043Z</time></trkpt><trkpt lat="42.28248" lon="12.8223017"><ele>640.3333333333334</ele><time>2026-04-04T08:22:49.042Z</time></trkpt><trkpt lat="42.2824867" lon="12.82221"><ele>637.6666666666667</ele><time>2026-04-04T08:22:50.041Z</time></trkpt><trkpt lat="42.28251" lon="12.822115"><ele>635.0</ele><time>2026-04-04T08:22:51.041Z</time></trkpt><trkpt lat="42.2825367" lon="12.8220133"><ele>632.3333333333334</ele><time>2026-04-04T08:22:52.041Z</time></trkpt><trkpt lat="42.2825817" lon="12.8219217"><ele>629.6666666666666</ele><time>2026-04-04T08:22:53.042Z</time></trkpt><trkpt lat="42.2826267" lon="12.82183"><ele>627.0</ele><time>2026-04-04T08:22:54.043Z</time></trkpt><trkpt lat="42.2826733" lon="12.8217417"><ele>624.0</ele><time>2026-04-04T08:22:55.04Z</time></trkpt><trkpt lat="42.2827183" lon="12.821665"><ele>621.0</ele><time>2026-04-04T08:22:56.043Z</time></trkpt><trkpt lat="42.2827617" lon="12.8215833"><ele>618.0</ele><time>2026-04-04T08:22:57.042Z</time></trkpt><trkpt lat="42.2828" lon="12.8214983"><ele>615.0</ele><time>2026-04-04T08:22:58.04Z</time></trkpt><trkpt lat="42.28283" lon="12.8214233"><ele>612.0</ele><time>2026-04-04T08:22:59.042Z</time></trkpt><trkpt lat="42.2828967" lon="12.8212967"><ele>609.0</ele><time>2026-04-04T08:23:01.04Z</time></trkpt><trkpt lat="42.28301" lon="12.8212367"><ele>611.8</ele><time>2026-04-04T08:23:03.042Z</time></trkpt><trkpt lat="42.2831433" lon="12.82122"><ele>614.5999999999999</ele><time>2026-04-04T08:23:05.041Z</time></trkpt><trkpt lat="42.2832183" lon="12.82124"><ele>617.4</ele><time>2026-04-04T08:23:06.042Z</time></trkpt><trkpt lat="42.2832883" lon="12.8212667"><ele>620.1999999999999</ele><time>2026-04-04T08:23:07.04Z</time></trkpt><trkpt lat="42.2833617" lon="12.8213167"><ele>623.0</ele><time>2026-04-04T08:23:08.043Z</time></trkpt><trkpt lat="42.2834417" lon="12.821385"><ele>623.0</ele><time>2026-04-04T08:23:09.042Z</time></trkpt><trkpt lat="42.2835233" lon="12.821465"><ele>623.0</ele><time>2026-04-04T08:23:10.041Z</time></trkpt><trkpt lat="42.2836133" lon="12.8215533"><ele>623.0</ele><time>2026-04-04T08:23:11.041Z</time></trkpt><trkpt lat="42.283705" lon="12.8216517"><ele>623.0</ele><time>2026-04-04T08:23:12.041Z</time></trkpt><trkpt lat="42.2838067" lon="12.8217567"><ele>623.25</ele><time>2026-04-04T08:23:13.041Z</time></trkpt><trkpt lat="42.2839133" lon="12.8218633"><ele>623.5</ele><time>2026-04-04T08:23:14.043Z</time></trkpt><trkpt lat="42.28403" lon="12.8219833"><ele>623.75</ele><time>2026-04-04T08:23:15.042Z</time></trkpt><trkpt lat="42.2841533" lon="12.8220967"><ele>624.0</ele><time>2026-04-04T08:23:16.04Z</time></trkpt><trkpt lat="42.28427" lon="12.822205"><ele>624.0</ele><time>2026-04-04T08:23:17.041Z</time></trkpt><trkpt lat="42.2843917" lon="12.8223217"><ele>624.0</ele><time>2026-04-04T08:23:18.043Z</time></trkpt><trkpt lat="42.2845067" lon="12.82244"><ele>624.0</ele><time>2026-04-04T08:23:19.04Z</time></trkpt><trkpt lat="42.2846167" lon="12.8225633"><ele>624.0</ele><time>2026-04-04T08:23:20.043Z</time></trkpt><trkpt lat="42.284725" lon="12.8226883"><ele>622.0</ele><time>2026-04-04T08:23:21.043Z</time></trkpt><trkpt lat="42.2848383" lon="12.8228083"><ele>620.0</ele><time>2026-04-04T08:23:22.041Z</time></trkpt><trkpt lat="42.2849517" lon="12.8229267"><ele>618.0</ele><time>2026-04-04T08:23:23.042Z</time></trkpt><trkpt lat="42.2850667" lon="12.8230433"><ele>616.0</ele><time>2026-04-04T08:23:24.041Z</time></trkpt><trkpt lat="42.28518" lon="12.8231567"><ele>616.0</ele><time>2026-04-04T08:23:25.041Z</time></trkpt><trkpt lat="42.2852917" lon="12.8232717"><ele>616.0</ele><time>2026-04-04T08:23:26.041Z</time></trkpt><trkpt lat="42.2854" lon="12.8233817"><ele>616.0</ele><time>2026-04-04T08:23:27.042Z</time></trkpt><trkpt lat="42.2855033" lon="12.82349"><ele>616.0</ele><time>2026-04-04T08:23:28.039Z</time></trkpt><trkpt lat="42.2856017" lon="12.8235967"><ele>616.0</ele><time>2026-04-04T08:23:29.042Z</time></trkpt><trkpt lat="42.2856883" lon="12.8236967"><ele>616.0</ele><time>2026-04-04T08:23:30.042Z</time></trkpt><trkpt lat="42.2857833" lon="12.8237833"><ele>616.0</ele><time>2026-04-04T08:23:31.04Z</time></trkpt><trkpt lat="42.285875" lon="12.8238517"><ele>616.0</ele><time>2026-04-04T08:23:32.042Z</time></trkpt><trkpt lat="42.2859667" lon="12.8239117"><ele>616.0</ele><time>2026-04-04T08:23:33.042Z</time></trkpt><trkpt lat="42.286045" lon="12.823965"><ele>616.0</ele><time>2026-04-04T08:23:34.041Z</time></trkpt><trkpt lat="42.2861017" lon="12.82401"><ele>616.0</ele><time>2026-04-04T08:23:35.041Z</time></trkpt><trkpt lat="42.28619" lon="12.8240533"><ele>616.0</ele><time>2026-04-04T08:23:37.041Z</time></trkpt><trkpt lat="42.2862467" lon="12.8240017"><ele>616.0</ele><time>2026-04-04T08:23:39.043Z</time></trkpt><trkpt lat="42.2861933" lon="12.823875"><ele>616.0</ele><time>2026-04-04T08:23:42.042Z</time></trkpt><trkpt lat="42.28612" lon="12.8238317"><ele>616.0</ele><time>2026-04-04T08:23:43.042Z</time></trkpt><trkpt lat="42.286035" lon="12.823765"><ele>616.0</ele><time>2026-04-04T08:23:44.041Z</time></trkpt><trkpt lat="42.2859483" lon="12.823675"><ele>616.0</ele><time>2026-04-04T08:23:45.043Z</time></trkpt><trkpt lat="42.2858317" lon="12.8235633"><ele>616.0</ele><time>2026-04-04T08:23:46.041Z</time></trkpt><trkpt lat="42.2857267" lon="12.8234367"><ele>616.0</ele><time>2026-04-04T08:23:47.041Z</time></trkpt><trkpt lat="42.2856233" lon="12.8233"><ele>616.0</ele><time>2026-04-04T08:23:48.043Z</time></trkpt><trkpt lat="42.2855233" lon="12.82316"><ele>616.0</ele><time>2026-04-04T08:23:49.042Z</time></trkpt><trkpt lat="42.28543" lon="12.823025"><ele>616.0</ele><time>2026-04-04T08:23:50.041Z</time></trkpt><trkpt lat="42.2853317" lon="12.8228883"><ele>616.0</ele><time>2026-04-04T08:23:51.042Z</time></trkpt><trkpt lat="42.285235" lon="12.822745"><ele>607.0</ele><time>2026-04-04T08:23:52.041Z</time></trkpt><trkpt lat="42.285145" lon="12.8225967"><ele>598.0</ele><time>2026-04-04T08:23:53.041Z</time></trkpt><trkpt lat="42.2850533" lon="12.822445"><ele>589.0</ele><time>2026-04-04T08:23:54.042Z</time></trkpt><trkpt lat="42.2849667" lon="12.8222983"><ele>580.0</ele><time>2026-04-04T08:23:55.041Z</time></trkpt><trkpt lat="42.28488" lon="12.8221517"><ele>580.0</ele><time>2026-04-04T08:23:56.042Z</time></trkpt><trkpt lat="42.2847933" lon="12.82201"><ele>580.0</ele><time>2026-04-04T08:23:57.041Z</time></trkpt><trkpt lat="42.2847083" lon="12.8218733"><ele>580.0</ele><time>2026-04-04T08:23:58.041Z</time></trkpt><trkpt lat="42.28463" lon="12.8217267"><ele>580.0</ele><time>2026-04-04T08:23:59.042Z</time></trkpt><trkpt lat="42.2845533" lon="12.8215767"><ele>583.25</ele><time>2026-04-04T08:24:00.041Z</time></trkpt><trkpt lat="42.2844783" lon="12.8214183"><ele>586.5</ele><time>2026-04-04T08:24:01.041Z</time></trkpt><trkpt lat="42.2843967" lon="12.8212683"><ele>589.75</ele><time>2026-04-04T08:24:02.041Z</time></trkpt><trkpt lat="42.284315" lon="12.8211183"><ele>593.0</ele><time>2026-04-04T08:24:03.042Z</time></trkpt><trkpt lat="42.284235" lon="12.8209767"><ele>584.75</ele><time>2026-04-04T08:24:04.041Z</time></trkpt><trkpt lat="42.28416" lon="12.82084"><ele>576.5</ele><time>2026-04-04T08:24:05.041Z</time></trkpt><trkpt lat="42.284085" lon="12.82071"><ele>568.25</ele><time>2026-04-04T08:24:06.042Z</time></trkpt><trkpt lat="42.2840133" lon="12.82058"><ele>560.0</ele><time>2026-04-04T08:24:07.042Z</time></trkpt><trkpt lat="42.28395" lon="12.82044"><ele>564.25</ele><time>2026-04-04T08:24:08.041Z</time></trkpt><trkpt lat="42.2838933" lon="12.8203"><ele>568.5</ele><time>2026-04-04T08:24:09.041Z</time></trkpt><trkpt lat="42.2838367" lon="12.8201617"><ele>572.75</ele><time>2026-04-04T08:24:10.041Z</time></trkpt><trkpt lat="42.2837817" lon="12.8200217"><ele>577.0</ele><time>2026-04-04T08:24:11.041Z</time></trkpt><trkpt lat="42.283725" lon="12.8198833"><ele>577.0</ele><time>2026-04-04T08:24:12.041Z</time></trkpt><trkpt lat="42.2836733" lon="12.8197433"><ele>577.0</ele><time>2026-04-04T08:24:13.041Z</time></trkpt><trkpt lat="42.2836233" lon="12.8196067"><ele>577.0</ele><time>2026-04-04T08:24:14.041Z</time></trkpt><trkpt lat="42.28357" lon="12.8194667"><ele>577.0</ele><time>2026-04-04T08:24:15.041Z</time></trkpt><trkpt lat="42.28352" lon="12.819325"><ele>570.6</ele><time>2026-04-04T08:24:16.04Z</time></trkpt><trkpt lat="42.283475" lon="12.819185"><ele>564.2</ele><time>2026-04-04T08:24:17.042Z</time></trkpt><trkpt lat="42.2834317" lon="12.8190433"><ele>557.8</ele><time>2026-04-04T08:24:18.041Z</time></trkpt><trkpt lat="42.2833917" lon="12.8189133"><ele>551.4</ele><time>2026-04-04T08:24:19.042Z</time></trkpt><trkpt lat="42.283355" lon="12.8187883"><ele>545.0</ele><time>2026-04-04T08:24:20.042Z</time></trkpt><trkpt lat="42.28332" lon="12.81867"><ele>545.0</ele><time>2026-04-04T08:24:21.041Z</time></trkpt><trkpt lat="42.2832867" lon="12.8185567"><ele>545.0</ele><time>2026-04-04T08:24:22.041Z</time></trkpt><trkpt lat="42.2832667" lon="12.8184417"><ele>545.0</ele><time>2026-04-04T08:24:23.042Z</time></trkpt><trkpt lat="42.2832483" lon="12.8183267"><ele>545.0</ele><time>2026-04-04T08:24:24.04Z</time></trkpt><trkpt lat="42.2832217" lon="12.818225"><ele>545.0</ele><time>2026-04-04T08:24:25.041Z</time></trkpt><trkpt lat="42.28319" lon="12.8181317"><ele>545.0</ele><time>2026-04-04T08:24:26.04Z</time></trkpt><trkpt lat="42.2831567" lon="12.818045"><ele>539.0</ele><time>2026-04-04T08:24:27.041Z</time></trkpt><trkpt lat="42.28308" lon="12.8179183"><ele>533.0</ele><time>2026-04-04T08:24:29.04Z</time></trkpt><trkpt lat="42.28298" lon="12.8178417"><ele>527.0</ele><time>2026-04-04T08:24:31.04Z</time></trkpt><trkpt lat="42.28285" lon="12.81785"><ele>521.0</ele><time>2026-04-04T08:24:33.042Z</time></trkpt><trkpt lat="42.28278" lon="12.8179017"><ele>515.0</ele><time>2026-04-04T08:24:34.04Z</time></trkpt><trkpt lat="42.282705" lon="12.8179833"><ele>515.0</ele><time>2026-04-04T08:24:35.042Z</time></trkpt><trkpt lat="42.2826283" lon="12.8180733"><ele>515.0</ele><time>2026-04-04T08:24:36.041Z</time></trkpt><trkpt lat="42.2825483" lon="12.818165"><ele>515.0</ele><time>2026-04-04T08:24:37.04Z</time></trkpt><trkpt lat="42.28247" lon="12.81825"><ele>515.0</ele><time>2026-04-04T08:24:38.041Z</time></trkpt><trkpt lat="42.2824033" lon="12.8183333"><ele>515.0</ele><time>2026-04-04T08:24:39.043Z</time></trkpt><trkpt lat="42.2823483" lon="12.8184067"><ele>515.0</ele><time>2026-04-04T08:24:40.039Z</time></trkpt><trkpt lat="42.2823067" lon="12.8184733"><ele>515.0</ele><time>2026-04-04T08:24:41.041Z</time></trkpt><trkpt lat="42.28224" lon="12.81855"><ele>515.0</ele><time>2026-04-04T08:24:43.042Z</time></trkpt><trkpt lat="42.2822417" lon="12.818445"><ele>515.0</ele><time>2026-04-04T08:24:47.041Z</time></trkpt><trkpt lat="42.28232" lon="12.8183367"><ele>515.0</ele><time>2026-04-04T08:24:49.041Z</time></trkpt><trkpt lat="42.2823667" lon="12.8182683"><ele>515.0</ele><time>2026-04-04T08:24:50.041Z</time></trkpt><trkpt lat="42.2824117" lon="12.8182017"><ele>515.0</ele><time>2026-04-04T08:24:51.042Z</time></trkpt><trkpt lat="42.28246" lon="12.8181367"><ele>515.0</ele><time>2026-04-04T08:24:52.041Z</time></trkpt><trkpt lat="42.2825083" lon="12.81807"><ele>515.0</ele><time>2026-04-04T08:24:53.042Z</time></trkpt><trkpt lat="42.282585" lon="12.8179717"><ele>515.0</ele><time>2026-04-04T08:24:55.041Z</time></trkpt><trkpt lat="42.2826467" lon="12.8178883"><ele>515.0</ele><time>2026-04-04T08:24:57.042Z</time></trkpt><trkpt lat="42.2825883" lon="12.8178367"><ele>515.0</ele><time>2026-04-04T08:25:00.042Z</time></trkpt><trkpt lat="42.2824933" lon="12.81789"><ele>515.0</ele><time>2026-04-04T08:25:02.042Z</time></trkpt><trkpt lat="42.282395" lon="12.81797"><ele>515.0</ele><time>2026-04-04T08:25:04.041Z</time></trkpt><trkpt lat="42.2823333" lon="12.8180133"><ele>515.0</ele><time>2026-04-04T08:25:05.042Z</time></trkpt><trkpt lat="42.2822667" lon="12.81805"><ele>515.0</ele><time>2026-04-04T08:25:06.042Z</time></trkpt><trkpt lat="42.282205" lon="12.8180983"><ele>515.0</ele><time>2026-04-04T08:25:07.04Z</time></trkpt><trkpt lat="42.2821117" lon="12.818185"><ele>515.0</ele><time>2026-04-04T08:25:09.042Z</time></trkpt><trkpt lat="42.2820217" lon="12.8182033"><ele>511.2</ele><time>2026-04-04T08:25:11.041Z</time></trkpt><trkpt lat="42.2819483" lon="12.818125"><ele>507.4</ele><time>2026-04-04T08:25:13.04Z</time></trkpt><trkpt lat="42.2819367" lon="12.8179867"><ele>503.6</ele><time>2026-04-04T08:25:15.042Z</time></trkpt><trkpt lat="42.281995" lon="12.8178367"><ele>499.8</ele><time>2026-04-04T08:25:17.041Z</time></trkpt><trkpt lat="42.2820367" lon="12.8177667"><ele>496.0</ele><time>2026-04-04T08:25:18.042Z</time></trkpt><trkpt lat="42.28208" lon="12.8176883"><ele>494.6666666666667</ele><time>2026-04-04T08:25:19.041Z</time></trkpt><trkpt lat="42.2821233" lon="12.8176017"><ele>493.33333333333337</ele><time>2026-04-04T08:25:20.041Z</time></trkpt><trkpt lat="42.2821683" lon="12.8175083"><ele>492.0</ele><time>2026-04-04T08:25:21.042Z</time></trkpt><trkpt lat="42.2822183" lon="12.8174183"><ele>490.66666666666663</ele><time>2026-04-04T08:25:22.041Z</time></trkpt><trkpt lat="42.2822683" lon="12.8173217"><ele>489.3333333333333</ele><time>2026-04-04T08:25:23.042Z</time></trkpt><trkpt lat="42.2823117" lon="12.817225"><ele>488.0</ele><time>2026-04-04T08:25:24.041Z</time></trkpt><trkpt lat="42.282355" lon="12.8171283"><ele>487.99999999999994</ele><time>2026-04-04T08:25:25.04Z</time></trkpt><trkpt lat="42.282395" lon="12.8170383"><ele>488.0</ele><time>2026-04-04T08:25:26.042Z</time></trkpt><trkpt lat="42.2824317" lon="12.8169567"><ele>487.99999999999994</ele><time>2026-04-04T08:25:27.041Z</time></trkpt><trkpt lat="42.2824683" lon="12.8168767"><ele>487.99999999999994</ele><time>2026-04-04T08:25:28.041Z</time></trkpt><trkpt lat="42.2824983" lon="12.8167917"><ele>488.0</ele><time>2026-04-04T08:25:29.042Z</time></trkpt><trkpt lat="42.282515" lon="12.8166917"><ele>487.99999999999994</ele><time>2026-04-04T08:25:30.042Z</time></trkpt><trkpt lat="42.28252" lon="12.816595"><ele>487.99999999999994</ele><time>2026-04-04T08:25:31.041Z</time></trkpt><trkpt lat="42.2825083" lon="12.8164933"><ele>485.16666666666663</ele><time>2026-04-04T08:25:32.041Z</time></trkpt><trkpt lat="42.2824917" lon="12.8163917"><ele>482.3333333333333</ele><time>2026-04-04T08:25:33.043Z</time></trkpt><trkpt lat="42.28246" lon="12.816285"><ele>479.5</ele><time>2026-04-04T08:25:34.041Z</time></trkpt><trkpt lat="42.2824167" lon="12.8161883"><ele>476.66666666666663</ele><time>2026-04-04T08:25:35.042Z</time></trkpt><trkpt lat="42.2823617" lon="12.8161"><ele>473.8333333333333</ele><time>2026-04-04T08:25:36.041Z</time></trkpt><trkpt lat="42.2822967" lon="12.8160267"><ele>471.0</ele><time>2026-04-04T08:25:37.041Z</time></trkpt><trkpt lat="42.2822233" lon="12.8159683"><ele>467.20000000000005</ele><time>2026-04-04T08:25:38.041Z</time></trkpt><trkpt lat="42.2821533" lon="12.8159033"><ele>463.40000000000003</ele><time>2026-04-04T08:25:39.042Z</time></trkpt><trkpt lat="42.2820717" lon="12.8158433"><ele>459.6</ele><time>2026-04-04T08:25:40.041Z</time></trkpt><trkpt lat="42.281985" lon="12.8157833"><ele>455.8</ele><time>2026-04-04T08:25:41.041Z</time></trkpt><trkpt lat="42.2818933" lon="12.8157217"><ele>452.0</ele><time>2026-04-04T08:25:42.041Z</time></trkpt><trkpt lat="42.2818033" lon="12.8156683"><ele>451.99999999999994</ele><time>2026-04-04T08:25:43.04Z</time></trkpt><trkpt lat="42.2817217" lon="12.8156167"><ele>452.0</ele><time>2026-04-04T08:25:44.041Z</time></trkpt><trkpt lat="42.2816433" lon="12.8155767"><ele>452.0</ele><time>2026-04-04T08:25:45.042Z</time></trkpt><trkpt lat="42.2815717" lon="12.81554"><ele>452.0</ele><time>2026-04-04T08:25:46.04Z</time></trkpt><trkpt lat="42.2815083" lon="12.8154983"><ele>451.99999999999994</ele><time>2026-04-04T08:25:47.041Z</time></trkpt><trkpt lat="42.28142" lon="12.8153917"><ele>452.0</ele><time>2026-04-04T08:25:49.041Z</time></trkpt><trkpt lat="42.2813783" lon="12.8152633"><ele>449.8333333333333</ele><time>2026-04-04T08:25:51.042Z</time></trkpt><trkpt lat="42.2813433" lon="12.8150983"><ele>447.66666666666663</ele><time>2026-04-04T08:25:53.041Z</time></trkpt><trkpt lat="42.2813267" lon="12.8149983"><ele>445.5</ele><time>2026-04-04T08:25:54.042Z</time></trkpt><trkpt lat="42.2813167" lon="12.8148917"><ele>443.33333333333337</ele><time>2026-04-04T08:25:55.04Z</time></trkpt><trkpt lat="42.28131" lon="12.8147833"><ele>441.1666666666667</ele><time>2026-04-04T08:25:56.04Z</time></trkpt><trkpt lat="42.2813067" lon="12.8146733"><ele>439.0</ele><time>2026-04-04T08:25:57.044Z</time></trkpt><trkpt lat="42.2812967" lon="12.8145583"><ele>439.00000000000006</ele><time>2026-04-04T08:25:58.04Z</time></trkpt><trkpt lat="42.2812817" lon="12.8144433"><ele>439.0</ele><time>2026-04-04T08:25:59.041Z</time></trkpt><trkpt lat="42.28127" lon="12.814325"><ele>439.0</ele><time>2026-04-04T08:26:00.041Z</time></trkpt><trkpt lat="42.2812617" lon="12.81421"><ele>439.0</ele><time>2026-04-04T08:26:01.04Z</time></trkpt><trkpt lat="42.2812617" lon="12.8140967"><ele>439.00000000000006</ele><time>2026-04-04T08:26:02.042Z</time></trkpt><trkpt lat="42.2812617" lon="12.8139883"><ele>439.0</ele><time>2026-04-04T08:26:03.042Z</time></trkpt><trkpt lat="42.2812667" lon="12.81388"><ele>437.6666666666667</ele><time>2026-04-04T08:26:04.04Z</time></trkpt><trkpt lat="42.2812717" lon="12.8137733"><ele>436.33333333333337</ele><time>2026-04-04T08:26:05.04Z</time></trkpt><trkpt lat="42.2812767" lon="12.8136717"><ele>435.0</ele><time>2026-04-04T08:26:06.042Z</time></trkpt><trkpt lat="42.2812783" lon="12.81358"><ele>433.66666666666663</ele><time>2026-04-04T08:26:07.041Z</time></trkpt><trkpt lat="42.2812733" lon="12.8134367"><ele>432.3333333333333</ele><time>2026-04-04T08:26:09.04Z</time></trkpt><trkpt lat="42.281265" lon="12.81332"><ele>431.0</ele><time>2026-04-04T08:26:11.04Z</time></trkpt><trkpt lat="42.281235" lon="12.8132167"><ele>430.99999999999994</ele><time>2026-04-04T08:26:13.041Z</time></trkpt><trkpt lat="42.2812383" lon="12.8131167"><ele>431.0</ele><time>2026-04-04T08:26:16.041Z</time></trkpt><trkpt lat="42.2813183" lon="12.81307"><ele>431.0</ele><time>2026-04-04T08:26:19.042Z</time></trkpt><trkpt lat="42.281385" lon="12.8130933"><ele>431.0</ele><time>2026-04-04T08:26:21.041Z</time></trkpt><trkpt lat="42.2814783" lon="12.813185"><ele>430.99999999999994</ele><time>2026-04-04T08:26:23.041Z</time></trkpt><trkpt lat="42.281535" lon="12.8132417"><ele>431.0</ele><time>2026-04-04T08:26:24.042Z</time></trkpt><trkpt lat="42.2815933" lon="12.8133"><ele>433.3333333333333</ele><time>2026-04-04T08:26:25.042Z</time></trkpt><trkpt lat="42.281665" lon="12.8133583"><ele>435.66666666666663</ele><time>2026-04-04T08:26:26.04Z</time></trkpt><trkpt lat="42.2817417" lon="12.813415"><ele>438.0</ele><time>2026-04-04T08:26:27.042Z</time></trkpt><trkpt lat="42.2818167" lon="12.8134667"><ele>440.33333333333337</ele><time>2026-04-04T08:26:28.041Z</time></trkpt><trkpt lat="42.28189" lon="12.8135133"><ele>442.6666666666667</ele><time>2026-04-04T08:26:29.041Z</time></trkpt><trkpt lat="42.2819583" lon="12.8135683"><ele>445.0</ele><time>2026-04-04T08:26:30.041Z</time></trkpt><trkpt lat="42.2820267" lon="12.8136233"><ele>446.4</ele><time>2026-04-04T08:26:31.041Z</time></trkpt><trkpt lat="42.2821" lon="12.813685"><ele>447.8</ele><time>2026-04-04T08:26:32.041Z</time></trkpt><trkpt lat="42.2821833" lon="12.8137633"><ele>449.20000000000005</ele><time>2026-04-04T08:26:33.041Z</time></trkpt><trkpt lat="42.2822767" lon="12.8138533"><ele>450.6</ele><time>2026-04-04T08:26:34.041Z</time></trkpt><trkpt lat="42.2823717" lon="12.8139533"><ele>452.0</ele><time>2026-04-04T08:26:35.042Z</time></trkpt><trkpt lat="42.2824683" lon="12.8140467"><ele>452.0</ele><time>2026-04-04T08:26:36.04Z</time></trkpt><trkpt lat="42.2825633" lon="12.814135"><ele>452.00000000000006</ele><time>2026-04-04T08:26:37.041Z</time></trkpt><trkpt lat="42.2826517" lon="12.8142217"><ele>452.00000000000006</ele><time>2026-04-04T08:26:38.041Z</time></trkpt><trkpt lat="42.2827367" lon="12.814305"><ele>452.0</ele><time>2026-04-04T08:26:39.042Z</time></trkpt><trkpt lat="42.2828117" lon="12.8143883"><ele>452.0</ele><time>2026-04-04T08:26:40.04Z</time></trkpt><trkpt lat="42.28288" lon="12.8144683"><ele>457.0</ele><time>2026-04-04T08:26:41.042Z</time></trkpt><trkpt lat="42.2829367" lon="12.8145533"><ele>462.00000000000006</ele><time>2026-04-04T08:26:42.042Z</time></trkpt><trkpt lat="42.2829917" lon="12.8146567"><ele>467.00000000000006</ele><time>2026-04-04T08:26:43.041Z</time></trkpt><trkpt lat="42.2830317" lon="12.8147867"><ele>472.0</ele><time>2026-04-04T08:26:44.04Z</time></trkpt><trkpt lat="42.2830583" lon="12.814935"><ele>477.0</ele><time>2026-04-04T08:26:45.042Z</time></trkpt><trkpt lat="42.28308" lon="12.8150933"><ele>476.25</ele><time>2026-04-04T08:26:46.04Z</time></trkpt><trkpt lat="42.2830933" lon="12.8152533"><ele>475.5</ele><time>2026-04-04T08:26:47.041Z</time></trkpt><trkpt lat="42.28311" lon="12.8154133"><ele>474.75</ele><time>2026-04-04T08:26:48.041Z</time></trkpt><trkpt lat="42.2831233" lon="12.815565"><ele>474.0</ele><time>2026-04-04T08:26:49.041Z</time></trkpt><trkpt lat="42.2831417" lon="12.8157017"><ele>471.4</ele><time>2026-04-04T08:26:50.042Z</time></trkpt><trkpt lat="42.28316" lon="12.8158283"><ele>468.79999999999995</ele><time>2026-04-04T08:26:51.041Z</time></trkpt><trkpt lat="42.2831883" lon="12.81595"><ele>466.20000000000005</ele><time>2026-04-04T08:26:52.04Z</time></trkpt><trkpt lat="42.28323" lon="12.8160633"><ele>463.6</ele><time>2026-04-04T08:26:53.041Z</time></trkpt><trkpt lat="42.283285" lon="12.8161683"><ele>461.0</ele><time>2026-04-04T08:26:54.042Z</time></trkpt><trkpt lat="42.2833467" lon="12.8162617"><ele>461.0</ele><time>2026-04-04T08:26:55.041Z</time></trkpt><trkpt lat="42.2834267" lon="12.81635"><ele>461.0</ele><time>2026-04-04T08:26:56.04Z</time></trkpt><trkpt lat="42.2835117" lon="12.8164367"><ele>461.0</ele><time>2026-04-04T08:26:57.041Z</time></trkpt><trkpt lat="42.283585" lon="12.8165133"><ele>461.0</ele><time>2026-04-04T08:26:58.039Z</time></trkpt><trkpt lat="42.2836633" lon="12.816575"><ele>461.0</ele><time>2026-04-04T08:26:59.042Z</time></trkpt><trkpt lat="42.2837333" lon="12.81663"><ele>460.99999999999994</ele><time>2026-04-04T08:27:00.041Z</time></trkpt><trkpt lat="42.2838033" lon="12.8166633"><ele>461.0</ele><time>2026-04-04T08:27:01.04Z</time></trkpt><trkpt lat="42.2838733" lon="12.81667"><ele>461.0</ele><time>2026-04-04T08:27:02.04Z</time></trkpt><trkpt lat="42.2839433" lon="12.81665"><ele>461.0</ele><time>2026-04-04T08:27:03.042Z</time></trkpt><trkpt lat="42.284005" lon="12.8166117"><ele>460.99999999999994</ele><time>2026-04-04T08:27:04.041Z</time></trkpt><trkpt lat="42.284095" lon="12.81652"><ele>461.0</ele><time>2026-04-04T08:27:06.041Z</time></trkpt><trkpt lat="42.2841483" lon="12.8164417"><ele>459.49999999999994</ele><time>2026-04-04T08:27:08.042Z</time></trkpt><trkpt lat="42.2841617" lon="12.8163567"><ele>458.0</ele><time>2026-04-04T08:27:10.041Z</time></trkpt><trkpt lat="42.2841333" lon="12.816255"><ele>456.5</ele><time>2026-04-04T08:27:12.04Z</time></trkpt><trkpt lat="42.284075" lon="12.8161167"><ele>455.0</ele><time>2026-04-04T08:27:14.04Z</time></trkpt><trkpt lat="42.2840383" lon="12.8160183"><ele>453.49999999999994</ele><time>2026-04-04T08:27:15.042Z</time></trkpt><trkpt lat="42.283995" lon="12.8158983"><ele>452.0</ele><time>2026-04-04T08:27:16.039Z</time></trkpt><trkpt lat="42.2839517" lon="12.8157717"><ele>449.75</ele><time>2026-04-04T08:27:17.041Z</time></trkpt><trkpt lat="42.2839017" lon="12.8156433"><ele>447.5</ele><time>2026-04-04T08:27:18.04Z</time></trkpt><trkpt lat="42.2838483" lon="12.815495"><ele>445.25</ele><time>2026-04-04T08:27:19.04Z</time></trkpt><trkpt lat="42.2838033" lon="12.8153383"><ele>443.0</ele><time>2026-04-04T08:27:20.042Z</time></trkpt><trkpt lat="42.2837667" lon="12.8151567"><ele>440.25</ele><time>2026-04-04T08:27:21.041Z</time></trkpt><trkpt lat="42.2837383" lon="12.8149633"><ele>437.5</ele><time>2026-04-04T08:27:22.039Z</time></trkpt><trkpt lat="42.2837167" lon="12.8147767"><ele>434.75</ele><time>2026-04-04T08:27:23.042Z</time></trkpt><trkpt lat="42.2837" lon="12.8146033"><ele>432.0</ele><time>2026-04-04T08:27:24.041Z</time></trkpt><trkpt lat="42.2836783" lon="12.8144383"><ele>431.0</ele><time>2026-04-04T08:27:25.041Z</time></trkpt><trkpt lat="42.283655" lon="12.81427"><ele>430.00000000000006</ele><time>2026-04-04T08:27:26.041Z</time></trkpt><trkpt lat="42.2836283" lon="12.8141283"><ele>429.00000000000006</ele><time>2026-04-04T08:27:27.042Z</time></trkpt><trkpt lat="42.2836017" lon="12.8139967"><ele>428.0</ele><time>2026-04-04T08:27:28.04Z</time></trkpt><trkpt lat="42.2835667" lon="12.8138783"><ele>427.0</ele><time>2026-04-04T08:27:29.042Z</time></trkpt><trkpt lat="42.28352" lon="12.8137533"><ele>427.00000000000006</ele><time>2026-04-04T08:27:30.041Z</time></trkpt><trkpt lat="42.2834717" lon="12.813645"><ele>427.0</ele><time>2026-04-04T08:27:31.04Z</time></trkpt><trkpt lat="42.2834333" lon="12.8135467"><ele>427.0</ele><time>2026-04-04T08:27:32.04Z</time></trkpt><trkpt lat="42.2833983" lon="12.8134533"><ele>427.0</ele><time>2026-04-04T08:27:33.041Z</time></trkpt><trkpt lat="42.2833583" lon="12.8133683"><ele>427.00000000000006</ele><time>2026-04-04T08:27:34.04Z</time></trkpt><trkpt lat="42.28332" lon="12.81328"><ele>427.0</ele><time>2026-04-04T08:27:35.041Z</time></trkpt><trkpt lat="42.2832783" lon="12.8132033"><ele>426.57142857142856</ele><time>2026-04-04T08:27:36.041Z</time></trkpt><trkpt lat="42.2832367" lon="12.81313"><ele>426.1428571428571</ele><time>2026-04-04T08:27:37.041Z</time></trkpt><trkpt lat="42.283195" lon="12.8130533"><ele>425.7142857142857</ele><time>2026-04-04T08:27:38.041Z</time></trkpt><trkpt lat="42.2831533" lon="12.8129833"><ele>425.2857142857143</ele><time>2026-04-04T08:27:39.042Z</time></trkpt><trkpt lat="42.28311" lon="12.8129133"><ele>424.85714285714283</ele><time>2026-04-04T08:27:40.041Z</time></trkpt><trkpt lat="42.2830667" lon="12.812845"><ele>424.42857142857144</ele><time>2026-04-04T08:27:41.04Z</time></trkpt><trkpt lat="42.2830217" lon="12.8127767"><ele>424.0</ele><time>2026-04-04T08:27:42.041Z</time></trkpt><trkpt lat="42.2829767" lon="12.81271"><ele>424.14285714285717</ele><time>2026-04-04T08:27:43.04Z</time></trkpt><trkpt lat="42.2829283" lon="12.8126417"><ele>424.2857142857143</ele><time>2026-04-04T08:27:44.04Z</time></trkpt><trkpt lat="42.2828733" lon="12.8125733"><ele>424.42857142857144</ele><time>2026-04-04T08:27:45.042Z</time></trkpt><trkpt lat="42.2828117" lon="12.81251"><ele>424.57142857142856</ele><time>2026-04-04T08:27:46.041Z</time></trkpt><trkpt lat="42.2827517" lon="12.8124483"><ele>424.71428571428567</ele><time>2026-04-04T08:27:47.041Z</time></trkpt><trkpt lat="42.282695" lon="12.8123917"><ele>424.85714285714283</ele><time>2026-04-04T08:27:48.041Z</time></trkpt><trkpt lat="42.2826383" lon="12.8123467"><ele>425.0</ele><time>2026-04-04T08:27:49.041Z</time></trkpt><trkpt lat="42.2825833" lon="12.812305"><ele>425.0</ele><time>2026-04-04T08:27:50.041Z</time></trkpt><trkpt lat="42.2824867" lon="12.8122233"><ele>425.0</ele><time>2026-04-04T08:27:52.04Z</time></trkpt><trkpt lat="42.2824017" lon="12.8121317"><ele>425.0</ele><time>2026-04-04T08:27:54.043Z</time></trkpt><trkpt lat="42.2823217" lon="12.8120367"><ele>425.0</ele><time>2026-04-04T08:27:56.042Z</time></trkpt><trkpt lat="42.2822467" lon="12.8119217"><ele>425.0</ele><time>2026-04-04T08:27:58.041Z</time></trkpt><trkpt lat="42.2822083" lon="12.8118533"><ele>422.75</ele><time>2026-04-04T08:27:59.04Z</time></trkpt><trkpt lat="42.28214" lon="12.8117167"><ele>420.5</ele><time>2026-04-04T08:28:01.041Z</time></trkpt><trkpt lat="42.2820583" lon="12.8115867"><ele>418.25</ele><time>2026-04-04T08:28:03.042Z</time></trkpt><trkpt lat="42.28196" lon="12.81148"><ele>416.0</ele><time>2026-04-04T08:28:05.042Z</time></trkpt><trkpt lat="42.281865" lon="12.811385"><ele>416.0</ele><time>2026-04-04T08:28:07.041Z</time></trkpt><trkpt lat="42.281765" lon="12.8112767"><ele>416.0</ele><time>2026-04-04T08:28:09.04Z</time></trkpt><trkpt lat="42.2816983" lon="12.8112067"><ele>416.0</ele><time>2026-04-04T08:28:10.04Z</time></trkpt><trkpt lat="42.2816217" lon="12.8111267"><ele>416.0</ele><time>2026-04-04T08:28:11.041Z</time></trkpt><trkpt lat="42.281535" lon="12.81104"><ele>416.0</ele><time>2026-04-04T08:28:12.04Z</time></trkpt><trkpt lat="42.28144" lon="12.8109383"><ele>415.25</ele><time>2026-04-04T08:28:13.041Z</time></trkpt><trkpt lat="42.2813417" lon="12.8108167"><ele>414.5</ele><time>2026-04-04T08:28:14.041Z</time></trkpt><trkpt lat="42.2812417" lon="12.8106633"><ele>413.75</ele><time>2026-04-04T08:28:15.041Z</time></trkpt><trkpt lat="42.2811517" lon="12.8104833"><ele>413.0</ele><time>2026-04-04T08:28:16.04Z</time></trkpt><trkpt lat="42.2810783" lon="12.8102883"><ele>415.0</ele><time>2026-04-04T08:28:17.041Z</time></trkpt><trkpt lat="42.2810083" lon="12.810095"><ele>417.0</ele><time>2026-04-04T08:28:18.04Z</time></trkpt><trkpt lat="42.2809383" lon="12.8099033"><ele>419.0</ele><time>2026-04-04T08:28:19.042Z</time></trkpt><trkpt lat="42.2808683" lon="12.8097117"><ele>419.0</ele><time>2026-04-04T08:28:20.042Z</time></trkpt><trkpt lat="42.2807917" lon="12.80952"><ele>419.0</ele><time>2026-04-04T08:28:21.041Z</time></trkpt><trkpt lat="42.2807033" lon="12.809335"><ele>419.0</ele><time>2026-04-04T08:28:22.039Z</time></trkpt><trkpt lat="42.280605" lon="12.80916"><ele>415.5</ele><time>2026-04-04T08:28:23.041Z</time></trkpt><trkpt lat="42.2804967" lon="12.8090033"><ele>412.0</ele><time>2026-04-04T08:28:24.042Z</time></trkpt><trkpt lat="42.2803883" lon="12.8088667"><ele>408.5</ele><time>2026-04-04T08:28:25.041Z</time></trkpt><trkpt lat="42.280285" lon="12.808755"><ele>405.0</ele><time>2026-04-04T08:28:26.041Z</time></trkpt><trkpt lat="42.280175" lon="12.8086683"><ele>405.0</ele><time>2026-04-04T08:28:27.041Z</time></trkpt><trkpt lat="42.28005" lon="12.80861"><ele>405.0</ele><time>2026-04-04T08:28:28.041Z</time></trkpt><trkpt lat="42.2799067" lon="12.8085933"><ele>405.0</ele><time>2026-04-04T08:28:29.042Z</time></trkpt><trkpt lat="42.279775" lon="12.8085967"><ele>405.0</ele><time>2026-04-04T08:28:30.04Z</time></trkpt><trkpt lat="42.279665" lon="12.808615"><ele>404.1666666666667</ele><time>2026-04-04T08:28:31.04Z</time></trkpt><trkpt lat="42.279575" lon="12.80863"><ele>403.33333333333337</ele><time>2026-04-04T08:28:32.04Z</time></trkpt><trkpt lat="42.2795017" lon="12.808625"><ele>402.5</ele><time>2026-04-04T08:28:33.04Z</time></trkpt><trkpt lat="42.2794383" lon="12.8086017"><ele>401.6666666666667</ele><time>2026-04-04T08:28:34.04Z</time></trkpt><trkpt lat="42.2793683" lon="12.808465"><ele>400.83333333333337</ele><time>2026-04-04T08:28:36.041Z</time></trkpt><trkpt lat="42.27938" lon="12.8083417"><ele>400.0</ele><time>2026-04-04T08:28:37.041Z</time></trkpt><trkpt lat="42.2794333" lon="12.8082117"><ele>400.0</ele><time>2026-04-04T08:28:38.04Z</time></trkpt><trkpt lat="42.2795417" lon="12.8080717"><ele>400.0</ele><time>2026-04-04T08:28:39.041Z</time></trkpt><trkpt lat="42.279675" lon="12.8079333"><ele>400.0</ele><time>2026-04-04T08:28:40.04Z</time></trkpt><trkpt lat="42.2797983" lon="12.807795"><ele>402.33333333333337</ele><time>2026-04-04T08:28:41.04Z</time></trkpt><trkpt lat="42.2799317" lon="12.8076567"><ele>404.66666666666663</ele><time>2026-04-04T08:28:42.04Z</time></trkpt><trkpt lat="42.2800567" lon="12.8075233"><ele>407.0</ele><time>2026-04-04T08:28:43.041Z</time></trkpt><trkpt lat="42.2801717" lon="12.80741"><ele>407.0</ele><time>2026-04-04T08:28:44.042Z</time></trkpt><trkpt lat="42.2802833" lon="12.80732"><ele>407.0</ele><time>2026-04-04T08:28:45.042Z</time></trkpt><trkpt lat="42.2804033" lon="12.80726"><ele>407.0</ele><time>2026-04-04T08:28:46.041Z</time></trkpt><trkpt lat="42.2805283" lon="12.8072233"><ele>407.0</ele><time>2026-04-04T08:28:47.04Z</time></trkpt><trkpt lat="42.2806417" lon="12.807205"><ele>410.40000000000003</ele><time>2026-04-04T08:28:48.041Z</time></trkpt><trkpt lat="42.28074" lon="12.80719"><ele>413.8</ele><time>2026-04-04T08:28:49.041Z</time></trkpt><trkpt lat="42.2808317" lon="12.80717"><ele>417.2</ele><time>2026-04-04T08:28:50.041Z</time></trkpt><trkpt lat="42.2809183" lon="12.80712"><ele>420.6</ele><time>2026-04-04T08:28:51.04Z</time></trkpt><trkpt lat="42.280995" lon="12.8070267"><ele>424.0</ele><time>2026-04-04T08:28:52.041Z</time></trkpt><trkpt lat="42.2810617" lon="12.8069033"><ele>417.5</ele><time>2026-04-04T08:28:53.041Z</time></trkpt><trkpt lat="42.2811217" lon="12.806755"><ele>411.0</ele><time>2026-04-04T08:28:54.04Z</time></trkpt><trkpt lat="42.2811833" lon="12.8066033"><ele>404.5</ele><time>2026-04-04T08:28:55.041Z</time></trkpt><trkpt lat="42.2812417" lon="12.8064667"><ele>398.0</ele><time>2026-04-04T08:28:56.041Z</time></trkpt><trkpt lat="42.281295" lon="12.80635"><ele>397.99999999999994</ele><time>2026-04-04T08:28:57.042Z</time></trkpt><trkpt lat="42.281345" lon="12.806255"><ele>398.0</ele><time>2026-04-04T08:28:58.041Z</time></trkpt><trkpt lat="42.2814017" lon="12.8061817"><ele>398.0</ele><time>2026-04-04T08:28:59.042Z</time></trkpt><trkpt lat="42.28147" lon="12.8061367"><ele>398.0</ele><time>2026-04-04T08:29:00.041Z</time></trkpt><trkpt lat="42.281555" lon="12.806115"><ele>397.99999999999994</ele><time>2026-04-04T08:29:01.041Z</time></trkpt><trkpt lat="42.281655" lon="12.8061317"><ele>398.0</ele><time>2026-04-04T08:29:02.041Z</time></trkpt><trkpt lat="42.2817717" lon="12.8061833"><ele>402.0</ele><time>2026-04-04T08:29:03.042Z</time></trkpt><trkpt lat="42.2818883" lon="12.8062533"><ele>406.0</ele><time>2026-04-04T08:29:04.041Z</time></trkpt><trkpt lat="42.28199" lon="12.80632"><ele>410.0</ele><time>2026-04-04T08:29:05.041Z</time></trkpt><trkpt lat="42.28208" lon="12.8063783"><ele>414.0</ele><time>2026-04-04T08:29:06.04Z</time></trkpt><trkpt lat="42.28216" lon="12.80641"><ele>418.0</ele><time>2026-04-04T08:29:07.04Z</time></trkpt><trkpt lat="42.2822317" lon="12.806425"><ele>418.1666666666667</ele><time>2026-04-04T08:29:08.041Z</time></trkpt><trkpt lat="42.2823017" lon="12.8064133"><ele>418.33333333333337</ele><time>2026-04-04T08:29:09.042Z</time></trkpt><trkpt lat="42.2823567" lon="12.80637"><ele>418.5</ele><time>2026-04-04T08:29:10.04Z</time></trkpt><trkpt lat="42.2824" lon="12.8063017"><ele>418.66666666666663</ele><time>2026-04-04T08:29:11.042Z</time></trkpt><trkpt lat="42.282415" lon="12.8062033"><ele>418.8333333333333</ele><time>2026-04-04T08:29:12.042Z</time></trkpt><trkpt lat="42.2824083" lon="12.8060917"><ele>419.0</ele><time>2026-04-04T08:29:13.041Z</time></trkpt><trkpt lat="42.2823583" lon="12.80594"><ele>417.0</ele><time>2026-04-04T08:29:14.042Z</time></trkpt><trkpt lat="42.2823033" lon="12.8057717"><ele>415.0</ele><time>2026-04-04T08:29:15.041Z</time></trkpt><trkpt lat="42.282285" lon="12.8056417"><ele>413.0</ele><time>2026-04-04T08:29:16.04Z</time></trkpt><trkpt lat="42.2822567" lon="12.8054767"><ele>411.0</ele><time>2026-04-04T08:29:17.04Z</time></trkpt><trkpt lat="42.2822617" lon="12.8053483"><ele>411.0</ele><time>2026-04-04T08:29:18.04Z</time></trkpt><trkpt lat="42.28229" lon="12.805235"><ele>411.0</ele><time>2026-04-04T08:29:19.04Z</time></trkpt><trkpt lat="42.2823383" lon="12.80513"><ele>411.0</ele><time>2026-04-04T08:29:20.04Z</time></trkpt><trkpt lat="42.282425" lon="12.8050367"><ele>411.0</ele><time>2026-04-04T08:29:21.042Z</time></trkpt><trkpt lat="42.2825267" lon="12.80497"><ele>411.0</ele><time>2026-04-04T08:29:22.041Z</time></trkpt><trkpt lat="42.282665" lon="12.8049383"><ele>412.0</ele><time>2026-04-04T08:29:23.042Z</time></trkpt><trkpt lat="42.2828083" lon="12.8049117"><ele>413.0</ele><time>2026-04-04T08:29:24.041Z</time></trkpt><trkpt lat="42.2829583" lon="12.8048883"><ele>414.0</ele><time>2026-04-04T08:29:25.041Z</time></trkpt><trkpt lat="42.283105" lon="12.8048567"><ele>415.0</ele><time>2026-04-04T08:29:26.042Z</time></trkpt><trkpt lat="42.283255" lon="12.8048117"><ele>415.0</ele><time>2026-04-04T08:29:27.042Z</time></trkpt><trkpt lat="42.2834067" lon="12.80475"><ele>415.0</ele><time>2026-04-04T08:29:28.04Z</time></trkpt><trkpt lat="42.28355" lon="12.8046783"><ele>415.0</ele><time>2026-04-04T08:29:29.04Z</time></trkpt><trkpt lat="42.2836883" lon="12.8046"><ele>415.0</ele><time>2026-04-04T08:29:30.041Z</time></trkpt><trkpt lat="42.2838217" lon="12.8044933"><ele>415.0</ele><time>2026-04-04T08:29:31.04Z</time></trkpt><trkpt lat="42.283955" lon="12.8043733"><ele>415.0</ele><time>2026-04-04T08:29:32.04Z</time></trkpt><trkpt lat="42.2840717" lon="12.8042367"><ele>412.5</ele><time>2026-04-04T08:29:33.041Z</time></trkpt><trkpt lat="42.2841733" lon="12.8040883"><ele>410.0</ele><time>2026-04-04T08:29:34.041Z</time></trkpt><trkpt lat="42.284265" lon="12.8039333"><ele>407.5</ele><time>2026-04-04T08:29:35.041Z</time></trkpt><trkpt lat="42.284345" lon="12.8037717"><ele>405.0</ele><time>2026-04-04T08:29:36.041Z</time></trkpt><trkpt lat="42.2844067" lon="12.8036117"><ele>403.0</ele><time>2026-04-04T08:29:37.041Z</time></trkpt><trkpt lat="42.2844467" lon="12.8034717"><ele>401.0</ele><time>2026-04-04T08:29:38.041Z</time></trkpt><trkpt lat="42.2844733" lon="12.8033583"><ele>399.0</ele><time>2026-04-04T08:29:39.043Z</time></trkpt><trkpt lat="42.2845033" lon="12.80327"><ele>397.0</ele><time>2026-04-04T08:29:40.042Z</time></trkpt><trkpt lat="42.2845483" lon="12.80319"><ele>395.0</ele><time>2026-04-04T08:29:41.042Z</time></trkpt><trkpt lat="42.2846083" lon="12.803115"><ele>393.0</ele><time>2026-04-04T08:29:42.043Z</time></trkpt><trkpt lat="42.28468" lon="12.8030483"><ele>397.5</ele><time>2026-04-04T08:29:43.041Z</time></trkpt><trkpt lat="42.28478" lon="12.8030017"><ele>402.0</ele><time>2026-04-04T08:29:44.043Z</time></trkpt><trkpt lat="42.2848833" lon="12.8029617"><ele>406.5</ele><time>2026-04-04T08:29:45.042Z</time></trkpt><trkpt lat="42.2849933" lon="12.8029117"><ele>411.0</ele><time>2026-04-04T08:29:46.04Z</time></trkpt><trkpt lat="42.2851083" lon="12.802845"><ele>411.0</ele><time>2026-04-04T08:29:47.041Z</time></trkpt><trkpt lat="42.28523" lon="12.8027683"><ele>411.0</ele><time>2026-04-04T08:29:48.041Z</time></trkpt><trkpt lat="42.2853517" lon="12.802675"><ele>411.0</ele><time>2026-04-04T08:29:49.041Z</time></trkpt><trkpt lat="42.2854717" lon="12.802585"><ele>411.0</ele><time>2026-04-04T08:29:50.042Z</time></trkpt><trkpt lat="42.2855833" lon="12.802505"><ele>411.0</ele><time>2026-04-04T08:29:51.043Z</time></trkpt><trkpt lat="42.2856833" lon="12.8024283"><ele>411.0</ele><time>2026-04-04T08:29:52.043Z</time></trkpt><trkpt lat="42.2857683" lon="12.8023417"><ele>411.0</ele><time>2026-04-04T08:29:53.042Z</time></trkpt><trkpt lat="42.2858433" lon="12.8022367"><ele>411.0</ele><time>2026-04-04T08:29:54.041Z</time></trkpt><trkpt lat="42.285905" lon="12.8021167"><ele>411.0</ele><time>2026-04-04T08:29:55.042Z</time></trkpt><trkpt lat="42.2859617" lon="12.8019833"><ele>411.0</ele><time>2026-04-04T08:29:56.043Z</time></trkpt><trkpt lat="42.286015" lon="12.8018583"><ele>411.0</ele><time>2026-04-04T08:29:57.043Z</time></trkpt><trkpt lat="42.2860717" lon="12.8017517"><ele>411.0</ele><time>2026-04-04T08:29:58.041Z</time></trkpt><trkpt lat="42.2861417" lon="12.8016633"><ele>411.0</ele><time>2026-04-04T08:29:59.041Z</time></trkpt><trkpt lat="42.2862333" lon="12.8016"><ele>411.0</ele><time>2026-04-04T08:30:00.043Z</time></trkpt><trkpt lat="42.286335" lon="12.8015483"><ele>410.5</ele><time>2026-04-04T08:30:01.041Z</time></trkpt><trkpt lat="42.28644" lon="12.8014983"><ele>410.0</ele><time>2026-04-04T08:30:02.041Z</time></trkpt><trkpt lat="42.2865383" lon="12.801455"><ele>409.5</ele><time>2026-04-04T08:30:03.042Z</time></trkpt><trkpt lat="42.2866217" lon="12.8014217"><ele>409.0</ele><time>2026-04-04T08:30:04.042Z</time></trkpt><trkpt lat="42.2866917" lon="12.8013933"><ele>408.5</ele><time>2026-04-04T08:30:05.042Z</time></trkpt><trkpt lat="42.2867517" lon="12.80135"><ele>408.0</ele><time>2026-04-04T08:30:06.042Z</time></trkpt><trkpt lat="42.2867983" lon="12.8012867"><ele>408.0</ele><time>2026-04-04T08:30:07.041Z</time></trkpt><trkpt lat="42.2868383" lon="12.80112"><ele>408.0</ele><time>2026-04-04T08:30:09.042Z</time></trkpt><trkpt lat="42.2868167" lon="12.8010317"><ele>408.0</ele><time>2026-04-04T08:30:10.043Z</time></trkpt><trkpt lat="42.2867683" lon="12.800925"><ele>408.0</ele><time>2026-04-04T08:30:11.041Z</time></trkpt><trkpt lat="42.2867117" lon="12.80082"><ele>408.0</ele><time>2026-04-04T08:30:12.042Z</time></trkpt><trkpt lat="42.28665" lon="12.8007267"><ele>403.75</ele><time>2026-04-04T08:30:13.042Z</time></trkpt><trkpt lat="42.2865517" lon="12.8006583"><ele>399.5</ele><time>2026-04-04T08:30:14.042Z</time></trkpt><trkpt lat="42.2864283" lon="12.8006467"><ele>395.25</ele><time>2026-04-04T08:30:15.042Z</time></trkpt><trkpt lat="42.2863117" lon="12.800635"><ele>391.0</ele><time>2026-04-04T08:30:16.041Z</time></trkpt><trkpt lat="42.2862117" lon="12.8006"><ele>390.50000000000006</ele><time>2026-04-04T08:30:17.041Z</time></trkpt><trkpt lat="42.2861383" lon="12.8005317"><ele>390.0</ele><time>2026-04-04T08:30:18.042Z</time></trkpt><trkpt lat="42.2860883" lon="12.8004367"><ele>389.5</ele><time>2026-04-04T08:30:19.041Z</time></trkpt><trkpt lat="42.286045" lon="12.80034"><ele>389.0</ele><time>2026-04-04T08:30:20.042Z</time></trkpt><trkpt lat="42.2860317" lon="12.8002317"><ele>388.50000000000006</ele><time>2026-04-04T08:30:21.043Z</time></trkpt><trkpt lat="42.2860867" lon="12.8001117"><ele>388.0</ele><time>2026-04-04T08:30:22.043Z</time></trkpt><trkpt lat="42.2862283" lon="12.799975"><ele>390.0</ele><time>2026-04-04T08:30:23.044Z</time></trkpt><trkpt lat="42.286315" lon="12.7998367"><ele>392.0</ele><time>2026-04-04T08:30:24.043Z</time></trkpt><trkpt lat="42.2864067" lon="12.7996783"><ele>394.0</ele><time>2026-04-04T08:30:25.042Z</time></trkpt><trkpt lat="42.2865133" lon="12.7994917"><ele>399.0</ele><time>2026-04-04T08:30:26.042Z</time></trkpt><trkpt lat="42.2865783" lon="12.7992783"><ele>404.0</ele><time>2026-04-04T08:30:27.043Z</time></trkpt><trkpt lat="42.28664" lon="12.799055"><ele>409.0</ele><time>2026-04-04T08:30:28.04Z</time></trkpt><trkpt lat="42.2866883" lon="12.798815"><ele>409.0</ele><time>2026-04-04T08:30:29.043Z</time></trkpt><trkpt lat="42.28672" lon="12.7985667"><ele>409.0</ele><time>2026-04-04T08:30:30.041Z</time></trkpt><trkpt lat="42.2867317" lon="12.79834"><ele>409.0</ele><time>2026-04-04T08:30:31.041Z</time></trkpt><trkpt lat="42.28673" lon="12.7981333"><ele>409.33333333333337</ele><time>2026-04-04T08:30:32.042Z</time></trkpt><trkpt lat="42.2867033" lon="12.79793"><ele>409.66666666666663</ele><time>2026-04-04T08:30:33.043Z</time></trkpt><trkpt lat="42.2866467" lon="12.7977333"><ele>410.0</ele><time>2026-04-04T08:30:34.041Z</time></trkpt><trkpt lat="42.286575" lon="12.79756"><ele>410.0</ele><time>2026-04-04T08:30:35.041Z</time></trkpt><trkpt lat="42.2865" lon="12.7974167"><ele>410.0</ele><time>2026-04-04T08:30:36.042Z</time></trkpt><trkpt lat="42.2864383" lon="12.797305"><ele>410.0</ele><time>2026-04-04T08:30:37.041Z</time></trkpt><trkpt lat="42.2864017" lon="12.7972117"><ele>410.0</ele><time>2026-04-04T08:30:38.042Z</time></trkpt><trkpt lat="42.2863833" lon="12.7971283"><ele>410.0</ele><time>2026-04-04T08:30:39.044Z</time></trkpt><trkpt lat="42.2864167" lon="12.797005"><ele>410.8</ele><time>2026-04-04T08:30:41.041Z</time></trkpt><trkpt lat="42.2864867" lon="12.7969733"><ele>411.6</ele><time>2026-04-04T08:30:43.042Z</time></trkpt><trkpt lat="42.28656" lon="12.7970567"><ele>412.4</ele><time>2026-04-04T08:30:45.044Z</time></trkpt><trkpt lat="42.2866167" lon="12.797215"><ele>413.2</ele><time>2026-04-04T08:30:47.041Z</time></trkpt><trkpt lat="42.286655" lon="12.7973233"><ele>414.0</ele><time>2026-04-04T08:30:48.042Z</time></trkpt><trkpt lat="42.2866917" lon="12.7974483"><ele>414.0</ele><time>2026-04-04T08:30:49.042Z</time></trkpt><trkpt lat="42.2867283" lon="12.7975833"><ele>414.0</ele><time>2026-04-04T08:30:50.042Z</time></trkpt><trkpt lat="42.2867717" lon="12.7977333"><ele>414.0</ele><time>2026-04-04T08:30:51.043Z</time></trkpt><trkpt lat="42.2868183" lon="12.7979067"><ele>414.0</ele><time>2026-04-04T08:30:52.041Z</time></trkpt><trkpt lat="42.2868533" lon="12.798095"><ele>412.66666666666663</ele><time>2026-04-04T08:30:53.042Z</time></trkpt><trkpt lat="42.2868733" lon="12.798305"><ele>411.3333333333333</ele><time>2026-04-04T08:30:54.043Z</time></trkpt><trkpt lat="42.2868783" lon="12.798525"><ele>410.0</ele><time>2026-04-04T08:30:55.041Z</time></trkpt><trkpt lat="42.2868817" lon="12.798745"><ele>409.75</ele><time>2026-04-04T08:30:56.042Z</time></trkpt><trkpt lat="42.2868733" lon="12.79894"><ele>409.5</ele><time>2026-04-04T08:30:57.043Z</time></trkpt><trkpt lat="42.2868717" lon="12.7991133"><ele>409.25</ele><time>2026-04-04T08:30:58.042Z</time></trkpt><trkpt lat="42.2868733" lon="12.7992633"><ele>409.0</ele><time>2026-04-04T08:30:59.042Z</time></trkpt><trkpt lat="42.2868817" lon="12.7993917"><ele>409.0</ele><time>2026-04-04T08:31:00.043Z</time></trkpt><trkpt lat="42.286915" lon="12.799505"><ele>409.0</ele><time>2026-04-04T08:31:01.043Z</time></trkpt><trkpt lat="42.2869717" lon="12.79959"><ele>409.0</ele><time>2026-04-04T08:31:02.042Z</time></trkpt><trkpt lat="42.2870533" lon="12.7996533"><ele>409.0</ele><time>2026-04-04T08:31:03.042Z</time></trkpt><trkpt lat="42.2871533" lon="12.7996767"><ele>409.0</ele><time>2026-04-04T08:31:04.041Z</time></trkpt><trkpt lat="42.2872733" lon="12.7996433"><ele>409.0</ele><time>2026-04-04T08:31:05.042Z</time></trkpt><trkpt lat="42.2874117" lon="12.7995567"><ele>409.0</ele><time>2026-04-04T08:31:06.042Z</time></trkpt><trkpt lat="42.2875433" lon="12.799485"><ele>409.0</ele><time>2026-04-04T08:31:07.043Z</time></trkpt><trkpt lat="42.287675" lon="12.799405"><ele>409.0</ele><time>2026-04-04T08:31:08.042Z</time></trkpt><trkpt lat="42.2877967" lon="12.7993167"><ele>411.75</ele><time>2026-04-04T08:31:09.043Z</time></trkpt><trkpt lat="42.2879133" lon="12.7991967"><ele>414.5</ele><time>2026-04-04T08:31:10.041Z</time></trkpt><trkpt lat="42.2880183" lon="12.7990583"><ele>417.25</ele><time>2026-04-04T08:31:11.042Z</time></trkpt><trkpt lat="42.2881167" lon="12.798905"><ele>420.0</ele><time>2026-04-04T08:31:12.042Z</time></trkpt><trkpt lat="42.2882067" lon="12.79873"><ele>420.0</ele><time>2026-04-04T08:31:13.041Z</time></trkpt><trkpt lat="42.2882883" lon="12.7985333"><ele>420.0</ele><time>2026-04-04T08:31:14.042Z</time></trkpt><trkpt lat="42.2883667" lon="12.7983367"><ele>420.0</ele><time>2026-04-04T08:31:15.041Z</time></trkpt><trkpt lat="42.288445" lon="12.7981433"><ele>425.33333333333337</ele><time>2026-04-04T08:31:16.042Z</time></trkpt><trkpt lat="42.2885233" lon="12.7979567"><ele>430.6666666666667</ele><time>2026-04-04T08:31:17.042Z</time></trkpt><trkpt lat="42.2886067" lon="12.7977817"><ele>436.0</ele><time>2026-04-04T08:31:18.041Z</time></trkpt><trkpt lat="42.2886867" lon="12.797615"><ele>435.0</ele><time>2026-04-04T08:31:19.041Z</time></trkpt><trkpt lat="42.28879" lon="12.7974617"><ele>434.0</ele><time>2026-04-04T08:31:20.043Z</time></trkpt><trkpt lat="42.288905" lon="12.7973167"><ele>433.0</ele><time>2026-04-04T08:31:21.044Z</time></trkpt><trkpt lat="42.2890317" lon="12.7971833"><ele>433.0</ele><time>2026-04-04T08:31:22.041Z</time></trkpt><trkpt lat="42.2891667" lon="12.7970617"><ele>433.0</ele><time>2026-04-04T08:31:23.042Z</time></trkpt><trkpt lat="42.2893017" lon="12.7969483"><ele>433.0</ele><time>2026-04-04T08:31:24.043Z</time></trkpt><trkpt lat="42.289445" lon="12.7968517"><ele>436.6666666666667</ele><time>2026-04-04T08:31:25.042Z</time></trkpt><trkpt lat="42.2895933" lon="12.796775"><ele>440.33333333333337</ele><time>2026-04-04T08:31:26.043Z</time></trkpt><trkpt lat="42.2897433" lon="12.7966933"><ele>444.0</ele><time>2026-04-04T08:31:27.043Z</time></trkpt><trkpt lat="42.28989" lon="12.7965933"><ele>444.0</ele><time>2026-04-04T08:31:28.041Z</time></trkpt><trkpt lat="42.2900283" lon="12.7964733"><ele>444.0</ele><time>2026-04-04T08:31:29.041Z</time></trkpt><trkpt lat="42.2901617" lon="12.7963283"><ele>444.0</ele><time>2026-04-04T08:31:30.043Z</time></trkpt><trkpt lat="42.290295" lon="12.7961717"><ele>444.0</ele><time>2026-04-04T08:31:31.041Z</time></trkpt><trkpt lat="42.29043" lon="12.79601"><ele>444.0</ele><time>2026-04-04T08:31:32.042Z</time></trkpt><trkpt lat="42.290565" lon="12.7958467"><ele>444.0</ele><time>2026-04-04T08:31:33.043Z</time></trkpt><trkpt lat="42.2907017" lon="12.7956817"><ele>445.0</ele><time>2026-04-04T08:31:34.04Z</time></trkpt><trkpt lat="42.2908367" lon="12.7955167"><ele>446.0</ele><time>2026-04-04T08:31:35.042Z</time></trkpt><trkpt lat="42.290975" lon="12.79536"><ele>447.0</ele><time>2026-04-04T08:31:36.042Z</time></trkpt><trkpt lat="42.2911133" lon="12.7952133"><ele>449.66666666666663</ele><time>2026-04-04T08:31:37.043Z</time></trkpt><trkpt lat="42.2912533" lon="12.795075"><ele>452.3333333333333</ele><time>2026-04-04T08:31:38.043Z</time></trkpt><trkpt lat="42.2914" lon="12.7949533"><ele>455.0</ele><time>2026-04-04T08:31:39.042Z</time></trkpt><trkpt lat="42.2915483" lon="12.7948383"><ele>455.0</ele><time>2026-04-04T08:31:40.041Z</time></trkpt><trkpt lat="42.291695" lon="12.79473"><ele>455.0</ele><time>2026-04-04T08:31:41.042Z</time></trkpt><trkpt lat="42.29183" lon="12.7946217"><ele>455.0</ele><time>2026-04-04T08:31:42.042Z</time></trkpt><trkpt lat="42.2919667" lon="12.7945267"><ele>455.0</ele><time>2026-04-04T08:31:43.043Z</time></trkpt><trkpt lat="42.2921133" lon="12.794455"><ele>455.0</ele><time>2026-04-04T08:31:44.042Z</time></trkpt><trkpt lat="42.2922683" lon="12.7944083"><ele>455.0</ele><time>2026-04-04T08:31:45.042Z</time></trkpt><trkpt lat="42.2924333" lon="12.794375"><ele>458.0</ele><time>2026-04-04T08:31:46.042Z</time></trkpt><trkpt lat="42.2926017" lon="12.7943483"><ele>461.0</ele><time>2026-04-04T08:31:47.042Z</time></trkpt><trkpt lat="42.292765" lon="12.794325"><ele>464.0</ele><time>2026-04-04T08:31:48.041Z</time></trkpt><trkpt lat="42.292925" lon="12.7943067"><ele>465.66666666666663</ele><time>2026-04-04T08:31:49.042Z</time></trkpt><trkpt lat="42.29308" lon="12.794305"><ele>467.33333333333337</ele><time>2026-04-04T08:31:50.042Z</time></trkpt><trkpt lat="42.2932333" lon="12.7943333"><ele>469.0</ele><time>2026-04-04T08:31:51.043Z</time></trkpt><trkpt lat="42.2933867" lon="12.7943833"><ele>469.33333333333337</ele><time>2026-04-04T08:31:52.041Z</time></trkpt><trkpt lat="42.29353" lon="12.79446"><ele>469.66666666666663</ele><time>2026-04-04T08:31:53.042Z</time></trkpt><trkpt lat="42.2936717" lon="12.7945533"><ele>470.0</ele><time>2026-04-04T08:31:54.042Z</time></trkpt><trkpt lat="42.2937983" lon="12.7946667"><ele>470.0</ele><time>2026-04-04T08:31:55.04Z</time></trkpt><trkpt lat="42.29392" lon="12.7947967"><ele>470.0</ele><time>2026-04-04T08:31:56.042Z</time></trkpt><trkpt lat="42.294035" lon="12.7949467"><ele>470.0</ele><time>2026-04-04T08:31:57.043Z</time></trkpt><trkpt lat="42.2941483" lon="12.7951033"><ele>469.66666666666663</ele><time>2026-04-04T08:31:58.041Z</time></trkpt><trkpt lat="42.29426" lon="12.7952617"><ele>469.33333333333337</ele><time>2026-04-04T08:31:59.043Z</time></trkpt><trkpt lat="42.2943667" lon="12.795415"><ele>469.0</ele><time>2026-04-04T08:32:00.042Z</time></trkpt><trkpt lat="42.294465" lon="12.7955533"><ele>469.0</ele><time>2026-04-04T08:32:01.041Z</time></trkpt><trkpt lat="42.2945583" lon="12.7956683"><ele>469.0</ele><time>2026-04-04T08:32:02.044Z</time></trkpt><trkpt lat="42.29465" lon="12.795755"><ele>469.0</ele><time>2026-04-04T08:32:03.041Z</time></trkpt><trkpt lat="42.2947533" lon="12.795815"><ele>469.0</ele><time>2026-04-04T08:32:04.041Z</time></trkpt><trkpt lat="42.2948717" lon="12.7958433"><ele>472.75</ele><time>2026-04-04T08:32:05.042Z</time></trkpt><trkpt lat="42.2949967" lon="12.7958433"><ele>476.5</ele><time>2026-04-04T08:32:06.043Z</time></trkpt><trkpt lat="42.2951317" lon="12.795815"><ele>480.25</ele><time>2026-04-04T08:32:07.041Z</time></trkpt><trkpt lat="42.29527" lon="12.7957733"><ele>484.0</ele><time>2026-04-04T08:32:08.042Z</time></trkpt><trkpt lat="42.2954133" lon="12.795735"><ele>484.0</ele><time>2026-04-04T08:32:09.042Z</time></trkpt><trkpt lat="42.2955583" lon="12.7956917"><ele>484.0</ele><time>2026-04-04T08:32:10.04Z</time></trkpt><trkpt lat="42.29571" lon="12.7956367"><ele>484.0</ele><time>2026-04-04T08:32:11.041Z</time></trkpt><trkpt lat="42.295865" lon="12.79558"><ele>483.33333333333337</ele><time>2026-04-04T08:32:12.043Z</time></trkpt><trkpt lat="42.2960217" lon="12.7955217"><ele>482.66666666666663</ele><time>2026-04-04T08:32:13.043Z</time></trkpt><trkpt lat="42.29618" lon="12.7954517"><ele>482.0</ele><time>2026-04-04T08:32:14.043Z</time></trkpt><trkpt lat="42.2963367" lon="12.795375"><ele>481.66666666666663</ele><time>2026-04-04T08:32:15.042Z</time></trkpt><trkpt lat="42.2964967" lon="12.7952867"><ele>481.33333333333337</ele><time>2026-04-04T08:32:16.041Z</time></trkpt><trkpt lat="42.2966633" lon="12.7951733"><ele>481.0</ele><time>2026-04-04T08:32:17.043Z</time></trkpt><trkpt lat="42.2968333" lon="12.7950533"><ele>485.6666666666667</ele><time>2026-04-04T08:32:18.042Z</time></trkpt><trkpt lat="42.297" lon="12.79493"><ele>490.33333333333337</ele><time>2026-04-04T08:32:19.041Z</time></trkpt><trkpt lat="42.2971667" lon="12.7948167"><ele>495.0</ele><time>2026-04-04T08:32:20.042Z</time></trkpt><trkpt lat="42.2973317" lon="12.7947117"><ele>495.0</ele><time>2026-04-04T08:32:21.043Z</time></trkpt><trkpt lat="42.2974967" lon="12.7946017"><ele>495.0</ele><time>2026-04-04T08:32:22.041Z</time></trkpt><trkpt lat="42.2976567" lon="12.7944967"><ele>495.0</ele><time>2026-04-04T08:32:23.042Z</time></trkpt><trkpt lat="42.2978" lon="12.7943867"><ele>498.33333333333337</ele><time>2026-04-04T08:32:24.042Z</time></trkpt><trkpt lat="42.29793" lon="12.7942567"><ele>501.6666666666667</ele><time>2026-04-04T08:32:25.04Z</time></trkpt><trkpt lat="42.298045" lon="12.7941017"><ele>505.0</ele><time>2026-04-04T08:32:26.042Z</time></trkpt><trkpt lat="42.2981533" lon="12.79393"><ele>505.0</ele><time>2026-04-04T08:32:27.043Z</time></trkpt><trkpt lat="42.2982567" lon="12.7937417"><ele>505.0</ele><time>2026-04-04T08:32:28.04Z</time></trkpt><trkpt lat="42.2983583" lon="12.793545"><ele>505.0</ele><time>2026-04-04T08:32:29.041Z</time></trkpt><trkpt lat="42.2984583" lon="12.7933483"><ele>508.6666666666667</ele><time>2026-04-04T08:32:30.041Z</time></trkpt><trkpt lat="42.298555" lon="12.7931617"><ele>512.3333333333334</ele><time>2026-04-04T08:32:31.042Z</time></trkpt><trkpt lat="42.2986467" lon="12.7929867"><ele>516.0</ele><time>2026-04-04T08:32:32.043Z</time></trkpt><trkpt lat="42.2987317" lon="12.7928283"><ele>516.0</ele><time>2026-04-04T08:32:33.043Z</time></trkpt><trkpt lat="42.29882" lon="12.7926817"><ele>516.0</ele><time>2026-04-04T08:32:34.04Z</time></trkpt><trkpt lat="42.2989233" lon="12.7925517"><ele>516.0</ele><time>2026-04-04T08:32:35.041Z</time></trkpt><trkpt lat="42.2990467" lon="12.7924467"><ele>516.0</ele><time>2026-04-04T08:32:36.042Z</time></trkpt><trkpt lat="42.29919" lon="12.7923733"><ele>516.0</ele><time>2026-04-04T08:32:37.042Z</time></trkpt><trkpt lat="42.2993433" lon="12.7923217"><ele>516.0</ele><time>2026-04-04T08:32:38.043Z</time></trkpt><trkpt lat="42.2994967" lon="12.7922883"><ele>516.0</ele><time>2026-04-04T08:32:39.042Z</time></trkpt><trkpt lat="42.299655" lon="12.7922683"><ele>518.3333333333334</ele><time>2026-04-04T08:32:40.04Z</time></trkpt><trkpt lat="42.2998167" lon="12.7922433"><ele>520.6666666666667</ele><time>2026-04-04T08:32:41.044Z</time></trkpt><trkpt lat="42.2999833" lon="12.7922183"><ele>523.0</ele><time>2026-04-04T08:32:42.042Z</time></trkpt><trkpt lat="42.300155" lon="12.79219"><ele>523.0</ele><time>2026-04-04T08:32:43.042Z</time></trkpt><trkpt lat="42.3003283" lon="12.7921617"><ele>523.0</ele><time>2026-04-04T08:32:44.042Z</time></trkpt><trkpt lat="42.3005083" lon="12.79213"><ele>523.0</ele><time>2026-04-04T08:32:45.043Z</time></trkpt><trkpt lat="42.300695" lon="12.792095"><ele>524.3333333333334</ele><time>2026-04-04T08:32:46.042Z</time></trkpt><trkpt lat="42.3008883" lon="12.7920567"><ele>525.6666666666666</ele><time>2026-04-04T08:32:47.043Z</time></trkpt><trkpt lat="42.3010917" lon="12.7919967"><ele>527.0</ele><time>2026-04-04T08:32:48.042Z</time></trkpt><trkpt lat="42.3013017" lon="12.79191"><ele>528.6666666666666</ele><time>2026-04-04T08:32:49.042Z</time></trkpt><trkpt lat="42.301505" lon="12.7918017"><ele>530.3333333333334</ele><time>2026-04-04T08:32:50.041Z</time></trkpt><trkpt lat="42.3017017" lon="12.7916733"><ele>532.0</ele><time>2026-04-04T08:32:51.042Z</time></trkpt><trkpt lat="42.3018867" lon="12.79154"><ele>532.0</ele><time>2026-04-04T08:32:52.042Z</time></trkpt><trkpt lat="42.3020567" lon="12.7914033"><ele>532.0</ele><time>2026-04-04T08:32:53.042Z</time></trkpt><trkpt lat="42.3022117" lon="12.7912617"><ele>532.0</ele><time>2026-04-04T08:32:54.042Z</time></trkpt><trkpt lat="42.3023583" lon="12.7911267"><ele>532.3333333333334</ele><time>2026-04-04T08:32:55.041Z</time></trkpt><trkpt lat="42.3025133" lon="12.7910067"><ele>532.6666666666666</ele><time>2026-04-04T08:32:56.041Z</time></trkpt><trkpt lat="42.3026817" lon="12.7908983"><ele>533.0</ele><time>2026-04-04T08:32:57.043Z</time></trkpt><trkpt lat="42.302865" lon="12.7908083"><ele>533.0</ele><time>2026-04-04T08:32:58.04Z</time></trkpt><trkpt lat="42.3030533" lon="12.790725"><ele>533.0</ele><time>2026-04-04T08:32:59.04Z</time></trkpt><trkpt lat="42.30324" lon="12.7906417"><ele>533.0</ele><time>2026-04-04T08:33:00.042Z</time></trkpt><trkpt lat="42.30343" lon="12.7905533"><ele>537.0</ele><time>2026-04-04T08:33:01.041Z</time></trkpt><trkpt lat="42.303615" lon="12.7904733"><ele>541.0</ele><time>2026-04-04T08:33:02.043Z</time></trkpt><trkpt lat="42.303785" lon="12.7903967"><ele>545.0</ele><time>2026-04-04T08:33:03.043Z</time></trkpt><trkpt lat="42.3039483" lon="12.7903183"><ele>545.0</ele><time>2026-04-04T08:33:04.041Z</time></trkpt><trkpt lat="42.3041083" lon="12.7902217"><ele>545.0</ele><time>2026-04-04T08:33:05.042Z</time></trkpt><trkpt lat="42.3042667" lon="12.7901017"><ele>545.0</ele><time>2026-04-04T08:33:06.041Z</time></trkpt><trkpt lat="42.3044167" lon="12.78997"><ele>545.0</ele><time>2026-04-04T08:33:07.043Z</time></trkpt><trkpt lat="42.3045517" lon="12.789835"><ele>545.0</ele><time>2026-04-04T08:33:08.042Z</time></trkpt><trkpt lat="42.3046867" lon="12.7897117"><ele>545.0</ele><time>2026-04-04T08:33:09.042Z</time></trkpt><trkpt lat="42.304825" lon="12.78961"><ele>549.6666666666666</ele><time>2026-04-04T08:33:10.04Z</time></trkpt><trkpt lat="42.3049767" lon="12.7895383"><ele>554.3333333333334</ele><time>2026-04-04T08:33:11.041Z</time></trkpt><trkpt lat="42.3051433" lon="12.7895033"><ele>559.0</ele><time>2026-04-04T08:33:12.041Z</time></trkpt><trkpt lat="42.30532" lon="12.7895117"><ele>559.0</ele><time>2026-04-04T08:33:13.041Z</time></trkpt><trkpt lat="42.3055" lon="12.7895417"><ele>559.0</ele><time>2026-04-04T08:33:14.043Z</time></trkpt><trkpt lat="42.30568" lon="12.7895883"><ele>559.0</ele><time>2026-04-04T08:33:15.041Z</time></trkpt><trkpt lat="42.3058583" lon="12.7896417"><ele>561.0</ele><time>2026-04-04T08:33:16.042Z</time></trkpt><trkpt lat="42.3060317" lon="12.7896917"><ele>563.0</ele><time>2026-04-04T08:33:17.042Z</time></trkpt><trkpt lat="42.3061917" lon="12.7897417"><ele>565.0</ele><time>2026-04-04T08:33:18.043Z</time></trkpt><trkpt lat="42.30634" lon="12.7897917"><ele>565.5</ele><time>2026-04-04T08:33:19.041Z</time></trkpt><trkpt lat="42.3064767" lon="12.7898383"><ele>566.0</ele><time>2026-04-04T08:33:20.043Z</time></trkpt><trkpt lat="42.3066117" lon="12.7898633"><ele>566.5</ele><time>2026-04-04T08:33:21.043Z</time></trkpt><trkpt lat="42.3067417" lon="12.7898583"><ele>567.0</ele><time>2026-04-04T08:33:22.042Z</time></trkpt><trkpt lat="42.3068683" lon="12.7898133"><ele>567.0</ele><time>2026-04-04T08:33:23.043Z</time></trkpt><trkpt lat="42.3069833" lon="12.7897033"><ele>567.0</ele><time>2026-04-04T08:33:24.043Z</time></trkpt><trkpt lat="42.3070867" lon="12.7895683"><ele>567.0</ele><time>2026-04-04T08:33:25.04Z</time></trkpt><trkpt lat="42.3071967" lon="12.78946"><ele>567.0</ele><time>2026-04-04T08:33:26.041Z</time></trkpt><trkpt lat="42.30732" lon="12.7893817"><ele>565.75</ele><time>2026-04-04T08:33:27.042Z</time></trkpt><trkpt lat="42.3074583" lon="12.7893383"><ele>564.5</ele><time>2026-04-04T08:33:28.04Z</time></trkpt><trkpt lat="42.3076017" lon="12.7893183"><ele>563.25</ele><time>2026-04-04T08:33:29.04Z</time></trkpt><trkpt lat="42.3077417" lon="12.7893"><ele>562.0</ele><time>2026-04-04T08:33:30.042Z</time></trkpt><trkpt lat="42.307875" lon="12.78925"><ele>562.0</ele><time>2026-04-04T08:33:31.041Z</time></trkpt><trkpt lat="42.3080017" lon="12.78915"><ele>562.0</ele><time>2026-04-04T08:33:32.043Z</time></trkpt><trkpt lat="42.308105" lon="12.7890067"><ele>562.0</ele><time>2026-04-04T08:33:33.042Z</time></trkpt><trkpt lat="42.308165" lon="12.7888183"><ele>562.0</ele><time>2026-04-04T08:33:34.042Z</time></trkpt><trkpt lat="42.3082267" lon="12.78862"><ele>565.6666666666667</ele><time>2026-04-04T08:33:35.043Z</time></trkpt><trkpt lat="42.3082867" lon="12.78843"><ele>569.3333333333334</ele><time>2026-04-04T08:33:36.042Z</time></trkpt><trkpt lat="42.3083267" lon="12.7882367"><ele>573.0</ele><time>2026-04-04T08:33:37.041Z</time></trkpt><trkpt lat="42.3083367" lon="12.788035"><ele>573.0</ele><time>2026-04-04T08:33:38.042Z</time></trkpt><trkpt lat="42.3083017" lon="12.7878267"><ele>573.0</ele><time>2026-04-04T08:33:39.043Z</time></trkpt><trkpt lat="42.3082417" lon="12.7876383"><ele>573.0</ele><time>2026-04-04T08:33:40.041Z</time></trkpt><trkpt lat="42.3081767" lon="12.7874683"><ele>574.25</ele><time>2026-04-04T08:33:41.043Z</time></trkpt><trkpt lat="42.30813" lon="12.7872983"><ele>575.5</ele><time>2026-04-04T08:33:42.043Z</time></trkpt><trkpt lat="42.3081083" lon="12.7871233"><ele>576.75</ele><time>2026-04-04T08:33:43.043Z</time></trkpt><trkpt lat="42.30812" lon="12.786945"><ele>578.0</ele><time>2026-04-04T08:33:44.042Z</time></trkpt><trkpt lat="42.30816" lon="12.786775"><ele>578.25</ele><time>2026-04-04T08:33:45.043Z</time></trkpt><trkpt lat="42.3082267" lon="12.7866183"><ele>578.5</ele><time>2026-04-04T08:33:46.04Z</time></trkpt><trkpt lat="42.30831" lon="12.786485"><ele>578.75</ele><time>2026-04-04T08:33:47.041Z</time></trkpt><trkpt lat="42.3084" lon="12.7863767"><ele>579.0</ele><time>2026-04-04T08:33:48.043Z</time></trkpt><trkpt lat="42.3085117" lon="12.7863083"><ele>579.0</ele><time>2026-04-04T08:33:49.041Z</time></trkpt><trkpt lat="42.3086417" lon="12.7862817"><ele>579.0</ele><time>2026-04-04T08:33:50.043Z</time></trkpt><trkpt lat="42.3087817" lon="12.7862883"><ele>579.0</ele><time>2026-04-04T08:33:51.041Z</time></trkpt><trkpt lat="42.308925" lon="12.7863167"><ele>579.0</ele><time>2026-04-04T08:33:52.041Z</time></trkpt><trkpt lat="42.3090683" lon="12.786335"><ele>585.0</ele><time>2026-04-04T08:33:53.042Z</time></trkpt><trkpt lat="42.3092117" lon="12.78631"><ele>591.0</ele><time>2026-04-04T08:33:54.042Z</time></trkpt><trkpt lat="42.309365" lon="12.7862367"><ele>597.0</ele><time>2026-04-04T08:33:55.04Z</time></trkpt><trkpt lat="42.3095267" lon="12.7861417"><ele>597.0</ele><time>2026-04-04T08:33:56.041Z</time></trkpt><trkpt lat="42.3096867" lon="12.7860383"><ele>597.0</ele><time>2026-04-04T08:33:57.041Z</time></trkpt><trkpt lat="42.3098533" lon="12.7859333"><ele>597.0</ele><time>2026-04-04T08:33:58.041Z</time></trkpt><trkpt lat="42.3100233" lon="12.7858283"><ele>594.6666666666666</ele><time>2026-04-04T08:33:59.04Z</time></trkpt><trkpt lat="42.3101917" lon="12.7857283"><ele>592.3333333333333</ele><time>2026-04-04T08:34:00.042Z</time></trkpt><trkpt lat="42.310365" lon="12.7856267"><ele>590.0</ele><time>2026-04-04T08:34:01.04Z</time></trkpt><trkpt lat="42.310535" lon="12.78553"><ele>591.6666666666666</ele><time>2026-04-04T08:34:02.041Z</time></trkpt><trkpt lat="42.3107" lon="12.7854117"><ele>593.3333333333334</ele><time>2026-04-04T08:34:03.043Z</time></trkpt><trkpt lat="42.310855" lon="12.7852717"><ele>595.0</ele><time>2026-04-04T08:34:04.041Z</time></trkpt><trkpt lat="42.3109933" lon="12.7851117"><ele>595.0</ele><time>2026-04-04T08:34:05.041Z</time></trkpt><trkpt lat="42.3111133" lon="12.78493"><ele>595.0</ele><time>2026-04-04T08:34:06.041Z</time></trkpt><trkpt lat="42.3112167" lon="12.784725"><ele>595.0</ele><time>2026-04-04T08:34:07.041Z</time></trkpt><trkpt lat="42.311315" lon="12.78452"><ele>597.6666666666667</ele><time>2026-04-04T08:34:08.042Z</time></trkpt><trkpt lat="42.31142" lon="12.7843283"><ele>600.3333333333334</ele><time>2026-04-04T08:34:09.043Z</time></trkpt><trkpt lat="42.3115383" lon="12.7841467"><ele>603.0</ele><time>2026-04-04T08:34:10.041Z</time></trkpt><trkpt lat="42.3116733" lon="12.7839767"><ele>603.0</ele><time>2026-04-04T08:34:11.041Z</time></trkpt><trkpt lat="42.3118217" lon="12.78382"><ele>603.0</ele><time>2026-04-04T08:34:12.041Z</time></trkpt><trkpt lat="42.3119683" lon="12.783665"><ele>603.0</ele><time>2026-04-04T08:34:13.043Z</time></trkpt><trkpt lat="42.31211" lon="12.7835117"><ele>606.0</ele><time>2026-04-04T08:34:14.042Z</time></trkpt><trkpt lat="42.3122467" lon="12.7833717"><ele>609.0</ele><time>2026-04-04T08:34:15.042Z</time></trkpt><trkpt lat="42.312375" lon="12.783245"><ele>612.0</ele><time>2026-04-04T08:34:16.039Z</time></trkpt><trkpt lat="42.3124867" lon="12.78313"><ele>612.0</ele><time>2026-04-04T08:34:17.042Z</time></trkpt><trkpt lat="42.3125767" lon="12.7830167"><ele>612.0</ele><time>2026-04-04T08:34:18.041Z</time></trkpt><trkpt lat="42.3126467" lon="12.782895"><ele>612.0</ele><time>2026-04-04T08:34:19.04Z</time></trkpt><trkpt lat="42.312695" lon="12.7827633"><ele>612.0</ele><time>2026-04-04T08:34:20.041Z</time></trkpt><trkpt lat="42.3127067" lon="12.7826167"><ele>611.25</ele><time>2026-04-04T08:34:21.042Z</time></trkpt><trkpt lat="42.3126767" lon="12.7824533"><ele>610.5</ele><time>2026-04-04T08:34:22.041Z</time></trkpt><trkpt lat="42.3126067" lon="12.782295"><ele>609.75</ele><time>2026-04-04T08:34:23.041Z</time></trkpt><trkpt lat="42.3125083" lon="12.7821417"><ele>609.0</ele><time>2026-04-04T08:34:24.041Z</time></trkpt><trkpt lat="42.312415" lon="12.7819983"><ele>609.0</ele><time>2026-04-04T08:34:25.04Z</time></trkpt><trkpt lat="42.3123267" lon="12.781865"><ele>609.0</ele><time>2026-04-04T08:34:26.042Z</time></trkpt><trkpt lat="42.312265" lon="12.7817317"><ele>609.0</ele><time>2026-04-04T08:34:27.042Z</time></trkpt><trkpt lat="42.312225" lon="12.7816"><ele>609.0</ele><time>2026-04-04T08:34:28.041Z</time></trkpt><trkpt lat="42.3122133" lon="12.7814633"><ele>609.25</ele><time>2026-04-04T08:34:29.041Z</time></trkpt><trkpt lat="42.3122383" lon="12.7813233"><ele>609.5</ele><time>2026-04-04T08:34:30.042Z</time></trkpt><trkpt lat="42.3122967" lon="12.781195"><ele>609.75</ele><time>2026-04-04T08:34:31.041Z</time></trkpt><trkpt lat="42.3123867" lon="12.7810867"><ele>610.0</ele><time>2026-04-04T08:34:32.043Z</time></trkpt><trkpt lat="42.3125017" lon="12.781005"><ele>610.0</ele><time>2026-04-04T08:34:33.044Z</time></trkpt><trkpt lat="42.3126367" lon="12.7809383"><ele>610.0</ele><time>2026-04-04T08:34:34.041Z</time></trkpt><trkpt lat="42.3127867" lon="12.7808717"><ele>610.0</ele><time>2026-04-04T08:34:35.041Z</time></trkpt><trkpt lat="42.3129417" lon="12.7807967"><ele>616.3333333333334</ele><time>2026-04-04T08:34:36.042Z</time></trkpt><trkpt lat="42.3130917" lon="12.7806983"><ele>622.6666666666666</ele><time>2026-04-04T08:34:37.041Z</time></trkpt><trkpt lat="42.31323" lon="12.7805617"><ele>629.0</ele><time>2026-04-04T08:34:38.042Z</time></trkpt><trkpt lat="42.3133533" lon="12.78039"><ele>629.0</ele><time>2026-04-04T08:34:39.041Z</time></trkpt><trkpt lat="42.3134667" lon="12.780205"><ele>629.0</ele><time>2026-04-04T08:34:40.04Z</time></trkpt><trkpt lat="42.3135817" lon="12.78001"><ele>629.0</ele><time>2026-04-04T08:34:41.042Z</time></trkpt><trkpt lat="42.3137033" lon="12.779815"><ele>628.6666666666666</ele><time>2026-04-04T08:34:42.042Z</time></trkpt><trkpt lat="42.3138233" lon="12.77962"><ele>628.3333333333334</ele><time>2026-04-04T08:34:43.04Z</time></trkpt><trkpt lat="42.313935" lon="12.7794283"><ele>628.0</ele><time>2026-04-04T08:34:44.041Z</time></trkpt><trkpt lat="42.3140383" lon="12.7792483"><ele>628.0</ele><time>2026-04-04T08:34:45.041Z</time></trkpt><trkpt lat="42.3141417" lon="12.7790733"><ele>628.0</ele><time>2026-04-04T08:34:46.041Z</time></trkpt><trkpt lat="42.31425" lon="12.7789117"><ele>628.0</ele><time>2026-04-04T08:34:47.042Z</time></trkpt><trkpt lat="42.314365" lon="12.778765"><ele>628.0</ele><time>2026-04-04T08:34:48.041Z</time></trkpt><trkpt lat="42.31448" lon="12.7786383"><ele>628.0</ele><time>2026-04-04T08:34:49.04Z</time></trkpt><trkpt lat="42.314585" lon="12.7785117"><ele>628.0</ele><time>2026-04-04T08:34:50.041Z</time></trkpt><trkpt lat="42.3146783" lon="12.7783767"><ele>628.0</ele><time>2026-04-04T08:34:51.042Z</time></trkpt><trkpt lat="42.31475" lon="12.77823"><ele>629.75</ele><time>2026-04-04T08:34:52.04Z</time></trkpt><trkpt lat="42.3148067" lon="12.7780683"><ele>631.5</ele><time>2026-04-04T08:34:53.043Z</time></trkpt><trkpt lat="42.3148567" lon="12.7779117"><ele>633.25</ele><time>2026-04-04T08:34:54.041Z</time></trkpt><trkpt lat="42.314895" lon="12.7777667"><ele>635.0</ele><time>2026-04-04T08:34:55.042Z</time></trkpt><trkpt lat="42.3149317" lon="12.777635"><ele>635.0</ele><time>2026-04-04T08:34:56.042Z</time></trkpt><trkpt lat="42.314965" lon="12.7775183"><ele>635.0</ele><time>2026-04-04T08:34:57.042Z</time></trkpt><trkpt lat="42.315" lon="12.777415"><ele>635.0</ele><time>2026-04-04T08:34:58.04Z</time></trkpt><trkpt lat="42.3150367" lon="12.777325"><ele>635.0</ele><time>2026-04-04T08:34:59.041Z</time></trkpt><trkpt lat="42.31508" lon="12.7772583"><ele>635.0</ele><time>2026-04-04T08:35:00.043Z</time></trkpt><trkpt lat="42.3151767" lon="12.7771967"><ele>635.0</ele><time>2026-04-04T08:35:02.041Z</time></trkpt><trkpt lat="42.315285" lon="12.7772083"><ele>635.0</ele><time>2026-04-04T08:35:04.041Z</time></trkpt><trkpt lat="42.3154033" lon="12.7772817"><ele>635.0</ele><time>2026-04-04T08:35:06.042Z</time></trkpt><trkpt lat="42.3154667" lon="12.7773283"><ele>635.0</ele><time>2026-04-04T08:35:07.04Z</time></trkpt><trkpt lat="42.3155283" lon="12.7773833"><ele>635.0</ele><time>2026-04-04T08:35:08.043Z</time></trkpt><trkpt lat="42.315595" lon="12.7774383"><ele>635.0</ele><time>2026-04-04T08:35:09.043Z</time></trkpt><trkpt lat="42.315655" lon="12.777495"><ele>635.0</ele><time>2026-04-04T08:35:10.041Z</time></trkpt><trkpt lat="42.3157183" lon="12.7775633"><ele>634.4</ele><time>2026-04-04T08:35:11.042Z</time></trkpt><trkpt lat="42.315775" lon="12.77764"><ele>633.8</ele><time>2026-04-04T08:35:12.043Z</time></trkpt><trkpt lat="42.31583" lon="12.7777283"><ele>633.2</ele><time>2026-04-04T08:35:13.045Z</time></trkpt><trkpt lat="42.3158833" lon="12.777835"><ele>632.6</ele><time>2026-04-04T08:35:14.043Z</time></trkpt><trkpt lat="42.3159317" lon="12.777965"><ele>632.0</ele><time>2026-04-04T08:35:15.04Z</time></trkpt><trkpt lat="42.315965" lon="12.7781017"><ele>633.4</ele><time>2026-04-04T08:35:16.041Z</time></trkpt><trkpt lat="42.3159833" lon="12.7782417"><ele>634.8000000000001</ele><time>2026-04-04T08:35:17.042Z</time></trkpt><trkpt lat="42.3159917" lon="12.7783783"><ele>636.2</ele><time>2026-04-04T08:35:18.042Z</time></trkpt><trkpt lat="42.3160017" lon="12.77851"><ele>637.6</ele><time>2026-04-04T08:35:19.042Z</time></trkpt><trkpt lat="42.3160167" lon="12.7786317"><ele>639.0</ele><time>2026-04-04T08:35:20.043Z</time></trkpt><trkpt lat="42.3160383" lon="12.778745"><ele>639.3333333333334</ele><time>2026-04-04T08:35:21.042Z</time></trkpt><trkpt lat="42.3160717" lon="12.7788483"><ele>639.6666666666666</ele><time>2026-04-04T08:35:22.042Z</time></trkpt><trkpt lat="42.3161167" lon="12.7789433"><ele>640.0</ele><time>2026-04-04T08:35:23.041Z</time></trkpt><trkpt lat="42.3161767" lon="12.779015"><ele>640.3333333333333</ele><time>2026-04-04T08:35:24.042Z</time></trkpt><trkpt lat="42.3162317" lon="12.7790633"><ele>640.6666666666666</ele><time>2026-04-04T08:35:25.041Z</time></trkpt><trkpt lat="42.31632" lon="12.7791133"><ele>641.0</ele><time>2026-04-04T08:35:27.042Z</time></trkpt><trkpt lat="42.3163833" lon="12.7790667"><ele>640.0</ele><time>2026-04-04T08:40:39.041Z</time></trkpt><trkpt lat="42.3164517" lon="12.779"><ele>639.0</ele><time>2026-04-04T08:40:42.04Z</time></trkpt><trkpt lat="42.316505" lon="12.778935"><ele>638.0</ele><time>2026-04-04T08:40:44.043Z</time></trkpt><trkpt lat="42.3165667" lon="12.7788283"><ele>637.0</ele><time>2026-04-04T08:40:47.041Z</time></trkpt><trkpt lat="42.3166067" lon="12.77868"><ele>636.0</ele><time>2026-04-04T08:40:49.042Z</time></trkpt><trkpt lat="42.31662" lon="12.77859"><ele>635.0</ele><time>2026-04-04T08:40:50.041Z</time></trkpt><trkpt lat="42.3166317" lon="12.7785"><ele>633.6666666666666</ele><time>2026-04-04T08:40:51.04Z</time></trkpt><trkpt lat="42.31664" lon="12.7784"><ele>632.3333333333333</ele><time>2026-04-04T08:40:52.039Z</time></trkpt><trkpt lat="42.31665" lon="12.778285"><ele>631.0</ele><time>2026-04-04T08:40:53.04Z</time></trkpt><trkpt lat="42.3166633" lon="12.7781683"><ele>629.6666666666666</ele><time>2026-04-04T08:40:54.041Z</time></trkpt><trkpt lat="42.3166833" lon="12.77806"><ele>628.3333333333334</ele><time>2026-04-04T08:40:55.04Z</time></trkpt><trkpt lat="42.3167033" lon="12.7779583"><ele>627.0</ele><time>2026-04-04T08:40:56.04Z</time></trkpt><trkpt lat="42.3167283" lon="12.7778617"><ele>627.0</ele><time>2026-04-04T08:40:57.041Z</time></trkpt><trkpt lat="42.316765" lon="12.7777583"><ele>627.0</ele><time>2026-04-04T08:40:58.04Z</time></trkpt><trkpt lat="42.3168133" lon="12.7776483"><ele>627.0</ele><time>2026-04-04T08:40:59.041Z</time></trkpt><trkpt lat="42.316875" lon="12.7775433"><ele>627.0</ele><time>2026-04-04T08:41:00.041Z</time></trkpt><trkpt lat="42.3169467" lon="12.777445"><ele>627.0</ele><time>2026-04-04T08:41:01.04Z</time></trkpt><trkpt lat="42.31703" lon="12.7773533"><ele>626.0</ele><time>2026-04-04T08:41:02.041Z</time></trkpt><trkpt lat="42.3171217" lon="12.77727"><ele>625.0</ele><time>2026-04-04T08:41:03.04Z</time></trkpt><trkpt lat="42.3172167" lon="12.7771967"><ele>624.0</ele><time>2026-04-04T08:41:04.039Z</time></trkpt><trkpt lat="42.3173117" lon="12.7771383"><ele>623.0</ele><time>2026-04-04T08:41:05.042Z</time></trkpt><trkpt lat="42.3174133" lon="12.7771"><ele>622.0</ele><time>2026-04-04T08:41:06.04Z</time></trkpt><trkpt lat="42.3175233" lon="12.7770783"><ele>622.0</ele><time>2026-04-04T08:41:07.042Z</time></trkpt><trkpt lat="42.3176417" lon="12.777065"><ele>622.0</ele><time>2026-04-04T08:41:08.04Z</time></trkpt><trkpt lat="42.3177717" lon="12.7770533"><ele>622.0</ele><time>2026-04-04T08:41:09.041Z</time></trkpt><trkpt lat="42.3179" lon="12.7770417"><ele>622.0</ele><time>2026-04-04T08:41:10.04Z</time></trkpt><trkpt lat="42.3180283" lon="12.7770267"><ele>620.0</ele><time>2026-04-04T08:41:11.041Z</time></trkpt><trkpt lat="42.318155" lon="12.7770067"><ele>618.0</ele><time>2026-04-04T08:41:12.041Z</time></trkpt><trkpt lat="42.31828" lon="12.7769883"><ele>616.0</ele><time>2026-04-04T08:41:13.041Z</time></trkpt><trkpt lat="42.3183917" lon="12.7769667"><ele>614.0</ele><time>2026-04-04T08:41:14.041Z</time></trkpt><trkpt lat="42.3184917" lon="12.7769533"><ele>614.0</ele><time>2026-04-04T08:41:15.04Z</time></trkpt><trkpt lat="42.3185867" lon="12.77694"><ele>614.0</ele><time>2026-04-04T08:41:16.04Z</time></trkpt><trkpt lat="42.318685" lon="12.77694"><ele>614.0</ele><time>2026-04-04T08:41:17.041Z</time></trkpt><trkpt lat="42.31878" lon="12.7769683"><ele>614.0</ele><time>2026-04-04T08:41:18.041Z</time></trkpt><trkpt lat="42.31887" lon="12.77702"><ele>614.0</ele><time>2026-04-04T08:41:19.039Z</time></trkpt><trkpt lat="42.3189567" lon="12.7770933"><ele>612.4</ele><time>2026-04-04T08:41:20.04Z</time></trkpt><trkpt lat="42.3190317" lon="12.7772"><ele>610.8</ele><time>2026-04-04T08:41:21.044Z</time></trkpt><trkpt lat="42.3190917" lon="12.7773283"><ele>609.2</ele><time>2026-04-04T08:41:22.04Z</time></trkpt><trkpt lat="42.319145" lon="12.777455"><ele>607.6</ele><time>2026-04-04T08:41:23.04Z</time></trkpt><trkpt lat="42.3191933" lon="12.777585"><ele>606.0</ele><time>2026-04-04T08:41:24.041Z</time></trkpt><trkpt lat="42.3192467" lon="12.7777167"><ele>606.0</ele><time>2026-04-04T08:41:25.041Z</time></trkpt><trkpt lat="42.319295" lon="12.7778517"><ele>606.0</ele><time>2026-04-04T08:41:26.04Z</time></trkpt><trkpt lat="42.319345" lon="12.7779833"><ele>606.0</ele><time>2026-04-04T08:41:27.04Z</time></trkpt><trkpt lat="42.319395" lon="12.7781183"><ele>606.0</ele><time>2026-04-04T08:41:28.04Z</time></trkpt><trkpt lat="42.3194433" lon="12.77827"><ele>606.0</ele><time>2026-04-04T08:41:29.041Z</time></trkpt><trkpt lat="42.3194883" lon="12.7784133"><ele>606.0</ele><time>2026-04-04T08:41:30.041Z</time></trkpt><trkpt lat="42.3195267" lon="12.7785517"><ele>606.0</ele><time>2026-04-04T08:41:31.042Z</time></trkpt><trkpt lat="42.3195517" lon="12.77869"><ele>606.0</ele><time>2026-04-04T08:41:32.041Z</time></trkpt><trkpt lat="42.3195633" lon="12.7788267"><ele>606.0</ele><time>2026-04-04T08:41:33.041Z</time></trkpt><trkpt lat="42.3195717" lon="12.778955"><ele>605.8333333333334</ele><time>2026-04-04T08:41:34.041Z</time></trkpt><trkpt lat="42.3195817" lon="12.779075"><ele>605.6666666666666</ele><time>2026-04-04T08:41:35.041Z</time></trkpt><trkpt lat="42.3195933" lon="12.779185"><ele>605.5</ele><time>2026-04-04T08:41:36.04Z</time></trkpt><trkpt lat="42.3196083" lon="12.7792833"><ele>605.3333333333333</ele><time>2026-04-04T08:41:37.04Z</time></trkpt><trkpt lat="42.31963" lon="12.7793633"><ele>605.1666666666666</ele><time>2026-04-04T08:41:38.041Z</time></trkpt><trkpt lat="42.319655" lon="12.7794717"><ele>605.0</ele><time>2026-04-04T08:41:40.04Z</time></trkpt><trkpt lat="42.31976" lon="12.7795567"><ele>605.0</ele><time>2026-04-04T08:44:01.04Z</time></trkpt><trkpt lat="42.319825" lon="12.779605"><ele>605.0</ele><time>2026-04-04T08:44:25.041Z</time></trkpt><trkpt lat="42.3199033" lon="12.77961"><ele>605.0</ele><time>2026-04-04T08:44:27.041Z</time></trkpt><trkpt lat="42.3199783" lon="12.77959"><ele>605.0</ele><time>2026-04-04T08:44:29.041Z</time></trkpt><trkpt lat="42.3200717" lon="12.779545"><ele>605.0</ele><time>2026-04-04T08:44:31.039Z</time></trkpt><trkpt lat="42.3201333" lon="12.7795033"><ele>605.0</ele><time>2026-04-04T08:44:32.04Z</time></trkpt><trkpt lat="42.3201933" lon="12.7794467"><ele>605.0</ele><time>2026-04-04T08:44:33.042Z</time></trkpt><trkpt lat="42.32025" lon="12.7793733"><ele>605.0</ele><time>2026-04-04T08:44:34.04Z</time></trkpt><trkpt lat="42.3202983" lon="12.779275"><ele>605.0</ele><time>2026-04-04T08:44:35.041Z</time></trkpt><trkpt lat="42.3203367" lon="12.7791583"><ele>605.0</ele><time>2026-04-04T08:44:36.041Z</time></trkpt><trkpt lat="42.3203483" lon="12.7790283"><ele>605.0</ele><time>2026-04-04T08:44:37.04Z</time></trkpt><trkpt lat="42.32034" lon="12.7789017"><ele>602.6</ele><time>2026-04-04T08:44:38.041Z</time></trkpt><trkpt lat="42.32031" lon="12.7787717"><ele>600.2</ele><time>2026-04-04T08:44:39.041Z</time></trkpt><trkpt lat="42.3202633" lon="12.778645"><ele>597.8</ele><time>2026-04-04T08:44:40.039Z</time></trkpt><trkpt lat="42.3202083" lon="12.77852"><ele>595.4</ele><time>2026-04-04T08:44:41.041Z</time></trkpt><trkpt lat="42.3201767" lon="12.7783933"><ele>593.0</ele><time>2026-04-04T08:44:42.04Z</time></trkpt><trkpt lat="42.320155" lon="12.77826"><ele>592.4</ele><time>2026-04-04T08:44:43.04Z</time></trkpt><trkpt lat="42.32015" lon="12.7781233"><ele>591.8</ele><time>2026-04-04T08:44:44.04Z</time></trkpt><trkpt lat="42.3201533" lon="12.7779867"><ele>591.2</ele><time>2026-04-04T08:44:45.041Z</time></trkpt><trkpt lat="42.3201617" lon="12.7778583"><ele>590.6</ele><time>2026-04-04T08:44:46.039Z</time></trkpt><trkpt lat="42.32017" lon="12.77773"><ele>590.0</ele><time>2026-04-04T08:44:47.042Z</time></trkpt><trkpt lat="42.32017" lon="12.7776"><ele>588.5</ele><time>2026-04-04T08:44:48.04Z</time></trkpt><trkpt lat="42.3201667" lon="12.7774583"><ele>587.0</ele><time>2026-04-04T08:44:49.041Z</time></trkpt><trkpt lat="42.3201617" lon="12.7773033"><ele>585.5</ele><time>2026-04-04T08:44:50.042Z</time></trkpt><trkpt lat="42.3201433" lon="12.7771433"><ele>584.0</ele><time>2026-04-04T08:44:51.04Z</time></trkpt><trkpt lat="42.320125" lon="12.7769833"><ele>583.75</ele><time>2026-04-04T08:44:52.04Z</time></trkpt><trkpt lat="42.3200933" lon="12.776825"><ele>583.5</ele><time>2026-04-04T08:44:53.041Z</time></trkpt><trkpt lat="42.320065" lon="12.77667"><ele>583.25</ele><time>2026-04-04T08:44:54.04Z</time></trkpt><trkpt lat="42.3200367" lon="12.7765217"><ele>583.0</ele><time>2026-04-04T08:44:55.041Z</time></trkpt><trkpt lat="42.3200117" lon="12.77637"><ele>583.0</ele><time>2026-04-04T08:44:56.039Z</time></trkpt><trkpt lat="42.3199967" lon="12.7762167"><ele>583.0</ele><time>2026-04-04T08:44:57.04Z</time></trkpt><trkpt lat="42.3199983" lon="12.7760583"><ele>583.0</ele><time>2026-04-04T08:44:58.04Z</time></trkpt><trkpt lat="42.3200183" lon="12.7758933"><ele>583.0</ele><time>2026-04-04T08:44:59.042Z</time></trkpt><trkpt lat="42.3200517" lon="12.77573"><ele>581.0</ele><time>2026-04-04T08:45:00.04Z</time></trkpt><trkpt lat="42.320095" lon="12.7755517"><ele>579.0</ele><time>2026-04-04T08:45:01.043Z</time></trkpt><trkpt lat="42.3201433" lon="12.7753633"><ele>577.0</ele><time>2026-04-04T08:45:02.041Z</time></trkpt><trkpt lat="42.3202" lon="12.77517"><ele>575.0</ele><time>2026-04-04T08:45:03.041Z</time></trkpt><trkpt lat="42.3202533" lon="12.774975"><ele>573.6666666666666</ele><time>2026-04-04T08:45:04.039Z</time></trkpt><trkpt lat="42.32031" lon="12.7747783"><ele>572.3333333333334</ele><time>2026-04-04T08:45:05.041Z</time></trkpt><trkpt lat="42.32037" lon="12.7745833"><ele>571.0</ele><time>2026-04-04T08:45:06.044Z</time></trkpt><trkpt lat="42.3204283" lon="12.7743883"><ele>570.75</ele><time>2026-04-04T08:45:07.042Z</time></trkpt><trkpt lat="42.3204833" lon="12.7742"><ele>570.5</ele><time>2026-04-04T08:45:08.042Z</time></trkpt><trkpt lat="42.3205383" lon="12.7740117"><ele>570.25</ele><time>2026-04-04T08:45:09.04Z</time></trkpt><trkpt lat="42.3205967" lon="12.7738283"><ele>570.0</ele><time>2026-04-04T08:45:10.043Z</time></trkpt><trkpt lat="42.3206533" lon="12.7736467"><ele>568.25</ele><time>2026-04-04T08:45:11.04Z</time></trkpt><trkpt lat="42.3207083" lon="12.7734633"><ele>566.5</ele><time>2026-04-04T08:45:12.042Z</time></trkpt><trkpt lat="42.3207617" lon="12.7732833"><ele>564.75</ele><time>2026-04-04T08:45:13.041Z</time></trkpt><trkpt lat="42.3208117" lon="12.773105"><ele>563.0</ele><time>2026-04-04T08:45:14.04Z</time></trkpt><trkpt lat="42.32086" lon="12.7729317"><ele>563.0</ele><time>2026-04-04T08:45:15.041Z</time></trkpt><trkpt lat="42.32091" lon="12.7727583"><ele>563.0</ele><time>2026-04-04T08:45:16.04Z</time></trkpt><trkpt lat="42.320955" lon="12.7725917"><ele>563.0</ele><time>2026-04-04T08:45:17.043Z</time></trkpt><trkpt lat="42.321005" lon="12.7724367"><ele>563.0</ele><time>2026-04-04T08:45:18.042Z</time></trkpt><trkpt lat="42.3210733" lon="12.772305"><ele>562.75</ele><time>2026-04-04T08:45:19.043Z</time></trkpt><trkpt lat="42.3211633" lon="12.7721933"><ele>562.5</ele><time>2026-04-04T08:45:20.041Z</time></trkpt><trkpt lat="42.3212717" lon="12.7721033"><ele>562.25</ele><time>2026-04-04T08:45:21.042Z</time></trkpt><trkpt lat="42.3213967" lon="12.7720267"><ele>562.0</ele><time>2026-04-04T08:45:22.04Z</time></trkpt><trkpt lat="42.3215283" lon="12.7719483"><ele>562.0</ele><time>2026-04-04T08:45:23.042Z</time></trkpt><trkpt lat="42.3216633" lon="12.7718733"><ele>562.0</ele><time>2026-04-04T08:45:24.04Z</time></trkpt><trkpt lat="42.321795" lon="12.771805"><ele>562.0</ele><time>2026-04-04T08:45:25.04Z</time></trkpt><trkpt lat="42.3219283" lon="12.7717367"><ele>562.0</ele><time>2026-04-04T08:45:26.041Z</time></trkpt><trkpt lat="42.32206" lon="12.7716683"><ele>562.5</ele><time>2026-04-04T08:45:27.041Z</time></trkpt><trkpt lat="42.3221833" lon="12.7715933"><ele>563.0</ele><time>2026-04-04T08:45:28.043Z</time></trkpt><trkpt lat="42.322305" lon="12.7715017"><ele>563.5</ele><time>2026-04-04T08:45:29.04Z</time></trkpt><trkpt lat="42.3224183" lon="12.7713867"><ele>564.0</ele><time>2026-04-04T08:45:30.041Z</time></trkpt><trkpt lat="42.3225083" lon="12.77124"><ele>564.0</ele><time>2026-04-04T08:45:31.041Z</time></trkpt><trkpt lat="42.322585" lon="12.7710767"><ele>564.0</ele><time>2026-04-04T08:45:32.04Z</time></trkpt><trkpt lat="42.3226533" lon="12.7709"><ele>564.0</ele><time>2026-04-04T08:45:33.043Z</time></trkpt><trkpt lat="42.3227233" lon="12.7707283"><ele>564.0</ele><time>2026-04-04T08:45:34.042Z</time></trkpt><trkpt lat="42.3228233" lon="12.7705717"><ele>559.0</ele><time>2026-04-04T08:45:35.043Z</time></trkpt><trkpt lat="42.322925" lon="12.7704117"><ele>554.0</ele><time>2026-04-04T08:45:36.042Z</time></trkpt><trkpt lat="42.3230617" lon="12.77028"><ele>549.0</ele><time>2026-04-04T08:45:37.04Z</time></trkpt><trkpt lat="42.3231983" lon="12.7701467"><ele>548.3333333333334</ele><time>2026-04-04T08:45:38.041Z</time></trkpt><trkpt lat="42.32332" lon="12.77001"><ele>547.6666666666667</ele><time>2026-04-04T08:45:39.044Z</time></trkpt><trkpt lat="42.3234667" lon="12.7698717"><ele>547.0</ele><time>2026-04-04T08:45:40.043Z</time></trkpt><trkpt lat="42.3236067" lon="12.7697383"><ele>547.0</ele><time>2026-04-04T08:45:41.042Z</time></trkpt><trkpt lat="42.3237417" lon="12.7695967"><ele>547.0</ele><time>2026-04-04T08:45:42.043Z</time></trkpt><trkpt lat="42.3238767" lon="12.7694533"><ele>547.0</ele><time>2026-04-04T08:45:43.043Z</time></trkpt><trkpt lat="42.32401" lon="12.7693133"><ele>545.6666666666667</ele><time>2026-04-04T08:45:44.042Z</time></trkpt><trkpt lat="42.3241433" lon="12.7691733"><ele>544.3333333333334</ele><time>2026-04-04T08:45:45.044Z</time></trkpt><trkpt lat="42.3242717" lon="12.76903"><ele>543.0</ele><time>2026-04-04T08:45:46.043Z</time></trkpt><trkpt lat="42.32439" lon="12.7688733"><ele>543.0</ele><time>2026-04-04T08:45:47.043Z</time></trkpt><trkpt lat="42.324505" lon="12.7687117"><ele>543.0</ele><time>2026-04-04T08:45:48.041Z</time></trkpt><trkpt lat="42.3246133" lon="12.768545"><ele>543.0</ele><time>2026-04-04T08:45:49.041Z</time></trkpt><trkpt lat="42.3247183" lon="12.768375"><ele>541.6666666666666</ele><time>2026-04-04T08:45:50.041Z</time></trkpt><trkpt lat="42.324825" lon="12.7682233"><ele>540.3333333333333</ele><time>2026-04-04T08:45:51.041Z</time></trkpt><trkpt lat="42.3249417" lon="12.7680967"><ele>539.0</ele><time>2026-04-04T08:45:52.04Z</time></trkpt><trkpt lat="42.3250767" lon="12.7680083"><ele>539.0</ele><time>2026-04-04T08:45:53.04Z</time></trkpt><trkpt lat="42.32522" lon="12.76794"><ele>539.0</ele><time>2026-04-04T08:45:54.042Z</time></trkpt><trkpt lat="42.3253667" lon="12.7679017"><ele>539.0</ele><time>2026-04-04T08:45:55.04Z</time></trkpt><trkpt lat="42.3255217" lon="12.76788"><ele>538.0</ele><time>2026-04-04T08:45:56.041Z</time></trkpt><trkpt lat="42.3256833" lon="12.7678883"><ele>537.0</ele><time>2026-04-04T08:45:57.041Z</time></trkpt><trkpt lat="42.325845" lon="12.7679117"><ele>536.0</ele><time>2026-04-04T08:45:58.04Z</time></trkpt><trkpt lat="42.3260067" lon="12.7679433"><ele>536.0</ele><time>2026-04-04T08:45:59.041Z</time></trkpt><trkpt lat="42.3261733" lon="12.7679733"><ele>536.0</ele><time>2026-04-04T08:46:00.043Z</time></trkpt><trkpt lat="42.326345" lon="12.76801"><ele>536.0</ele><time>2026-04-04T08:46:01.041Z</time></trkpt><trkpt lat="42.3265183" lon="12.7680483"><ele>534.0</ele><time>2026-04-04T08:46:02.041Z</time></trkpt><trkpt lat="42.326695" lon="12.768085"><ele>532.0</ele><time>2026-04-04T08:46:03.047Z</time></trkpt><trkpt lat="42.3268683" lon="12.7681183"><ele>530.0</ele><time>2026-04-04T08:46:04.04Z</time></trkpt><trkpt lat="42.3270433" lon="12.7681467"><ele>530.0</ele><time>2026-04-04T08:46:05.04Z</time></trkpt><trkpt lat="42.3272167" lon="12.7681783"><ele>530.0</ele><time>2026-04-04T08:46:06.041Z</time></trkpt><trkpt lat="42.3273833" lon="12.7682083"><ele>530.0</ele><time>2026-04-04T08:46:07.039Z</time></trkpt><trkpt lat="42.3275433" lon="12.7682317"><ele>529.5</ele><time>2026-04-04T08:46:08.04Z</time></trkpt><trkpt lat="42.327695" lon="12.768255"><ele>529.0</ele><time>2026-04-04T08:46:09.041Z</time></trkpt><trkpt lat="42.3278417" lon="12.7682783"><ele>528.5</ele><time>2026-04-04T08:46:10.04Z</time></trkpt><trkpt lat="42.327985" lon="12.7683067"><ele>528.0</ele><time>2026-04-04T08:46:11.041Z</time></trkpt><trkpt lat="42.3281233" lon="12.7683267"><ele>526.75</ele><time>2026-04-04T08:46:12.041Z</time></trkpt><trkpt lat="42.3282567" lon="12.768335"><ele>525.5</ele><time>2026-04-04T08:46:13.041Z</time></trkpt><trkpt lat="42.3283867" lon="12.7683417"><ele>524.25</ele><time>2026-04-04T08:46:14.041Z</time></trkpt><trkpt lat="42.328515" lon="12.7683367"><ele>523.0</ele><time>2026-04-04T08:46:15.041Z</time></trkpt><trkpt lat="42.3286367" lon="12.76833"><ele>523.0</ele><time>2026-04-04T08:46:16.04Z</time></trkpt><trkpt lat="42.3287467" lon="12.7683267"><ele>523.0</ele><time>2026-04-04T08:46:17.041Z</time></trkpt><trkpt lat="42.3288467" lon="12.7683233"><ele>523.0</ele><time>2026-04-04T08:46:18.041Z</time></trkpt><trkpt lat="42.3289317" lon="12.7683233"><ele>523.0</ele><time>2026-04-04T08:46:19.042Z</time></trkpt><trkpt lat="42.3290067" lon="12.7683217"><ele>523.0</ele><time>2026-04-04T08:46:20.041Z</time></trkpt><trkpt lat="42.32911" lon="12.7683233"><ele>523.0</ele><time>2026-04-04T08:46:22.04Z</time></trkpt><trkpt lat="42.3291983" lon="12.7683067"><ele>523.0</ele><time>2026-04-04T08:46:24.041Z</time></trkpt><trkpt lat="42.3293" lon="12.7683017"><ele>523.0</ele><time>2026-04-04T08:46:26.041Z</time></trkpt><trkpt lat="42.3294283" lon="12.76829"><ele>523.0</ele><time>2026-04-04T08:46:28.041Z</time></trkpt><trkpt lat="42.329505" lon="12.7682867"><ele>523.0</ele><time>2026-04-04T08:46:29.041Z</time></trkpt><trkpt lat="42.3295883" lon="12.76828"><ele>523.0</ele><time>2026-04-04T08:46:30.042Z</time></trkpt><trkpt lat="42.329685" lon="12.7682683"><ele>523.0</ele><time>2026-04-04T08:46:31.04Z</time></trkpt><trkpt lat="42.3297933" lon="12.768255"><ele>523.0</ele><time>2026-04-04T08:46:32.04Z</time></trkpt><trkpt lat="42.3299067" lon="12.7682433"><ele>523.0</ele><time>2026-04-04T08:46:33.041Z</time></trkpt><trkpt lat="42.330035" lon="12.7682383"><ele>523.0</ele><time>2026-04-04T08:46:34.042Z</time></trkpt><trkpt lat="42.330175" lon="12.7682317"><ele>522.0</ele><time>2026-04-04T08:46:35.04Z</time></trkpt><trkpt lat="42.3303217" lon="12.7682267"><ele>521.0</ele><time>2026-04-04T08:46:36.04Z</time></trkpt><trkpt lat="42.330465" lon="12.76822"><ele>520.0</ele><time>2026-04-04T08:46:37.04Z</time></trkpt><trkpt lat="42.3306133" lon="12.7682183"><ele>519.0</ele><time>2026-04-04T08:46:38.04Z</time></trkpt><trkpt lat="42.3307683" lon="12.768215"><ele>518.6666666666666</ele><time>2026-04-04T08:46:39.043Z</time></trkpt><trkpt lat="42.3309267" lon="12.7682217"><ele>518.3333333333333</ele><time>2026-04-04T08:46:40.04Z</time></trkpt><trkpt lat="42.3310883" lon="12.76825"><ele>518.0</ele><time>2026-04-04T08:46:41.041Z</time></trkpt><trkpt lat="42.331255" lon="12.7682883"><ele>518.6666666666666</ele><time>2026-04-04T08:46:42.04Z</time></trkpt><trkpt lat="42.3314233" lon="12.7683417"><ele>519.3333333333334</ele><time>2026-04-04T08:46:43.041Z</time></trkpt><trkpt lat="42.3315917" lon="12.7683933"><ele>520.0</ele><time>2026-04-04T08:46:44.042Z</time></trkpt><trkpt lat="42.3317633" lon="12.7684483"><ele>520.0</ele><time>2026-04-04T08:46:45.04Z</time></trkpt><trkpt lat="42.331935" lon="12.768505"><ele>520.0</ele><time>2026-04-04T08:46:46.041Z</time></trkpt><trkpt lat="42.3321133" lon="12.768565"><ele>520.0</ele><time>2026-04-04T08:46:47.041Z</time></trkpt><trkpt lat="42.3322983" lon="12.76862"><ele>515.6666666666667</ele><time>2026-04-04T08:46:48.041Z</time></trkpt><trkpt lat="42.3324817" lon="12.76867"><ele>511.33333333333337</ele><time>2026-04-04T08:46:49.039Z</time></trkpt><trkpt lat="42.3326717" lon="12.768725"><ele>507.0</ele><time>2026-04-04T08:46:50.041Z</time></trkpt><trkpt lat="42.3328617" lon="12.7687883"><ele>507.0</ele><time>2026-04-04T08:46:51.043Z</time></trkpt><trkpt lat="42.3330533" lon="12.7688483"><ele>507.0</ele><time>2026-04-04T08:46:52.041Z</time></trkpt><trkpt lat="42.3332467" lon="12.7689033"><ele>507.0</ele><time>2026-04-04T08:46:53.039Z</time></trkpt><trkpt lat="42.3334417" lon="12.7689633"><ele>507.0</ele><time>2026-04-04T08:46:54.047Z</time></trkpt><trkpt lat="42.33364" lon="12.76902"><ele>507.0</ele><time>2026-04-04T08:46:55.041Z</time></trkpt><trkpt lat="42.33384" lon="12.76908"><ele>507.0</ele><time>2026-04-04T08:46:56.042Z</time></trkpt><trkpt lat="42.3340417" lon="12.7691417"><ele>507.0</ele><time>2026-04-04T08:46:57.043Z</time></trkpt><trkpt lat="42.3342467" lon="12.7691983"><ele>507.0</ele><time>2026-04-04T08:46:58.04Z</time></trkpt><trkpt lat="42.3344417" lon="12.7692617"><ele>507.0</ele><time>2026-04-04T08:46:59.04Z</time></trkpt><trkpt lat="42.3346383" lon="12.7693217"><ele>503.33333333333337</ele><time>2026-04-04T08:47:00.041Z</time></trkpt><trkpt lat="42.334835" lon="12.769375"><ele>499.6666666666667</ele><time>2026-04-04T08:47:01.04Z</time></trkpt><trkpt lat="42.33503" lon="12.7694317"><ele>496.0</ele><time>2026-04-04T08:47:02.042Z</time></trkpt><trkpt lat="42.3352233" lon="12.7694917"><ele>496.0</ele><time>2026-04-04T08:47:03.041Z</time></trkpt><trkpt lat="42.3354117" lon="12.76955"><ele>496.0</ele><time>2026-04-04T08:47:04.039Z</time></trkpt><trkpt lat="42.3356033" lon="12.769605"><ele>496.0</ele><time>2026-04-04T08:47:05.042Z</time></trkpt><trkpt lat="42.335795" lon="12.7696617"><ele>496.0</ele><time>2026-04-04T08:47:06.041Z</time></trkpt><trkpt lat="42.3359833" lon="12.7697233"><ele>496.0</ele><time>2026-04-04T08:47:07.042Z</time></trkpt><trkpt lat="42.3361733" lon="12.7697817"><ele>496.0</ele><time>2026-04-04T08:47:08.041Z</time></trkpt><trkpt lat="42.33636" lon="12.7698417"><ele>495.6666666666667</ele><time>2026-04-04T08:47:09.043Z</time></trkpt><trkpt lat="42.3365517" lon="12.7699033"><ele>495.33333333333337</ele><time>2026-04-04T08:47:10.04Z</time></trkpt><trkpt lat="42.3367467" lon="12.7699683"><ele>495.0</ele><time>2026-04-04T08:47:11.04Z</time></trkpt><trkpt lat="42.3369433" lon="12.7700283"><ele>495.0</ele><time>2026-04-04T08:47:12.039Z</time></trkpt><trkpt lat="42.3371367" lon="12.7700967"><ele>495.0</ele><time>2026-04-04T08:47:13.043Z</time></trkpt><trkpt lat="42.3373267" lon="12.7701617"><ele>495.0</ele><time>2026-04-04T08:47:14.043Z</time></trkpt><trkpt lat="42.3375167" lon="12.7702317"><ele>494.0</ele><time>2026-04-04T08:47:15.041Z</time></trkpt><trkpt lat="42.33771" lon="12.770295"><ele>493.0</ele><time>2026-04-04T08:47:16.041Z</time></trkpt><trkpt lat="42.3379067" lon="12.7703533"><ele>492.0</ele><time>2026-04-04T08:47:17.044Z</time></trkpt><trkpt lat="42.3380983" lon="12.77041"><ele>490.66666666666663</ele><time>2026-04-04T08:47:18.04Z</time></trkpt><trkpt lat="42.33829" lon="12.770465"><ele>489.3333333333333</ele><time>2026-04-04T08:47:19.041Z</time></trkpt><trkpt lat="42.338475" lon="12.77052"><ele>488.0</ele><time>2026-04-04T08:47:20.041Z</time></trkpt><trkpt lat="42.338655" lon="12.7705767"><ele>488.0</ele><time>2026-04-04T08:47:21.041Z</time></trkpt><trkpt lat="42.3388417" lon="12.77063"><ele>488.0</ele><time>2026-04-04T08:47:22.041Z</time></trkpt><trkpt lat="42.3390267" lon="12.7706883"><ele>488.0</ele><time>2026-04-04T08:47:23.04Z</time></trkpt><trkpt lat="42.3392083" lon="12.7707517"><ele>488.3333333333333</ele><time>2026-04-04T08:47:24.041Z</time></trkpt><trkpt lat="42.3393933" lon="12.770815"><ele>488.66666666666663</ele><time>2026-04-04T08:47:25.04Z</time></trkpt><trkpt lat="42.339575" lon="12.7708917"><ele>489.0</ele><time>2026-04-04T08:47:26.041Z</time></trkpt><trkpt lat="42.3397517" lon="12.7709917"><ele>486.66666666666663</ele><time>2026-04-04T08:47:27.041Z</time></trkpt><trkpt lat="42.3399233" lon="12.7710917"><ele>484.3333333333333</ele><time>2026-04-04T08:47:28.039Z</time></trkpt><trkpt lat="42.34008" lon="12.771215"><ele>482.0</ele><time>2026-04-04T08:47:29.04Z</time></trkpt><trkpt lat="42.34024" lon="12.771345"><ele>482.0</ele><time>2026-04-04T08:47:30.041Z</time></trkpt><trkpt lat="42.3403917" lon="12.7715033"><ele>482.0</ele><time>2026-04-04T08:47:31.041Z</time></trkpt><trkpt lat="42.340535" lon="12.7716817"><ele>482.0</ele><time>2026-04-04T08:47:32.041Z</time></trkpt><trkpt lat="42.3406817" lon="12.7718583"><ele>482.0</ele><time>2026-04-04T08:47:33.042Z</time></trkpt><trkpt lat="42.3408233" lon="12.7720333"><ele>482.0</ele><time>2026-04-04T08:47:34.04Z</time></trkpt><trkpt lat="42.3409633" lon="12.77221"><ele>482.0</ele><time>2026-04-04T08:47:35.045Z</time></trkpt><trkpt lat="42.341105" lon="12.7723867"><ele>482.0</ele><time>2026-04-04T08:47:36.04Z</time></trkpt><trkpt lat="42.3412433" lon="12.772565"><ele>482.0</ele><time>2026-04-04T08:47:37.04Z</time></trkpt><trkpt lat="42.3413833" lon="12.7727383"><ele>482.0</ele><time>2026-04-04T08:47:38.04Z</time></trkpt><trkpt lat="42.3415217" lon="12.772905"><ele>481.3333333333333</ele><time>2026-04-04T08:47:39.04Z</time></trkpt><trkpt lat="42.341655" lon="12.7730717"><ele>480.66666666666663</ele><time>2026-04-04T08:47:40.041Z</time></trkpt><trkpt lat="42.3417833" lon="12.7732283"><ele>480.0</ele><time>2026-04-04T08:47:41.041Z</time></trkpt><trkpt lat="42.3419067" lon="12.7733767"><ele>480.0</ele><time>2026-04-04T08:47:42.041Z</time></trkpt><trkpt lat="42.342035" lon="12.773515"><ele>480.0</ele><time>2026-04-04T08:47:43.04Z</time></trkpt><trkpt lat="42.3421733" lon="12.773645"><ele>480.0</ele><time>2026-04-04T08:47:44.042Z</time></trkpt><trkpt lat="42.34233" lon="12.7737533"><ele>479.33333333333337</ele><time>2026-04-04T08:47:45.04Z</time></trkpt><trkpt lat="42.3424983" lon="12.773845"><ele>478.6666666666667</ele><time>2026-04-04T08:47:46.04Z</time></trkpt><trkpt lat="42.3426633" lon="12.7739317"><ele>478.0</ele><time>2026-04-04T08:47:47.04Z</time></trkpt><trkpt lat="42.34283" lon="12.7740183"><ele>478.0</ele><time>2026-04-04T08:47:48.042Z</time></trkpt><trkpt lat="42.3429967" lon="12.774115"><ele>478.0</ele><time>2026-04-04T08:47:49.043Z</time></trkpt><trkpt lat="42.34315" lon="12.7742333"><ele>478.0</ele><time>2026-04-04T08:47:50.042Z</time></trkpt><trkpt lat="42.3432983" lon="12.774375"><ele>477.0</ele><time>2026-04-04T08:47:51.042Z</time></trkpt><trkpt lat="42.3434283" lon="12.7745467"><ele>476.0</ele><time>2026-04-04T08:47:52.043Z</time></trkpt><trkpt lat="42.34355" lon="12.7747217"><ele>475.0</ele><time>2026-04-04T08:47:53.039Z</time></trkpt><trkpt lat="42.3436567" lon="12.7749033"><ele>475.0</ele><time>2026-04-04T08:47:54.041Z</time></trkpt><trkpt lat="42.34377" lon="12.7750683"><ele>475.0</ele><time>2026-04-04T08:47:55.042Z</time></trkpt><trkpt lat="42.34388" lon="12.7752117"><ele>475.0</ele><time>2026-04-04T08:47:56.04Z</time></trkpt><trkpt lat="42.3440033" lon="12.7753333"><ele>473.33333333333337</ele><time>2026-04-04T08:47:57.041Z</time></trkpt><trkpt lat="42.34415" lon="12.77544"><ele>471.66666666666663</ele><time>2026-04-04T08:47:58.039Z</time></trkpt><trkpt lat="42.3443117" lon="12.775525"><ele>470.0</ele><time>2026-04-04T08:47:59.04Z</time></trkpt><trkpt lat="42.344475" lon="12.7755967"><ele>470.0</ele><time>2026-04-04T08:48:00.041Z</time></trkpt><trkpt lat="42.3446333" lon="12.77567"><ele>470.0</ele><time>2026-04-04T08:48:01.041Z</time></trkpt><trkpt lat="42.3447967" lon="12.7757367"><ele>470.0</ele><time>2026-04-04T08:48:02.042Z</time></trkpt><trkpt lat="42.344965" lon="12.7757833"><ele>470.0</ele><time>2026-04-04T08:48:03.046Z</time></trkpt><trkpt lat="42.345145" lon="12.7758"><ele>470.0</ele><time>2026-04-04T08:48:04.042Z</time></trkpt><trkpt lat="42.34532" lon="12.7758017"><ele>470.0</ele><time>2026-04-04T08:48:05.041Z</time></trkpt><trkpt lat="42.3454933" lon="12.7757917"><ele>469.3333333333333</ele><time>2026-04-04T08:48:06.041Z</time></trkpt><trkpt lat="42.3456667" lon="12.7757783"><ele>468.66666666666663</ele><time>2026-04-04T08:48:07.041Z</time></trkpt><trkpt lat="42.34584" lon="12.7757733"><ele>468.0</ele><time>2026-04-04T08:48:08.043Z</time></trkpt><trkpt lat="42.3460167" lon="12.7757683"><ele>468.0</ele><time>2026-04-04T08:48:09.043Z</time></trkpt><trkpt lat="42.34619" lon="12.7757617"><ele>468.0</ele><time>2026-04-04T08:48:10.04Z</time></trkpt><trkpt lat="42.3463633" lon="12.7757533"><ele>468.0</ele><time>2026-04-04T08:48:11.041Z</time></trkpt><trkpt lat="42.3465333" lon="12.7757433"><ele>468.33333333333337</ele><time>2026-04-04T08:48:12.04Z</time></trkpt><trkpt lat="42.3467067" lon="12.77573"><ele>468.6666666666667</ele><time>2026-04-04T08:48:13.04Z</time></trkpt><trkpt lat="42.34688" lon="12.7757233"><ele>469.0</ele><time>2026-04-04T08:48:14.042Z</time></trkpt><trkpt lat="42.3470617" lon="12.7757083"><ele>467.6666666666667</ele><time>2026-04-04T08:48:15.041Z</time></trkpt><trkpt lat="42.34724" lon="12.775695"><ele>466.33333333333337</ele><time>2026-04-04T08:48:16.04Z</time></trkpt><trkpt lat="42.3474167" lon="12.7756833"><ele>465.0</ele><time>2026-04-04T08:48:17.042Z</time></trkpt><trkpt lat="42.3475867" lon="12.7756733"><ele>465.0</ele><time>2026-04-04T08:48:18.042Z</time></trkpt><trkpt lat="42.3477483" lon="12.7756683"><ele>465.0</ele><time>2026-04-04T08:48:19.041Z</time></trkpt><trkpt lat="42.34791" lon="12.7756717"><ele>465.0</ele><time>2026-04-04T08:48:20.041Z</time></trkpt><trkpt lat="42.3480683" lon="12.775685"><ele>464.0</ele><time>2026-04-04T08:48:21.042Z</time></trkpt><trkpt lat="42.348225" lon="12.7757067"><ele>463.0</ele><time>2026-04-04T08:48:22.041Z</time></trkpt><trkpt lat="42.34838" lon="12.7757383"><ele>462.0</ele><time>2026-04-04T08:48:23.042Z</time></trkpt><trkpt lat="42.3485233" lon="12.77579"><ele>462.0</ele><time>2026-04-04T08:48:24.041Z</time></trkpt><trkpt lat="42.348655" lon="12.775855"><ele>462.0</ele><time>2026-04-04T08:48:25.043Z</time></trkpt><trkpt lat="42.34879" lon="12.7759267"><ele>462.0</ele><time>2026-04-04T08:48:26.041Z</time></trkpt><trkpt lat="42.348915" lon="12.776025"><ele>462.0</ele><time>2026-04-04T08:48:27.041Z</time></trkpt><trkpt lat="42.34905" lon="12.7760983"><ele>460.5</ele><time>2026-04-04T08:48:28.04Z</time></trkpt><trkpt lat="42.349175" lon="12.7761767"><ele>459.0</ele><time>2026-04-04T08:48:29.042Z</time></trkpt><trkpt lat="42.349295" lon="12.7762533"><ele>457.5</ele><time>2026-04-04T08:48:30.042Z</time></trkpt><trkpt lat="42.3494133" lon="12.77633"><ele>456.0</ele><time>2026-04-04T08:48:31.04Z</time></trkpt><trkpt lat="42.3495283" lon="12.7764"><ele>456.0</ele><time>2026-04-04T08:48:32.041Z</time></trkpt><trkpt lat="42.349635" lon="12.7764633"><ele>456.0</ele><time>2026-04-04T08:48:33.042Z</time></trkpt><trkpt lat="42.3497233" lon="12.7765133"><ele>456.0</ele><time>2026-04-04T08:48:34.041Z</time></trkpt><trkpt lat="42.3497983" lon="12.77656"><ele>456.0</ele><time>2026-04-04T08:48:35.04Z</time></trkpt><trkpt lat="42.3498567" lon="12.7766"><ele>456.0</ele><time>2026-04-04T08:48:36.041Z</time></trkpt><trkpt lat="42.349915" lon="12.7766867"><ele>456.0</ele><time>2026-04-04T08:48:38.046Z</time></trkpt><trkpt lat="42.3499183" lon="12.7768017"><ele>456.20000000000005</ele><time>2026-04-04T08:48:40.04Z</time></trkpt><trkpt lat="42.349875" lon="12.7769633"><ele>456.40000000000003</ele><time>2026-04-04T08:48:42.041Z</time></trkpt><trkpt lat="42.3498317" lon="12.7770483"><ele>456.6</ele><time>2026-04-04T08:48:43.04Z</time></trkpt><trkpt lat="42.3497833" lon="12.7771367"><ele>456.8</ele><time>2026-04-04T08:48:44.041Z</time></trkpt><trkpt lat="42.3497183" lon="12.7772183"><ele>457.0</ele><time>2026-04-04T08:48:45.04Z</time></trkpt><trkpt lat="42.3496417" lon="12.777295"><ele>457.0</ele><time>2026-04-04T08:48:46.04Z</time></trkpt><trkpt lat="42.34957" lon="12.7773717"><ele>457.00000000000006</ele><time>2026-04-04T08:48:47.042Z</time></trkpt><trkpt lat="42.3495033" lon="12.7774533"><ele>457.00000000000006</ele><time>2026-04-04T08:48:48.04Z</time></trkpt><trkpt lat="42.349445" lon="12.7775467"><ele>457.0</ele><time>2026-04-04T08:48:49.04Z</time></trkpt><trkpt lat="42.3493967" lon="12.7776533"><ele>457.0</ele><time>2026-04-04T08:48:50.041Z</time></trkpt><trkpt lat="42.3493517" lon="12.77776"><ele>457.6</ele><time>2026-04-04T08:48:51.045Z</time></trkpt><trkpt lat="42.3493083" lon="12.7778617"><ele>458.20000000000005</ele><time>2026-04-04T08:48:52.04Z</time></trkpt><trkpt lat="42.349255" lon="12.77795"><ele>458.8</ele><time>2026-04-04T08:48:53.043Z</time></trkpt><trkpt lat="42.349185" lon="12.7780117"><ele>459.4</ele><time>2026-04-04T08:48:54.042Z</time></trkpt><trkpt lat="42.3490933" lon="12.7780567"><ele>460.0</ele><time>2026-04-04T08:48:55.039Z</time></trkpt><trkpt lat="42.3489867" lon="12.7780967"><ele>461.25</ele><time>2026-04-04T08:48:56.039Z</time></trkpt><trkpt lat="42.3488717" lon="12.778135"><ele>462.5</ele><time>2026-04-04T08:48:57.04Z</time></trkpt><trkpt lat="42.3487633" lon="12.778195"><ele>463.75</ele><time>2026-04-04T08:48:58.039Z</time></trkpt><trkpt lat="42.3486583" lon="12.778275"><ele>465.0</ele><time>2026-04-04T08:48:59.04Z</time></trkpt><trkpt lat="42.3485583" lon="12.7783817"><ele>465.0</ele><time>2026-04-04T08:49:00.04Z</time></trkpt><trkpt lat="42.3484567" lon="12.7785033"><ele>465.0</ele><time>2026-04-04T08:49:01.039Z</time></trkpt><trkpt lat="42.3483583" lon="12.778625"><ele>465.0</ele><time>2026-04-04T08:49:02.041Z</time></trkpt><trkpt lat="42.348255" lon="12.7787433"><ele>465.0</ele><time>2026-04-04T08:49:03.041Z</time></trkpt><trkpt lat="42.3481467" lon="12.778865"><ele>467.0</ele><time>2026-04-04T08:49:04.039Z</time></trkpt><trkpt lat="42.3480367" lon="12.7790067"><ele>469.0</ele><time>2026-04-04T08:49:05.041Z</time></trkpt><trkpt lat="42.3479317" lon="12.7791567"><ele>471.0</ele><time>2026-04-04T08:49:06.042Z</time></trkpt><trkpt lat="42.3478317" lon="12.7793117"><ele>470.0</ele><time>2026-04-04T08:49:07.04Z</time></trkpt><trkpt lat="42.3477333" lon="12.7794783"><ele>469.0</ele><time>2026-04-04T08:49:08.041Z</time></trkpt><trkpt lat="42.3476333" lon="12.77965"><ele>468.0</ele><time>2026-04-04T08:49:09.041Z</time></trkpt><trkpt lat="42.347535" lon="12.77983"><ele>468.0</ele><time>2026-04-04T08:49:10.044Z</time></trkpt><trkpt lat="42.347435" lon="12.78"><ele>468.0</ele><time>2026-04-04T08:49:11.043Z</time></trkpt><trkpt lat="42.347335" lon="12.7801683"><ele>468.0</ele><time>2026-04-04T08:49:12.04Z</time></trkpt><trkpt lat="42.34724" lon="12.7803317"><ele>469.0</ele><time>2026-04-04T08:49:13.04Z</time></trkpt><trkpt lat="42.34715" lon="12.7804933"><ele>470.0</ele><time>2026-04-04T08:49:14.046Z</time></trkpt><trkpt lat="42.347065" lon="12.7806567"><ele>471.0</ele><time>2026-04-04T08:49:15.041Z</time></trkpt><trkpt lat="42.346985" lon="12.780815"><ele>472.0</ele><time>2026-04-04T08:49:16.04Z</time></trkpt><trkpt lat="42.3469083" lon="12.7809633"><ele>472.25</ele><time>2026-04-04T08:49:17.04Z</time></trkpt><trkpt lat="42.3468333" lon="12.7810917"><ele>472.5</ele><time>2026-04-04T08:49:18.041Z</time></trkpt><trkpt lat="42.3467517" lon="12.7811967"><ele>472.75</ele><time>2026-04-04T08:49:19.041Z</time></trkpt><trkpt lat="42.3466467" lon="12.7812783"><ele>473.0</ele><time>2026-04-04T08:49:20.042Z</time></trkpt><trkpt lat="42.3465317" lon="12.78135"><ele>473.0</ele><time>2026-04-04T08:49:21.041Z</time></trkpt><trkpt lat="42.3464067" lon="12.7814183"><ele>473.0</ele><time>2026-04-04T08:49:22.039Z</time></trkpt><trkpt lat="42.3462783" lon="12.7814967"><ele>473.0</ele><time>2026-04-04T08:49:23.04Z</time></trkpt><trkpt lat="42.3461617" lon="12.7815933"><ele>473.0</ele><time>2026-04-04T08:49:24.041Z</time></trkpt><trkpt lat="42.3460467" lon="12.7817033"><ele>472.75</ele><time>2026-04-04T08:49:25.04Z</time></trkpt><trkpt lat="42.3459317" lon="12.7818"><ele>472.5</ele><time>2026-04-04T08:49:26.04Z</time></trkpt><trkpt lat="42.3458083" lon="12.781885"><ele>472.25</ele><time>2026-04-04T08:49:27.041Z</time></trkpt><trkpt lat="42.3456817" lon="12.7819733"><ele>472.0</ele><time>2026-04-04T08:49:28.039Z</time></trkpt><trkpt lat="42.3455567" lon="12.7820733"><ele>472.75</ele><time>2026-04-04T08:49:29.041Z</time></trkpt><trkpt lat="42.345435" lon="12.78219"><ele>473.5</ele><time>2026-04-04T08:49:30.041Z</time></trkpt><trkpt lat="42.345325" lon="12.7823217"><ele>474.25</ele><time>2026-04-04T08:49:31.04Z</time></trkpt><trkpt lat="42.34522" lon="12.7824683"><ele>475.0</ele><time>2026-04-04T08:49:32.041Z</time></trkpt><trkpt lat="42.34513" lon="12.7826217"><ele>475.0</ele><time>2026-04-04T08:49:33.045Z</time></trkpt><trkpt lat="42.345045" lon="12.7827717"><ele>475.0</ele><time>2026-04-04T08:49:34.043Z</time></trkpt><trkpt lat="42.34496" lon="12.78291"><ele>475.0</ele><time>2026-04-04T08:49:35.042Z</time></trkpt><trkpt lat="42.3448767" lon="12.7830383"><ele>475.0</ele><time>2026-04-04T08:49:36.042Z</time></trkpt><trkpt lat="42.3447983" lon="12.7831583"><ele>475.0</ele><time>2026-04-04T08:49:37.043Z</time></trkpt><trkpt lat="42.3447317" lon="12.783275"><ele>475.0</ele><time>2026-04-04T08:49:38.041Z</time></trkpt><trkpt lat="42.3446817" lon="12.7834"><ele>475.0</ele><time>2026-04-04T08:49:39.042Z</time></trkpt><trkpt lat="42.3446567" lon="12.7835417"><ele>475.0</ele><time>2026-04-04T08:49:40.041Z</time></trkpt><trkpt lat="42.3446533" lon="12.7836917"><ele>475.0</ele><time>2026-04-04T08:49:41.042Z</time></trkpt><trkpt lat="42.3446633" lon="12.7838417"><ele>475.6</ele><time>2026-04-04T08:49:42.042Z</time></trkpt><trkpt lat="42.3446867" lon="12.7839867"><ele>476.2</ele><time>2026-04-04T08:49:43.042Z</time></trkpt><trkpt lat="42.34472" lon="12.784125"><ele>476.79999999999995</ele><time>2026-04-04T08:49:44.05Z</time></trkpt><trkpt lat="42.3447567" lon="12.7842567"><ele>477.4</ele><time>2026-04-04T08:49:45.042Z</time></trkpt><trkpt lat="42.3448" lon="12.7843817"><ele>478.0</ele><time>2026-04-04T08:49:46.043Z</time></trkpt><trkpt lat="42.3448417" lon="12.7845133"><ele>478.6666666666667</ele><time>2026-04-04T08:49:47.043Z</time></trkpt><trkpt lat="42.3448583" lon="12.7846383"><ele>479.33333333333337</ele><time>2026-04-04T08:49:48.042Z</time></trkpt><trkpt lat="42.34487" lon="12.7847533"><ele>480.0</ele><time>2026-04-04T08:49:49.04Z</time></trkpt><trkpt lat="42.3448733" lon="12.7848583"><ele>480.66666666666663</ele><time>2026-04-04T08:49:50.042Z</time></trkpt><trkpt lat="42.3448667" lon="12.784945"><ele>481.3333333333333</ele><time>2026-04-04T08:49:51.04Z</time></trkpt><trkpt lat="42.34484" lon="12.7850467"><ele>482.0</ele><time>2026-04-04T08:49:53.044Z</time></trkpt><trkpt lat="42.3447633" lon="12.78506"><ele>482.8</ele><time>2026-04-04T08:49:55.04Z</time></trkpt><trkpt lat="42.344675" lon="12.78499"><ele>483.6</ele><time>2026-04-04T08:49:57.04Z</time></trkpt><trkpt lat="42.3445717" lon="12.784895"><ele>484.40000000000003</ele><time>2026-04-04T08:49:59.041Z</time></trkpt><trkpt lat="42.3445133" lon="12.784855"><ele>485.20000000000005</ele><time>2026-04-04T08:50:00.041Z</time></trkpt><trkpt lat="42.344455" lon="12.784815"><ele>486.0</ele><time>2026-04-04T08:50:01.04Z</time></trkpt><trkpt lat="42.3443517" lon="12.7847833"><ele>486.0</ele><time>2026-04-04T08:50:03.04Z</time></trkpt><trkpt lat="42.3442683" lon="12.78481"><ele>486.0</ele><time>2026-04-04T08:50:05.041Z</time></trkpt><trkpt lat="42.3442067" lon="12.7848617"><ele>486.0</ele><time>2026-04-04T08:50:07.041Z</time></trkpt><trkpt lat="42.34415" lon="12.7849233"><ele>486.0</ele><time>2026-04-04T08:50:09.041Z</time></trkpt><trkpt lat="42.3440683" lon="12.7849817"><ele>486.0</ele><time>2026-04-04T08:50:12.041Z</time></trkpt><trkpt lat="42.343975" lon="12.7850467"><ele>486.0</ele><time>2026-04-04T08:50:14.04Z</time></trkpt><trkpt lat="42.3438567" lon="12.785105"><ele>485.8333333333333</ele><time>2026-04-04T08:50:16.039Z</time></trkpt><trkpt lat="42.3437767" lon="12.7851217"><ele>485.66666666666663</ele><time>2026-04-04T08:50:17.041Z</time></trkpt><trkpt lat="42.3436883" lon="12.7851467"><ele>485.5</ele><time>2026-04-04T08:50:18.042Z</time></trkpt><trkpt lat="42.3435983" lon="12.7851667"><ele>485.3333333333333</ele><time>2026-04-04T08:50:19.04Z</time></trkpt><trkpt lat="42.3435117" lon="12.7851833"><ele>485.16666666666663</ele><time>2026-04-04T08:50:20.041Z</time></trkpt><trkpt lat="42.3434333" lon="12.7851983"><ele>485.0</ele><time>2026-04-04T08:50:21.04Z</time></trkpt><trkpt lat="42.3433683" lon="12.7852117"><ele>487.4</ele><time>2026-04-04T08:50:22.04Z</time></trkpt><trkpt lat="42.34326" lon="12.7852433"><ele>489.8</ele><time>2026-04-04T08:50:24.044Z</time></trkpt><trkpt lat="42.3431683" lon="12.7852683"><ele>492.20000000000005</ele><time>2026-04-04T08:50:26.041Z</time></trkpt><trkpt lat="42.3430667" lon="12.7853183"><ele>494.6</ele><time>2026-04-04T08:50:28.039Z</time></trkpt><trkpt lat="42.3429883" lon="12.7853917"><ele>497.0</ele><time>2026-04-04T08:50:30.041Z</time></trkpt><trkpt lat="42.3429333" lon="12.785495"><ele>496.99999999999994</ele><time>2026-04-04T08:50:32.041Z</time></trkpt><trkpt lat="42.3428917" lon="12.785585"><ele>497.0</ele><time>2026-04-04T08:50:34.039Z</time></trkpt><trkpt lat="42.34285" lon="12.7856783"><ele>497.0</ele><time>2026-04-04T08:50:36.042Z</time></trkpt><trkpt lat="42.3427967" lon="12.78576"><ele>497.0</ele><time>2026-04-04T08:51:32.04Z</time></trkpt><trkpt lat="42.34271" lon="12.7857667"><ele>496.99999999999994</ele><time>2026-04-04T08:51:34.04Z</time></trkpt><trkpt lat="42.3425883" lon="12.7857517"><ele>497.0</ele><time>2026-04-04T08:51:36.044Z</time></trkpt><trkpt lat="42.342525" lon="12.7857383"><ele>496.99999999999994</ele><time>2026-04-04T08:51:37.04Z</time></trkpt><trkpt lat="42.34246" lon="12.7857183"><ele>497.0</ele><time>2026-04-04T08:51:38.04Z</time></trkpt><trkpt lat="42.3423867" lon="12.78569"><ele>497.0</ele><time>2026-04-04T08:51:39.041Z</time></trkpt><trkpt lat="42.342315" lon="12.785645"><ele>497.0</ele><time>2026-04-04T08:51:40.04Z</time></trkpt><trkpt lat="42.3422417" lon="12.7856117"><ele>496.99999999999994</ele><time>2026-04-04T08:51:41.041Z</time></trkpt><trkpt lat="42.3421783" lon="12.785595"><ele>497.0</ele><time>2026-04-04T08:51:42.04Z</time></trkpt><trkpt lat="42.3420633" lon="12.78561"><ele>496.0</ele><time>2026-04-04T08:51:44.04Z</time></trkpt><trkpt lat="42.34196" lon="12.78566"><ele>495.00000000000006</ele><time>2026-04-04T08:51:46.04Z</time></trkpt><trkpt lat="42.3418983" lon="12.7857083"><ele>494.00000000000006</ele><time>2026-04-04T08:51:48.042Z</time></trkpt><trkpt lat="42.341835" lon="12.78585"><ele>493.0</ele><time>2026-04-04T08:53:39.041Z</time></trkpt><trkpt lat="42.34177" lon="12.785875"><ele>492.0</ele><time>2026-04-04T08:53:41.041Z</time></trkpt><trkpt lat="42.34168" lon="12.7859183"><ele>492.0</ele><time>2026-04-04T08:53:43.04Z</time></trkpt><trkpt lat="42.34157" lon="12.785975"><ele>492.0</ele><time>2026-04-04T08:53:45.04Z</time></trkpt><trkpt lat="42.341495" lon="12.7860133"><ele>492.0</ele><time>2026-04-04T08:53:46.04Z</time></trkpt><trkpt lat="42.3414133" lon="12.786075"><ele>492.0</ele><time>2026-04-04T08:53:47.04Z</time></trkpt><trkpt lat="42.34135" lon="12.78611"><ele>492.0</ele><time>2026-04-04T08:53:48.041Z</time></trkpt><trkpt lat="42.3412883" lon="12.7861533"><ele>492.0</ele><time>2026-04-04T08:53:49.041Z</time></trkpt><trkpt lat="42.3411967" lon="12.786215"><ele>493.3333333333333</ele><time>2026-04-04T08:53:50.042Z</time></trkpt><trkpt lat="42.3411183" lon="12.7862633"><ele>494.66666666666663</ele><time>2026-04-04T08:53:51.04Z</time></trkpt><trkpt lat="42.3410417" lon="12.7863267"><ele>496.0</ele><time>2026-04-04T08:53:52.04Z</time></trkpt><trkpt lat="42.340985" lon="12.7863683"><ele>497.3333333333333</ele><time>2026-04-04T08:53:53.04Z</time></trkpt><trkpt lat="42.3409183" lon="12.786435"><ele>498.66666666666663</ele><time>2026-04-04T08:53:54.041Z</time></trkpt><trkpt lat="42.34086" lon="12.7864883"><ele>500.0</ele><time>2026-04-04T08:53:55.04Z</time></trkpt><trkpt lat="42.340785" lon="12.78662"><ele>500.0</ele><time>2026-04-04T08:53:57.041Z</time></trkpt><trkpt lat="42.34072" lon="12.7867667"><ele>500.0</ele><time>2026-04-04T08:53:59.04Z</time></trkpt><trkpt lat="42.340685" lon="12.7868433"><ele>500.0</ele><time>2026-04-04T08:54:00.04Z</time></trkpt><trkpt lat="42.3406317" lon="12.7869917"><ele>500.0</ele><time>2026-04-04T08:54:02.04Z</time></trkpt><trkpt lat="42.340585" lon="12.7871433"><ele>500.0</ele><time>2026-04-04T08:54:04.039Z</time></trkpt><trkpt lat="42.3405667" lon="12.7872283"><ele>501.16666666666663</ele><time>2026-04-04T08:54:05.04Z</time></trkpt><trkpt lat="42.3405533" lon="12.78732"><ele>502.3333333333333</ele><time>2026-04-04T08:54:06.04Z</time></trkpt><trkpt lat="42.34053" lon="12.7874067"><ele>503.5</ele><time>2026-04-04T08:54:07.04Z</time></trkpt><trkpt lat="42.3405133" lon="12.787495"><ele>504.66666666666663</ele><time>2026-04-04T08:54:08.041Z</time></trkpt><trkpt lat="42.3404983" lon="12.7875817"><ele>505.8333333333333</ele><time>2026-04-04T08:54:09.041Z</time></trkpt><trkpt lat="42.34047" lon="12.7876617"><ele>507.0</ele><time>2026-04-04T08:54:10.039Z</time></trkpt><trkpt lat="42.3403983" lon="12.7877983"><ele>507.0</ele><time>2026-04-04T08:54:12.04Z</time></trkpt><trkpt lat="42.3403317" lon="12.7879267"><ele>507.00000000000006</ele><time>2026-04-04T08:54:14.041Z</time></trkpt><trkpt lat="42.340275" lon="12.7880767"><ele>507.00000000000006</ele><time>2026-04-04T08:54:16.04Z</time></trkpt><trkpt lat="42.3402433" lon="12.78816"><ele>507.0</ele><time>2026-04-04T08:54:17.041Z</time></trkpt><trkpt lat="42.34019" lon="12.7882917"><ele>507.0</ele><time>2026-04-04T08:54:19.04Z</time></trkpt><trkpt lat="42.3401017" lon="12.7883983"><ele>507.0</ele><time>2026-04-04T08:54:21.04Z</time></trkpt><trkpt lat="42.3399917" lon="12.7884817"><ele>507.0</ele><time>2026-04-04T08:54:23.04Z</time></trkpt><trkpt lat="42.3398967" lon="12.7885667"><ele>507.0</ele><time>2026-04-04T08:54:25.04Z</time></trkpt><trkpt lat="42.3397967" lon="12.7886333"><ele>507.0</ele><time>2026-04-04T08:54:27.041Z</time></trkpt><trkpt lat="42.33969" lon="12.7886717"><ele>509.0</ele><time>2026-04-04T08:54:29.04Z</time></trkpt><trkpt lat="42.3395883" lon="12.7886833"><ele>511.00000000000006</ele><time>2026-04-04T08:54:31.04Z</time></trkpt><trkpt lat="42.33947" lon="12.7887083"><ele>513.0</ele><time>2026-04-04T08:54:33.041Z</time></trkpt><trkpt lat="42.33937" lon="12.788755"><ele>515.0</ele><time>2026-04-04T08:54:35.041Z</time></trkpt><trkpt lat="42.3393083" lon="12.7888183"><ele>517.0</ele><time>2026-04-04T08:54:37.04Z</time></trkpt><trkpt lat="42.3392683" lon="12.7889183"><ele>517.0</ele><time>2026-04-04T08:54:39.041Z</time></trkpt><trkpt lat="42.3392133" lon="12.7890583"><ele>517.0</ele><time>2026-04-04T08:54:41.04Z</time></trkpt><trkpt lat="42.339185" lon="12.7892033"><ele>517.0</ele><time>2026-04-04T08:54:43.04Z</time></trkpt><trkpt lat="42.3391667" lon="12.78933"><ele>517.0</ele><time>2026-04-04T08:54:45.041Z</time></trkpt><trkpt lat="42.339135" lon="12.789445"><ele>517.0</ele><time>2026-04-04T08:54:47.04Z</time></trkpt><trkpt lat="42.3390817" lon="12.7895533"><ele>518.8333333333334</ele><time>2026-04-04T08:54:49.039Z</time></trkpt><trkpt lat="42.3390067" lon="12.78965"><ele>520.6666666666667</ele><time>2026-04-04T08:54:51.04Z</time></trkpt><trkpt lat="42.338935" lon="12.7897083"><ele>522.5</ele><time>2026-04-04T08:54:53.041Z</time></trkpt><trkpt lat="42.3388533" lon="12.78975"><ele>524.3333333333334</ele><time>2026-04-04T08:54:55.039Z</time></trkpt><trkpt lat="42.338775" lon="12.7897467"><ele>526.1666666666666</ele><time>2026-04-04T08:54:57.04Z</time></trkpt><trkpt lat="42.338685" lon="12.7897317"><ele>528.0</ele><time>2026-04-04T08:54:59.04Z</time></trkpt><trkpt lat="42.3386133" lon="12.78974"><ele>528.6</ele><time>2026-04-04T08:55:01.04Z</time></trkpt><trkpt lat="42.3385533" lon="12.7897917"><ele>529.1999999999999</ele><time>2026-04-04T08:55:03.04Z</time></trkpt><trkpt lat="42.3385183" lon="12.7898867"><ele>529.8</ele><time>2026-04-04T08:55:05.041Z</time></trkpt><trkpt lat="42.3385" lon="12.7900267"><ele>530.4</ele><time>2026-04-04T08:55:07.04Z</time></trkpt><trkpt lat="42.3384717" lon="12.790155"><ele>531.0</ele><time>2026-04-04T08:55:09.041Z</time></trkpt><trkpt lat="42.3384467" lon="12.7902967"><ele>531.0</ele><time>2026-04-04T08:55:11.041Z</time></trkpt><trkpt lat="42.3384317" lon="12.7903883"><ele>531.0</ele><time>2026-04-04T08:55:12.041Z</time></trkpt><trkpt lat="42.3383917" lon="12.7905383"><ele>531.0</ele><time>2026-04-04T08:55:14.041Z</time></trkpt><trkpt lat="42.33835" lon="12.7906917"><ele>531.0</ele><time>2026-04-04T08:55:16.039Z</time></trkpt><trkpt lat="42.3383233" lon="12.7907783"><ele>531.0</ele><time>2026-04-04T08:55:17.041Z</time></trkpt><trkpt lat="42.3382883" lon="12.7909383"><ele>533.25</ele><time>2026-04-04T08:55:19.04Z</time></trkpt><trkpt lat="42.3382633" lon="12.7910883"><ele>535.5</ele><time>2026-04-04T08:55:21.04Z</time></trkpt><trkpt lat="42.338195" lon="12.79124"><ele>537.75</ele><time>2026-04-04T08:55:23.041Z</time></trkpt><trkpt lat="42.338105" lon="12.791375"><ele>540.0</ele><time>2026-04-04T08:55:25.039Z</time></trkpt><trkpt lat="42.3380267" lon="12.791505"><ele>539.6666666666666</ele><time>2026-04-04T08:55:27.04Z</time></trkpt><trkpt lat="42.3379717" lon="12.791565"><ele>539.3333333333334</ele><time>2026-04-04T08:55:28.041Z</time></trkpt><trkpt lat="42.3378917" lon="12.7916883"><ele>539.0</ele><time>2026-04-04T08:55:30.041Z</time></trkpt><trkpt lat="42.3378433" lon="12.7917733"><ele>538.6666666666667</ele><time>2026-04-04T08:55:31.04Z</time></trkpt><trkpt lat="42.33781" lon="12.7918483"><ele>538.3333333333334</ele><time>2026-04-04T08:55:32.04Z</time></trkpt><trkpt lat="42.3377667" lon="12.791945"><ele>538.0</ele><time>2026-04-04T08:55:33.041Z</time></trkpt><trkpt lat="42.3377083" lon="12.7920533"><ele>538.0</ele><time>2026-04-04T08:55:34.041Z</time></trkpt><trkpt lat="42.3376683" lon="12.7921267"><ele>538.0</ele><time>2026-04-04T08:55:35.04Z</time></trkpt><trkpt lat="42.3376217" lon="12.792215"><ele>538.0</ele><time>2026-04-04T08:55:36.043Z</time></trkpt><trkpt lat="42.3375867" lon="12.7923017"><ele>538.0</ele><time>2026-04-04T08:55:37.04Z</time></trkpt><trkpt lat="42.3375733" lon="12.7923983"><ele>538.0</ele><time>2026-04-04T08:55:38.041Z</time></trkpt><trkpt lat="42.3375233" lon="12.7924767"><ele>538.0</ele><time>2026-04-04T08:55:39.04Z</time></trkpt><trkpt lat="42.3374783" lon="12.79256"><ele>538.0</ele><time>2026-04-04T08:55:40.039Z</time></trkpt><trkpt lat="42.33743" lon="12.79264"><ele>539.1428571428571</ele><time>2026-04-04T08:55:41.042Z</time></trkpt><trkpt lat="42.3373883" lon="12.7927183"><ele>540.2857142857143</ele><time>2026-04-04T08:55:42.041Z</time></trkpt><trkpt lat="42.3373533" lon="12.7928183"><ele>541.4285714285714</ele><time>2026-04-04T08:55:43.04Z</time></trkpt><trkpt lat="42.3373083" lon="12.7928983"><ele>542.5714285714286</ele><time>2026-04-04T08:55:44.04Z</time></trkpt><trkpt lat="42.337245" lon="12.79297"><ele>543.7142857142858</ele><time>2026-04-04T08:55:45.041Z</time></trkpt><trkpt lat="42.3372083" lon="12.79304"><ele>544.8571428571429</ele><time>2026-04-04T08:55:46.039Z</time></trkpt><trkpt lat="42.337155" lon="12.7930933"><ele>546.0</ele><time>2026-04-04T08:55:47.04Z</time></trkpt><trkpt lat="42.337095" lon="12.79315"><ele>545.6</ele><time>2026-04-04T08:55:48.04Z</time></trkpt><trkpt lat="42.3370383" lon="12.7931967"><ele>545.2</ele><time>2026-04-04T08:55:49.04Z</time></trkpt><trkpt lat="42.3369867" lon="12.793255"><ele>544.8</ele><time>2026-04-04T08:55:50.041Z</time></trkpt><trkpt lat="42.3368983" lon="12.7933717"><ele>544.4</ele><time>2026-04-04T08:55:52.04Z</time></trkpt><trkpt lat="42.3368583" lon="12.79353"><ele>544.0</ele><time>2026-04-04T08:55:54.041Z</time></trkpt><trkpt lat="42.3367867" lon="12.79366"><ele>544.0</ele><time>2026-04-04T08:55:56.041Z</time></trkpt><trkpt lat="42.3367233" lon="12.793775"><ele>544.0</ele><time>2026-04-04T08:55:58.039Z</time></trkpt><trkpt lat="42.336675" lon="12.7938417"><ele>544.0</ele><time>2026-04-04T08:55:59.04Z</time></trkpt><trkpt lat="42.3366283" lon="12.7939117"><ele>544.0</ele><time>2026-04-04T08:56:01.04Z</time></trkpt><trkpt lat="42.3365817" lon="12.7939783"><ele>544.0</ele><time>2026-04-04T08:56:03.04Z</time></trkpt><trkpt lat="42.3365083" lon="12.7940583"><ele>544.0</ele><time>2026-04-04T08:56:05.039Z</time></trkpt><trkpt lat="42.3364533" lon="12.7941933"><ele>544.0</ele><time>2026-04-04T08:56:07.04Z</time></trkpt><trkpt lat="42.336415" lon="12.794265"><ele>544.0</ele><time>2026-04-04T08:56:08.041Z</time></trkpt><trkpt lat="42.3363683" lon="12.7943783"><ele>544.0</ele><time>2026-04-04T08:56:10.039Z</time></trkpt><trkpt lat="42.3363133" lon="12.794515"><ele>544.0</ele><time>2026-04-04T08:56:12.041Z</time></trkpt><trkpt lat="42.3362356" lon="12.7946347"><ele>544.0</ele><time>2026-04-04T08:56:14.041Z</time></trkpt><trkpt lat="42.3361626" lon="12.7947616"><ele>544.6</ele><time>2026-04-04T08:56:16.039Z</time></trkpt><trkpt lat="42.3360829" lon="12.7948702"><ele>545.2</ele><time>2026-04-04T08:56:18.04Z</time></trkpt><trkpt lat="42.3359956" lon="12.7949788"><ele>545.8000000000001</ele><time>2026-04-04T08:56:20.041Z</time></trkpt><trkpt lat="42.3359449" lon="12.795031"><ele>546.4</ele><time>2026-04-04T08:56:21.041Z</time></trkpt><trkpt lat="42.3358389" lon="12.7951021"><ele>547.0</ele><time>2026-04-04T08:56:23.04Z</time></trkpt><trkpt lat="42.3357343" lon="12.7951825"><ele>547.0</ele><time>2026-04-04T08:56:25.04Z</time></trkpt><trkpt lat="42.3356695" lon="12.7952902"><ele>547.0</ele><time>2026-04-04T08:56:26.041Z</time></trkpt><trkpt lat="42.3356229" lon="12.7953554"><ele>547.0</ele><time>2026-04-04T08:56:27.041Z</time></trkpt><trkpt lat="42.335544" lon="12.7954605"><ele>547.0</ele><time>2026-04-04T08:56:29.039Z</time></trkpt><trkpt lat="42.3354695" lon="12.7955637"><ele>547.0</ele><time>2026-04-04T08:56:31.041Z</time></trkpt><trkpt lat="42.3354046" lon="12.7956836"><ele>548.0</ele><time>2026-04-04T08:56:33.041Z</time></trkpt><trkpt lat="42.3353341" lon="12.795827"><ele>549.0</ele><time>2026-04-04T08:56:35.041Z</time></trkpt><trkpt lat="42.3352858" lon="12.795912"><ele>550.0</ele><time>2026-04-04T08:56:36.041Z</time></trkpt><trkpt lat="42.33524" lon="12.7959954"><ele>551.0</ele><time>2026-04-04T08:56:37.042Z</time></trkpt><trkpt lat="42.3351962" lon="12.7960801"><ele>552.0</ele><time>2026-04-04T08:56:38.041Z</time></trkpt><trkpt lat="42.3351566" lon="12.7961563"><ele>553.0</ele><time>2026-04-04T08:56:39.041Z</time></trkpt><trkpt lat="42.3351098" lon="12.7962268"><ele>553.0</ele><time>2026-04-04T08:56:40.039Z</time></trkpt><trkpt lat="42.335065" lon="12.7962893"><ele>553.0</ele><time>2026-04-04T08:56:41.04Z</time></trkpt><trkpt lat="42.3349619" lon="12.7963852"><ele>553.0</ele><time>2026-04-04T08:56:43.039Z</time></trkpt><trkpt lat="42.3349034" lon="12.7964241"><ele>553.0</ele><time>2026-04-04T08:56:44.041Z</time></trkpt><trkpt lat="42.3348034" lon="12.796515"><ele>553.0</ele><time>2026-04-04T08:56:46.04Z</time></trkpt><trkpt lat="42.3347123" lon="12.7966276"><ele>553.7142857142857</ele><time>2026-04-04T08:56:48.045Z</time></trkpt><trkpt lat="42.3346682" lon="12.796691"><ele>554.4285714285714</ele><time>2026-04-04T08:56:49.044Z</time></trkpt><trkpt lat="42.3346264" lon="12.7967744"><ele>555.1428571428571</ele><time>2026-04-04T08:56:50.041Z</time></trkpt><trkpt lat="42.3345839" lon="12.7968644"><ele>555.8571428571429</ele><time>2026-04-04T08:56:51.041Z</time></trkpt><trkpt lat="42.3345434" lon="12.796951"><ele>556.5714285714286</ele><time>2026-04-04T08:56:52.04Z</time></trkpt><trkpt lat="42.3345008" lon="12.7970268"><ele>557.2857142857142</ele><time>2026-04-04T08:56:53.04Z</time></trkpt><trkpt lat="42.3344537" lon="12.7971056"><ele>558.0</ele><time>2026-04-04T08:56:54.041Z</time></trkpt><trkpt lat="42.3344042" lon="12.7971773"><ele>558.0</ele><time>2026-04-04T08:56:55.039Z</time></trkpt><trkpt lat="42.334359" lon="12.7972407"><ele>558.0</ele><time>2026-04-04T08:56:56.04Z</time></trkpt><trkpt lat="42.3342808" lon="12.7973337"><ele>558.0</ele><time>2026-04-04T08:56:58.04Z</time></trkpt><trkpt lat="42.3342078" lon="12.7974273"><ele>558.0</ele><time>2026-04-04T08:57:00.04Z</time></trkpt><trkpt lat="42.3341399" lon="12.7975253"><ele>558.0</ele><time>2026-04-04T08:57:02.04Z</time></trkpt><trkpt lat="42.3340959" lon="12.797655"><ele>559.6</ele><time>2026-04-04T08:57:04.042Z</time></trkpt><trkpt lat="42.334059" lon="12.797786"><ele>561.1999999999999</ele><time>2026-04-04T08:57:06.041Z</time></trkpt><trkpt lat="42.3340056" lon="12.7979195"><ele>562.8</ele><time>2026-04-04T08:57:08.04Z</time></trkpt><trkpt lat="42.3339242" lon="12.798061"><ele>564.4</ele><time>2026-04-04T08:57:10.041Z</time></trkpt><trkpt lat="42.3338678" lon="12.7981438"><ele>566.0</ele><time>2026-04-04T08:57:11.042Z</time></trkpt><trkpt lat="42.3338113" lon="12.7982173"><ele>565.6666666666666</ele><time>2026-04-04T08:57:12.041Z</time></trkpt><trkpt lat="42.333759" lon="12.7982898"><ele>565.3333333333333</ele><time>2026-04-04T08:57:13.04Z</time></trkpt><trkpt lat="42.3337199" lon="12.7983661"><ele>565.0</ele><time>2026-04-04T08:57:14.04Z</time></trkpt><trkpt lat="42.3336822" lon="12.7984456"><ele>564.6666666666666</ele><time>2026-04-04T08:57:15.041Z</time></trkpt><trkpt lat="42.3336533" lon="12.7985246"><ele>564.3333333333334</ele><time>2026-04-04T08:57:16.04Z</time></trkpt><trkpt lat="42.333597" lon="12.7986706"><ele>564.0</ele><time>2026-04-04T08:57:18.041Z</time></trkpt><trkpt lat="42.333533" lon="12.7988033"><ele>564.0</ele><time>2026-04-04T08:57:20.04Z</time></trkpt><trkpt lat="42.333455" lon="12.7988983"><ele>564.0</ele><time>2026-04-04T08:57:22.04Z</time></trkpt><trkpt lat="42.33341" lon="12.7990267"><ele>564.0</ele><time>2026-04-04T08:57:24.04Z</time></trkpt><trkpt lat="42.333385" lon="12.7991083"><ele>564.0</ele><time>2026-04-04T08:57:25.041Z</time></trkpt><trkpt lat="42.33337" lon="12.7992017"><ele>564.0</ele><time>2026-04-04T08:57:26.041Z</time></trkpt><trkpt lat="42.3333617" lon="12.7993017"><ele>564.0</ele><time>2026-04-04T08:57:27.042Z</time></trkpt><trkpt lat="42.333345" lon="12.7994267"><ele>565.2857142857143</ele><time>2026-04-04T08:57:28.041Z</time></trkpt><trkpt lat="42.3333417" lon="12.7995233"><ele>566.5714285714286</ele><time>2026-04-04T08:57:29.041Z</time></trkpt><trkpt lat="42.3333333" lon="12.7996317"><ele>567.8571428571429</ele><time>2026-04-04T08:57:30.041Z</time></trkpt><trkpt lat="42.333315" lon="12.799725"><ele>569.1428571428571</ele><time>2026-04-04T08:57:31.04Z</time></trkpt><trkpt lat="42.3333017" lon="12.7998183"><ele>570.4285714285714</ele><time>2026-04-04T08:57:32.04Z</time></trkpt><trkpt lat="42.333285" lon="12.7999067"><ele>571.7142857142858</ele><time>2026-04-04T08:57:33.04Z</time></trkpt><trkpt lat="42.3332667" lon="12.7999933"><ele>573.0</ele><time>2026-04-04T08:57:34.039Z</time></trkpt><trkpt lat="42.33324" lon="12.8000767"><ele>573.6666666666666</ele><time>2026-04-04T08:57:35.041Z</time></trkpt><trkpt lat="42.3331717" lon="12.8002267"><ele>574.3333333333334</ele><time>2026-04-04T08:57:37.04Z</time></trkpt><trkpt lat="42.3331333" lon="12.8003183"><ele>575.0</ele><time>2026-04-04T08:57:38.04Z</time></trkpt><trkpt lat="42.333115" lon="12.8004033"><ele>575.6666666666667</ele><time>2026-04-04T08:57:39.04Z</time></trkpt><trkpt lat="42.333085" lon="12.8004967"><ele>576.3333333333334</ele><time>2026-04-04T08:57:40.039Z</time></trkpt><trkpt lat="42.33307" lon="12.800585"><ele>577.0</ele><time>2026-04-04T08:57:41.04Z</time></trkpt><trkpt lat="42.333035" lon="12.8007483"><ele>577.0</ele><time>2026-04-04T08:57:43.04Z</time></trkpt><trkpt lat="42.3330033" lon="12.800835"><ele>577.0</ele><time>2026-04-04T08:57:44.04Z</time></trkpt><trkpt lat="42.3329667" lon="12.8009317"><ele>577.0</ele><time>2026-04-04T08:57:45.04Z</time></trkpt><trkpt lat="42.3329267" lon="12.8010283"><ele>577.0</ele><time>2026-04-04T08:57:46.04Z</time></trkpt><trkpt lat="42.3328983" lon="12.80111"><ele>577.0</ele><time>2026-04-04T08:57:47.04Z</time></trkpt><trkpt lat="42.3328417" lon="12.8012367"><ele>577.0</ele><time>2026-04-04T08:57:49.041Z</time></trkpt><trkpt lat="42.332755" lon="12.8013517"><ele>575.6</ele><time>2026-04-04T08:57:51.041Z</time></trkpt><trkpt lat="42.3327017" lon="12.8014067"><ele>574.2</ele><time>2026-04-04T08:57:52.04Z</time></trkpt><trkpt lat="42.3326" lon="12.8014983"><ele>572.8</ele><time>2026-04-04T08:57:54.041Z</time></trkpt><trkpt lat="42.332495" lon="12.8015667"><ele>571.4</ele><time>2026-04-04T08:57:56.043Z</time></trkpt><trkpt lat="42.332375" lon="12.801665"><ele>570.0</ele><time>2026-04-04T08:57:58.039Z</time></trkpt><trkpt lat="42.3323133" lon="12.8017067"><ele>570.0</ele><time>2026-04-04T08:57:59.042Z</time></trkpt><trkpt lat="42.33226" lon="12.8017767"><ele>570.0</ele><time>2026-04-04T08:58:00.041Z</time></trkpt><trkpt lat="42.3322067" lon="12.8018567"><ele>570.0</ele><time>2026-04-04T08:58:01.04Z</time></trkpt><trkpt lat="42.3321583" lon="12.801925"><ele>570.0</ele><time>2026-04-04T08:58:02.041Z</time></trkpt><trkpt lat="42.33212" lon="12.8019967"><ele>570.0</ele><time>2026-04-04T08:58:03.041Z</time></trkpt><trkpt lat="42.3320733" lon="12.80209"><ele>570.0</ele><time>2026-04-04T08:58:04.04Z</time></trkpt><trkpt lat="42.3320267" lon="12.80219"><ele>571.1428571428571</ele><time>2026-04-04T08:58:05.041Z</time></trkpt><trkpt lat="42.3319883" lon="12.8022733"><ele>572.2857142857143</ele><time>2026-04-04T08:58:06.039Z</time></trkpt><trkpt lat="42.3319517" lon="12.802355"><ele>573.4285714285714</ele><time>2026-04-04T08:58:07.04Z</time></trkpt><trkpt lat="42.3319067" lon="12.80244"><ele>574.5714285714286</ele><time>2026-04-04T08:58:08.042Z</time></trkpt><trkpt lat="42.3318617" lon="12.8025117"><ele>575.7142857142857</ele><time>2026-04-04T08:58:09.04Z</time></trkpt><trkpt lat="42.3318183" lon="12.8025867"><ele>576.8571428571429</ele><time>2026-04-04T08:58:10.04Z</time></trkpt><trkpt lat="42.3317767" lon="12.8026617"><ele>578.0</ele><time>2026-04-04T08:58:11.041Z</time></trkpt><trkpt lat="42.33172" lon="12.80272"><ele>578.0</ele><time>2026-04-04T08:58:12.041Z</time></trkpt><trkpt lat="42.3316683" lon="12.8027733"><ele>578.0</ele><time>2026-04-04T08:58:13.039Z</time></trkpt><trkpt lat="42.33161" lon="12.802835"><ele>578.0</ele><time>2026-04-04T08:58:14.043Z</time></trkpt><trkpt lat="42.331555" lon="12.8029"><ele>578.0</ele><time>2026-04-04T08:58:15.04Z</time></trkpt><trkpt lat="42.3315117" lon="12.802965"><ele>578.0</ele><time>2026-04-04T08:58:16.04Z</time></trkpt><trkpt lat="42.331455" lon="12.80302"><ele>578.0</ele><time>2026-04-04T08:58:17.041Z</time></trkpt><trkpt lat="42.3313917" lon="12.8030783"><ele>578.0</ele><time>2026-04-04T08:58:18.04Z</time></trkpt><trkpt lat="42.3313283" lon="12.803135"><ele>581.5</ele><time>2026-04-04T08:58:19.04Z</time></trkpt><trkpt lat="42.3312483" lon="12.8032433"><ele>585.0</ele><time>2026-04-04T08:58:21.041Z</time></trkpt><trkpt lat="42.3312017" lon="12.8033067"><ele>588.5</ele><time>2026-04-04T08:58:22.039Z</time></trkpt><trkpt lat="42.3311383" lon="12.8034167"><ele>592.0</ele><time>2026-04-04T08:58:24.04Z</time></trkpt><trkpt lat="42.3311017" lon="12.8035233"><ele>595.5</ele><time>2026-04-04T08:58:26.041Z</time></trkpt><trkpt lat="42.331105" lon="12.80363"><ele>599.0</ele><time>2026-04-04T08:58:28.04Z</time></trkpt><trkpt lat="42.3311462" lon="12.8037222"><ele>599.0</ele><time>2026-04-04T08:58:30.041Z</time></trkpt><trkpt lat="42.3312177" lon="12.8038417"><ele>599.0</ele><time>2026-04-04T08:58:32.041Z</time></trkpt><trkpt lat="42.3312749" lon="12.8039821"><ele>599.0</ele><time>2026-04-04T08:58:34.04Z</time></trkpt><trkpt lat="42.3313059" lon="12.8040648"><ele>599.0</ele><time>2026-04-04T08:58:35.039Z</time></trkpt><trkpt lat="42.3313421" lon="12.8041631"><ele>599.0</ele><time>2026-04-04T08:58:36.041Z</time></trkpt><trkpt lat="42.3313735" lon="12.80425"><ele>597.4</ele><time>2026-04-04T08:58:37.04Z</time></trkpt><trkpt lat="42.3314356" lon="12.8043824"><ele>595.8</ele><time>2026-04-04T08:58:39.041Z</time></trkpt><trkpt lat="42.3314575" lon="12.8044752"><ele>594.2</ele><time>2026-04-04T08:58:40.04Z</time></trkpt><trkpt lat="42.3315213" lon="12.8045856"><ele>592.6</ele><time>2026-04-04T08:58:42.042Z</time></trkpt><trkpt lat="42.3316151" lon="12.8046687"><ele>591.0</ele><time>2026-04-04T08:58:44.041Z</time></trkpt><trkpt lat="42.3316669" lon="12.8048057"><ele>591.0</ele><time>2026-04-04T08:58:46.04Z</time></trkpt><trkpt lat="42.3316849" lon="12.8048933"><ele>591.0</ele><time>2026-04-04T08:58:47.041Z</time></trkpt><trkpt lat="42.3316839" lon="12.805046"><ele>591.0</ele><time>2026-04-04T08:58:49.04Z</time></trkpt><trkpt lat="42.3316569" lon="12.8052034"><ele>591.0</ele><time>2026-04-04T08:58:51.039Z</time></trkpt><trkpt lat="42.3316133" lon="12.8053337"><ele>591.0</ele><time>2026-04-04T08:58:53.039Z</time></trkpt><trkpt lat="42.331596" lon="12.8054674"><ele>591.8</ele><time>2026-04-04T08:58:55.039Z</time></trkpt><trkpt lat="42.3315988" lon="12.8056296"><ele>592.6</ele><time>2026-04-04T08:58:57.041Z</time></trkpt><trkpt lat="42.3316007" lon="12.8057961"><ele>593.4</ele><time>2026-04-04T08:58:59.041Z</time></trkpt><trkpt lat="42.331606" lon="12.8058847"><ele>594.2</ele><time>2026-04-04T08:59:00.041Z</time></trkpt><trkpt lat="42.3316484" lon="12.8059887"><ele>595.0</ele><time>2026-04-04T08:59:01.04Z</time></trkpt><trkpt lat="42.3316529" lon="12.8060805"><ele>596.3333333333334</ele><time>2026-04-04T08:59:02.041Z</time></trkpt><trkpt lat="42.3316468" lon="12.8061968"><ele>597.6666666666667</ele><time>2026-04-04T08:59:03.041Z</time></trkpt><trkpt lat="42.3316388" lon="12.8062851"><ele>599.0</ele><time>2026-04-04T08:59:04.04Z</time></trkpt><trkpt lat="42.3316253" lon="12.8063729"><ele>600.3333333333334</ele><time>2026-04-04T08:59:05.041Z</time></trkpt><trkpt lat="42.3317186" lon="12.8065059"><ele>601.6666666666666</ele><time>2026-04-04T08:59:06.04Z</time></trkpt><trkpt lat="42.3317233" lon="12.8065976"><ele>603.0</ele><time>2026-04-04T08:59:07.04Z</time></trkpt><trkpt lat="42.3316822" lon="12.8066913"><ele>603.0</ele><time>2026-04-04T08:59:08.039Z</time></trkpt><trkpt lat="42.3316545" lon="12.8067799"><ele>603.0</ele><time>2026-04-04T08:59:09.041Z</time></trkpt><trkpt lat="42.3316348" lon="12.806867"><ele>603.0</ele><time>2026-04-04T08:59:10.04Z</time></trkpt><trkpt lat="42.3316092" lon="12.8069875"><ele>603.0</ele><time>2026-04-04T08:59:12.041Z</time></trkpt><trkpt lat="42.3316192" lon="12.8071045"><ele>603.0</ele><time>2026-04-04T08:59:14.041Z</time></trkpt><trkpt lat="42.3316333" lon="12.8071891"><ele>603.0</ele><time>2026-04-04T08:59:16.04Z</time></trkpt><trkpt lat="42.3316337" lon="12.8072971"><ele>603.0</ele><time>2026-04-04T08:59:18.041Z</time></trkpt><trkpt lat="42.3316415" lon="12.8074609"><ele>603.0</ele><time>2026-04-04T08:59:20.041Z</time></trkpt><trkpt lat="42.3316614" lon="12.8075499"><ele>603.0</ele><time>2026-04-04T08:59:21.04Z</time></trkpt><trkpt lat="42.3317178" lon="12.8076848"><ele>603.0</ele><time>2026-04-04T08:59:23.04Z</time></trkpt><trkpt lat="42.3317599" lon="12.8078019"><ele>603.0</ele><time>2026-04-04T08:59:25.04Z</time></trkpt><trkpt lat="42.331804" lon="12.8079192"><ele>603.0</ele><time>2026-04-04T08:59:27.041Z</time></trkpt><trkpt lat="42.3318413" lon="12.8080092"><ele>603.0</ele><time>2026-04-04T08:59:29.04Z</time></trkpt><trkpt lat="42.3318991" lon="12.8080766"><ele>603.0</ele><time>2026-04-04T08:59:31.041Z</time></trkpt><trkpt lat="42.3319729" lon="12.8081275"><ele>603.0</ele><time>2026-04-04T08:59:33.041Z</time></trkpt><trkpt lat="42.3320571" lon="12.8081856"><ele>603.0</ele><time>2026-04-04T08:59:35.04Z</time></trkpt><trkpt lat="42.3321523" lon="12.8082775"><ele>603.0</ele><time>2026-04-04T08:59:37.041Z</time></trkpt><trkpt lat="42.3322299" lon="12.8084075"><ele>604.5</ele><time>2026-04-04T08:59:39.043Z</time></trkpt><trkpt lat="42.3323128" lon="12.8085293"><ele>606.0</ele><time>2026-04-04T08:59:41.04Z</time></trkpt><trkpt lat="42.3323582" lon="12.8086846"><ele>607.5</ele><time>2026-04-04T08:59:43.039Z</time></trkpt><trkpt lat="42.3324013" lon="12.8088251"><ele>609.0</ele><time>2026-04-04T08:59:45.04Z</time></trkpt><trkpt lat="42.3324281" lon="12.8089516"><ele>609.0</ele><time>2026-04-04T08:59:47.041Z</time></trkpt><trkpt lat="42.33245" lon="12.8090685"><ele>609.0</ele><time>2026-04-04T08:59:49.041Z</time></trkpt><trkpt lat="42.332481" lon="12.8091462"><ele>609.0</ele><time>2026-04-04T08:59:51.041Z</time></trkpt><trkpt lat="42.3325017" lon="12.8092508"><ele>609.0</ele><time>2026-04-04T08:59:53.041Z</time></trkpt><trkpt lat="42.3325239" lon="12.8094057"><ele>609.0</ele><time>2026-04-04T08:59:55.039Z</time></trkpt><trkpt lat="42.3325482" lon="12.8094978"><ele>609.0</ele><time>2026-04-04T08:59:56.04Z</time></trkpt><trkpt lat="42.3325668" lon="12.8095904"><ele>609.1666666666666</ele><time>2026-04-04T08:59:57.04Z</time></trkpt><trkpt lat="42.3325808" lon="12.8096777"><ele>609.3333333333334</ele><time>2026-04-04T08:59:58.04Z</time></trkpt><trkpt lat="42.3325795" lon="12.8098361"><ele>609.5</ele><time>2026-04-04T09:00:00.04Z</time></trkpt><trkpt lat="42.3325607" lon="12.809971"><ele>609.6666666666667</ele><time>2026-04-04T09:00:02.04Z</time></trkpt><trkpt lat="42.332535" lon="12.8100617"><ele>609.8333333333334</ele><time>2026-04-04T09:00:03.046Z</time></trkpt><trkpt lat="42.3325083" lon="12.8101517"><ele>610.0</ele><time>2026-04-04T09:00:04.038Z</time></trkpt><trkpt lat="42.332475" lon="12.8102333"><ele>610.0</ele><time>2026-04-04T09:00:05.041Z</time></trkpt><trkpt lat="42.3324117" lon="12.8103617"><ele>610.0</ele><time>2026-04-04T09:00:07.04Z</time></trkpt><trkpt lat="42.33236" lon="12.8105033"><ele>610.0</ele><time>2026-04-04T09:00:09.04Z</time></trkpt><trkpt lat="42.332335" lon="12.8105967"><ele>610.0</ele><time>2026-04-04T09:00:10.039Z</time></trkpt><trkpt lat="42.3323017" lon="12.8107067"><ele>610.0</ele><time>2026-04-04T09:00:11.041Z</time></trkpt><trkpt lat="42.3322783" lon="12.8108033"><ele>610.0</ele><time>2026-04-04T09:00:12.041Z</time></trkpt><trkpt lat="42.3322583" lon="12.810915"><ele>610.0</ele><time>2026-04-04T09:00:13.04Z</time></trkpt><trkpt lat="42.3322417" lon="12.811005"><ele>610.0</ele><time>2026-04-04T09:00:14.041Z</time></trkpt><trkpt lat="42.3322133" lon="12.8110817"><ele>610.0</ele><time>2026-04-04T09:00:15.041Z</time></trkpt><trkpt lat="42.332195" lon="12.8111733"><ele>610.0</ele><time>2026-04-04T09:00:16.042Z</time></trkpt><trkpt lat="42.332175" lon="12.811265"><ele>610.0</ele><time>2026-04-04T09:00:17.04Z</time></trkpt><trkpt lat="42.3321533" lon="12.81135"><ele>610.0</ele><time>2026-04-04T09:00:18.041Z</time></trkpt><trkpt lat="42.332115" lon="12.8114367"><ele>612.8</ele><time>2026-04-04T09:00:19.042Z</time></trkpt><trkpt lat="42.332085" lon="12.81152"><ele>615.6</ele><time>2026-04-04T09:00:20.04Z</time></trkpt><trkpt lat="42.3320717" lon="12.81166"><ele>618.4</ele><time>2026-04-04T09:00:22.042Z</time></trkpt><trkpt lat="42.33208" lon="12.8118217"><ele>621.2</ele><time>2026-04-04T09:00:24.041Z</time></trkpt><trkpt lat="42.332085" lon="12.8119933"><ele>624.0</ele><time>2026-04-04T09:00:26.04Z</time></trkpt><trkpt lat="42.3320833" lon="12.812145"><ele>625.0</ele><time>2026-04-04T09:00:28.041Z</time></trkpt><trkpt lat="42.3320817" lon="12.8122717"><ele>626.0</ele><time>2026-04-04T09:00:30.041Z</time></trkpt><trkpt lat="42.3320817" lon="12.8123917"><ele>627.0</ele><time>2026-04-04T09:00:32.041Z</time></trkpt><trkpt lat="42.33209" lon="12.812515"><ele>628.0</ele><time>2026-04-04T09:00:34.04Z</time></trkpt><trkpt lat="42.33212" lon="12.8126533"><ele>629.0</ele><time>2026-04-04T09:00:36.041Z</time></trkpt><trkpt lat="42.3321167" lon="12.812805"><ele>629.4</ele><time>2026-04-04T09:00:38.041Z</time></trkpt><trkpt lat="42.3321133" lon="12.81297"><ele>629.8</ele><time>2026-04-04T09:00:40.045Z</time></trkpt><trkpt lat="42.3320817" lon="12.8131183"><ele>630.2</ele><time>2026-04-04T09:00:42.039Z</time></trkpt><trkpt lat="42.332045" lon="12.8132517"><ele>630.6</ele><time>2026-04-04T09:00:44.04Z</time></trkpt><trkpt lat="42.3320367" lon="12.813345"><ele>631.0</ele><time>2026-04-04T09:00:45.042Z</time></trkpt><trkpt lat="42.3320033" lon="12.8134283"><ele>631.3333333333334</ele><time>2026-04-04T09:00:46.043Z</time></trkpt><trkpt lat="42.3319867" lon="12.8135283"><ele>631.6666666666667</ele><time>2026-04-04T09:00:47.041Z</time></trkpt><trkpt lat="42.3319433" lon="12.8136717"><ele>632.0</ele><time>2026-04-04T09:00:49.043Z</time></trkpt><trkpt lat="42.3319133" lon="12.8137467"><ele>632.3333333333334</ele><time>2026-04-04T09:00:50.042Z</time></trkpt><trkpt lat="42.3318883" lon="12.81383"><ele>632.6666666666666</ele><time>2026-04-04T09:00:51.042Z</time></trkpt><trkpt lat="42.3318683" lon="12.813925"><ele>633.0</ele><time>2026-04-04T09:00:52.041Z</time></trkpt><trkpt lat="42.3318533" lon="12.8140167"><ele>633.0</ele><time>2026-04-04T09:00:53.041Z</time></trkpt><trkpt lat="42.331835" lon="12.8141017"><ele>633.0</ele><time>2026-04-04T09:00:54.04Z</time></trkpt><trkpt lat="42.3317967" lon="12.8142683"><ele>633.0</ele><time>2026-04-04T09:00:56.041Z</time></trkpt><trkpt lat="42.331785" lon="12.8144267"><ele>633.0</ele><time>2026-04-04T09:00:58.041Z</time></trkpt><trkpt lat="42.3317683" lon="12.8145167"><ele>633.0</ele><time>2026-04-04T09:00:59.041Z</time></trkpt><trkpt lat="42.331735" lon="12.8147017"><ele>634.0</ele><time>2026-04-04T09:01:01.043Z</time></trkpt><trkpt lat="42.3317117" lon="12.8148033"><ele>635.0</ele><time>2026-04-04T09:01:02.042Z</time></trkpt><trkpt lat="42.3316917" lon="12.8149033"><ele>636.0</ele><time>2026-04-04T09:01:03.04Z</time></trkpt><trkpt lat="42.3316667" lon="12.8149967"><ele>637.0</ele><time>2026-04-04T09:01:04.042Z</time></trkpt><trkpt lat="42.3316517" lon="12.8151117"><ele>638.0</ele><time>2026-04-04T09:01:05.041Z</time></trkpt><trkpt lat="42.3316233" lon="12.8152117"><ele>639.0</ele><time>2026-04-04T09:01:06.041Z</time></trkpt><trkpt lat="42.3315933" lon="12.81531"><ele>641.0</ele><time>2026-04-04T09:01:07.041Z</time></trkpt><trkpt lat="42.3315717" lon="12.8154183"><ele>643.0</ele><time>2026-04-04T09:01:08.04Z</time></trkpt><trkpt lat="42.331555" lon="12.8155033"><ele>645.0</ele><time>2026-04-04T09:01:09.041Z</time></trkpt><trkpt lat="42.3315433" lon="12.8155983"><ele>647.0</ele><time>2026-04-04T09:01:10.04Z</time></trkpt><trkpt lat="42.3315483" lon="12.815735"><ele>649.0</ele><time>2026-04-04T09:01:12.042Z</time></trkpt><trkpt lat="42.331565" lon="12.815885"><ele>651.0</ele><time>2026-04-04T09:01:14.04Z</time></trkpt><trkpt lat="42.3315917" lon="12.815985"><ele>652.0</ele><time>2026-04-04T09:01:15.04Z</time></trkpt><trkpt lat="42.3316133" lon="12.81616"><ele>653.0</ele><time>2026-04-04T09:01:17.039Z</time></trkpt><trkpt lat="42.3316133" lon="12.81629"><ele>654.0</ele><time>2026-04-04T09:01:19.041Z</time></trkpt><trkpt lat="42.3316067" lon="12.81642"><ele>655.0</ele><time>2026-04-04T09:01:21.04Z</time></trkpt><trkpt lat="42.33161" lon="12.8165117"><ele>656.0</ele><time>2026-04-04T09:01:22.041Z</time></trkpt><trkpt lat="42.3316083" lon="12.8166033"><ele>656.0</ele><time>2026-04-04T09:01:23.042Z</time></trkpt><trkpt lat="42.3316083" lon="12.81669"><ele>656.0</ele><time>2026-04-04T09:01:24.041Z</time></trkpt><trkpt lat="42.3315983" lon="12.8168683"><ele>656.0</ele><time>2026-04-04T09:01:26.041Z</time></trkpt><trkpt lat="42.3316" lon="12.8169667"><ele>656.0</ele><time>2026-04-04T09:01:27.042Z</time></trkpt><trkpt lat="42.33161" lon="12.8170833"><ele>656.0</ele><time>2026-04-04T09:01:28.043Z</time></trkpt><trkpt lat="42.3316267" lon="12.817245"><ele>656.5999999999999</ele><time>2026-04-04T09:01:30.041Z</time></trkpt><trkpt lat="42.33168" lon="12.8173883"><ele>657.2</ele><time>2026-04-04T09:01:32.04Z</time></trkpt><trkpt lat="42.3317133" lon="12.8175317"><ele>657.8</ele><time>2026-04-04T09:01:34.041Z</time></trkpt><trkpt lat="42.331695" lon="12.81767"><ele>658.4000000000001</ele><time>2026-04-04T09:01:36.041Z</time></trkpt><trkpt lat="42.331685" lon="12.8177733"><ele>659.0</ele><time>2026-04-04T09:01:37.041Z</time></trkpt><trkpt lat="42.3316683" lon="12.8178633"><ele>659.0</ele><time>2026-04-04T09:01:38.041Z</time></trkpt><trkpt lat="42.3316467" lon="12.8179533"><ele>659.0</ele><time>2026-04-04T09:01:39.04Z</time></trkpt><trkpt lat="42.3316317" lon="12.81804"><ele>659.0</ele><time>2026-04-04T09:01:40.041Z</time></trkpt><trkpt lat="42.3316183" lon="12.8182033"><ele>659.0</ele><time>2026-04-04T09:01:42.04Z</time></trkpt><trkpt lat="42.33164" lon="12.818365"><ele>659.0</ele><time>2026-04-04T09:01:44.041Z</time></trkpt><trkpt lat="42.3316517" lon="12.818465"><ele>659.3333333333333</ele><time>2026-04-04T09:01:45.04Z</time></trkpt><trkpt lat="42.3316567" lon="12.8185683"><ele>659.6666666666666</ele><time>2026-04-04T09:01:46.041Z</time></trkpt><trkpt lat="42.33168" lon="12.8186617"><ele>660.0</ele><time>2026-04-04T09:01:47.041Z</time></trkpt><trkpt lat="42.3317033" lon="12.8187517"><ele>660.3333333333334</ele><time>2026-04-04T09:01:48.041Z</time></trkpt><trkpt lat="42.3317267" lon="12.8188433"><ele>660.6666666666667</ele><time>2026-04-04T09:01:49.043Z</time></trkpt><trkpt lat="42.33174" lon="12.819"><ele>661.0</ele><time>2026-04-04T09:01:51.04Z</time></trkpt><trkpt lat="42.3317717" lon="12.81915"><ele>661.0</ele><time>2026-04-04T09:01:53.04Z</time></trkpt><trkpt lat="42.3318233" lon="12.8193167"><ele>661.0</ele><time>2026-04-04T09:01:55.041Z</time></trkpt><trkpt lat="42.331895" lon="12.81945"><ele>661.0</ele><time>2026-04-04T09:01:57.041Z</time></trkpt><trkpt lat="42.3319367" lon="12.8195333"><ele>661.0</ele><time>2026-04-04T09:01:58.04Z</time></trkpt><trkpt lat="42.331975" lon="12.8196233"><ele>661.0</ele><time>2026-04-04T09:01:59.041Z</time></trkpt><trkpt lat="42.3320083" lon="12.8197017"><ele>661.3333333333334</ele><time>2026-04-04T09:02:00.04Z</time></trkpt><trkpt lat="42.332055" lon="12.8197717"><ele>661.6666666666667</ele><time>2026-04-04T09:02:01.04Z</time></trkpt><trkpt lat="42.3321017" lon="12.8198517"><ele>662.0</ele><time>2026-04-04T09:02:02.041Z</time></trkpt><trkpt lat="42.3321317" lon="12.819935"><ele>662.3333333333334</ele><time>2026-04-04T09:02:03.04Z</time></trkpt><trkpt lat="42.3321817" lon="12.8200883"><ele>662.6666666666666</ele><time>2026-04-04T09:02:05.042Z</time></trkpt><trkpt lat="42.3322017" lon="12.8201783"><ele>663.0</ele><time>2026-04-04T09:02:06.039Z</time></trkpt><trkpt lat="42.33223" lon="12.8202783"><ele>667.5999999999999</ele><time>2026-04-04T09:02:07.041Z</time></trkpt><trkpt lat="42.3322617" lon="12.8203683"><ele>672.1999999999999</ele><time>2026-04-04T09:02:08.04Z</time></trkpt><trkpt lat="42.3323033" lon="12.8205167"><ele>676.8</ele><time>2026-04-04T09:02:10.04Z</time></trkpt><trkpt lat="42.332335" lon="12.8206683"><ele>681.4</ele><time>2026-04-04T09:02:12.04Z</time></trkpt><trkpt lat="42.33239" lon="12.820785"><ele>686.0</ele><time>2026-04-04T09:02:14.04Z</time></trkpt><trkpt lat="42.3324467" lon="12.8208867"><ele>684.8</ele><time>2026-04-04T09:02:16.041Z</time></trkpt><trkpt lat="42.3325183" lon="12.8209917"><ele>683.5999999999999</ele><time>2026-04-04T09:02:18.039Z</time></trkpt><trkpt lat="42.332565" lon="12.8210633"><ele>682.4</ele><time>2026-04-04T09:02:19.04Z</time></trkpt><trkpt lat="42.3326333" lon="12.821175"><ele>681.2</ele><time>2026-04-04T09:02:21.041Z</time></trkpt><trkpt lat="42.332695" lon="12.8213317"><ele>680.0</ele><time>2026-04-04T09:02:23.04Z</time></trkpt><trkpt lat="42.3327367" lon="12.8213967"><ele>680.0</ele><time>2026-04-04T09:02:24.039Z</time></trkpt><trkpt lat="42.3327867" lon="12.8214583"><ele>680.0</ele><time>2026-04-04T09:02:25.041Z</time></trkpt><trkpt lat="42.3328383" lon="12.8215383"><ele>680.0</ele><time>2026-04-04T09:02:26.04Z</time></trkpt><trkpt lat="42.3328867" lon="12.8216017"><ele>680.0</ele><time>2026-04-04T09:02:27.041Z</time></trkpt><trkpt lat="42.33294" lon="12.821655"><ele>680.0</ele><time>2026-04-04T09:02:28.041Z</time></trkpt><trkpt lat="42.3330517" lon="12.821735"><ele>680.0</ele><time>2026-04-04T09:02:30.04Z</time></trkpt><trkpt lat="42.33312" lon="12.82176"><ele>681.2</ele><time>2026-04-04T09:02:31.041Z</time></trkpt><trkpt lat="42.333185" lon="12.8217967"><ele>682.4</ele><time>2026-04-04T09:02:32.04Z</time></trkpt><trkpt lat="42.33325" lon="12.8218417"><ele>683.5999999999999</ele><time>2026-04-04T09:02:33.04Z</time></trkpt><trkpt lat="42.3333133" lon="12.8219033"><ele>684.8</ele><time>2026-04-04T09:02:34.041Z</time></trkpt><trkpt lat="42.3334367" lon="12.8219417"><ele>686.0</ele><time>2026-04-04T09:02:36.04Z</time></trkpt><trkpt lat="42.3335517" lon="12.822015"><ele>686.8333333333333</ele><time>2026-04-04T09:02:38.041Z</time></trkpt><trkpt lat="42.3335833" lon="12.8220967"><ele>687.6666666666666</ele><time>2026-04-04T09:02:39.04Z</time></trkpt><trkpt lat="42.3336467" lon="12.8221583"><ele>688.5</ele><time>2026-04-04T09:02:40.04Z</time></trkpt><trkpt lat="42.3336917" lon="12.8222383"><ele>689.3333333333334</ele><time>2026-04-04T09:02:41.039Z</time></trkpt><trkpt lat="42.3337767" lon="12.82229"><ele>690.1666666666667</ele><time>2026-04-04T09:02:42.04Z</time></trkpt><trkpt lat="42.33383" lon="12.8223567"><ele>691.0</ele><time>2026-04-04T09:02:43.04Z</time></trkpt><trkpt lat="42.3338717" lon="12.8224383"><ele>692.8333333333334</ele><time>2026-04-04T09:02:44.04Z</time></trkpt><trkpt lat="42.333915" lon="12.82252"><ele>694.6666666666667</ele><time>2026-04-04T09:02:45.041Z</time></trkpt><trkpt lat="42.3339617" lon="12.822585"><ele>696.5</ele><time>2026-04-04T09:02:46.041Z</time></trkpt><trkpt lat="42.3340117" lon="12.82266"><ele>698.3333333333334</ele><time>2026-04-04T09:02:47.039Z</time></trkpt><trkpt lat="42.3340883" lon="12.82278"><ele>700.1666666666666</ele><time>2026-04-04T09:02:49.041Z</time></trkpt><trkpt lat="42.33413" lon="12.8228983"><ele>702.0</ele><time>2026-04-04T09:02:51.04Z</time></trkpt><trkpt lat="42.334135" lon="12.823035"><ele>702.8333333333334</ele><time>2026-04-04T09:02:53.039Z</time></trkpt><trkpt lat="42.3341583" lon="12.8231467"><ele>703.6666666666666</ele><time>2026-04-04T09:02:55.039Z</time></trkpt><trkpt lat="42.3341267" lon="12.8232567"><ele>704.5</ele><time>2026-04-04T09:02:57.039Z</time></trkpt><trkpt lat="42.3340567" lon="12.823305"><ele>705.3333333333333</ele><time>2026-04-04T09:02:59.041Z</time></trkpt><trkpt lat="42.3339833" lon="12.8233017"><ele>706.1666666666666</ele><time>2026-04-04T09:03:01.04Z</time></trkpt><trkpt lat="42.3339067" lon="12.8233283"><ele>707.0</ele><time>2026-04-04T09:03:03.039Z</time></trkpt><trkpt lat="42.333815" lon="12.8233817"><ele>708.6</ele><time>2026-04-04T09:03:05.041Z</time></trkpt><trkpt lat="42.3337383" lon="12.823415"><ele>710.2</ele><time>2026-04-04T09:03:07.043Z</time></trkpt><trkpt lat="42.3336683" lon="12.8234633"><ele>711.8</ele><time>2026-04-04T09:03:09.04Z</time></trkpt><trkpt lat="42.333585" lon="12.82355"><ele>713.4</ele><time>2026-04-04T09:03:11.045Z</time></trkpt><trkpt lat="42.3334917" lon="12.8235933"><ele>715.0</ele><time>2026-04-04T09:03:13.039Z</time></trkpt><trkpt lat="42.333395" lon="12.8236333"><ele>715.0</ele><time>2026-04-04T09:03:15.041Z</time></trkpt><trkpt lat="42.333305" lon="12.8235617"><ele>715.0</ele><time>2026-04-04T09:03:17.039Z</time></trkpt><trkpt lat="42.3332183" lon="12.823515"><ele>715.0</ele><time>2026-04-04T09:03:19.04Z</time></trkpt><trkpt lat="42.3331517" lon="12.8234383"><ele>715.0</ele><time>2026-04-04T09:03:21.043Z</time></trkpt><trkpt lat="42.3330817" lon="12.8233683"><ele>715.0</ele><time>2026-04-04T09:03:23.041Z</time></trkpt><trkpt lat="42.33299" lon="12.82331"><ele>719.6</ele><time>2026-04-04T09:03:25.041Z</time></trkpt><trkpt lat="42.3329033" lon="12.8232617"><ele>724.2</ele><time>2026-04-04T09:03:27.04Z</time></trkpt><trkpt lat="42.3327967" lon="12.8232483"><ele>728.8</ele><time>2026-04-04T09:03:29.041Z</time></trkpt><trkpt lat="42.3326833" lon="12.8232433"><ele>733.4</ele><time>2026-04-04T09:03:31.04Z</time></trkpt><trkpt lat="42.33258" lon="12.8232217"><ele>738.0</ele><time>2026-04-04T09:03:33.039Z</time></trkpt><trkpt lat="42.3324667" lon="12.8232"><ele>738.0</ele><time>2026-04-04T09:03:35.04Z</time></trkpt><trkpt lat="42.33234" lon="12.8231783"><ele>738.0</ele><time>2026-04-04T09:03:37.04Z</time></trkpt><trkpt lat="42.3322333" lon="12.8231417"><ele>738.0</ele><time>2026-04-04T09:03:39.04Z</time></trkpt><trkpt lat="42.3321617" lon="12.8231583"><ele>738.0</ele><time>2026-04-04T09:03:41.041Z</time></trkpt><trkpt lat="42.3321217" lon="12.8232367"><ele>738.0</ele><time>2026-04-04T09:03:43.041Z</time></trkpt><trkpt lat="42.3320767" lon="12.8233383"><ele>738.4</ele><time>2026-04-04T09:03:45.04Z</time></trkpt><trkpt lat="42.3320333" lon="12.8234433"><ele>738.8</ele><time>2026-04-04T09:03:47.04Z</time></trkpt><trkpt lat="42.3319633" lon="12.8235417"><ele>739.2</ele><time>2026-04-04T09:03:49.04Z</time></trkpt><trkpt lat="42.3319167" lon="12.8236433"><ele>739.6</ele><time>2026-04-04T09:03:51.04Z</time></trkpt><trkpt lat="42.3318467" lon="12.8238317"><ele>740.0</ele><time>2026-04-04T09:04:48.04Z</time></trkpt><trkpt lat="42.3319117" lon="12.82384"><ele>744.1666666666666</ele><time>2026-04-04T09:04:50.041Z</time></trkpt><trkpt lat="42.331975" lon="12.8238367"><ele>748.3333333333333</ele><time>2026-04-04T09:04:52.039Z</time></trkpt><trkpt lat="42.3320467" lon="12.8238533"><ele>752.5</ele><time>2026-04-04T09:04:54.039Z</time></trkpt><trkpt lat="42.3321317" lon="12.82387"><ele>756.6666666666666</ele><time>2026-04-04T09:04:56.04Z</time></trkpt><trkpt lat="42.3321883" lon="12.8239317"><ele>760.8333333333334</ele><time>2026-04-04T09:04:59.041Z</time></trkpt><trkpt lat="42.3321667" lon="12.8240483"><ele>765.0</ele><time>2026-04-04T09:05:03.04Z</time></trkpt><trkpt lat="42.3321017" lon="12.8241183"><ele>765.0</ele><time>2026-04-04T09:05:06.041Z</time></trkpt><trkpt lat="42.3320517" lon="12.8242067"><ele>765.0</ele><time>2026-04-04T09:05:08.04Z</time></trkpt><trkpt lat="42.3320367" lon="12.82431"><ele>765.0</ele><time>2026-04-04T09:05:11.039Z</time></trkpt><trkpt lat="42.3320133" lon="12.8244"><ele>765.0</ele><time>2026-04-04T09:05:14.04Z</time></trkpt><trkpt lat="42.33201" lon="12.82454"><ele>765.0</ele><time>2026-04-04T09:05:16.041Z</time></trkpt><trkpt lat="42.332005" lon="12.824685"><ele>765.0</ele><time>2026-04-04T09:05:18.04Z</time></trkpt><trkpt lat="42.332015" lon="12.82483"><ele>767.0</ele><time>2026-04-04T09:05:20.042Z</time></trkpt><trkpt lat="42.3320417" lon="12.824975"><ele>769.0</ele><time>2026-04-04T09:05:22.039Z</time></trkpt><trkpt lat="42.3321017" lon="12.8250133"><ele>771.0</ele><time>2026-04-04T09:05:26.041Z</time></trkpt><trkpt lat="42.3321333" lon="12.8251183"><ele>773.0</ele><time>2026-04-04T09:05:47.039Z</time></trkpt><trkpt lat="42.3322167" lon="12.82515"><ele>775.0</ele><time>2026-04-04T09:05:49.042Z</time></trkpt><trkpt lat="42.332275" lon="12.8251883"><ele>777.0</ele><time>2026-04-04T09:05:50.039Z</time></trkpt><trkpt lat="42.3323467" lon="12.8252333"><ele>777.0</ele><time>2026-04-04T09:05:51.043Z</time></trkpt><trkpt lat="42.3324217" lon="12.8252883"><ele>777.0</ele><time>2026-04-04T09:05:52.04Z</time></trkpt><trkpt lat="42.33249" lon="12.8253417"><ele>777.0</ele><time>2026-04-04T09:05:53.041Z</time></trkpt><trkpt lat="42.3325633" lon="12.825395"><ele>777.0</ele><time>2026-04-04T09:05:54.039Z</time></trkpt><trkpt lat="42.3326267" lon="12.82544"><ele>777.0</ele><time>2026-04-04T09:05:55.041Z</time></trkpt><trkpt lat="42.3326933" lon="12.82548"><ele>777.0</ele><time>2026-04-04T09:05:56.04Z</time></trkpt><trkpt lat="42.332775" lon="12.8255067"><ele>777.0</ele><time>2026-04-04T09:05:57.041Z</time></trkpt><trkpt lat="42.3328533" lon="12.82554"><ele>777.0</ele><time>2026-04-04T09:05:58.045Z</time></trkpt><trkpt lat="42.332925" lon="12.8255817"><ele>777.0</ele><time>2026-04-04T09:05:59.043Z</time></trkpt><trkpt lat="42.333" lon="12.8256217"><ele>777.0</ele><time>2026-04-04T09:06:00.04Z</time></trkpt><trkpt lat="42.3330717" lon="12.8256517"><ele>777.0</ele><time>2026-04-04T09:06:01.041Z</time></trkpt><trkpt lat="42.3331533" lon="12.8256767"><ele>777.0</ele><time>2026-04-04T09:06:02.04Z</time></trkpt><trkpt lat="42.3332183" lon="12.8257"><ele>778.0</ele><time>2026-04-04T09:06:03.041Z</time></trkpt><trkpt lat="42.3332867" lon="12.8257267"><ele>779.0</ele><time>2026-04-04T09:06:04.039Z</time></trkpt><trkpt lat="42.3333533" lon="12.8257533"><ele>780.0</ele><time>2026-04-04T09:06:05.041Z</time></trkpt><trkpt lat="42.333425" lon="12.8257783"><ele>781.0</ele><time>2026-04-04T09:06:06.041Z</time></trkpt><trkpt lat="42.33349" lon="12.8258067"><ele>782.0</ele><time>2026-04-04T09:06:07.043Z</time></trkpt><trkpt lat="42.3335633" lon="12.8258283"><ele>783.0</ele><time>2026-04-04T09:06:08.04Z</time></trkpt><trkpt lat="42.3336333" lon="12.8258583"><ele>784.0</ele><time>2026-04-04T09:06:09.041Z</time></trkpt><trkpt lat="42.3337017" lon="12.82589"><ele>783.9999999999999</ele><time>2026-04-04T09:06:10.04Z</time></trkpt><trkpt lat="42.3337717" lon="12.82592"><ele>784.0</ele><time>2026-04-04T09:06:11.041Z</time></trkpt><trkpt lat="42.3338433" lon="12.82595"><ele>784.0</ele><time>2026-04-04T09:06:12.04Z</time></trkpt><trkpt lat="42.3339067" lon="12.825975"><ele>784.0</ele><time>2026-04-04T09:06:13.041Z</time></trkpt><trkpt lat="42.3339717" lon="12.8259967"><ele>783.9999999999999</ele><time>2026-04-04T09:06:14.041Z</time></trkpt><trkpt lat="42.3340817" lon="12.826005"><ele>784.0</ele><time>2026-04-04T09:06:16.041Z</time></trkpt><trkpt lat="42.3342067" lon="12.82599"><ele>783.2857142857143</ele><time>2026-04-04T09:06:18.04Z</time></trkpt><trkpt lat="42.3342817" lon="12.82599"><ele>782.5714285714286</ele><time>2026-04-04T09:06:19.041Z</time></trkpt><trkpt lat="42.3343533" lon="12.82599"><ele>781.8571428571429</ele><time>2026-04-04T09:06:20.04Z</time></trkpt><trkpt lat="42.334425" lon="12.8259917"><ele>781.1428571428571</ele><time>2026-04-04T09:06:21.04Z</time></trkpt><trkpt lat="42.3345033" lon="12.8260083"><ele>780.4285714285714</ele><time>2026-04-04T09:06:22.041Z</time></trkpt><trkpt lat="42.3345783" lon="12.826025"><ele>779.7142857142858</ele><time>2026-04-04T09:06:23.04Z</time></trkpt><trkpt lat="42.33464" lon="12.8260433"><ele>779.0</ele><time>2026-04-04T09:06:24.04Z</time></trkpt><trkpt lat="42.334705" lon="12.8260633"><ele>779.4000000000001</ele><time>2026-04-04T09:06:25.04Z</time></trkpt><trkpt lat="42.3348167" lon="12.826125"><ele>779.8</ele><time>2026-04-04T09:06:27.039Z</time></trkpt><trkpt lat="42.3348767" lon="12.826165"><ele>780.2</ele><time>2026-04-04T09:06:28.041Z</time></trkpt><trkpt lat="42.33497" lon="12.8262183"><ele>780.5999999999999</ele><time>2026-04-04T09:06:30.039Z</time></trkpt><trkpt lat="42.3350683" lon="12.8262517"><ele>781.0</ele><time>2026-04-04T09:06:32.041Z</time></trkpt><trkpt lat="42.3351633" lon="12.826285"><ele>781.0</ele><time>2026-04-04T09:06:34.04Z</time></trkpt><trkpt lat="42.33527" lon="12.8263067"><ele>781.0</ele><time>2026-04-04T09:06:36.04Z</time></trkpt><trkpt lat="42.335385" lon="12.8262933"><ele>781.0</ele><time>2026-04-04T09:06:38.04Z</time></trkpt><trkpt lat="42.3354917" lon="12.8262933"><ele>781.0</ele><time>2026-04-04T09:06:40.041Z</time></trkpt><trkpt lat="42.3355833" lon="12.826305"><ele>781.0</ele><time>2026-04-04T09:06:42.04Z</time></trkpt><trkpt lat="42.335685" lon="12.826305"><ele>779.4999999999999</ele><time>2026-04-04T09:06:44.041Z</time></trkpt><trkpt lat="42.3357783" lon="12.82632"><ele>778.0</ele><time>2026-04-04T09:06:46.041Z</time></trkpt><trkpt lat="42.3358833" lon="12.8263317"><ele>776.5</ele><time>2026-04-04T09:06:48.039Z</time></trkpt><trkpt lat="42.33595" lon="12.8263167"><ele>775.0</ele><time>2026-04-04T09:06:49.04Z</time></trkpt><trkpt lat="42.33603" lon="12.8262933"><ele>773.4999999999999</ele><time>2026-04-04T09:06:50.04Z</time></trkpt><trkpt lat="42.3361067" lon="12.8262717"><ele>772.0</ele><time>2026-04-04T09:06:51.041Z</time></trkpt><trkpt lat="42.3361917" lon="12.826255"><ele>771.9999999999999</ele><time>2026-04-04T09:06:52.041Z</time></trkpt><trkpt lat="42.3362617" lon="12.8262317"><ele>772.0</ele><time>2026-04-04T09:06:53.04Z</time></trkpt><trkpt lat="42.3363367" lon="12.8262067"><ele>772.0</ele><time>2026-04-04T09:06:54.04Z</time></trkpt><trkpt lat="42.3364067" lon="12.8261833"><ele>772.0</ele><time>2026-04-04T09:06:55.04Z</time></trkpt><trkpt lat="42.33648" lon="12.826165"><ele>771.9999999999999</ele><time>2026-04-04T09:06:56.04Z</time></trkpt><trkpt lat="42.3365517" lon="12.826135"><ele>772.0</ele><time>2026-04-04T09:06:57.04Z</time></trkpt><trkpt lat="42.33664" lon="12.8261117"><ele>770.8333333333333</ele><time>2026-04-04T09:06:58.039Z</time></trkpt><trkpt lat="42.3367117" lon="12.826075"><ele>769.6666666666666</ele><time>2026-04-04T09:06:59.04Z</time></trkpt><trkpt lat="42.33679" lon="12.82604"><ele>768.5</ele><time>2026-04-04T09:07:00.04Z</time></trkpt><trkpt lat="42.3368833" lon="12.826"><ele>767.3333333333333</ele><time>2026-04-04T09:07:01.042Z</time></trkpt><trkpt lat="42.336965" lon="12.8259583"><ele>766.1666666666666</ele><time>2026-04-04T09:07:02.04Z</time></trkpt><trkpt lat="42.3370433" lon="12.8259033"><ele>765.0</ele><time>2026-04-04T09:07:03.039Z</time></trkpt><trkpt lat="42.3371183" lon="12.82585"><ele>765.0</ele><time>2026-04-04T09:07:04.04Z</time></trkpt><trkpt lat="42.3371883" lon="12.8257917"><ele>765.0</ele><time>2026-04-04T09:07:05.039Z</time></trkpt><trkpt lat="42.3372583" lon="12.8257317"><ele>765.0</ele><time>2026-04-04T09:07:06.04Z</time></trkpt><trkpt lat="42.33734" lon="12.8256633"><ele>765.0</ele><time>2026-04-04T09:07:07.041Z</time></trkpt><trkpt lat="42.337405" lon="12.8256067"><ele>765.0</ele><time>2026-04-04T09:07:08.04Z</time></trkpt><trkpt lat="42.337475" lon="12.82555"><ele>765.0</ele><time>2026-04-04T09:07:09.042Z</time></trkpt><trkpt lat="42.3375417" lon="12.8254917"><ele>763.6666666666666</ele><time>2026-04-04T09:07:10.039Z</time></trkpt><trkpt lat="42.33761" lon="12.8254317"><ele>762.3333333333334</ele><time>2026-04-04T09:07:11.04Z</time></trkpt><trkpt lat="42.3376783" lon="12.8253733"><ele>761.0</ele><time>2026-04-04T09:07:12.04Z</time></trkpt><trkpt lat="42.3377467" lon="12.82532"><ele>759.6666666666667</ele><time>2026-04-04T09:07:13.039Z</time></trkpt><trkpt lat="42.3378117" lon="12.8252567"><ele>758.3333333333334</ele><time>2026-04-04T09:07:14.044Z</time></trkpt><trkpt lat="42.3378833" lon="12.8252317"><ele>757.0</ele><time>2026-04-04T09:07:15.04Z</time></trkpt><trkpt lat="42.3379533" lon="12.8251983"><ele>757.0</ele><time>2026-04-04T09:07:16.041Z</time></trkpt><trkpt lat="42.33802" lon="12.8251783"><ele>757.0</ele><time>2026-04-04T09:07:17.04Z</time></trkpt><trkpt lat="42.3380833" lon="12.8251533"><ele>757.0</ele><time>2026-04-04T09:07:18.04Z</time></trkpt><trkpt lat="42.33814" lon="12.8251133"><ele>757.0</ele><time>2026-04-04T09:07:19.04Z</time></trkpt><trkpt lat="42.3382433" lon="12.8250633"><ele>757.0</ele><time>2026-04-04T09:07:21.039Z</time></trkpt><trkpt lat="42.338365" lon="12.8250033"><ele>757.0</ele><time>2026-04-04T09:07:23.041Z</time></trkpt><trkpt lat="42.3384283" lon="12.8249733"><ele>758.8333333333334</ele><time>2026-04-04T09:07:24.04Z</time></trkpt><trkpt lat="42.3384883" lon="12.82494"><ele>760.6666666666667</ele><time>2026-04-04T09:07:25.04Z</time></trkpt><trkpt lat="42.3386017" lon="12.82486"><ele>762.5</ele><time>2026-04-04T09:07:27.039Z</time></trkpt><trkpt lat="42.3386583" lon="12.8248133"><ele>764.3333333333334</ele><time>2026-04-04T09:07:28.041Z</time></trkpt><trkpt lat="42.3387117" lon="12.824745"><ele>766.1666666666666</ele><time>2026-04-04T09:07:29.041Z</time></trkpt><trkpt lat="42.3387683" lon="12.8247067"><ele>768.0</ele><time>2026-04-04T09:07:30.041Z</time></trkpt><trkpt lat="42.3388283" lon="12.8246467"><ele>766.5</ele><time>2026-04-04T09:07:31.041Z</time></trkpt><trkpt lat="42.338885" lon="12.8245917"><ele>765.0</ele><time>2026-04-04T09:07:32.04Z</time></trkpt><trkpt lat="42.3389683" lon="12.8245067"><ele>763.5</ele><time>2026-04-04T09:07:34.039Z</time></trkpt><trkpt lat="42.339035" lon="12.82441"><ele>762.0</ele><time>2026-04-04T09:07:36.041Z</time></trkpt><trkpt lat="42.3391083" lon="12.8243317"><ele>760.5</ele><time>2026-04-04T09:07:38.04Z</time></trkpt><trkpt lat="42.3391867" lon="12.8242933"><ele>759.0</ele><time>2026-04-04T09:07:40.04Z</time></trkpt><trkpt lat="42.3392517" lon="12.8242617"><ele>763.5</ele><time>2026-04-04T09:07:42.041Z</time></trkpt><trkpt lat="42.3393267" lon="12.8241633"><ele>768.0</ele><time>2026-04-04T09:07:44.04Z</time></trkpt><trkpt lat="42.339405" lon="12.8241283"><ele>772.5</ele><time>2026-04-04T09:07:46.039Z</time></trkpt><trkpt lat="42.3394833" lon="12.824095"><ele>777.0</ele><time>2026-04-04T09:07:48.04Z</time></trkpt><trkpt lat="42.33956" lon="12.8240717"><ele>781.5</ele><time>2026-04-04T09:07:50.04Z</time></trkpt><trkpt lat="42.3396483" lon="12.8240383"><ele>786.0</ele><time>2026-04-04T09:07:52.04Z</time></trkpt><trkpt lat="42.3397033" lon="12.8239933"><ele>787.0</ele><time>2026-04-04T09:07:53.042Z</time></trkpt><trkpt lat="42.3397783" lon="12.8239367"><ele>788.0</ele><time>2026-04-04T09:07:55.04Z</time></trkpt><trkpt lat="42.339835" lon="12.8238917"><ele>789.0</ele><time>2026-04-04T09:07:56.04Z</time></trkpt><trkpt lat="42.3399167" lon="12.8238417"><ele>790.0</ele><time>2026-04-04T09:07:58.039Z</time></trkpt><trkpt lat="42.3399717" lon="12.82378"><ele>791.0</ele><time>2026-04-04T09:08:00.041Z</time></trkpt><trkpt lat="42.3400233" lon="12.8236883"><ele>792.0</ele><time>2026-04-04T09:08:02.04Z</time></trkpt><trkpt lat="42.3401083" lon="12.8235767"><ele>798.75</ele><time>2026-04-04T09:08:04.04Z</time></trkpt><trkpt lat="42.3401867" lon="12.8234467"><ele>805.5</ele><time>2026-04-04T09:08:06.04Z</time></trkpt><trkpt lat="42.3402833" lon="12.82336"><ele>812.25</ele><time>2026-04-04T09:08:08.039Z</time></trkpt><trkpt lat="42.3403667" lon="12.8232617"><ele>819.0</ele><time>2026-04-04T09:08:10.04Z</time></trkpt><trkpt lat="42.3404417" lon="12.8231567"><ele>819.0</ele><time>2026-04-04T09:08:12.041Z</time></trkpt><trkpt lat="42.3405233" lon="12.823065"><ele>819.0</ele><time>2026-04-04T09:08:14.04Z</time></trkpt><trkpt lat="42.3406017" lon="12.8229783"><ele>819.0</ele><time>2026-04-04T09:08:16.041Z</time></trkpt><trkpt lat="42.3406817" lon="12.8229067"><ele>819.0</ele><time>2026-04-04T09:08:18.039Z</time></trkpt><trkpt lat="42.3407333" lon="12.8228333"><ele>819.0</ele><time>2026-04-04T09:08:20.04Z</time></trkpt><trkpt lat="42.34082" lon="12.8227483"><ele>818.5</ele><time>2026-04-04T09:08:22.04Z</time></trkpt><trkpt lat="42.34089" lon="12.82266"><ele>818.0</ele><time>2026-04-04T09:08:24.04Z</time></trkpt><trkpt lat="42.3409417" lon="12.8225617"><ele>817.5</ele><time>2026-04-04T09:08:26.04Z</time></trkpt><trkpt lat="42.3409733" lon="12.8224717"><ele>817.0</ele><time>2026-04-04T09:08:28.041Z</time></trkpt><trkpt lat="42.3409883" lon="12.822375"><ele>816.5</ele><time>2026-04-04T09:08:30.04Z</time></trkpt><trkpt lat="42.341035" lon="12.822265"><ele>816.0</ele><time>2026-04-04T09:08:32.041Z</time></trkpt><trkpt lat="42.3411017" lon="12.8221367"><ele>817.6666666666666</ele><time>2026-04-04T09:08:34.04Z</time></trkpt><trkpt lat="42.341165" lon="12.8220933"><ele>819.3333333333333</ele><time>2026-04-04T09:08:35.039Z</time></trkpt><trkpt lat="42.3412683" lon="12.8220117"><ele>821.0</ele><time>2026-04-04T09:08:37.042Z</time></trkpt><trkpt lat="42.3413433" lon="12.8219633"><ele>822.6666666666666</ele><time>2026-04-04T09:08:39.042Z</time></trkpt><trkpt lat="42.3414167" lon="12.8218917"><ele>824.3333333333333</ele><time>2026-04-04T09:08:41.04Z</time></trkpt><trkpt lat="42.341475" lon="12.8218233"><ele>826.0</ele><time>2026-04-04T09:08:43.041Z</time></trkpt><trkpt lat="42.3415383" lon="12.8217517"><ele>828.4</ele><time>2026-04-04T09:08:45.041Z</time></trkpt><trkpt lat="42.3416" lon="12.8216333"><ele>830.8</ele><time>2026-04-04T09:08:47.04Z</time></trkpt><trkpt lat="42.3416667" lon="12.8215633"><ele>833.1999999999999</ele><time>2026-04-04T09:08:48.04Z</time></trkpt><trkpt lat="42.3417617" lon="12.82145"><ele>835.5999999999999</ele><time>2026-04-04T09:08:50.04Z</time></trkpt><trkpt lat="42.3418117" lon="12.8213883"><ele>838.0</ele><time>2026-04-04T09:08:51.04Z</time></trkpt><trkpt lat="42.3418617" lon="12.8213233"><ele>838.0</ele><time>2026-04-04T09:08:52.04Z</time></trkpt><trkpt lat="42.3419183" lon="12.8212533"><ele>838.0</ele><time>2026-04-04T09:08:53.041Z</time></trkpt><trkpt lat="42.3419767" lon="12.8211683"><ele>838.0</ele><time>2026-04-04T09:08:54.039Z</time></trkpt><trkpt lat="42.3420467" lon="12.8210717"><ele>838.0</ele><time>2026-04-04T09:08:55.041Z</time></trkpt><trkpt lat="42.34213" lon="12.8209667"><ele>838.0</ele><time>2026-04-04T09:08:56.04Z</time></trkpt><trkpt lat="42.342205" lon="12.8208717"><ele>836.3333333333333</ele><time>2026-04-04T09:08:57.041Z</time></trkpt><trkpt lat="42.3422417" lon="12.8208017"><ele>834.6666666666666</ele><time>2026-04-04T09:08:58.039Z</time></trkpt><trkpt lat="42.342295" lon="12.820745"><ele>833.0</ele><time>2026-04-04T09:08:59.039Z</time></trkpt><trkpt lat="42.3423433" lon="12.8206783"><ele>831.3333333333333</ele><time>2026-04-04T09:09:00.04Z</time></trkpt><trkpt lat="42.342415" lon="12.8206233"><ele>829.6666666666666</ele><time>2026-04-04T09:09:01.042Z</time></trkpt><trkpt lat="42.342455" lon="12.8205567"><ele>828.0</ele><time>2026-04-04T09:09:02.041Z</time></trkpt><trkpt lat="42.3425767" lon="12.8204583"><ele>828.0</ele><time>2026-04-04T09:09:04.04Z</time></trkpt><trkpt lat="42.342665" lon="12.8203417"><ele>828.0</ele><time>2026-04-04T09:09:06.043Z</time></trkpt><trkpt lat="42.3427367" lon="12.8202767"><ele>828.0</ele><time>2026-04-04T09:09:07.041Z</time></trkpt><trkpt lat="42.34281" lon="12.8202033"><ele>828.0</ele><time>2026-04-04T09:09:08.039Z</time></trkpt><trkpt lat="42.3429067" lon="12.820115"><ele>828.0</ele><time>2026-04-04T09:09:09.04Z</time></trkpt><trkpt lat="42.3430367" lon="12.8199883"><ele>826.5999999999999</ele><time>2026-04-04T09:09:10.04Z</time></trkpt><trkpt lat="42.3431533" lon="12.8199383"><ele>825.1999999999999</ele><time>2026-04-04T09:09:11.042Z</time></trkpt><trkpt lat="42.343265" lon="12.8198983"><ele>823.8</ele><time>2026-04-04T09:09:12.039Z</time></trkpt><trkpt lat="42.3433617" lon="12.81986"><ele>822.4</ele><time>2026-04-04T09:09:13.041Z</time></trkpt><trkpt lat="42.3434633" lon="12.8198417"><ele>821.0</ele><time>2026-04-04T09:09:14.041Z</time></trkpt><trkpt lat="42.3435617" lon="12.8198367"><ele>821.0000000000001</ele><time>2026-04-04T09:09:15.042Z</time></trkpt><trkpt lat="42.3436533" lon="12.819835"><ele>821.0</ele><time>2026-04-04T09:09:16.04Z</time></trkpt><trkpt lat="42.3437333" lon="12.8198283"><ele>821.0</ele><time>2026-04-04T09:09:17.041Z</time></trkpt><trkpt lat="42.3438167" lon="12.8198017"><ele>821.0</ele><time>2026-04-04T09:09:18.04Z</time></trkpt><trkpt lat="42.343895" lon="12.8197883"><ele>821.0000000000001</ele><time>2026-04-04T09:09:19.041Z</time></trkpt><trkpt lat="42.3439667" lon="12.81976"><ele>821.0</ele><time>2026-04-04T09:09:20.04Z</time></trkpt><trkpt lat="42.3440367" lon="12.81974"><ele>821.5714285714287</ele><time>2026-04-04T09:09:21.041Z</time></trkpt><trkpt lat="42.344105" lon="12.8197217"><ele>822.1428571428571</ele><time>2026-04-04T09:09:22.039Z</time></trkpt><trkpt lat="42.3441683" lon="12.8197017"><ele>822.7142857142858</ele><time>2026-04-04T09:09:23.04Z</time></trkpt><trkpt lat="42.34423" lon="12.8196817"><ele>823.2857142857143</ele><time>2026-04-04T09:09:24.04Z</time></trkpt><trkpt lat="42.3442967" lon="12.8196733"><ele>823.8571428571429</ele><time>2026-04-04T09:09:25.042Z</time></trkpt><trkpt lat="42.3443717" lon="12.819665"><ele>824.4285714285714</ele><time>2026-04-04T09:09:26.04Z</time></trkpt><trkpt lat="42.3444517" lon="12.81966"><ele>825.0</ele><time>2026-04-04T09:09:27.04Z</time></trkpt><trkpt lat="42.3445233" lon="12.8196433"><ele>825.0</ele><time>2026-04-04T09:09:28.04Z</time></trkpt><trkpt lat="42.3445917" lon="12.8196017"><ele>825.0</ele><time>2026-04-04T09:09:29.04Z</time></trkpt><trkpt lat="42.3446667" lon="12.8195567"><ele>825.0</ele><time>2026-04-04T09:09:30.042Z</time></trkpt><trkpt lat="42.3447233" lon="12.819505"><ele>825.0</ele><time>2026-04-04T09:09:31.042Z</time></trkpt><trkpt lat="42.3447817" lon="12.819435"><ele>825.0</ele><time>2026-04-04T09:09:32.041Z</time></trkpt><trkpt lat="42.34485" lon="12.8193583"><ele>825.0</ele><time>2026-04-04T09:09:33.04Z</time></trkpt><trkpt lat="42.344895" lon="12.8192667"><ele>825.5714285714286</ele><time>2026-04-04T09:09:34.041Z</time></trkpt><trkpt lat="42.3449267" lon="12.81918"><ele>826.1428571428572</ele><time>2026-04-04T09:09:35.04Z</time></trkpt><trkpt lat="42.3449583" lon="12.8191017"><ele>826.7142857142858</ele><time>2026-04-04T09:09:36.042Z</time></trkpt><trkpt lat="42.3449883" lon="12.819025"><ele>827.2857142857142</ele><time>2026-04-04T09:09:37.042Z</time></trkpt><trkpt lat="42.3450333" lon="12.8189583"><ele>827.8571428571429</ele><time>2026-04-04T09:09:38.041Z</time></trkpt><trkpt lat="42.34508" lon="12.8188983"><ele>828.4285714285714</ele><time>2026-04-04T09:09:39.04Z</time></trkpt><trkpt lat="42.3451333" lon="12.818845"><ele>829.0</ele><time>2026-04-04T09:09:40.042Z</time></trkpt><trkpt lat="42.34518" lon="12.818785"><ele>829.0</ele><time>2026-04-04T09:09:41.04Z</time></trkpt><trkpt lat="42.3452283" lon="12.8187233"><ele>829.0</ele><time>2026-04-04T09:09:42.04Z</time></trkpt><trkpt lat="42.345315" lon="12.8186017"><ele>829.0</ele><time>2026-04-04T09:09:44.04Z</time></trkpt><trkpt lat="42.3453833" lon="12.8184783"><ele>829.0</ele><time>2026-04-04T09:09:46.041Z</time></trkpt><trkpt lat="42.3454467" lon="12.8183533"><ele>829.0</ele><time>2026-04-04T09:09:48.04Z</time></trkpt><trkpt lat="42.3455083" lon="12.8182417"><ele>827.3333333333333</ele><time>2026-04-04T09:09:50.039Z</time></trkpt><trkpt lat="42.345585" lon="12.8181367"><ele>825.6666666666666</ele><time>2026-04-04T09:09:52.042Z</time></trkpt><trkpt lat="42.345655" lon="12.8180617"><ele>824.0</ele><time>2026-04-04T09:09:54.04Z</time></trkpt><trkpt lat="42.345715" lon="12.8179783"><ele>822.3333333333333</ele><time>2026-04-04T09:09:56.041Z</time></trkpt><trkpt lat="42.3457833" lon="12.8179317"><ele>820.6666666666666</ele><time>2026-04-04T09:09:58.039Z</time></trkpt><trkpt lat="42.3458467" lon="12.81789"><ele>819.0</ele><time>2026-04-04T09:10:00.04Z</time></trkpt><trkpt lat="42.345895" lon="12.8178317"><ele>819.0</ele><time>2026-04-04T09:10:02.041Z</time></trkpt><trkpt lat="42.345945" lon="12.8177383"><ele>819.0</ele><time>2026-04-04T09:10:04.041Z</time></trkpt><trkpt lat="42.3459983" lon="12.8176267"><ele>819.0</ele><time>2026-04-04T09:10:06.039Z</time></trkpt><trkpt lat="42.346035" lon="12.817525"><ele>819.0</ele><time>2026-04-04T09:10:08.039Z</time></trkpt><trkpt lat="42.3460517" lon="12.817415"><ele>819.0</ele><time>2026-04-04T09:10:10.04Z</time></trkpt><trkpt lat="42.3460867" lon="12.8172967"><ele>819.0</ele><time>2026-04-04T09:10:12.04Z</time></trkpt><trkpt lat="42.3461483" lon="12.8172117"><ele>818.0</ele><time>2026-04-04T09:10:14.041Z</time></trkpt><trkpt lat="42.34621" lon="12.8171367"><ele>817.0</ele><time>2026-04-04T09:10:16.04Z</time></trkpt><trkpt lat="42.3462867" lon="12.8170617"><ele>816.0</ele><time>2026-04-04T09:10:18.041Z</time></trkpt><trkpt lat="42.3463683" lon="12.8169933"><ele>815.0</ele><time>2026-04-04T09:10:20.041Z</time></trkpt><trkpt lat="42.3464383" lon="12.81693"><ele>814.0</ele><time>2026-04-04T09:10:22.041Z</time></trkpt><trkpt lat="42.34652" lon="12.8168717"><ele>814.0</ele><time>2026-04-04T09:10:24.041Z</time></trkpt><trkpt lat="42.3466217" lon="12.816815"><ele>814.0</ele><time>2026-04-04T09:10:26.039Z</time></trkpt><trkpt lat="42.3467467" lon="12.81675"><ele>814.0</ele><time>2026-04-04T09:10:28.04Z</time></trkpt><trkpt lat="42.3468167" lon="12.8167067"><ele>814.0</ele><time>2026-04-04T09:10:29.039Z</time></trkpt><trkpt lat="42.3468917" lon="12.816665"><ele>814.0</ele><time>2026-04-04T09:10:30.04Z</time></trkpt><trkpt lat="42.346965" lon="12.8166233"><ele>814.0000000000001</ele><time>2026-04-04T09:10:31.04Z</time></trkpt><trkpt lat="42.34704" lon="12.81659"><ele>814.0</ele><time>2026-04-04T09:10:32.04Z</time></trkpt><trkpt lat="42.347115" lon="12.8165617"><ele>814.0</ele><time>2026-04-04T09:10:33.04Z</time></trkpt><trkpt lat="42.347185" lon="12.8165267"><ele>814.0</ele><time>2026-04-04T09:10:34.038Z</time></trkpt><trkpt lat="42.3472467" lon="12.816505"><ele>814.0</ele><time>2026-04-04T09:10:35.041Z</time></trkpt><trkpt lat="42.3473133" lon="12.8164933"><ele>814.0000000000001</ele><time>2026-04-04T09:10:36.04Z</time></trkpt><trkpt lat="42.3473767" lon="12.8164833"><ele>814.0</ele><time>2026-04-04T09:10:37.042Z</time></trkpt><trkpt lat="42.3474433" lon="12.8164867"><ele>814.7142857142858</ele><time>2026-04-04T09:10:38.041Z</time></trkpt><trkpt lat="42.3475067" lon="12.8164983"><ele>815.4285714285714</ele><time>2026-04-04T09:10:39.04Z</time></trkpt><trkpt lat="42.3475717" lon="12.8165217"><ele>816.1428571428571</ele><time>2026-04-04T09:10:40.04Z</time></trkpt><trkpt lat="42.34764" lon="12.81655"><ele>816.8571428571429</ele><time>2026-04-04T09:10:41.04Z</time></trkpt><trkpt lat="42.34771" lon="12.81658"><ele>817.5714285714286</ele><time>2026-04-04T09:10:42.041Z</time></trkpt><trkpt lat="42.3477883" lon="12.81661"><ele>818.2857142857143</ele><time>2026-04-04T09:10:43.04Z</time></trkpt><trkpt lat="42.34787" lon="12.8166383"><ele>819.0</ele><time>2026-04-04T09:10:44.041Z</time></trkpt><trkpt lat="42.347955" lon="12.8166617"><ele>818.8333333333334</ele><time>2026-04-04T09:10:45.041Z</time></trkpt><trkpt lat="42.3480433" lon="12.8166833"><ele>818.6666666666667</ele><time>2026-04-04T09:10:46.04Z</time></trkpt><trkpt lat="42.3481383" lon="12.8167233"><ele>818.5</ele><time>2026-04-04T09:10:47.041Z</time></trkpt><trkpt lat="42.34823" lon="12.81676"><ele>818.3333333333334</ele><time>2026-04-04T09:10:48.041Z</time></trkpt><trkpt lat="42.34831" lon="12.816795"><ele>818.1666666666667</ele><time>2026-04-04T09:10:49.041Z</time></trkpt><trkpt lat="42.3483817" lon="12.8168267"><ele>818.0</ele><time>2026-04-04T09:10:50.041Z</time></trkpt><trkpt lat="42.3484517" lon="12.8168283"><ele>819.5000000000001</ele><time>2026-04-04T09:10:51.04Z</time></trkpt><trkpt lat="42.348525" lon="12.8168033"><ele>821.0</ele><time>2026-04-04T09:10:52.04Z</time></trkpt><trkpt lat="42.348595" lon="12.81676"><ele>822.5</ele><time>2026-04-04T09:10:53.041Z</time></trkpt><trkpt lat="42.3486683" lon="12.8166967"><ele>824.0</ele><time>2026-04-04T09:10:54.041Z</time></trkpt><trkpt lat="42.3487467" lon="12.816625"><ele>825.5000000000001</ele><time>2026-04-04T09:10:55.042Z</time></trkpt><trkpt lat="42.348815" lon="12.8165667"><ele>827.0</ele><time>2026-04-04T09:10:56.04Z</time></trkpt><trkpt lat="42.3488783" lon="12.81653"><ele>829.4000000000001</ele><time>2026-04-04T09:10:57.039Z</time></trkpt><trkpt lat="42.3489867" lon="12.81651"><ele>831.8000000000001</ele><time>2026-04-04T09:10:59.041Z</time></trkpt><trkpt lat="42.3490933" lon="12.81656"><ele>834.2</ele><time>2026-04-04T09:11:01.041Z</time></trkpt><trkpt lat="42.3491633" lon="12.8165967"><ele>836.6</ele><time>2026-04-04T09:11:02.039Z</time></trkpt><trkpt lat="42.3492417" lon="12.816635"><ele>839.0</ele><time>2026-04-04T09:11:03.039Z</time></trkpt><trkpt lat="42.34932" lon="12.816685"><ele>839.0000000000001</ele><time>2026-04-04T09:11:04.039Z</time></trkpt><trkpt lat="42.3493917" lon="12.8167383"><ele>839.0</ele><time>2026-04-04T09:11:05.043Z</time></trkpt><trkpt lat="42.349465" lon="12.8168067"><ele>839.0</ele><time>2026-04-04T09:11:06.04Z</time></trkpt><trkpt lat="42.3495383" lon="12.81687"><ele>839.0</ele><time>2026-04-04T09:11:07.042Z</time></trkpt><trkpt lat="42.3496033" lon="12.8169317"><ele>839.0000000000001</ele><time>2026-04-04T09:11:08.04Z</time></trkpt><trkpt lat="42.34966" lon="12.8170033"><ele>839.0</ele><time>2026-04-04T09:11:09.04Z</time></trkpt><trkpt lat="42.349725" lon="12.8170767"><ele>837.1666666666667</ele><time>2026-04-04T09:11:10.04Z</time></trkpt><trkpt lat="42.3497883" lon="12.8171567"><ele>835.3333333333334</ele><time>2026-04-04T09:11:11.042Z</time></trkpt><trkpt lat="42.3498567" lon="12.8172367"><ele>833.5</ele><time>2026-04-04T09:11:12.04Z</time></trkpt><trkpt lat="42.3499267" lon="12.8173183"><ele>831.6666666666667</ele><time>2026-04-04T09:11:13.041Z</time></trkpt><trkpt lat="42.349985" lon="12.8173967"><ele>829.8333333333334</ele><time>2026-04-04T09:11:14.04Z</time></trkpt><trkpt lat="42.3500417" lon="12.817475"><ele>828.0</ele><time>2026-04-04T09:11:15.045Z</time></trkpt><trkpt lat="42.3501" lon="12.8175517"><ele>828.0</ele><time>2026-04-04T09:11:16.041Z</time></trkpt><trkpt lat="42.3501733" lon="12.817625"><ele>828.0</ele><time>2026-04-04T09:11:17.041Z</time></trkpt><trkpt lat="42.35027" lon="12.817675"><ele>828.0</ele><time>2026-04-04T09:11:18.04Z</time></trkpt><trkpt lat="42.3503733" lon="12.8177117"><ele>828.0</ele><time>2026-04-04T09:11:19.041Z</time></trkpt><trkpt lat="42.3504733" lon="12.8177433"><ele>828.0</ele><time>2026-04-04T09:11:20.041Z</time></trkpt><trkpt lat="42.3505767" lon="12.817765"><ele>829.5999999999999</ele><time>2026-04-04T09:11:21.041Z</time></trkpt><trkpt lat="42.3506667" lon="12.8177983"><ele>831.1999999999999</ele><time>2026-04-04T09:11:22.039Z</time></trkpt><trkpt lat="42.3507533" lon="12.81785"><ele>832.8</ele><time>2026-04-04T09:11:23.041Z</time></trkpt><trkpt lat="42.3508283" lon="12.81791"><ele>834.4</ele><time>2026-04-04T09:11:24.041Z</time></trkpt><trkpt lat="42.3509017" lon="12.81798"><ele>836.0</ele><time>2026-04-04T09:11:25.04Z</time></trkpt><trkpt lat="42.35097" lon="12.81807"><ele>836.0</ele><time>2026-04-04T09:11:26.04Z</time></trkpt><trkpt lat="42.3510517" lon="12.8181633"><ele>836.0</ele><time>2026-04-04T09:11:27.042Z</time></trkpt><trkpt lat="42.3511267" lon="12.8182667"><ele>836.0</ele><time>2026-04-04T09:11:28.04Z</time></trkpt><trkpt lat="42.3511933" lon="12.8183667"><ele>836.0</ele><time>2026-04-04T09:11:29.039Z</time></trkpt><trkpt lat="42.35126" lon="12.8184683"><ele>836.0</ele><time>2026-04-04T09:11:30.04Z</time></trkpt><trkpt lat="42.3513283" lon="12.8185667"><ele>836.0</ele><time>2026-04-04T09:11:31.042Z</time></trkpt><trkpt lat="42.3513983" lon="12.8186583"><ele>836.0</ele><time>2026-04-04T09:11:32.04Z</time></trkpt><trkpt lat="42.3514767" lon="12.8187417"><ele>836.0</ele><time>2026-04-04T09:11:33.041Z</time></trkpt><trkpt lat="42.3515583" lon="12.81882"><ele>836.0</ele><time>2026-04-04T09:11:34.041Z</time></trkpt><trkpt lat="42.35164" lon="12.8188933"><ele>836.0</ele><time>2026-04-04T09:11:35.041Z</time></trkpt><trkpt lat="42.35171" lon="12.81895"><ele>836.0000000000001</ele><time>2026-04-04T09:11:36.04Z</time></trkpt><trkpt lat="42.3517767" lon="12.8190033"><ele>836.0</ele><time>2026-04-04T09:11:37.04Z</time></trkpt><trkpt lat="42.3518467" lon="12.8190483"><ele>836.0</ele><time>2026-04-04T09:11:38.04Z</time></trkpt><trkpt lat="42.35192" lon="12.819085"><ele>836.0</ele><time>2026-04-04T09:11:39.04Z</time></trkpt><trkpt lat="42.352005" lon="12.8191083"><ele>836.0000000000001</ele><time>2026-04-04T09:11:40.04Z</time></trkpt><trkpt lat="42.3520867" lon="12.8191367"><ele>836.0</ele><time>2026-04-04T09:11:41.041Z</time></trkpt><trkpt lat="42.3521667" lon="12.819185"><ele>836.0000000000001</ele><time>2026-04-04T09:11:42.039Z</time></trkpt><trkpt lat="42.3522367" lon="12.819245"><ele>836.0</ele><time>2026-04-04T09:11:43.041Z</time></trkpt><trkpt lat="42.3522967" lon="12.819315"><ele>836.0</ele><time>2026-04-04T09:11:44.04Z</time></trkpt><trkpt lat="42.352355" lon="12.819385"><ele>836.0</ele><time>2026-04-04T09:11:45.039Z</time></trkpt><trkpt lat="42.352415" lon="12.8194433"><ele>836.0000000000001</ele><time>2026-04-04T09:11:46.042Z</time></trkpt><trkpt lat="42.3524783" lon="12.8194867"><ele>836.0</ele><time>2026-04-04T09:11:47.04Z</time></trkpt><trkpt lat="42.3525433" lon="12.8195183"><ele>836.3333333333334</ele><time>2026-04-04T09:11:48.041Z</time></trkpt><trkpt lat="42.3526283" lon="12.8195317"><ele>836.6666666666667</ele><time>2026-04-04T09:11:49.04Z</time></trkpt><trkpt lat="42.3527217" lon="12.8195283"><ele>837.0</ele><time>2026-04-04T09:11:50.041Z</time></trkpt><trkpt lat="42.352805" lon="12.8195267"><ele>837.3333333333333</ele><time>2026-04-04T09:11:51.04Z</time></trkpt><trkpt lat="42.35289" lon="12.8195267"><ele>837.6666666666666</ele><time>2026-04-04T09:11:52.041Z</time></trkpt><trkpt lat="42.3529733" lon="12.8195317"><ele>838.0</ele><time>2026-04-04T09:11:53.04Z</time></trkpt><trkpt lat="42.353055" lon="12.8195317"><ele>839.1666666666666</ele><time>2026-04-04T09:11:54.039Z</time></trkpt><trkpt lat="42.3531383" lon="12.8195217"><ele>840.3333333333333</ele><time>2026-04-04T09:11:55.039Z</time></trkpt><trkpt lat="42.35322" lon="12.819515"><ele>841.5</ele><time>2026-04-04T09:11:56.04Z</time></trkpt><trkpt lat="42.3532933" lon="12.8195067"><ele>842.6666666666667</ele><time>2026-04-04T09:11:57.039Z</time></trkpt><trkpt lat="42.3533717" lon="12.8194967"><ele>843.8333333333334</ele><time>2026-04-04T09:11:58.039Z</time></trkpt><trkpt lat="42.3534517" lon="12.8195067"><ele>845.0</ele><time>2026-04-04T09:11:59.039Z</time></trkpt><trkpt lat="42.3535317" lon="12.8195233"><ele>845.0000000000001</ele><time>2026-04-04T09:12:00.04Z</time></trkpt><trkpt lat="42.3536083" lon="12.8195383"><ele>845.0</ele><time>2026-04-04T09:12:01.041Z</time></trkpt><trkpt lat="42.3536833" lon="12.8195517"><ele>845.0</ele><time>2026-04-04T09:12:02.041Z</time></trkpt><trkpt lat="42.3537667" lon="12.8195583"><ele>845.0</ele><time>2026-04-04T09:12:03.039Z</time></trkpt><trkpt lat="42.35385" lon="12.8195667"><ele>845.0000000000001</ele><time>2026-04-04T09:12:04.04Z</time></trkpt><trkpt lat="42.3539317" lon="12.8195683"><ele>845.0</ele><time>2026-04-04T09:12:05.039Z</time></trkpt><trkpt lat="42.3540167" lon="12.819565"><ele>841.8</ele><time>2026-04-04T09:12:06.041Z</time></trkpt><trkpt lat="42.35411" lon="12.8195617"><ele>838.6</ele><time>2026-04-04T09:12:07.041Z</time></trkpt><trkpt lat="42.3542033" lon="12.81956"><ele>835.4000000000001</ele><time>2026-04-04T09:12:08.04Z</time></trkpt><trkpt lat="42.3542867" lon="12.819585"><ele>832.2</ele><time>2026-04-04T09:12:09.04Z</time></trkpt><trkpt lat="42.3543733" lon="12.8196267"><ele>829.0</ele><time>2026-04-04T09:12:10.039Z</time></trkpt><trkpt lat="42.35446" lon="12.81966"><ele>829.0</ele><time>2026-04-04T09:12:11.04Z</time></trkpt><trkpt lat="42.35453" lon="12.81975"><ele>829.0</ele><time>2026-04-04T09:12:12.039Z</time></trkpt><trkpt lat="42.3546083" lon="12.8198217"><ele>829.0</ele><time>2026-04-04T09:12:13.04Z</time></trkpt><trkpt lat="42.3546933" lon="12.8198883"><ele>829.0</ele><time>2026-04-04T09:12:14.04Z</time></trkpt><trkpt lat="42.3547733" lon="12.8199567"><ele>829.0</ele><time>2026-04-04T09:12:15.039Z</time></trkpt><trkpt lat="42.3548533" lon="12.8200283"><ele>829.8000000000001</ele><time>2026-04-04T09:12:16.041Z</time></trkpt><trkpt lat="42.3549417" lon="12.82008"><ele>830.6</ele><time>2026-04-04T09:12:17.04Z</time></trkpt><trkpt lat="42.3550267" lon="12.8201283"><ele>831.4</ele><time>2026-04-04T09:12:18.041Z</time></trkpt><trkpt lat="42.3551083" lon="12.82018"><ele>832.2</ele><time>2026-04-04T09:12:19.041Z</time></trkpt><trkpt lat="42.355195" lon="12.8202283"><ele>833.0</ele><time>2026-04-04T09:12:20.041Z</time></trkpt><trkpt lat="42.3552733" lon="12.8202833"><ele>833.5000000000001</ele><time>2026-04-04T09:12:21.041Z</time></trkpt><trkpt lat="42.355345" lon="12.82035"><ele>834.0</ele><time>2026-04-04T09:12:22.039Z</time></trkpt><trkpt lat="42.3554217" lon="12.8204133"><ele>834.5</ele><time>2026-04-04T09:12:23.04Z</time></trkpt><trkpt lat="42.35548" lon="12.8205"><ele>835.0</ele><time>2026-04-04T09:12:24.041Z</time></trkpt><trkpt lat="42.3555333" lon="12.820595"><ele>835.5000000000001</ele><time>2026-04-04T09:12:25.04Z</time></trkpt><trkpt lat="42.3555883" lon="12.820675"><ele>836.0</ele><time>2026-04-04T09:12:26.04Z</time></trkpt><trkpt lat="42.35565" lon="12.8207667"><ele>836.0000000000001</ele><time>2026-04-04T09:12:27.039Z</time></trkpt><trkpt lat="42.3557083" lon="12.82084"><ele>836.0</ele><time>2026-04-04T09:12:28.041Z</time></trkpt><trkpt lat="42.3557683" lon="12.8209217"><ele>836.0</ele><time>2026-04-04T09:12:29.039Z</time></trkpt><trkpt lat="42.35583" lon="12.8209817"><ele>836.0</ele><time>2026-04-04T09:12:30.04Z</time></trkpt><trkpt lat="42.3558967" lon="12.821035"><ele>836.0000000000001</ele><time>2026-04-04T09:12:31.04Z</time></trkpt><trkpt lat="42.3559617" lon="12.8210883"><ele>836.0</ele><time>2026-04-04T09:12:32.039Z</time></trkpt><trkpt lat="42.3560183" lon="12.8211417"><ele>832.0000000000001</ele><time>2026-04-04T09:12:33.039Z</time></trkpt><trkpt lat="42.3560733" lon="12.8211933"><ele>828.0</ele><time>2026-04-04T09:12:34.039Z</time></trkpt><trkpt lat="42.356125" lon="12.8212667"><ele>824.0</ele><time>2026-04-04T09:12:35.04Z</time></trkpt><trkpt lat="42.3561667" lon="12.8213533"><ele>820.0</ele><time>2026-04-04T09:12:36.04Z</time></trkpt><trkpt lat="42.3562067" lon="12.8214817"><ele>816.0000000000001</ele><time>2026-04-04T09:12:37.04Z</time></trkpt><trkpt lat="42.356235" lon="12.821615"><ele>812.0</ele><time>2026-04-04T09:12:38.04Z</time></trkpt><trkpt lat="42.3562517" lon="12.8217517"><ele>808.8</ele><time>2026-04-04T09:12:39.04Z</time></trkpt><trkpt lat="42.3562417" lon="12.8218917"><ele>805.6</ele><time>2026-04-04T09:12:40.04Z</time></trkpt><trkpt lat="42.3562317" lon="12.822025"><ele>802.4</ele><time>2026-04-04T09:12:41.042Z</time></trkpt><trkpt lat="42.356225" lon="12.822155"><ele>799.1999999999999</ele><time>2026-04-04T09:12:42.041Z</time></trkpt><trkpt lat="42.3562117" lon="12.8222883"><ele>796.0</ele><time>2026-04-04T09:12:43.042Z</time></trkpt><trkpt lat="42.3562283" lon="12.8224"><ele>795.9999999999999</ele><time>2026-04-04T09:12:44.041Z</time></trkpt><trkpt lat="42.3562483" lon="12.8225217"><ele>796.0</ele><time>2026-04-04T09:12:45.041Z</time></trkpt><trkpt lat="42.3562783" lon="12.8226367"><ele>796.0</ele><time>2026-04-04T09:12:46.04Z</time></trkpt><trkpt lat="42.3563117" lon="12.8227483"><ele>796.0</ele><time>2026-04-04T09:12:47.04Z</time></trkpt><trkpt lat="42.3563467" lon="12.82285"><ele>795.9999999999999</ele><time>2026-04-04T09:12:48.04Z</time></trkpt><trkpt lat="42.3563917" lon="12.82295"><ele>796.0</ele><time>2026-04-04T09:12:49.04Z</time></trkpt><trkpt lat="42.3564383" lon="12.823045"><ele>794.4285714285713</ele><time>2026-04-04T09:12:50.04Z</time></trkpt><trkpt lat="42.3564833" lon="12.8231333"><ele>792.8571428571429</ele><time>2026-04-04T09:12:51.04Z</time></trkpt><trkpt lat="42.35653" lon="12.82322"><ele>791.2857142857142</ele><time>2026-04-04T09:12:52.039Z</time></trkpt><trkpt lat="42.3565767" lon="12.823305"><ele>789.7142857142857</ele><time>2026-04-04T09:12:53.04Z</time></trkpt><trkpt lat="42.3566267" lon="12.823375"><ele>788.1428571428571</ele><time>2026-04-04T09:12:54.04Z</time></trkpt><trkpt lat="42.3566767" lon="12.8234283"><ele>786.5714285714286</ele><time>2026-04-04T09:12:55.039Z</time></trkpt><trkpt lat="42.3567283" lon="12.8234917"><ele>785.0</ele><time>2026-04-04T09:12:56.04Z</time></trkpt><trkpt lat="42.3567867" lon="12.82356"><ele>785.0</ele><time>2026-04-04T09:12:57.039Z</time></trkpt><trkpt lat="42.356845" lon="12.82365"><ele>785.0</ele><time>2026-04-04T09:12:58.04Z</time></trkpt><trkpt lat="42.3569017" lon="12.8237483"><ele>785.0</ele><time>2026-04-04T09:12:59.04Z</time></trkpt><trkpt lat="42.3569533" lon="12.823855"><ele>785.0</ele><time>2026-04-04T09:13:00.04Z</time></trkpt><trkpt lat="42.357" lon="12.8239583"><ele>785.0</ele><time>2026-04-04T09:13:01.04Z</time></trkpt><trkpt lat="42.3570433" lon="12.82406"><ele>785.0000000000001</ele><time>2026-04-04T09:13:02.04Z</time></trkpt><trkpt lat="42.357085" lon="12.8241583"><ele>785.0</ele><time>2026-04-04T09:13:03.04Z</time></trkpt><trkpt lat="42.3571317" lon="12.82425"><ele>785.0</ele><time>2026-04-04T09:13:04.041Z</time></trkpt><trkpt lat="42.3571733" lon="12.8243433"><ele>785.0</ele><time>2026-04-04T09:13:05.04Z</time></trkpt><trkpt lat="42.3572217" lon="12.8244333"><ele>785.0000000000001</ele><time>2026-04-04T09:13:06.041Z</time></trkpt><trkpt lat="42.3572767" lon="12.8245183"><ele>785.0</ele><time>2026-04-04T09:13:07.041Z</time></trkpt><trkpt lat="42.3573267" lon="12.824605"><ele>786.1666666666667</ele><time>2026-04-04T09:13:08.041Z</time></trkpt><trkpt lat="42.357375" lon="12.8246933"><ele>787.3333333333334</ele><time>2026-04-04T09:13:09.04Z</time></trkpt><trkpt lat="42.3574217" lon="12.8247817"><ele>788.5</ele><time>2026-04-04T09:13:10.041Z</time></trkpt><trkpt lat="42.3574633" lon="12.8248683"><ele>789.6666666666667</ele><time>2026-04-04T09:13:11.04Z</time></trkpt><trkpt lat="42.357505" lon="12.8249567"><ele>790.8333333333334</ele><time>2026-04-04T09:13:12.04Z</time></trkpt><trkpt lat="42.357545" lon="12.825045"><ele>792.0</ele><time>2026-04-04T09:13:13.04Z</time></trkpt><trkpt lat="42.35759" lon="12.8251333"><ele>788.5</ele><time>2026-04-04T09:13:14.039Z</time></trkpt><trkpt lat="42.3576317" lon="12.8252267"><ele>785.0</ele><time>2026-04-04T09:13:15.04Z</time></trkpt><trkpt lat="42.3576683" lon="12.82531"><ele>781.5</ele><time>2026-04-04T09:13:16.04Z</time></trkpt><trkpt lat="42.3577033" lon="12.8253883"><ele>778.0</ele><time>2026-04-04T09:13:17.039Z</time></trkpt><trkpt lat="42.3577533" lon="12.825525"><ele>774.5</ele><time>2026-04-04T09:13:19.04Z</time></trkpt><trkpt lat="42.3578017" lon="12.8256517"><ele>771.0</ele><time>2026-04-04T09:13:21.04Z</time></trkpt><trkpt lat="42.3578517" lon="12.825775"><ele>771.0</ele><time>2026-04-04T09:13:23.041Z</time></trkpt><trkpt lat="42.3578833" lon="12.8259033"><ele>771.0</ele><time>2026-04-04T09:13:25.04Z</time></trkpt><trkpt lat="42.3579517" lon="12.826045"><ele>771.0</ele><time>2026-04-04T09:13:27.041Z</time></trkpt><trkpt lat="42.3579883" lon="12.826115"><ele>771.0</ele><time>2026-04-04T09:13:28.04Z</time></trkpt><trkpt lat="42.3580633" lon="12.8262533"><ele>771.0</ele><time>2026-04-04T09:13:30.039Z</time></trkpt><trkpt lat="42.3581367" lon="12.8263733"><ele>771.6666666666666</ele><time>2026-04-04T09:13:32.041Z</time></trkpt><trkpt lat="42.35821" lon="12.8264517"><ele>772.3333333333333</ele><time>2026-04-04T09:13:34.04Z</time></trkpt><trkpt lat="42.3582817" lon="12.8265067"><ele>773.0</ele><time>2026-04-04T09:13:36.04Z</time></trkpt><trkpt lat="42.3583417" lon="12.8265517"><ele>773.6666666666666</ele><time>2026-04-04T09:13:38.041Z</time></trkpt><trkpt lat="42.3584" lon="12.8266167"><ele>774.3333333333333</ele><time>2026-04-04T09:13:40.04Z</time></trkpt><trkpt lat="42.35846" lon="12.826685"><ele>775.0</ele><time>2026-04-04T09:13:42.04Z</time></trkpt><trkpt lat="42.35854" lon="12.826735"><ele>775.0</ele><time>2026-04-04T09:13:44.041Z</time></trkpt><trkpt lat="42.3586433" lon="12.8267667"><ele>775.0</ele><time>2026-04-04T09:13:46.04Z</time></trkpt><trkpt lat="42.3587417" lon="12.8267633"><ele>775.0</ele><time>2026-04-04T09:13:48.04Z</time></trkpt><trkpt lat="42.3588467" lon="12.8267583"><ele>775.0</ele><time>2026-04-04T09:13:50.041Z</time></trkpt><trkpt lat="42.358925" lon="12.826785"><ele>775.0</ele><time>2026-04-04T09:13:52.039Z</time></trkpt><trkpt lat="42.35901" lon="12.8268367"><ele>773.3333333333333</ele><time>2026-04-04T09:13:54.042Z</time></trkpt><trkpt lat="42.359105" lon="12.8268717"><ele>771.6666666666666</ele><time>2026-04-04T09:13:56.041Z</time></trkpt><trkpt lat="42.35918" lon="12.8268917"><ele>770.0</ele><time>2026-04-04T09:13:58.039Z</time></trkpt><trkpt lat="42.35926" lon="12.8268883"><ele>768.3333333333333</ele><time>2026-04-04T09:14:00.04Z</time></trkpt><trkpt lat="42.3593417" lon="12.8268717"><ele>766.6666666666666</ele><time>2026-04-04T09:14:02.041Z</time></trkpt><trkpt lat="42.359445" lon="12.8268783"><ele>765.0</ele><time>2026-04-04T09:14:04.041Z</time></trkpt><trkpt lat="42.35956" lon="12.8269033"><ele>765.0</ele><time>2026-04-04T09:14:06.041Z</time></trkpt><trkpt lat="42.3596267" lon="12.826915"><ele>765.0</ele><time>2026-04-04T09:14:07.04Z</time></trkpt><trkpt lat="42.3597017" lon="12.8269133"><ele>765.0</ele><time>2026-04-04T09:14:08.041Z</time></trkpt><trkpt lat="42.35978" lon="12.8269033"><ele>765.0</ele><time>2026-04-04T09:14:09.04Z</time></trkpt><trkpt lat="42.359855" lon="12.82688"><ele>765.0</ele><time>2026-04-04T09:14:10.041Z</time></trkpt><trkpt lat="42.35995" lon="12.8268417"><ele>765.0</ele><time>2026-04-04T09:14:11.042Z</time></trkpt><trkpt lat="42.360055" lon="12.8267983"><ele>762.8</ele><time>2026-04-04T09:14:12.039Z</time></trkpt><trkpt lat="42.36016" lon="12.8267567"><ele>760.6</ele><time>2026-04-04T09:14:13.041Z</time></trkpt><trkpt lat="42.3602633" lon="12.8267167"><ele>758.4000000000001</ele><time>2026-04-04T09:14:14.04Z</time></trkpt><trkpt lat="42.36036" lon="12.8266633"><ele>756.2</ele><time>2026-04-04T09:14:15.04Z</time></trkpt><trkpt lat="42.3604467" lon="12.8265917"><ele>754.0</ele><time>2026-04-04T09:14:16.04Z</time></trkpt><trkpt lat="42.3605267" lon="12.8265083"><ele>754.4000000000001</ele><time>2026-04-04T09:14:17.04Z</time></trkpt><trkpt lat="42.3606017" lon="12.82643"><ele>754.8</ele><time>2026-04-04T09:14:18.039Z</time></trkpt><trkpt lat="42.3606733" lon="12.8263517"><ele>755.2</ele><time>2026-04-04T09:14:19.041Z</time></trkpt><trkpt lat="42.3607467" lon="12.8262817"><ele>755.5999999999999</ele><time>2026-04-04T09:14:20.039Z</time></trkpt><trkpt lat="42.3608183" lon="12.82621"><ele>756.0</ele><time>2026-04-04T09:14:21.039Z</time></trkpt><trkpt lat="42.3608867" lon="12.8261383"><ele>756.0</ele><time>2026-04-04T09:14:22.04Z</time></trkpt><trkpt lat="42.3609517" lon="12.82608"><ele>756.0</ele><time>2026-04-04T09:14:23.04Z</time></trkpt><trkpt lat="42.3610233" lon="12.826015"><ele>756.0</ele><time>2026-04-04T09:14:24.044Z</time></trkpt><trkpt lat="42.3611133" lon="12.8259583"><ele>756.0</ele><time>2026-04-04T09:14:25.041Z</time></trkpt><trkpt lat="42.3612117" lon="12.8259"><ele>756.0</ele><time>2026-04-04T09:14:26.041Z</time></trkpt><trkpt lat="42.361315" lon="12.8258417"><ele>752.0</ele><time>2026-04-04T09:14:27.045Z</time></trkpt><trkpt lat="42.3614217" lon="12.82578"><ele>748.0</ele><time>2026-04-04T09:14:28.039Z</time></trkpt><trkpt lat="42.3615317" lon="12.8257183"><ele>744.0</ele><time>2026-04-04T09:14:29.042Z</time></trkpt><trkpt lat="42.3616417" lon="12.825665"><ele>740.0</ele><time>2026-04-04T09:14:30.04Z</time></trkpt><trkpt lat="42.361745" lon="12.8256383"><ele>740.0</ele><time>2026-04-04T09:14:31.04Z</time></trkpt><trkpt lat="42.3618367" lon="12.8256"><ele>740.0</ele><time>2026-04-04T09:14:32.039Z</time></trkpt><trkpt lat="42.3619267" lon="12.8255583"><ele>740.0</ele><time>2026-04-04T09:14:33.041Z</time></trkpt><trkpt lat="42.3620017" lon="12.8255233"><ele>740.0</ele><time>2026-04-04T09:14:34.04Z</time></trkpt><trkpt lat="42.362085" lon="12.8254817"><ele>740.0</ele><time>2026-04-04T09:14:35.039Z</time></trkpt><trkpt lat="42.3621617" lon="12.825445"><ele>740.0</ele><time>2026-04-04T09:14:36.04Z</time></trkpt><trkpt lat="42.3622367" lon="12.825415"><ele>738.9999999999999</ele><time>2026-04-04T09:14:37.041Z</time></trkpt><trkpt lat="42.3623067" lon="12.8253867"><ele>738.0</ele><time>2026-04-04T09:14:38.041Z</time></trkpt><trkpt lat="42.3623733" lon="12.8253767"><ele>737.0</ele><time>2026-04-04T09:14:39.04Z</time></trkpt><trkpt lat="42.362445" lon="12.82537"><ele>736.0</ele><time>2026-04-04T09:14:40.04Z</time></trkpt><trkpt lat="42.3625117" lon="12.8253633"><ele>735.0</ele><time>2026-04-04T09:14:41.04Z</time></trkpt><trkpt lat="42.362575" lon="12.8253517"><ele>733.9999999999999</ele><time>2026-04-04T09:14:42.039Z</time></trkpt><trkpt lat="42.362665" lon="12.8252967"><ele>733.0</ele><time>2026-04-04T09:14:44.04Z</time></trkpt><trkpt lat="42.3627183" lon="12.8252283"><ele>729.6666666666667</ele><time>2026-04-04T09:14:46.039Z</time></trkpt><trkpt lat="42.36268" lon="12.8251183"><ele>726.3333333333334</ele><time>2026-04-04T09:14:49.041Z</time></trkpt><trkpt lat="42.3625983" lon="12.8251033"><ele>723.0</ele><time>2026-04-04T09:14:50.041Z</time></trkpt><trkpt lat="42.3625317" lon="12.8251033"><ele>719.6666666666666</ele><time>2026-04-04T09:14:51.041Z</time></trkpt><trkpt lat="42.3624433" lon="12.8251217"><ele>716.3333333333333</ele><time>2026-04-04T09:14:52.042Z</time></trkpt><trkpt lat="42.362355" lon="12.8251317"><ele>713.0</ele><time>2026-04-04T09:14:53.04Z</time></trkpt><trkpt lat="42.362235" lon="12.8251433"><ele>713.75</ele><time>2026-04-04T09:14:54.04Z</time></trkpt><trkpt lat="42.362115" lon="12.82516"><ele>714.5</ele><time>2026-04-04T09:14:55.042Z</time></trkpt><trkpt lat="42.36198" lon="12.8251533"><ele>715.25</ele><time>2026-04-04T09:14:56.041Z</time></trkpt><trkpt lat="42.3618533" lon="12.8251517"><ele>716.0</ele><time>2026-04-04T09:14:57.04Z</time></trkpt><trkpt lat="42.3617233" lon="12.8251433"><ele>716.0</ele><time>2026-04-04T09:14:58.04Z</time></trkpt><trkpt lat="42.3615983" lon="12.825145"><ele>716.0</ele><time>2026-04-04T09:14:59.04Z</time></trkpt><trkpt lat="42.361485" lon="12.82514"><ele>716.0</ele><time>2026-04-04T09:15:00.039Z</time></trkpt><trkpt lat="42.36138" lon="12.8251233"><ele>716.0</ele><time>2026-04-04T09:15:01.04Z</time></trkpt><trkpt lat="42.36128" lon="12.8251133"><ele>716.0</ele><time>2026-04-04T09:15:02.041Z</time></trkpt><trkpt lat="42.36119" lon="12.8251"><ele>716.5999999999999</ele><time>2026-04-04T09:15:03.041Z</time></trkpt><trkpt lat="42.3611" lon="12.825095"><ele>717.2</ele><time>2026-04-04T09:15:04.041Z</time></trkpt><trkpt lat="42.36101" lon="12.8251"><ele>717.8</ele><time>2026-04-04T09:15:05.041Z</time></trkpt><trkpt lat="42.3609167" lon="12.8251167"><ele>718.4000000000001</ele><time>2026-04-04T09:15:06.04Z</time></trkpt><trkpt lat="42.36082" lon="12.82514"><ele>719.0</ele><time>2026-04-04T09:15:07.039Z</time></trkpt><trkpt lat="42.36073" lon="12.8251617"><ele>721.3333333333333</ele><time>2026-04-04T09:15:08.04Z</time></trkpt><trkpt lat="42.3606483" lon="12.8251767"><ele>723.6666666666666</ele><time>2026-04-04T09:15:09.041Z</time></trkpt><trkpt lat="42.3605783" lon="12.8251833"><ele>726.0</ele><time>2026-04-04T09:15:10.04Z</time></trkpt><trkpt lat="42.3605133" lon="12.8251917"><ele>728.3333333333334</ele><time>2026-04-04T09:15:11.041Z</time></trkpt><trkpt lat="42.36045" lon="12.8251917"><ele>730.6666666666667</ele><time>2026-04-04T09:15:12.042Z</time></trkpt><trkpt lat="42.3603867" lon="12.825185"><ele>733.0</ele><time>2026-04-04T09:15:13.04Z</time></trkpt><trkpt lat="42.3602783" lon="12.82512"><ele>733.0</ele><time>2026-04-04T09:15:15.04Z</time></trkpt><trkpt lat="42.3602183" lon="12.8249967"><ele>733.0</ele><time>2026-04-04T09:15:17.039Z</time></trkpt><trkpt lat="42.3602083" lon="12.8249083"><ele>733.0</ele><time>2026-04-04T09:15:18.04Z</time></trkpt><trkpt lat="42.360195" lon="12.82482"><ele>733.0</ele><time>2026-04-04T09:15:19.041Z</time></trkpt><trkpt lat="42.3601883" lon="12.8247167"><ele>733.0</ele><time>2026-04-04T09:15:20.04Z</time></trkpt><trkpt lat="42.360205" lon="12.8246117"><ele>733.0</ele><time>2026-04-04T09:15:21.039Z</time></trkpt><trkpt lat="42.3602267" lon="12.82452"><ele>733.0</ele><time>2026-04-04T09:15:22.039Z</time></trkpt><trkpt lat="42.3602567" lon="12.8244367"><ele>733.0</ele><time>2026-04-04T09:15:23.039Z</time></trkpt><trkpt lat="42.360305" lon="12.8243467"><ele>733.0</ele><time>2026-04-04T09:15:24.039Z</time></trkpt><trkpt lat="42.3603667" lon="12.8242433"><ele>733.0</ele><time>2026-04-04T09:15:25.04Z</time></trkpt><trkpt lat="42.3604333" lon="12.8241433"><ele>733.0</ele><time>2026-04-04T09:15:26.04Z</time></trkpt><trkpt lat="42.3605033" lon="12.8240633"><ele>733.0</ele><time>2026-04-04T09:15:27.041Z</time></trkpt><trkpt lat="42.36057" lon="12.8239733"><ele>731.25</ele><time>2026-04-04T09:15:28.04Z</time></trkpt><trkpt lat="42.3606333" lon="12.8238617"><ele>729.5</ele><time>2026-04-04T09:15:29.04Z</time></trkpt><trkpt lat="42.3606983" lon="12.82374"><ele>727.75</ele><time>2026-04-04T09:15:30.04Z</time></trkpt><trkpt lat="42.36077" lon="12.823605"><ele>726.0</ele><time>2026-04-04T09:15:31.04Z</time></trkpt><trkpt lat="42.3608367" lon="12.823475"><ele>726.0</ele><time>2026-04-04T09:15:32.041Z</time></trkpt><trkpt lat="42.3609117" lon="12.8233683"><ele>726.0</ele><time>2026-04-04T09:15:33.04Z</time></trkpt><trkpt lat="42.36101" lon="12.8232867"><ele>726.0</ele><time>2026-04-04T09:15:34.039Z</time></trkpt><trkpt lat="42.3611283" lon="12.8232367"><ele>726.0</ele><time>2026-04-04T09:15:35.04Z</time></trkpt><trkpt lat="42.3612483" lon="12.823205"><ele>726.0</ele><time>2026-04-04T09:15:36.039Z</time></trkpt><trkpt lat="42.3613633" lon="12.823165"><ele>726.0</ele><time>2026-04-04T09:15:37.041Z</time></trkpt><trkpt lat="42.3614717" lon="12.8231133"><ele>726.0</ele><time>2026-04-04T09:15:38.039Z</time></trkpt><trkpt lat="42.3615717" lon="12.8230383"><ele>726.0</ele><time>2026-04-04T09:15:39.041Z</time></trkpt><trkpt lat="42.361655" lon="12.82294"><ele>724.4</ele><time>2026-04-04T09:15:40.041Z</time></trkpt><trkpt lat="42.3617283" lon="12.8228217"><ele>722.8</ele><time>2026-04-04T09:15:41.04Z</time></trkpt><trkpt lat="42.3617633" lon="12.82269"><ele>721.1999999999999</ele><time>2026-04-04T09:15:42.04Z</time></trkpt><trkpt lat="42.3617733" lon="12.822545"><ele>719.5999999999999</ele><time>2026-04-04T09:15:43.041Z</time></trkpt><trkpt lat="42.3617817" lon="12.8223983"><ele>718.0</ele><time>2026-04-04T09:15:44.041Z</time></trkpt><trkpt lat="42.3618083" lon="12.8222783"><ele>718.0</ele><time>2026-04-04T09:15:45.04Z</time></trkpt><trkpt lat="42.3618517" lon="12.822165"><ele>718.0</ele><time>2026-04-04T09:15:46.04Z</time></trkpt><trkpt lat="42.3619017" lon="12.8220567"><ele>718.0</ele><time>2026-04-04T09:15:47.04Z</time></trkpt><trkpt lat="42.3619717" lon="12.8219933"><ele>718.0</ele><time>2026-04-04T09:15:48.039Z</time></trkpt><trkpt lat="42.362055" lon="12.821965"><ele>718.0</ele><time>2026-04-04T09:15:49.041Z</time></trkpt><trkpt lat="42.362165" lon="12.82198"><ele>713.5</ele><time>2026-04-04T09:15:50.041Z</time></trkpt><trkpt lat="42.36228" lon="12.82203"><ele>709.0</ele><time>2026-04-04T09:15:51.041Z</time></trkpt><trkpt lat="42.3623883" lon="12.8220417"><ele>704.5</ele><time>2026-04-04T09:15:52.043Z</time></trkpt><trkpt lat="42.3625017" lon="12.82203"><ele>700.0</ele><time>2026-04-04T09:15:53.041Z</time></trkpt><trkpt lat="42.3626117" lon="12.8219933"><ele>700.0</ele><time>2026-04-04T09:15:54.041Z</time></trkpt><trkpt lat="42.3627167" lon="12.8219233"><ele>700.0</ele><time>2026-04-04T09:15:55.04Z</time></trkpt><trkpt lat="42.362835" lon="12.821825"><ele>700.0</ele><time>2026-04-04T09:15:56.04Z</time></trkpt><trkpt lat="42.3629567" lon="12.8217183"><ele>700.0</ele><time>2026-04-04T09:15:57.04Z</time></trkpt><trkpt lat="42.3630783" lon="12.821615"><ele>702.0</ele><time>2026-04-04T09:15:58.041Z</time></trkpt><trkpt lat="42.3632" lon="12.821535"><ele>704.0</ele><time>2026-04-04T09:15:59.04Z</time></trkpt><trkpt lat="42.36333" lon="12.82147"><ele>706.0</ele><time>2026-04-04T09:16:00.043Z</time></trkpt><trkpt lat="42.36346" lon="12.8213967"><ele>708.0</ele><time>2026-04-04T09:16:01.04Z</time></trkpt><trkpt lat="42.36358" lon="12.8213133"><ele>708.0</ele><time>2026-04-04T09:16:02.039Z</time></trkpt><trkpt lat="42.363695" lon="12.8212117"><ele>708.0</ele><time>2026-04-04T09:16:03.039Z</time></trkpt><trkpt lat="42.3638033" lon="12.8211067"><ele>708.0</ele><time>2026-04-04T09:16:04.041Z</time></trkpt><trkpt lat="42.3638983" lon="12.821"><ele>708.0</ele><time>2026-04-04T09:16:05.039Z</time></trkpt><trkpt lat="42.363975" lon="12.8208917"><ele>705.2</ele><time>2026-04-04T09:16:06.041Z</time></trkpt><trkpt lat="42.3640233" lon="12.820765"><ele>702.4</ele><time>2026-04-04T09:16:07.04Z</time></trkpt><trkpt lat="42.3640467" lon="12.82064"><ele>699.6</ele><time>2026-04-04T09:16:08.039Z</time></trkpt><trkpt lat="42.36404" lon="12.8205217"><ele>696.8000000000001</ele><time>2026-04-04T09:16:09.041Z</time></trkpt><trkpt lat="42.3640183" lon="12.820405"><ele>694.0</ele><time>2026-04-04T09:16:10.04Z</time></trkpt><trkpt lat="42.363965" lon="12.8202933"><ele>694.0</ele><time>2026-04-04T09:16:11.04Z</time></trkpt><trkpt lat="42.3638733" lon="12.82021"><ele>694.0</ele><time>2026-04-04T09:16:12.04Z</time></trkpt><trkpt lat="42.3637483" lon="12.82017"><ele>694.0</ele><time>2026-04-04T09:16:13.04Z</time></trkpt><trkpt lat="42.3636217" lon="12.8201367"><ele>694.0</ele><time>2026-04-04T09:16:14.039Z</time></trkpt><trkpt lat="42.3634983" lon="12.8200983"><ele>697.75</ele><time>2026-04-04T09:16:15.04Z</time></trkpt><trkpt lat="42.363375" lon="12.82006"><ele>701.5</ele><time>2026-04-04T09:16:16.04Z</time></trkpt><trkpt lat="42.3632533" lon="12.82001"><ele>705.25</ele><time>2026-04-04T09:16:17.04Z</time></trkpt><trkpt lat="42.3631333" lon="12.8199517"><ele>709.0</ele><time>2026-04-04T09:16:18.042Z</time></trkpt><trkpt lat="42.3630217" lon="12.8198817"><ele>715.25</ele><time>2026-04-04T09:16:19.04Z</time></trkpt><trkpt lat="42.3629117" lon="12.8198033"><ele>721.5</ele><time>2026-04-04T09:16:20.04Z</time></trkpt><trkpt lat="42.362805" lon="12.8197167"><ele>727.75</ele><time>2026-04-04T09:16:21.039Z</time></trkpt><trkpt lat="42.3627033" lon="12.819625"><ele>734.0</ele><time>2026-04-04T09:16:22.04Z</time></trkpt><trkpt lat="42.3626067" lon="12.8195333"><ele>734.0</ele><time>2026-04-04T09:16:23.04Z</time></trkpt><trkpt lat="42.362515" lon="12.8194483"><ele>734.0</ele><time>2026-04-04T09:16:24.039Z</time></trkpt><trkpt lat="42.3624267" lon="12.8193783"><ele>734.0</ele><time>2026-04-04T09:16:25.046Z</time></trkpt><trkpt lat="42.36234" lon="12.8193183"><ele>734.0</ele><time>2026-04-04T09:16:26.04Z</time></trkpt><trkpt lat="42.3622517" lon="12.8192783"><ele>734.0</ele><time>2026-04-04T09:16:27.04Z</time></trkpt><trkpt lat="42.36219" lon="12.8192183"><ele>733.8333333333333</ele><time>2026-04-04T09:16:28.041Z</time></trkpt><trkpt lat="42.3621383" lon="12.8191467"><ele>733.6666666666666</ele><time>2026-04-04T09:16:29.04Z</time></trkpt><trkpt lat="42.3621117" lon="12.8190533"><ele>733.5</ele><time>2026-04-04T09:16:30.041Z</time></trkpt><trkpt lat="42.3621167" lon="12.818955"><ele>733.3333333333334</ele><time>2026-04-04T09:16:31.042Z</time></trkpt><trkpt lat="42.362155" lon="12.8188683"><ele>733.1666666666667</ele><time>2026-04-04T09:16:32.04Z</time></trkpt><trkpt lat="42.3622267" lon="12.8187917"><ele>733.0</ele><time>2026-04-04T09:16:33.04Z</time></trkpt><trkpt lat="42.3623067" lon="12.81872"><ele>733.8</ele><time>2026-04-04T09:16:34.04Z</time></trkpt><trkpt lat="42.36239" lon="12.8186517"><ele>734.5999999999999</ele><time>2026-04-04T09:16:35.039Z</time></trkpt><trkpt lat="42.3624633" lon="12.81856"><ele>735.4000000000001</ele><time>2026-04-04T09:16:36.04Z</time></trkpt><trkpt lat="42.362545" lon="12.818465"><ele>736.2</ele><time>2026-04-04T09:16:37.042Z</time></trkpt><trkpt lat="42.3626367" lon="12.8183517"><ele>737.0</ele><time>2026-04-04T09:16:38.039Z</time></trkpt><trkpt lat="42.3627433" lon="12.8182433"><ele>737.0</ele><time>2026-04-04T09:16:39.04Z</time></trkpt><trkpt lat="42.3628583" lon="12.8181467"><ele>737.0</ele><time>2026-04-04T09:16:40.041Z</time></trkpt><trkpt lat="42.3629817" lon="12.8180683"><ele>737.0</ele><time>2026-04-04T09:16:41.039Z</time></trkpt><trkpt lat="42.363095" lon="12.817985"><ele>737.0</ele><time>2026-04-04T09:16:42.041Z</time></trkpt><trkpt lat="42.3632017" lon="12.817895"><ele>736.0</ele><time>2026-04-04T09:16:43.041Z</time></trkpt><trkpt lat="42.3633" lon="12.8177917"><ele>735.0</ele><time>2026-04-04T09:16:44.04Z</time></trkpt><trkpt lat="42.363395" lon="12.817695"><ele>734.0</ele><time>2026-04-04T09:16:45.041Z</time></trkpt><trkpt lat="42.3634833" lon="12.8175983"><ele>733.0</ele><time>2026-04-04T09:16:46.041Z</time></trkpt><trkpt lat="42.3635633" lon="12.8174983"><ele>733.0</ele><time>2026-04-04T09:16:47.04Z</time></trkpt><trkpt lat="42.3636317" lon="12.8174033"><ele>733.0</ele><time>2026-04-04T09:16:48.039Z</time></trkpt><trkpt lat="42.3637083" lon="12.81732"><ele>733.0</ele><time>2026-04-04T09:16:49.041Z</time></trkpt><trkpt lat="42.363785" lon="12.8172533"><ele>733.0</ele><time>2026-04-04T09:16:50.04Z</time></trkpt><trkpt lat="42.36387" lon="12.81721"><ele>733.0</ele><time>2026-04-04T09:16:51.04Z</time></trkpt><trkpt lat="42.3639567" lon="12.8171883"><ele>729.4</ele><time>2026-04-04T09:16:52.039Z</time></trkpt><trkpt lat="42.3640483" lon="12.8171833"><ele>725.8</ele><time>2026-04-04T09:16:53.04Z</time></trkpt><trkpt lat="42.3641367" lon="12.8172017"><ele>722.2</ele><time>2026-04-04T09:16:54.04Z</time></trkpt><trkpt lat="42.3642317" lon="12.8172317"><ele>718.6</ele><time>2026-04-04T09:16:55.039Z</time></trkpt><trkpt lat="42.3643333" lon="12.817265"><ele>715.0</ele><time>2026-04-04T09:16:56.041Z</time></trkpt><trkpt lat="42.364445" lon="12.817305"><ele>715.0</ele><time>2026-04-04T09:16:57.042Z</time></trkpt><trkpt lat="42.3645583" lon="12.8173533"><ele>715.0</ele><time>2026-04-04T09:16:58.04Z</time></trkpt><trkpt lat="42.3646633" lon="12.81741"><ele>715.0</ele><time>2026-04-04T09:16:59.041Z</time></trkpt><trkpt lat="42.3647583" lon="12.8174683"><ele>715.0</ele><time>2026-04-04T09:17:00.039Z</time></trkpt><trkpt lat="42.3648533" lon="12.8175133"><ele>715.0</ele><time>2026-04-04T09:17:01.04Z</time></trkpt><trkpt lat="42.36495" lon="12.8175483"><ele>714.8333333333334</ele><time>2026-04-04T09:17:02.039Z</time></trkpt><trkpt lat="42.365045" lon="12.81755"><ele>714.6666666666667</ele><time>2026-04-04T09:17:03.04Z</time></trkpt><trkpt lat="42.3651383" lon="12.8175233"><ele>714.5</ele><time>2026-04-04T09:17:04.04Z</time></trkpt><trkpt lat="42.365215" lon="12.8174917"><ele>714.3333333333334</ele><time>2026-04-04T09:17:05.039Z</time></trkpt><trkpt lat="42.36529" lon="12.81743"><ele>714.1666666666666</ele><time>2026-04-04T09:17:06.039Z</time></trkpt><trkpt lat="42.3653583" lon="12.8173583"><ele>714.0</ele><time>2026-04-04T09:17:07.041Z</time></trkpt><trkpt lat="42.3654017" lon="12.8172533"><ele>714.0</ele><time>2026-04-04T09:17:08.04Z</time></trkpt><trkpt lat="42.3654267" lon="12.8171417"><ele>714.0</ele><time>2026-04-04T09:17:09.04Z</time></trkpt><trkpt lat="42.365435" lon="12.8170083"><ele>714.0</ele><time>2026-04-04T09:17:10.04Z</time></trkpt><trkpt lat="42.3654383" lon="12.8168483"><ele>714.0</ele><time>2026-04-04T09:17:11.046Z</time></trkpt><trkpt lat="42.3654417" lon="12.8166717"><ele>714.0</ele><time>2026-04-04T09:17:12.04Z</time></trkpt><trkpt lat="42.365455" lon="12.8165033"><ele>709.5</ele><time>2026-04-04T09:17:13.043Z</time></trkpt><trkpt lat="42.365475" lon="12.81634"><ele>705.0</ele><time>2026-04-04T09:17:14.04Z</time></trkpt><trkpt lat="42.3655083" lon="12.816185"><ele>700.5</ele><time>2026-04-04T09:17:15.039Z</time></trkpt><trkpt lat="42.3655483" lon="12.81604"><ele>696.0</ele><time>2026-04-04T09:17:16.039Z</time></trkpt><trkpt lat="42.365595" lon="12.8159"><ele>696.0</ele><time>2026-04-04T09:17:17.04Z</time></trkpt><trkpt lat="42.3656417" lon="12.8157483"><ele>696.0</ele><time>2026-04-04T09:17:18.039Z</time></trkpt><trkpt lat="42.365675" lon="12.8155917"><ele>696.0</ele><time>2026-04-04T09:17:19.04Z</time></trkpt><trkpt lat="42.365705" lon="12.8154283"><ele>696.0</ele><time>2026-04-04T09:17:20.04Z</time></trkpt><trkpt lat="42.3657217" lon="12.8152533"><ele>697.5</ele><time>2026-04-04T09:17:21.039Z</time></trkpt><trkpt lat="42.365745" lon="12.81508"><ele>699.0</ele><time>2026-04-04T09:17:22.04Z</time></trkpt><trkpt lat="42.36576" lon="12.81492"><ele>700.5</ele><time>2026-04-04T09:17:23.04Z</time></trkpt><trkpt lat="42.365785" lon="12.8147567"><ele>702.0</ele><time>2026-04-04T09:17:24.04Z</time></trkpt><trkpt lat="42.3658233" lon="12.8145983"><ele>702.0</ele><time>2026-04-04T09:17:25.039Z</time></trkpt><trkpt lat="42.3658733" lon="12.8144467"><ele>702.0</ele><time>2026-04-04T09:17:26.04Z</time></trkpt><trkpt lat="42.365935" lon="12.8143017"><ele>702.0</ele><time>2026-04-04T09:17:27.042Z</time></trkpt><trkpt lat="42.366005" lon="12.81415"><ele>702.0</ele><time>2026-04-04T09:17:28.04Z</time></trkpt><trkpt lat="42.3660767" lon="12.814005"><ele>703.4000000000001</ele><time>2026-04-04T09:17:29.041Z</time></trkpt><trkpt lat="42.36614" lon="12.8138683"><ele>704.8000000000001</ele><time>2026-04-04T09:17:30.041Z</time></trkpt><trkpt lat="42.3661933" lon="12.813735"><ele>706.2</ele><time>2026-04-04T09:17:31.039Z</time></trkpt><trkpt lat="42.3662383" lon="12.813605"><ele>707.6</ele><time>2026-04-04T09:17:32.04Z</time></trkpt><trkpt lat="42.36627" lon="12.8134717"><ele>709.0</ele><time>2026-04-04T09:17:33.04Z</time></trkpt><trkpt lat="42.3663067" lon="12.8133267"><ele>714.0</ele><time>2026-04-04T09:17:34.042Z</time></trkpt><trkpt lat="42.3663583" lon="12.8131883"><ele>719.0</ele><time>2026-04-04T09:17:35.04Z</time></trkpt><trkpt lat="42.3664217" lon="12.81305"><ele>724.0</ele><time>2026-04-04T09:17:36.04Z</time></trkpt><trkpt lat="42.366495" lon="12.8129067"><ele>729.0</ele><time>2026-04-04T09:17:37.039Z</time></trkpt><trkpt lat="42.36658" lon="12.812765"><ele>722.5</ele><time>2026-04-04T09:17:38.039Z</time></trkpt><trkpt lat="42.3666667" lon="12.812625"><ele>716.0</ele><time>2026-04-04T09:17:39.04Z</time></trkpt><trkpt lat="42.3667467" lon="12.8124883"><ele>709.5</ele><time>2026-04-04T09:17:40.04Z</time></trkpt><trkpt lat="42.3668283" lon="12.8123467"><ele>703.0</ele><time>2026-04-04T09:17:41.041Z</time></trkpt><trkpt lat="42.3669083" lon="12.8122017"><ele>703.0</ele><time>2026-04-04T09:17:42.039Z</time></trkpt><trkpt lat="42.367" lon="12.81206"><ele>703.0</ele><time>2026-04-04T09:17:43.041Z</time></trkpt><trkpt lat="42.367095" lon="12.8119317"><ele>703.0</ele><time>2026-04-04T09:17:44.039Z</time></trkpt><trkpt lat="42.3672033" lon="12.8118083"><ele>703.0</ele><time>2026-04-04T09:17:45.041Z</time></trkpt><trkpt lat="42.36732" lon="12.81169"><ele>701.5999999999999</ele><time>2026-04-04T09:17:46.04Z</time></trkpt><trkpt lat="42.367425" lon="12.8115867"><ele>700.1999999999999</ele><time>2026-04-04T09:17:47.041Z</time></trkpt><trkpt lat="42.367515" lon="12.8114867"><ele>698.8</ele><time>2026-04-04T09:17:48.041Z</time></trkpt><trkpt lat="42.3675917" lon="12.8114133"><ele>697.4</ele><time>2026-04-04T09:17:49.041Z</time></trkpt><trkpt lat="42.3676533" lon="12.811355"><ele>696.0</ele><time>2026-04-04T09:17:50.04Z</time></trkpt><trkpt lat="42.3677083" lon="12.8113117"><ele>696.0</ele><time>2026-04-04T09:17:51.042Z</time></trkpt><trkpt lat="42.3677933" lon="12.8113067"><ele>696.0</ele><time>2026-04-04T09:17:53.04Z</time></trkpt><trkpt lat="42.36787" lon="12.8114067"><ele>696.0</ele><time>2026-04-04T09:17:55.04Z</time></trkpt><trkpt lat="42.3679033" lon="12.8114967"><ele>696.0</ele><time>2026-04-04T09:17:56.04Z</time></trkpt><trkpt lat="42.36795" lon="12.8116017"><ele>696.0</ele><time>2026-04-04T09:17:57.04Z</time></trkpt><trkpt lat="42.368005" lon="12.8117167"><ele>694.8</ele><time>2026-04-04T09:17:58.04Z</time></trkpt><trkpt lat="42.3680567" lon="12.8118333"><ele>693.5999999999999</ele><time>2026-04-04T09:17:59.039Z</time></trkpt><trkpt lat="42.3681133" lon="12.8119617"><ele>692.4</ele><time>2026-04-04T09:18:00.04Z</time></trkpt><trkpt lat="42.3681667" lon="12.8120883"><ele>691.2</ele><time>2026-04-04T09:18:01.043Z</time></trkpt><trkpt lat="42.3682117" lon="12.8122133"><ele>690.0</ele><time>2026-04-04T09:18:02.039Z</time></trkpt><trkpt lat="42.3682533" lon="12.8123267"><ele>690.0</ele><time>2026-04-04T09:18:03.041Z</time></trkpt><trkpt lat="42.3682983" lon="12.81244"><ele>690.0</ele><time>2026-04-04T09:18:04.041Z</time></trkpt><trkpt lat="42.3683433" lon="12.81254"><ele>690.0</ele><time>2026-04-04T09:18:05.04Z</time></trkpt><trkpt lat="42.3683983" lon="12.81263"><ele>690.0</ele><time>2026-04-04T09:18:06.04Z</time></trkpt><trkpt lat="42.3684567" lon="12.81271"><ele>690.0</ele><time>2026-04-04T09:18:07.039Z</time></trkpt><trkpt lat="42.368515" lon="12.8127867"><ele>690.0</ele><time>2026-04-04T09:18:08.039Z</time></trkpt><trkpt lat="42.3686433" lon="12.812915"><ele>689.5</ele><time>2026-04-04T09:18:10.04Z</time></trkpt><trkpt lat="42.3687167" lon="12.812955"><ele>689.0</ele><time>2026-04-04T09:18:11.04Z</time></trkpt><trkpt lat="42.3687867" lon="12.8130033"><ele>688.5</ele><time>2026-04-04T09:18:12.041Z</time></trkpt><trkpt lat="42.3688583" lon="12.8130467"><ele>688.0</ele><time>2026-04-04T09:18:13.041Z</time></trkpt><trkpt lat="42.3689283" lon="12.8130883"><ele>687.5</ele><time>2026-04-04T09:18:14.039Z</time></trkpt><trkpt lat="42.368995" lon="12.8131383"><ele>687.0</ele><time>2026-04-04T09:18:15.041Z</time></trkpt><trkpt lat="42.3690533" lon="12.813185"><ele>687.3333333333334</ele><time>2026-04-04T09:18:16.041Z</time></trkpt><trkpt lat="42.3691083" lon="12.8132367"><ele>687.6666666666666</ele><time>2026-04-04T09:18:17.04Z</time></trkpt><trkpt lat="42.3691617" lon="12.813305"><ele>688.0</ele><time>2026-04-04T09:18:18.039Z</time></trkpt><trkpt lat="42.36922" lon="12.8133817"><ele>688.3333333333333</ele><time>2026-04-04T09:18:19.04Z</time></trkpt><trkpt lat="42.36928" lon="12.8134667"><ele>688.6666666666666</ele><time>2026-04-04T09:18:20.04Z</time></trkpt><trkpt lat="42.369335" lon="12.8135533"><ele>689.0</ele><time>2026-04-04T09:18:21.04Z</time></trkpt><trkpt lat="42.3693817" lon="12.8136467"><ele>689.0</ele><time>2026-04-04T09:18:22.039Z</time></trkpt><trkpt lat="42.369425" lon="12.813725"><ele>689.0</ele><time>2026-04-04T09:18:23.04Z</time></trkpt><trkpt lat="42.3695" lon="12.8138283"><ele>689.0</ele><time>2026-04-04T09:18:25.04Z</time></trkpt><trkpt lat="42.3695667" lon="12.8138617"><ele>689.0</ele><time>2026-04-04T09:18:27.041Z</time></trkpt><trkpt lat="42.3696667" lon="12.8138217"><ele>689.0</ele><time>2026-04-04T09:18:29.04Z</time></trkpt><trkpt lat="42.3697267" lon="12.8137817"><ele>689.0</ele><time>2026-04-04T09:18:30.04Z</time></trkpt><trkpt lat="42.36979" lon="12.81375"><ele>690.6666666666666</ele><time>2026-04-04T09:18:31.04Z</time></trkpt><trkpt lat="42.3698517" lon="12.8137217"><ele>692.3333333333333</ele><time>2026-04-04T09:18:32.041Z</time></trkpt><trkpt lat="42.3699217" lon="12.8137033"><ele>694.0</ele><time>2026-04-04T09:18:33.041Z</time></trkpt><trkpt lat="42.3699917" lon="12.813695"><ele>695.6666666666666</ele><time>2026-04-04T09:18:34.04Z</time></trkpt><trkpt lat="42.3700567" lon="12.8137117"><ele>697.3333333333334</ele><time>2026-04-04T09:18:35.04Z</time></trkpt><trkpt lat="42.3701617" lon="12.8137683"><ele>699.0</ele><time>2026-04-04T09:18:37.04Z</time></trkpt><trkpt lat="42.3702567" lon="12.813805"><ele>699.0</ele><time>2026-04-04T09:18:39.041Z</time></trkpt><trkpt lat="42.3703633" lon="12.8137783"><ele>699.0</ele><time>2026-04-04T09:18:41.04Z</time></trkpt><trkpt lat="42.370475" lon="12.813695"><ele>699.0</ele><time>2026-04-04T09:18:43.04Z</time></trkpt><trkpt lat="42.370545" lon="12.81365"><ele>699.0</ele><time>2026-04-04T09:18:44.04Z</time></trkpt><trkpt lat="42.3706333" lon="12.81359"><ele>699.0</ele><time>2026-04-04T09:18:45.04Z</time></trkpt><trkpt lat="42.3707267" lon="12.8135283"><ele>697.8333333333334</ele><time>2026-04-04T09:18:46.041Z</time></trkpt><trkpt lat="42.3708133" lon="12.8134667"><ele>696.6666666666666</ele><time>2026-04-04T09:18:47.04Z</time></trkpt><trkpt lat="42.37089" lon="12.8134083"><ele>695.5</ele><time>2026-04-04T09:18:48.04Z</time></trkpt><trkpt lat="42.370965" lon="12.81335"><ele>694.3333333333333</ele><time>2026-04-04T09:18:49.04Z</time></trkpt><trkpt lat="42.3710417" lon="12.8132983"><ele>693.1666666666666</ele><time>2026-04-04T09:18:50.04Z</time></trkpt><trkpt lat="42.3711167" lon="12.8132617"><ele>692.0</ele><time>2026-04-04T09:18:51.041Z</time></trkpt><trkpt lat="42.3711867" lon="12.8132317"><ele>692.0</ele><time>2026-04-04T09:18:52.04Z</time></trkpt><trkpt lat="42.3712567" lon="12.8132017"><ele>692.0</ele><time>2026-04-04T09:18:53.04Z</time></trkpt><trkpt lat="42.3713333" lon="12.8131683"><ele>692.0</ele><time>2026-04-04T09:18:54.041Z</time></trkpt><trkpt lat="42.3714167" lon="12.813165"><ele>692.0</ele><time>2026-04-04T09:18:55.04Z</time></trkpt><trkpt lat="42.3715" lon="12.813165"><ele>692.0</ele><time>2026-04-04T09:18:56.04Z</time></trkpt><trkpt lat="42.3715883" lon="12.81316"><ele>692.0</ele><time>2026-04-04T09:18:57.04Z</time></trkpt><trkpt lat="42.371665" lon="12.8131667"><ele>691.6666666666666</ele><time>2026-04-04T09:18:58.04Z</time></trkpt><trkpt lat="42.37174" lon="12.8131733"><ele>691.3333333333333</ele><time>2026-04-04T09:18:59.041Z</time></trkpt><trkpt lat="42.3718167" lon="12.8131667"><ele>691.0</ele><time>2026-04-04T09:19:00.04Z</time></trkpt><trkpt lat="42.3718967" lon="12.8131467"><ele>690.6666666666666</ele><time>2026-04-04T09:19:01.04Z</time></trkpt><trkpt lat="42.3719783" lon="12.81311"><ele>690.3333333333334</ele><time>2026-04-04T09:19:02.04Z</time></trkpt><trkpt lat="42.3720683" lon="12.8130867"><ele>690.0</ele><time>2026-04-04T09:19:03.04Z</time></trkpt><trkpt lat="42.372155" lon="12.813055"><ele>689.1666666666666</ele><time>2026-04-04T09:19:04.041Z</time></trkpt><trkpt lat="42.372235" lon="12.81301"><ele>688.3333333333334</ele><time>2026-04-04T09:19:05.04Z</time></trkpt><trkpt lat="42.372305" lon="12.8129617"><ele>687.5</ele><time>2026-04-04T09:19:06.04Z</time></trkpt><trkpt lat="42.3723717" lon="12.8129133"><ele>686.6666666666667</ele><time>2026-04-04T09:19:07.042Z</time></trkpt><trkpt lat="42.372435" lon="12.812855"><ele>685.8333333333334</ele><time>2026-04-04T09:19:08.04Z</time></trkpt><trkpt lat="42.3725" lon="12.8127933"><ele>685.0</ele><time>2026-04-04T09:19:09.039Z</time></trkpt><trkpt lat="42.372565" lon="12.8127433"><ele>685.0</ele><time>2026-04-04T09:19:10.039Z</time></trkpt><trkpt lat="42.3726283" lon="12.8126933"><ele>685.0</ele><time>2026-04-04T09:19:11.04Z</time></trkpt><trkpt lat="42.3726883" lon="12.81264"><ele>685.0</ele><time>2026-04-04T09:19:12.04Z</time></trkpt><trkpt lat="42.37274" lon="12.8125767"><ele>685.0</ele><time>2026-04-04T09:19:13.041Z</time></trkpt><trkpt lat="42.3727917" lon="12.8124967"><ele>685.0</ele><time>2026-04-04T09:19:14.04Z</time></trkpt><trkpt lat="42.3728433" lon="12.8124"><ele>685.0</ele><time>2026-04-04T09:19:15.041Z</time></trkpt><trkpt lat="42.3729" lon="12.8122883"><ele>684.6</ele><time>2026-04-04T09:19:16.045Z</time></trkpt><trkpt lat="42.37295" lon="12.8121717"><ele>684.2</ele><time>2026-04-04T09:19:17.04Z</time></trkpt><trkpt lat="42.3729983" lon="12.8120617"><ele>683.8</ele><time>2026-04-04T09:19:18.04Z</time></trkpt><trkpt lat="42.37305" lon="12.8119517"><ele>683.4</ele><time>2026-04-04T09:19:19.04Z</time></trkpt><trkpt lat="42.3731083" lon="12.811835"><ele>683.0</ele><time>2026-04-04T09:19:20.04Z</time></trkpt><trkpt lat="42.3731817" lon="12.8117233"><ele>683.0</ele><time>2026-04-04T09:19:21.04Z</time></trkpt><trkpt lat="42.3732567" lon="12.811615"><ele>683.0</ele><time>2026-04-04T09:19:22.04Z</time></trkpt><trkpt lat="42.3733367" lon="12.8115167"><ele>683.0</ele><time>2026-04-04T09:19:23.042Z</time></trkpt><trkpt lat="42.3734133" lon="12.8114233"><ele>683.0</ele><time>2026-04-04T09:19:24.041Z</time></trkpt><trkpt lat="42.3734883" lon="12.8113467"><ele>683.0</ele><time>2026-04-04T09:19:25.04Z</time></trkpt><trkpt lat="42.37356" lon="12.8112567"><ele>683.0</ele><time>2026-04-04T09:19:26.041Z</time></trkpt><trkpt lat="42.3736217" lon="12.8111933"><ele>683.0</ele><time>2026-04-04T09:19:27.04Z</time></trkpt><trkpt lat="42.3736733" lon="12.81112"><ele>683.0</ele><time>2026-04-04T09:19:28.04Z</time></trkpt><trkpt lat="42.373715" lon="12.8110533"><ele>683.0</ele><time>2026-04-04T09:19:29.043Z</time></trkpt><trkpt lat="42.37377" lon="12.8109433"><ele>683.0</ele><time>2026-04-04T09:19:31.042Z</time></trkpt><trkpt lat="42.3737733" lon="12.81085"><ele>683.0</ele><time>2026-04-04T09:19:33.04Z</time></trkpt><trkpt lat="42.373765" lon="12.810735"><ele>685.8</ele><time>2026-04-04T09:19:35.041Z</time></trkpt><trkpt lat="42.373765" lon="12.8106167"><ele>688.5999999999999</ele><time>2026-04-04T09:19:37.041Z</time></trkpt><trkpt lat="42.373775" lon="12.8104867"><ele>691.4000000000001</ele><time>2026-04-04T09:19:39.041Z</time></trkpt><trkpt lat="42.3737867" lon="12.81034"><ele>694.2</ele><time>2026-04-04T09:19:41.04Z</time></trkpt><trkpt lat="42.373805" lon="12.8101783"><ele>697.0</ele><time>2026-04-04T09:19:43.04Z</time></trkpt><trkpt lat="42.3738183" lon="12.8100883"><ele>697.0</ele><time>2026-04-04T09:19:44.039Z</time></trkpt><trkpt lat="42.3738367" lon="12.809995"><ele>697.0</ele><time>2026-04-04T09:19:45.04Z</time></trkpt><trkpt lat="42.373855" lon="12.809905"><ele>697.0</ele><time>2026-04-04T09:19:46.043Z</time></trkpt><trkpt lat="42.3738817" lon="12.8098233"><ele>697.0</ele><time>2026-04-04T09:19:47.041Z</time></trkpt><trkpt lat="42.37392" lon="12.8097383"><ele>697.0</ele><time>2026-04-04T09:19:48.04Z</time></trkpt><trkpt lat="42.3739633" lon="12.8096533"><ele>697.0</ele><time>2026-04-04T09:19:49.041Z</time></trkpt><trkpt lat="42.3740017" lon="12.8095717"><ele>697.0</ele><time>2026-04-04T09:19:50.039Z</time></trkpt><trkpt lat="42.3740433" lon="12.809495"><ele>694.6666666666667</ele><time>2026-04-04T09:19:51.04Z</time></trkpt><trkpt lat="42.3740917" lon="12.8094333"><ele>692.3333333333334</ele><time>2026-04-04T09:19:52.039Z</time></trkpt><trkpt lat="42.3741917" lon="12.8093283"><ele>690.0</ele><time>2026-04-04T09:19:54.039Z</time></trkpt><trkpt lat="42.3742483" lon="12.809285"><ele>687.6666666666666</ele><time>2026-04-04T09:19:55.038Z</time></trkpt><trkpt lat="42.3743117" lon="12.8092417"><ele>685.3333333333333</ele><time>2026-04-04T09:19:56.04Z</time></trkpt><trkpt lat="42.3743767" lon="12.80919"><ele>683.0</ele><time>2026-04-04T09:19:57.04Z</time></trkpt><trkpt lat="42.3744467" lon="12.8091333"><ele>683.0</ele><time>2026-04-04T09:19:58.04Z</time></trkpt><trkpt lat="42.37452" lon="12.8090783"><ele>683.0</ele><time>2026-04-04T09:19:59.039Z</time></trkpt><trkpt lat="42.3745917" lon="12.8090283"><ele>683.0</ele><time>2026-04-04T09:20:00.041Z</time></trkpt><trkpt lat="42.3746617" lon="12.8089767"><ele>683.0</ele><time>2026-04-04T09:20:01.041Z</time></trkpt><trkpt lat="42.37473" lon="12.8089217"><ele>683.0</ele><time>2026-04-04T09:20:02.04Z</time></trkpt><trkpt lat="42.374795" lon="12.808865"><ele>683.0</ele><time>2026-04-04T09:20:03.04Z</time></trkpt><trkpt lat="42.3748617" lon="12.8088217"><ele>681.0</ele><time>2026-04-04T09:20:04.04Z</time></trkpt><trkpt lat="42.37493" lon="12.80879"><ele>679.0</ele><time>2026-04-04T09:20:05.04Z</time></trkpt><trkpt lat="42.375" lon="12.808765"><ele>677.0</ele><time>2026-04-04T09:20:06.04Z</time></trkpt><trkpt lat="42.3750733" lon="12.8087383"><ele>675.0</ele><time>2026-04-04T09:20:07.042Z</time></trkpt><trkpt lat="42.375145" lon="12.8087183"><ele>673.0</ele><time>2026-04-04T09:20:08.04Z</time></trkpt><trkpt lat="42.3752117" lon="12.8086967"><ele>671.0</ele><time>2026-04-04T09:20:09.04Z</time></trkpt><trkpt lat="42.3752767" lon="12.80868"><ele>669.0</ele><time>2026-04-04T09:20:10.041Z</time></trkpt><trkpt lat="42.3753467" lon="12.80866"><ele>669.0</ele><time>2026-04-04T09:20:11.039Z</time></trkpt><trkpt lat="42.375415" lon="12.8086283"><ele>669.0</ele><time>2026-04-04T09:20:12.04Z</time></trkpt><trkpt lat="42.375485" lon="12.8085883"><ele>669.0</ele><time>2026-04-04T09:20:13.042Z</time></trkpt><trkpt lat="42.3755517" lon="12.808545"><ele>669.0</ele><time>2026-04-04T09:20:14.043Z</time></trkpt><trkpt lat="42.3756167" lon="12.8085"><ele>669.0</ele><time>2026-04-04T09:20:15.041Z</time></trkpt><trkpt lat="42.3756933" lon="12.80845"><ele>669.0</ele><time>2026-04-04T09:20:16.041Z</time></trkpt><trkpt lat="42.3757633" lon="12.808415"><ele>668.1666666666666</ele><time>2026-04-04T09:20:17.042Z</time></trkpt><trkpt lat="42.375885" lon="12.8083733"><ele>667.3333333333334</ele><time>2026-04-04T09:20:19.043Z</time></trkpt><trkpt lat="42.3759533" lon="12.8083467"><ele>666.5</ele><time>2026-04-04T09:20:20.042Z</time></trkpt><trkpt lat="42.3760183" lon="12.808315"><ele>665.6666666666667</ele><time>2026-04-04T09:20:21.046Z</time></trkpt><trkpt lat="42.3760817" lon="12.8082817"><ele>664.8333333333334</ele><time>2026-04-04T09:20:22.042Z</time></trkpt><trkpt lat="42.3761467" lon="12.80824"><ele>664.0</ele><time>2026-04-04T09:20:23.04Z</time></trkpt><trkpt lat="42.3762217" lon="12.8081883"><ele>664.0</ele><time>2026-04-04T09:20:24.041Z</time></trkpt><trkpt lat="42.3763" lon="12.80813"><ele>664.0</ele><time>2026-04-04T09:20:25.042Z</time></trkpt><trkpt lat="42.3763817" lon="12.8080717"><ele>664.0</ele><time>2026-04-04T09:20:26.042Z</time></trkpt><trkpt lat="42.3764483" lon="12.80802"><ele>664.0</ele><time>2026-04-04T09:20:27.041Z</time></trkpt><trkpt lat="42.376505" lon="12.80797"><ele>664.0</ele><time>2026-04-04T09:20:28.042Z</time></trkpt><trkpt lat="42.3765983" lon="12.8078817"><ele>664.0</ele><time>2026-04-04T09:20:30.043Z</time></trkpt><trkpt lat="42.3766833" lon="12.8078217"><ele>662.6</ele><time>2026-04-04T09:20:32.041Z</time></trkpt><trkpt lat="42.37681" lon="12.8077717"><ele>661.2</ele><time>2026-04-04T09:20:34.043Z</time></trkpt><trkpt lat="42.3768917" lon="12.8077433"><ele>659.8000000000001</ele><time>2026-04-04T09:20:35.04Z</time></trkpt><trkpt lat="42.37697" lon="12.8077183"><ele>658.4000000000001</ele><time>2026-04-04T09:20:36.044Z</time></trkpt><trkpt lat="42.3770433" lon="12.8076967"><ele>657.0</ele><time>2026-04-04T09:20:37.043Z</time></trkpt><trkpt lat="42.3771183" lon="12.8076683"><ele>655.5</ele><time>2026-04-04T09:20:38.042Z</time></trkpt><trkpt lat="42.3771917" lon="12.8076517"><ele>654.0</ele><time>2026-04-04T09:20:39.042Z</time></trkpt><trkpt lat="42.3772717" lon="12.8076433"><ele>652.5</ele><time>2026-04-04T09:20:40.043Z</time></trkpt><trkpt lat="42.377355" lon="12.8076483"><ele>651.0</ele><time>2026-04-04T09:20:41.041Z</time></trkpt><trkpt lat="42.37744" lon="12.8076483"><ele>649.5</ele><time>2026-04-04T09:20:42.04Z</time></trkpt><trkpt lat="42.3775167" lon="12.807645"><ele>648.0</ele><time>2026-04-04T09:20:43.042Z</time></trkpt><trkpt lat="42.3775967" lon="12.8076383"><ele>648.0</ele><time>2026-04-04T09:20:44.041Z</time></trkpt><trkpt lat="42.3776667" lon="12.8076333"><ele>648.0</ele><time>2026-04-04T09:20:45.042Z</time></trkpt><trkpt lat="42.3777383" lon="12.8076367"><ele>648.0</ele><time>2026-04-04T09:20:46.043Z</time></trkpt><trkpt lat="42.3778017" lon="12.807645"><ele>648.0</ele><time>2026-04-04T09:20:47.042Z</time></trkpt><trkpt lat="42.3778683" lon="12.80765"><ele>648.0</ele><time>2026-04-04T09:20:48.04Z</time></trkpt><trkpt lat="42.37799" lon="12.8076817"><ele>648.0</ele><time>2026-04-04T09:20:50.042Z</time></trkpt><trkpt lat="42.3780517" lon="12.8077033"><ele>644.0</ele><time>2026-04-04T09:20:51.042Z</time></trkpt><trkpt lat="42.3781667" lon="12.8077433"><ele>640.0</ele><time>2026-04-04T09:20:53.041Z</time></trkpt><trkpt lat="42.3782333" lon="12.807755"><ele>636.0</ele><time>2026-04-04T09:20:54.04Z</time></trkpt><trkpt lat="42.3783067" lon="12.8077583"><ele>632.0</ele><time>2026-04-04T09:20:55.042Z</time></trkpt><trkpt lat="42.3783767" lon="12.80776"><ele>628.0</ele><time>2026-04-04T09:20:56.041Z</time></trkpt><trkpt lat="42.3784433" lon="12.8077533"><ele>624.0</ele><time>2026-04-04T09:20:57.042Z</time></trkpt><trkpt lat="42.37856" lon="12.8077433"><ele>624.0</ele><time>2026-04-04T09:20:59.042Z</time></trkpt><trkpt lat="42.378675" lon="12.8077767"><ele>624.0</ele><time>2026-04-04T09:21:01.044Z</time></trkpt><trkpt lat="42.3787367" lon="12.8078083"><ele>624.0</ele><time>2026-04-04T09:21:02.042Z</time></trkpt><trkpt lat="42.3788017" lon="12.807845"><ele>624.0</ele><time>2026-04-04T09:21:03.042Z</time></trkpt><trkpt lat="42.37887" lon="12.807885"><ele>624.0</ele><time>2026-04-04T09:21:04.041Z</time></trkpt><trkpt lat="42.378935" lon="12.8079267"><ele>624.0</ele><time>2026-04-04T09:21:05.041Z</time></trkpt><trkpt lat="42.3790017" lon="12.8079583"><ele>624.6</ele><time>2026-04-04T09:21:06.043Z</time></trkpt><trkpt lat="42.3791183" lon="12.808"><ele>625.2</ele><time>2026-04-04T09:21:08.041Z</time></trkpt><trkpt lat="42.3792417" lon="12.8080117"><ele>625.8000000000001</ele><time>2026-04-04T09:21:10.04Z</time></trkpt><trkpt lat="42.3793683" lon="12.807995"><ele>626.4</ele><time>2026-04-04T09:21:12.042Z</time></trkpt><trkpt lat="42.3794383" lon="12.8079783"><ele>627.0</ele><time>2026-04-04T09:21:13.042Z</time></trkpt><trkpt lat="42.379505" lon="12.8079683"><ele>627.0</ele><time>2026-04-04T09:21:14.041Z</time></trkpt><trkpt lat="42.3795733" lon="12.8079617"><ele>627.0</ele><time>2026-04-04T09:21:15.043Z</time></trkpt><trkpt lat="42.3796483" lon="12.8079517"><ele>627.0</ele><time>2026-04-04T09:21:16.042Z</time></trkpt><trkpt lat="42.3797233" lon="12.8079483"><ele>627.0</ele><time>2026-04-04T09:21:17.041Z</time></trkpt><trkpt lat="42.3797867" lon="12.8079433"><ele>627.0</ele><time>2026-04-04T09:21:18.04Z</time></trkpt><trkpt lat="42.3799133" lon="12.80795"><ele>627.0</ele><time>2026-04-04T09:21:20.041Z</time></trkpt><trkpt lat="42.37998" lon="12.8079733"><ele>625.8571428571429</ele><time>2026-04-04T09:21:21.041Z</time></trkpt><trkpt lat="42.38004" lon="12.80801"><ele>624.7142857142857</ele><time>2026-04-04T09:21:22.041Z</time></trkpt><trkpt lat="42.3801033" lon="12.8080483"><ele>623.5714285714286</ele><time>2026-04-04T09:21:23.041Z</time></trkpt><trkpt lat="42.3801717" lon="12.808095"><ele>622.4285714285714</ele><time>2026-04-04T09:21:24.044Z</time></trkpt><trkpt lat="42.3802383" lon="12.80815"><ele>621.2857142857143</ele><time>2026-04-04T09:21:25.043Z</time></trkpt><trkpt lat="42.3803" lon="12.8082083"><ele>620.1428571428571</ele><time>2026-04-04T09:21:26.041Z</time></trkpt><trkpt lat="42.380365" lon="12.8082667"><ele>619.0</ele><time>2026-04-04T09:21:27.042Z</time></trkpt><trkpt lat="42.3804283" lon="12.8083233"><ele>619.0</ele><time>2026-04-04T09:21:28.041Z</time></trkpt><trkpt lat="42.3804867" lon="12.8083767"><ele>619.0</ele><time>2026-04-04T09:21:29.041Z</time></trkpt><trkpt lat="42.380545" lon="12.8084233"><ele>619.0</ele><time>2026-04-04T09:21:30.042Z</time></trkpt><trkpt lat="42.3806083" lon="12.8084667"><ele>619.0</ele><time>2026-04-04T09:21:31.046Z</time></trkpt><trkpt lat="42.3806717" lon="12.8085"><ele>619.0</ele><time>2026-04-04T09:21:32.043Z</time></trkpt><trkpt lat="42.3807417" lon="12.8085367"><ele>619.0</ele><time>2026-04-04T09:21:33.04Z</time></trkpt><trkpt lat="42.3808117" lon="12.808575"><ele>619.0</ele><time>2026-04-04T09:21:34.041Z</time></trkpt><trkpt lat="42.380875" lon="12.8086217"><ele>616.2857142857142</ele><time>2026-04-04T09:21:35.041Z</time></trkpt><trkpt lat="42.3809283" lon="12.80868"><ele>613.5714285714286</ele><time>2026-04-04T09:21:36.041Z</time></trkpt><trkpt lat="42.3809833" lon="12.80875"><ele>610.8571428571429</ele><time>2026-04-04T09:21:37.041Z</time></trkpt><trkpt lat="42.38104" lon="12.80882"><ele>608.1428571428571</ele><time>2026-04-04T09:21:38.041Z</time></trkpt><trkpt lat="42.3810933" lon="12.8088733"><ele>605.4285714285714</ele><time>2026-04-04T09:21:39.042Z</time></trkpt><trkpt lat="42.381155" lon="12.8089217"><ele>602.7142857142857</ele><time>2026-04-04T09:21:40.042Z</time></trkpt><trkpt lat="42.38121" lon="12.8089667"><ele>600.0</ele><time>2026-04-04T09:21:41.042Z</time></trkpt><trkpt lat="42.3813" lon="12.8090583"><ele>598.4</ele><time>2026-04-04T09:21:43.042Z</time></trkpt><trkpt lat="42.3813767" lon="12.8091433"><ele>596.8</ele><time>2026-04-04T09:21:45.041Z</time></trkpt><trkpt lat="42.38146" lon="12.8091783"><ele>595.2</ele><time>2026-04-04T09:21:47.043Z</time></trkpt><trkpt lat="42.381565" lon="12.8091767"><ele>593.6</ele><time>2026-04-04T09:21:49.041Z</time></trkpt><trkpt lat="42.3816883" lon="12.8091933"><ele>592.0</ele><time>2026-04-04T09:21:51.042Z</time></trkpt><trkpt lat="42.3818067" lon="12.8092167"><ele>592.0</ele><time>2026-04-04T09:21:53.041Z</time></trkpt><trkpt lat="42.3819167" lon="12.809245"><ele>592.0</ele><time>2026-04-04T09:21:55.04Z</time></trkpt><trkpt lat="42.3819867" lon="12.80927"><ele>592.0</ele><time>2026-04-04T09:21:57.041Z</time></trkpt><trkpt lat="42.3820567" lon="12.8092867"><ele>592.0</ele><time>2026-04-04T09:22:21.042Z</time></trkpt><trkpt lat="42.3821333" lon="12.80931"><ele>592.0</ele><time>2026-04-04T09:22:24.042Z</time></trkpt><trkpt lat="42.3822067" lon="12.8093367"><ele>592.0</ele><time>2026-04-04T09:22:26.041Z</time></trkpt><trkpt lat="42.3822783" lon="12.809355"><ele>589.7142857142858</ele><time>2026-04-04T09:22:28.041Z</time></trkpt><trkpt lat="42.382355" lon="12.8093733"><ele>587.4285714285714</ele><time>2026-04-04T09:22:30.041Z</time></trkpt><trkpt lat="42.3824267" lon="12.8094083"><ele>585.1428571428571</ele><time>2026-04-04T09:22:32.04Z</time></trkpt><trkpt lat="42.3824933" lon="12.8094383"><ele>582.8571428571429</ele><time>2026-04-04T09:22:34.04Z</time></trkpt><trkpt lat="42.3825633" lon="12.8094733"><ele>580.5714285714286</ele><time>2026-04-04T09:22:36.043Z</time></trkpt><trkpt lat="42.3826433" lon="12.8095133"><ele>578.2857142857143</ele><time>2026-04-04T09:22:39.041Z</time></trkpt><trkpt lat="42.3826983" lon="12.809555"><ele>576.0</ele><time>2026-04-04T09:22:41.046Z</time></trkpt><trkpt lat="42.3827467" lon="12.809615"><ele>576.0</ele><time>2026-04-04T09:22:43.041Z</time></trkpt><trkpt lat="42.3828117" lon="12.8097067"><ele>576.0</ele><time>2026-04-04T09:22:46.041Z</time></trkpt><trkpt lat="42.3828617" lon="12.809785"><ele>576.0</ele><time>2026-04-04T09:22:49.041Z</time></trkpt><trkpt lat="42.38291" lon="12.8098683"><ele>576.0</ele><time>2026-04-04T09:22:51.04Z</time></trkpt><trkpt lat="42.3829517" lon="12.80996"><ele>576.0</ele><time>2026-04-04T09:22:53.041Z</time></trkpt><trkpt lat="42.3829983" lon="12.8100433"><ele>576.0</ele><time>2026-04-04T09:22:55.043Z</time></trkpt><trkpt lat="42.3830383" lon="12.8101267"><ele>571.5</ele><time>2026-04-04T09:22:57.041Z</time></trkpt><trkpt lat="42.3831067" lon="12.8102133"><ele>567.0</ele><time>2026-04-04T09:23:00.042Z</time></trkpt><trkpt lat="42.3831667" lon="12.810265"><ele>562.5</ele><time>2026-04-04T09:23:02.041Z</time></trkpt><trkpt lat="42.3832233" lon="12.810325"><ele>558.0</ele><time>2026-04-04T09:23:04.042Z</time></trkpt><trkpt lat="42.383285" lon="12.810375"><ele>553.5</ele><time>2026-04-04T09:23:06.042Z</time></trkpt><trkpt lat="42.3833433" lon="12.8104783"><ele>549.0</ele><time>2026-04-04T09:23:09.043Z</time></trkpt><trkpt lat="42.3833433" lon="12.8105817"><ele>549.0</ele><time>2026-04-04T09:23:12.04Z</time></trkpt><trkpt lat="42.38332" lon="12.8106733"><ele>549.0</ele><time>2026-04-04T09:23:15.04Z</time></trkpt><trkpt lat="42.3832983" lon="12.810785"><ele>549.0</ele><time>2026-04-04T09:23:18.041Z</time></trkpt><trkpt lat="42.38333" lon="12.8108783"><ele>549.0</ele><time>2026-04-04T09:23:21.042Z</time></trkpt><trkpt lat="42.3833867" lon="12.8109233"><ele>549.0</ele><time>2026-04-04T09:23:23.04Z</time></trkpt><trkpt lat="42.3834467" lon="12.8109717"><ele>549.0</ele><time>2026-04-04T09:23:25.041Z</time></trkpt><trkpt lat="42.3835" lon="12.8110183"><ele>549.0</ele><time>2026-04-04T09:23:27.042Z</time></trkpt><trkpt lat="42.38357" lon="12.8110433"><ele>549.0</ele><time>2026-04-04T09:23:29.041Z</time></trkpt><trkpt lat="42.3836367" lon="12.8110467"><ele>549.0</ele><time>2026-04-04T09:23:31.042Z</time></trkpt><trkpt lat="42.3837" lon="12.8109983"><ele>549.0</ele><time>2026-04-04T09:23:33.041Z</time></trkpt><trkpt lat="42.3837617" lon="12.8109483"><ele>549.0</ele><time>2026-04-04T09:23:35.041Z</time></trkpt><trkpt lat="42.38382" lon="12.810895"><ele>549.0</ele><time>2026-04-04T09:23:37.042Z</time></trkpt><trkpt lat="42.383885" lon="12.8108483"><ele>549.0</ele><time>2026-04-04T09:23:39.041Z</time></trkpt><trkpt lat="42.3839717" lon="12.8108017"><ele>549.0</ele><time>2026-04-04T09:23:42.04Z</time></trkpt><trkpt lat="42.384035" lon="12.8108"><ele>545.8333333333334</ele><time>2026-04-04T09:23:44.042Z</time></trkpt><trkpt lat="42.3841083" lon="12.8108367"><ele>542.6666666666666</ele><time>2026-04-04T09:23:46.04Z</time></trkpt><trkpt lat="42.3842083" lon="12.8108633"><ele>539.5</ele><time>2026-04-04T09:23:48.042Z</time></trkpt><trkpt lat="42.3842917" lon="12.8108633"><ele>536.3333333333333</ele><time>2026-04-04T09:23:50.041Z</time></trkpt><trkpt lat="42.38436" lon="12.810865"><ele>533.1666666666666</ele><time>2026-04-04T09:23:52.041Z</time></trkpt><trkpt lat="42.3844483" lon="12.8108633"><ele>530.0</ele><time>2026-04-04T09:23:55.04Z</time></trkpt><trkpt lat="42.3845283" lon="12.81086"><ele>530.0</ele><time>2026-04-04T09:23:57.042Z</time></trkpt><trkpt lat="42.384635" lon="12.8108683"><ele>530.0</ele><time>2026-04-04T09:23:59.04Z</time></trkpt><trkpt lat="42.3847633" lon="12.810915"><ele>530.0</ele><time>2026-04-04T09:24:01.04Z</time></trkpt><trkpt lat="42.3848233" lon="12.8109433"><ele>530.0</ele><time>2026-04-04T09:24:02.041Z</time></trkpt><trkpt lat="42.3848833" lon="12.81098"><ele>530.0</ele><time>2026-04-04T09:24:03.041Z</time></trkpt><trkpt lat="42.3849417" lon="12.8110183"><ele>530.0</ele><time>2026-04-04T09:24:04.041Z</time></trkpt><trkpt lat="42.3850067" lon="12.8110567"><ele>526.4</ele><time>2026-04-04T09:24:05.04Z</time></trkpt><trkpt lat="42.3850783" lon="12.8110833"><ele>522.8</ele><time>2026-04-04T09:24:06.041Z</time></trkpt><trkpt lat="42.3852233" lon="12.8111067"><ele>519.2</ele><time>2026-04-04T09:24:08.041Z</time></trkpt><trkpt lat="42.3853017" lon="12.8111067"><ele>515.6</ele><time>2026-04-04T09:24:09.041Z</time></trkpt><trkpt lat="42.3853767" lon="12.8111067"><ele>512.0</ele><time>2026-04-04T09:24:10.042Z</time></trkpt><trkpt lat="42.3854933" lon="12.81112"><ele>512.8333333333333</ele><time>2026-04-04T09:24:12.04Z</time></trkpt><trkpt lat="42.3855883" lon="12.811165"><ele>513.6666666666666</ele><time>2026-04-04T09:24:14.042Z</time></trkpt><trkpt lat="42.3856633" lon="12.8112"><ele>514.5</ele><time>2026-04-04T09:24:16.041Z</time></trkpt><trkpt lat="42.3857433" lon="12.81125"><ele>515.3333333333334</ele><time>2026-04-04T09:24:18.04Z</time></trkpt><trkpt lat="42.3858067" lon="12.8113117"><ele>516.1666666666667</ele><time>2026-04-04T09:24:20.04Z</time></trkpt><trkpt lat="42.3858433" lon="12.8113867"><ele>517.0</ele><time>2026-04-04T09:24:22.043Z</time></trkpt><trkpt lat="42.3858767" lon="12.8114633"><ele>517.0</ele><time>2026-04-04T09:24:24.046Z</time></trkpt><trkpt lat="42.3859083" lon="12.8115583"><ele>517.0</ele><time>2026-04-04T09:24:26.04Z</time></trkpt><trkpt lat="42.3859483" lon="12.8116633"><ele>517.0</ele><time>2026-04-04T09:24:28.041Z</time></trkpt><trkpt lat="42.3859717" lon="12.8117683"><ele>517.0</ele><time>2026-04-04T09:24:30.04Z</time></trkpt><trkpt lat="42.3859917" lon="12.8118683"><ele>517.0</ele><time>2026-04-04T09:24:32.041Z</time></trkpt><trkpt lat="42.3860083" lon="12.8119633"><ele>517.0</ele><time>2026-04-04T09:24:34.04Z</time></trkpt><trkpt lat="42.386015" lon="12.8120583"><ele>514.5</ele><time>2026-04-04T09:24:36.041Z</time></trkpt><trkpt lat="42.38601" lon="12.812165"><ele>512.0</ele><time>2026-04-04T09:24:38.042Z</time></trkpt><trkpt lat="42.3860183" lon="12.81228"><ele>509.5</ele><time>2026-04-04T09:24:40.041Z</time></trkpt><trkpt lat="42.38604" lon="12.8123783"><ele>507.0</ele><time>2026-04-04T09:24:42.041Z</time></trkpt><trkpt lat="42.3860767" lon="12.8124683"><ele>504.50000000000006</ele><time>2026-04-04T09:24:44.042Z</time></trkpt><trkpt lat="42.386125" lon="12.8125683"><ele>502.0</ele><time>2026-04-04T09:24:47.041Z</time></trkpt><trkpt lat="42.386185" lon="12.81262"><ele>500.1428571428571</ele><time>2026-04-04T09:24:49.041Z</time></trkpt><trkpt lat="42.3862383" lon="12.8126767"><ele>498.2857142857143</ele><time>2026-04-04T09:24:51.041Z</time></trkpt><trkpt lat="42.386315" lon="12.8126917"><ele>496.42857142857144</ele><time>2026-04-04T09:24:54.04Z</time></trkpt><trkpt lat="42.3863817" lon="12.8126617"><ele>494.57142857142856</ele><time>2026-04-04T09:24:56.04Z</time></trkpt><trkpt lat="42.3864417" lon="12.8126167"><ele>492.7142857142858</ele><time>2026-04-04T09:24:58.04Z</time></trkpt><trkpt lat="42.3865083" lon="12.8125817"><ele>490.8571428571429</ele><time>2026-04-04T09:25:00.04Z</time></trkpt><trkpt lat="42.38658" lon="12.8125117"><ele>489.0</ele><time>2026-04-04T09:25:03.041Z</time></trkpt><trkpt lat="42.3866567" lon="12.81244"><ele>489.0</ele><time>2026-04-04T09:25:06.041Z</time></trkpt><trkpt lat="42.38673" lon="12.8124067"><ele>489.00000000000006</ele><time>2026-04-04T09:25:08.04Z</time></trkpt><trkpt lat="42.3867933" lon="12.8123633"><ele>489.0</ele><time>2026-04-04T09:25:10.04Z</time></trkpt><trkpt lat="42.3868567" lon="12.8123067"><ele>489.0</ele><time>2026-04-04T09:25:12.04Z</time></trkpt><trkpt lat="42.3868967" lon="12.8122383"><ele>489.00000000000006</ele><time>2026-04-04T09:25:14.041Z</time></trkpt><trkpt lat="42.386955" lon="12.8121833"><ele>489.0</ele><time>2026-04-04T09:25:16.041Z</time></trkpt><trkpt lat="42.3870183" lon="12.81214"><ele>489.0</ele><time>2026-04-04T09:25:18.04Z</time></trkpt><trkpt lat="42.387095" lon="12.8121233"><ele>489.0</ele><time>2026-04-04T09:25:20.041Z</time></trkpt><trkpt lat="42.3871717" lon="12.8120967"><ele>489.0</ele><time>2026-04-04T09:25:23.04Z</time></trkpt><trkpt lat="42.3871983" lon="12.8119867"><ele>489.0</ele><time>2026-04-04T09:25:26.04Z</time></trkpt><trkpt lat="42.3871983" lon="12.81189"><ele>489.0</ele><time>2026-04-04T09:25:27.041Z</time></trkpt><trkpt lat="42.3871433" lon="12.8117817"><ele>489.0</ele><time>2026-04-04T09:25:30.039Z</time></trkpt><trkpt lat="42.3871017" lon="12.8117083"><ele>489.0</ele><time>2026-04-04T09:25:32.041Z</time></trkpt><trkpt lat="42.3870767" lon="12.81162"><ele>489.8333333333333</ele><time>2026-04-04T09:25:35.04Z</time></trkpt><trkpt lat="42.38712" lon="12.8115483"><ele>490.66666666666663</ele><time>2026-04-04T09:25:38.041Z</time></trkpt><trkpt lat="42.3871867" lon="12.8115133"><ele>491.5</ele><time>2026-04-04T09:25:40.04Z</time></trkpt><trkpt lat="42.387255" lon="12.8115"><ele>492.3333333333333</ele><time>2026-04-04T09:25:42.041Z</time></trkpt><trkpt lat="42.38733" lon="12.811475"><ele>493.16666666666663</ele><time>2026-04-04T09:25:44.043Z</time></trkpt><trkpt lat="42.387425" lon="12.811445"><ele>494.0</ele><time>2026-04-04T09:25:46.04Z</time></trkpt><trkpt lat="42.3875033" lon="12.81143"><ele>489.16666666666663</ele><time>2026-04-04T09:25:48.042Z</time></trkpt><trkpt lat="42.3875967" lon="12.811415"><ele>484.3333333333333</ele><time>2026-04-04T09:25:50.04Z</time></trkpt><trkpt lat="42.3876683" lon="12.81139"><ele>479.5</ele><time>2026-04-04T09:25:52.04Z</time></trkpt><trkpt lat="42.3877417" lon="12.811365"><ele>474.66666666666663</ele><time>2026-04-04T09:25:54.04Z</time></trkpt><trkpt lat="42.387815" lon="12.8113667"><ele>469.8333333333333</ele><time>2026-04-04T09:25:56.04Z</time></trkpt><trkpt lat="42.387915" lon="12.81138"><ele>465.0</ele><time>2026-04-04T09:25:59.04Z</time></trkpt><trkpt lat="42.388005" lon="12.8114317"><ele>461.3333333333333</ele><time>2026-04-04T09:26:01.039Z</time></trkpt><trkpt lat="42.3881033" lon="12.8114817"><ele>457.66666666666663</ele><time>2026-04-04T09:26:03.04Z</time></trkpt><trkpt lat="42.3881933" lon="12.8115167"><ele>454.0</ele><time>2026-04-04T09:26:05.04Z</time></trkpt><trkpt lat="42.3882517" lon="12.8115583"><ele>450.3333333333333</ele><time>2026-04-04T09:26:07.04Z</time></trkpt><trkpt lat="42.388325" lon="12.8116183"><ele>446.66666666666663</ele><time>2026-04-04T09:26:09.042Z</time></trkpt><trkpt lat="42.3883817" lon="12.811665"><ele>443.0</ele><time>2026-04-04T09:26:11.04Z</time></trkpt><trkpt lat="42.3884633" lon="12.811675"><ele>443.0</ele><time>2026-04-04T09:26:13.039Z</time></trkpt><trkpt lat="42.38857" lon="12.8116517"><ele>443.0</ele><time>2026-04-04T09:26:15.041Z</time></trkpt><trkpt lat="42.3886817" lon="12.8116533"><ele>443.0</ele><time>2026-04-04T09:26:17.04Z</time></trkpt><trkpt lat="42.3887933" lon="12.8116633"><ele>443.0</ele><time>2026-04-04T09:26:19.04Z</time></trkpt><trkpt lat="42.3889117" lon="12.8116767"><ele>440.2</ele><time>2026-04-04T09:26:21.04Z</time></trkpt><trkpt lat="42.3890267" lon="12.81169"><ele>437.4</ele><time>2026-04-04T09:26:23.04Z</time></trkpt><trkpt lat="42.3891283" lon="12.81171"><ele>434.59999999999997</ele><time>2026-04-04T09:26:25.041Z</time></trkpt><trkpt lat="42.3892333" lon="12.8117383"><ele>431.79999999999995</ele><time>2026-04-04T09:26:27.04Z</time></trkpt><trkpt lat="42.3893367" lon="12.8117583"><ele>429.0</ele><time>2026-04-04T09:26:29.04Z</time></trkpt><trkpt lat="42.3894067" lon="12.81177"><ele>429.0</ele><time>2026-04-04T09:26:31.041Z</time></trkpt><trkpt lat="42.3895117" lon="12.811765"><ele>429.0</ele><time>2026-04-04T09:26:37.041Z</time></trkpt><trkpt lat="42.389595" lon="12.8118133"><ele>429.0</ele><time>2026-04-04T09:26:41.041Z</time></trkpt><trkpt lat="42.3897033" lon="12.8118533"><ele>429.0</ele><time>2026-04-04T09:26:44.04Z</time></trkpt><trkpt lat="42.389795" lon="12.8118683"><ele>429.0</ele><time>2026-04-04T09:26:46.04Z</time></trkpt><trkpt lat="42.3898983" lon="12.8119067"><ele>426.0</ele><time>2026-04-04T09:26:48.04Z</time></trkpt><trkpt lat="42.3900033" lon="12.81194"><ele>423.0</ele><time>2026-04-04T09:26:50.039Z</time></trkpt><trkpt lat="42.3901133" lon="12.8119933"><ele>420.0</ele><time>2026-04-04T09:26:52.04Z</time></trkpt><trkpt lat="42.3901717" lon="12.8120367"><ele>417.0</ele><time>2026-04-04T09:26:53.04Z</time></trkpt><trkpt lat="42.3902633" lon="12.812155"><ele>414.0</ele><time>2026-04-04T09:26:55.041Z</time></trkpt><trkpt lat="42.3903083" lon="12.812215"><ele>414.00000000000006</ele><time>2026-04-04T09:26:56.04Z</time></trkpt><trkpt lat="42.390355" lon="12.8122733"><ele>414.0</ele><time>2026-04-04T09:26:57.041Z</time></trkpt><trkpt lat="42.390445" lon="12.8123717"><ele>414.0</ele><time>2026-04-04T09:26:59.039Z</time></trkpt><trkpt lat="42.3904933" lon="12.8124267"><ele>414.0</ele><time>2026-04-04T09:27:00.041Z</time></trkpt><trkpt lat="42.3905483" lon="12.8124883"><ele>414.0</ele><time>2026-04-04T09:27:01.039Z</time></trkpt><trkpt lat="42.3905967" lon="12.8125467"><ele>414.00000000000006</ele><time>2026-04-04T09:27:02.041Z</time></trkpt><trkpt lat="42.3906467" lon="12.812605"><ele>414.0</ele><time>2026-04-04T09:27:03.04Z</time></trkpt><trkpt lat="42.3906967" lon="12.81267"><ele>409.2</ele><time>2026-04-04T09:27:04.041Z</time></trkpt><trkpt lat="42.390745" lon="12.81274"><ele>404.4</ele><time>2026-04-04T09:27:05.041Z</time></trkpt><trkpt lat="42.39079" lon="12.8128017"><ele>399.6</ele><time>2026-04-04T09:27:06.04Z</time></trkpt><trkpt lat="42.3908667" lon="12.8129217"><ele>394.8</ele><time>2026-04-04T09:27:08.039Z</time></trkpt><trkpt lat="42.39094" lon="12.81304"><ele>390.0</ele><time>2026-04-04T09:27:10.042Z</time></trkpt><trkpt lat="42.3910033" lon="12.8131567"><ele>390.0</ele><time>2026-04-04T09:27:12.041Z</time></trkpt><trkpt lat="42.3910667" lon="12.8132667"><ele>390.0</ele><time>2026-04-04T09:27:14.039Z</time></trkpt><trkpt lat="42.3911217" lon="12.8133533"><ele>390.0</ele><time>2026-04-04T09:27:16.04Z</time></trkpt><trkpt lat="42.3911617" lon="12.8134367"><ele>390.0</ele><time>2026-04-04T09:27:18.04Z</time></trkpt><trkpt lat="42.3911683" lon="12.8135317"><ele>390.0</ele><time>2026-04-04T09:27:20.039Z</time></trkpt><trkpt lat="42.3911417" lon="12.8136483"><ele>390.0</ele><time>2026-04-04T09:27:22.049Z</time></trkpt><trkpt lat="42.3911" lon="12.813775"><ele>389.2</ele><time>2026-04-04T09:27:24.041Z</time></trkpt><trkpt lat="42.39104" lon="12.8139083"><ele>388.4</ele><time>2026-04-04T09:27:26.039Z</time></trkpt><trkpt lat="42.390985" lon="12.8140367"><ele>387.6</ele><time>2026-04-04T09:27:28.04Z</time></trkpt><trkpt lat="42.3909383" lon="12.814185"><ele>386.8</ele><time>2026-04-04T09:27:30.041Z</time></trkpt><trkpt lat="42.3909117" lon="12.8142817"><ele>386.0</ele><time>2026-04-04T09:27:31.04Z</time></trkpt><trkpt lat="42.39087" lon="12.814385"><ele>385.6</ele><time>2026-04-04T09:27:32.04Z</time></trkpt><trkpt lat="42.3908267" lon="12.8144933"><ele>385.20000000000005</ele><time>2026-04-04T09:27:33.044Z</time></trkpt><trkpt lat="42.390765" lon="12.8146117"><ele>384.79999999999995</ele><time>2026-04-04T09:27:34.039Z</time></trkpt><trkpt lat="42.3907" lon="12.814745"><ele>384.4</ele><time>2026-04-04T09:27:35.04Z</time></trkpt><trkpt lat="42.3906333" lon="12.8148883"><ele>384.0</ele><time>2026-04-04T09:27:36.04Z</time></trkpt><trkpt lat="42.3905667" lon="12.8150367"><ele>385.0</ele><time>2026-04-04T09:27:37.041Z</time></trkpt><trkpt lat="42.3904883" lon="12.8151917"><ele>386.0</ele><time>2026-04-04T09:27:38.04Z</time></trkpt><trkpt lat="42.3904133" lon="12.8153433"><ele>387.0</ele><time>2026-04-04T09:27:39.041Z</time></trkpt><trkpt lat="42.3903433" lon="12.8154967"><ele>388.0</ele><time>2026-04-04T09:27:40.04Z</time></trkpt><trkpt lat="42.3902683" lon="12.815655"><ele>388.0</ele><time>2026-04-04T09:27:41.04Z</time></trkpt><trkpt lat="42.3901983" lon="12.815825"><ele>388.0</ele><time>2026-04-04T09:27:42.039Z</time></trkpt><trkpt lat="42.3901383" lon="12.8160083"><ele>388.0</ele><time>2026-04-04T09:27:43.041Z</time></trkpt><trkpt lat="42.390085" lon="12.816195"><ele>388.0</ele><time>2026-04-04T09:27:44.041Z</time></trkpt><trkpt lat="42.3900483" lon="12.8163883"><ele>388.0</ele><time>2026-04-04T09:27:45.04Z</time></trkpt><trkpt lat="42.390035" lon="12.8166"><ele>388.0</ele><time>2026-04-04T09:27:46.04Z</time></trkpt><trkpt lat="42.3900367" lon="12.8168167"><ele>388.0</ele><time>2026-04-04T09:27:47.04Z</time></trkpt><trkpt lat="42.3900383" lon="12.8170267"><ele>388.25</ele><time>2026-04-04T09:27:48.039Z</time></trkpt><trkpt lat="42.3900583" lon="12.81723"><ele>388.5</ele><time>2026-04-04T09:27:49.041Z</time></trkpt><trkpt lat="42.3900517" lon="12.81742"><ele>388.75</ele><time>2026-04-04T09:27:50.041Z</time></trkpt><trkpt lat="42.3900567" lon="12.8176033"><ele>389.0</ele><time>2026-04-04T09:27:51.041Z</time></trkpt><trkpt lat="42.3900633" lon="12.8177733"><ele>389.16666666666663</ele><time>2026-04-04T09:27:52.041Z</time></trkpt><trkpt lat="42.39007" lon="12.8179267"><ele>389.3333333333333</ele><time>2026-04-04T09:27:53.04Z</time></trkpt><trkpt lat="42.3900733" lon="12.8180533"><ele>389.5</ele><time>2026-04-04T09:27:54.041Z</time></trkpt><trkpt lat="42.3900767" lon="12.8181583"><ele>389.66666666666663</ele><time>2026-04-04T09:27:55.041Z</time></trkpt><trkpt lat="42.39009" lon="12.81825"><ele>389.8333333333333</ele><time>2026-04-04T09:27:56.04Z</time></trkpt><trkpt lat="42.390135" lon="12.8183333"><ele>390.0</ele><time>2026-04-04T09:27:58.042Z</time></trkpt><trkpt lat="42.3901983" lon="12.8183067"><ele>390.0</ele><time>2026-04-04T09:27:59.04Z</time></trkpt><trkpt lat="42.3902733" lon="12.8182533"><ele>390.0</ele><time>2026-04-04T09:28:00.042Z</time></trkpt><trkpt lat="42.3903933" lon="12.81821"><ele>390.0</ele><time>2026-04-04T09:28:02.039Z</time></trkpt><trkpt lat="42.3904583" lon="12.8181983"><ele>390.0</ele><time>2026-04-04T09:28:03.041Z</time></trkpt><trkpt lat="42.3905333" lon="12.81819"><ele>390.0</ele><time>2026-04-04T09:28:04.041Z</time></trkpt><trkpt lat="42.39061" lon="12.81818"><ele>390.0</ele><time>2026-04-04T09:28:05.041Z</time></trkpt><trkpt lat="42.39069" lon="12.8181633"><ele>389.2857142857143</ele><time>2026-04-04T09:28:06.039Z</time></trkpt><trkpt lat="42.39076" lon="12.818155"><ele>388.57142857142856</ele><time>2026-04-04T09:28:07.041Z</time></trkpt><trkpt lat="42.3908283" lon="12.8181483"><ele>387.8571428571429</ele><time>2026-04-04T09:28:08.04Z</time></trkpt><trkpt lat="42.390895" lon="12.8181433"><ele>387.1428571428571</ele><time>2026-04-04T09:28:09.04Z</time></trkpt><trkpt lat="42.3909633" lon="12.818135"><ele>386.42857142857144</ele><time>2026-04-04T09:28:10.04Z</time></trkpt><trkpt lat="42.3910317" lon="12.8181267"><ele>385.7142857142857</ele><time>2026-04-04T09:28:11.039Z</time></trkpt><trkpt lat="42.39111" lon="12.818115"><ele>385.0</ele><time>2026-04-04T09:28:12.041Z</time></trkpt><trkpt lat="42.3911817" lon="12.81811"><ele>385.0</ele><time>2026-04-04T09:28:13.04Z</time></trkpt><trkpt lat="42.391255" lon="12.8181017"><ele>385.0</ele><time>2026-04-04T09:28:14.039Z</time></trkpt><trkpt lat="42.391325" lon="12.81809"><ele>385.0</ele><time>2026-04-04T09:28:15.04Z</time></trkpt><trkpt lat="42.39139" lon="12.818085"><ele>385.0</ele><time>2026-04-04T09:28:16.039Z</time></trkpt><trkpt lat="42.3914533" lon="12.81808"><ele>385.0</ele><time>2026-04-04T09:28:17.041Z</time></trkpt><trkpt lat="42.391525" lon="12.81807"><ele>385.0</ele><time>2026-04-04T09:28:18.041Z</time></trkpt><trkpt lat="42.391595" lon="12.8180683"><ele>385.0</ele><time>2026-04-04T09:28:19.041Z</time></trkpt><trkpt lat="42.3916733" lon="12.81807"><ele>384.6666666666667</ele><time>2026-04-04T09:28:20.04Z</time></trkpt><trkpt lat="42.3917583" lon="12.8180633"><ele>384.33333333333337</ele><time>2026-04-04T09:28:21.041Z</time></trkpt><trkpt lat="42.3918867" lon="12.8180567"><ele>384.0</ele><time>2026-04-04T09:28:22.04Z</time></trkpt><trkpt lat="42.3919567" lon="12.81806"><ele>383.6666666666667</ele><time>2026-04-04T09:28:23.04Z</time></trkpt><trkpt lat="42.3920317" lon="12.8180517"><ele>383.33333333333337</ele><time>2026-04-04T09:28:24.039Z</time></trkpt><trkpt lat="42.3921117" lon="12.8180433"><ele>383.0</ele><time>2026-04-04T09:28:25.044Z</time></trkpt><trkpt lat="42.3921933" lon="12.8180267"><ele>382.6666666666667</ele><time>2026-04-04T09:28:26.04Z</time></trkpt><trkpt lat="42.39227" lon="12.8180083"><ele>382.33333333333337</ele><time>2026-04-04T09:28:27.043Z</time></trkpt><trkpt lat="42.39235" lon="12.8180017"><ele>382.0</ele><time>2026-04-04T09:28:28.04Z</time></trkpt><trkpt lat="42.3924333" lon="12.817985"><ele>381.6666666666667</ele><time>2026-04-04T09:28:29.039Z</time></trkpt><trkpt lat="42.3925183" lon="12.8179733"><ele>381.3333333333333</ele><time>2026-04-04T09:28:30.039Z</time></trkpt><trkpt lat="42.3926067" lon="12.81796"><ele>381.0</ele><time>2026-04-04T09:28:31.039Z</time></trkpt><trkpt lat="42.3926983" lon="12.817945"><ele>381.0</ele><time>2026-04-04T09:28:32.04Z</time></trkpt><trkpt lat="42.39279" lon="12.8179317"><ele>381.0</ele><time>2026-04-04T09:28:33.04Z</time></trkpt><trkpt lat="42.3928783" lon="12.8179217"><ele>381.0</ele><time>2026-04-04T09:28:34.04Z</time></trkpt><trkpt lat="42.392965" lon="12.8179083"><ele>381.0</ele><time>2026-04-04T09:28:35.039Z</time></trkpt><trkpt lat="42.3930483" lon="12.817905"><ele>381.0</ele><time>2026-04-04T09:28:36.039Z</time></trkpt><trkpt lat="42.393135" lon="12.8178983"><ele>381.0</ele><time>2026-04-04T09:28:37.041Z</time></trkpt><trkpt lat="42.3932333" lon="12.8178983"><ele>381.1666666666667</ele><time>2026-04-04T09:28:38.041Z</time></trkpt><trkpt lat="42.3933283" lon="12.8179033"><ele>381.3333333333333</ele><time>2026-04-04T09:28:39.039Z</time></trkpt><trkpt lat="42.393425" lon="12.8178983"><ele>381.5</ele><time>2026-04-04T09:28:40.039Z</time></trkpt><trkpt lat="42.39351" lon="12.8178967"><ele>381.66666666666663</ele><time>2026-04-04T09:28:41.039Z</time></trkpt><trkpt lat="42.39359" lon="12.8178933"><ele>381.8333333333333</ele><time>2026-04-04T09:28:42.04Z</time></trkpt><trkpt lat="42.3936633" lon="12.81789"><ele>382.0</ele><time>2026-04-04T09:28:43.043Z</time></trkpt><trkpt lat="42.3937283" lon="12.8178883"><ele>381.8</ele><time>2026-04-04T09:28:44.041Z</time></trkpt><trkpt lat="42.3938467" lon="12.8178867"><ele>381.6</ele><time>2026-04-04T09:28:46.041Z</time></trkpt><trkpt lat="42.3939517" lon="12.81789"><ele>381.40000000000003</ele><time>2026-04-04T09:28:48.04Z</time></trkpt><trkpt lat="42.394045" lon="12.8178983"><ele>381.20000000000005</ele><time>2026-04-04T09:28:50.039Z</time></trkpt><trkpt lat="42.39414" lon="12.81791"><ele>381.0</ele><time>2026-04-04T09:28:52.039Z</time></trkpt><trkpt lat="42.3942767" lon="12.8179167"><ele>381.0</ele><time>2026-04-04T09:28:54.04Z</time></trkpt><trkpt lat="42.394375" lon="12.8179217"><ele>381.0</ele><time>2026-04-04T09:28:55.039Z</time></trkpt><trkpt lat="42.394495" lon="12.8179283"><ele>381.0</ele><time>2026-04-04T09:28:56.04Z</time></trkpt><trkpt lat="42.3946417" lon="12.817935"><ele>381.0</ele><time>2026-04-04T09:28:57.039Z</time></trkpt><trkpt lat="42.3948167" lon="12.8179433"><ele>380.6666666666667</ele><time>2026-04-04T09:28:58.039Z</time></trkpt><trkpt lat="42.395005" lon="12.8179583"><ele>380.33333333333337</ele><time>2026-04-04T09:28:59.041Z</time></trkpt><trkpt lat="42.395185" lon="12.8179767"><ele>380.0</ele><time>2026-04-04T09:29:00.04Z</time></trkpt><trkpt lat="42.3953517" lon="12.817995"><ele>380.5</ele><time>2026-04-04T09:29:01.039Z</time></trkpt><trkpt lat="42.3955083" lon="12.818005"><ele>381.0</ele><time>2026-04-04T09:29:02.041Z</time></trkpt><trkpt lat="42.39565" lon="12.81801"><ele>381.5</ele><time>2026-04-04T09:29:03.04Z</time></trkpt><trkpt lat="42.39577" lon="12.818015"><ele>382.0</ele><time>2026-04-04T09:29:04.04Z</time></trkpt><trkpt lat="42.3958633" lon="12.8180217"><ele>382.0</ele><time>2026-04-04T09:29:05.041Z</time></trkpt><trkpt lat="42.395935" lon="12.8180283"><ele>382.0</ele><time>2026-04-04T09:29:06.04Z</time></trkpt><trkpt lat="42.39601" lon="12.8180483"><ele>382.0</ele><time>2026-04-04T09:29:08.04Z</time></trkpt><trkpt lat="42.3960683" lon="12.8180967"><ele>382.0</ele><time>2026-04-04T09:29:15.039Z</time></trkpt><trkpt lat="42.3961467" lon="12.8181483"><ele>382.0</ele><time>2026-04-04T09:29:18.04Z</time></trkpt><trkpt lat="42.3962133" lon="12.818145"><ele>382.0</ele><time>2026-04-04T09:29:23.039Z</time></trkpt><trkpt lat="42.3962483" lon="12.8180667"><ele>382.0</ele><time>2026-04-04T09:29:25.039Z</time></trkpt><trkpt lat="42.3962917" lon="12.81793"><ele>382.0</ele><time>2026-04-04T09:29:27.039Z</time></trkpt><trkpt lat="42.3963283" lon="12.817795"><ele>382.0</ele><time>2026-04-04T09:29:29.04Z</time></trkpt><trkpt lat="42.3963467" lon="12.8177133"><ele>382.0</ele><time>2026-04-04T09:29:30.039Z</time></trkpt><trkpt lat="42.396365" lon="12.817615"><ele>382.0</ele><time>2026-04-04T09:29:31.041Z</time></trkpt><trkpt lat="42.396385" lon="12.8175117"><ele>382.0</ele><time>2026-04-04T09:29:32.042Z</time></trkpt><trkpt lat="42.3964017" lon="12.8174033"><ele>382.0</ele><time>2026-04-04T09:29:33.04Z</time></trkpt><trkpt lat="42.3964167" lon="12.8172867"><ele>381.8</ele><time>2026-04-04T09:29:34.042Z</time></trkpt><trkpt lat="42.3964283" lon="12.8171617"><ele>381.6</ele><time>2026-04-04T09:29:35.039Z</time></trkpt><trkpt lat="42.3964367" lon="12.8170317"><ele>381.40000000000003</ele><time>2026-04-04T09:29:36.041Z</time></trkpt><trkpt lat="42.3964433" lon="12.816895"><ele>381.20000000000005</ele><time>2026-04-04T09:29:37.041Z</time></trkpt><trkpt lat="42.3964433" lon="12.816755"><ele>381.0</ele><time>2026-04-04T09:29:38.04Z</time></trkpt><trkpt lat="42.39643" lon="12.8166083"><ele>381.0</ele><time>2026-04-04T09:29:39.04Z</time></trkpt><trkpt lat="42.3964167" lon="12.8164667"><ele>381.0</ele><time>2026-04-04T09:29:40.04Z</time></trkpt><trkpt lat="42.3963983" lon="12.816315"><ele>381.0</ele><time>2026-04-04T09:29:41.04Z</time></trkpt><trkpt lat="42.396385" lon="12.8161583"><ele>381.0</ele><time>2026-04-04T09:29:42.041Z</time></trkpt><trkpt lat="42.3963667" lon="12.81601"><ele>381.0</ele><time>2026-04-04T09:29:43.041Z</time></trkpt><trkpt lat="42.39635" lon="12.8158633"><ele>381.0</ele><time>2026-04-04T09:29:44.04Z</time></trkpt><trkpt lat="42.3963383" lon="12.8157233"><ele>381.0</ele><time>2026-04-04T09:29:45.04Z</time></trkpt><trkpt lat="42.39633" lon="12.81559"><ele>381.0</ele><time>2026-04-04T09:29:46.04Z</time></trkpt><trkpt lat="42.3963183" lon="12.8154567"><ele>381.0</ele><time>2026-04-04T09:29:47.041Z</time></trkpt><trkpt lat="42.396315" lon="12.8153233"><ele>381.0</ele><time>2026-04-04T09:29:48.039Z</time></trkpt><trkpt lat="42.3963217" lon="12.81519"><ele>381.20000000000005</ele><time>2026-04-04T09:29:49.04Z</time></trkpt><trkpt lat="42.3963333" lon="12.8150533"><ele>381.40000000000003</ele><time>2026-04-04T09:29:50.04Z</time></trkpt><trkpt lat="42.3963533" lon="12.8149117"><ele>381.6</ele><time>2026-04-04T09:29:51.041Z</time></trkpt><trkpt lat="42.3963817" lon="12.81477"><ele>381.8</ele><time>2026-04-04T09:29:52.04Z</time></trkpt><trkpt lat="42.396415" lon="12.8146267"><ele>382.0</ele><time>2026-04-04T09:29:53.041Z</time></trkpt><trkpt lat="42.3964483" lon="12.8144883"><ele>382.0</ele><time>2026-04-04T09:29:54.039Z</time></trkpt><trkpt lat="42.3964767" lon="12.814345"><ele>382.0</ele><time>2026-04-04T09:29:55.039Z</time></trkpt><trkpt lat="42.3965033" lon="12.8142083"><ele>382.0</ele><time>2026-04-04T09:29:56.04Z</time></trkpt><trkpt lat="42.3965283" lon="12.8140733"><ele>382.0</ele><time>2026-04-04T09:29:57.04Z</time></trkpt><trkpt lat="42.3965517" lon="12.8139567"><ele>382.0</ele><time>2026-04-04T09:29:58.04Z</time></trkpt><trkpt lat="42.3965783" lon="12.8138517"><ele>382.0</ele><time>2026-04-04T09:29:59.039Z</time></trkpt><trkpt lat="42.396605" lon="12.8137633"><ele>382.0</ele><time>2026-04-04T09:30:00.045Z</time></trkpt><trkpt lat="42.3966333" lon="12.813685"><ele>382.0</ele><time>2026-04-04T09:30:01.041Z</time></trkpt><trkpt lat="42.3967017" lon="12.813565"><ele>382.0</ele><time>2026-04-04T09:30:03.04Z</time></trkpt><trkpt lat="42.3967483" lon="12.8134917"><ele>382.0</ele><time>2026-04-04T09:30:04.04Z</time></trkpt><trkpt lat="42.396805" lon="12.81341"><ele>382.0</ele><time>2026-04-04T09:30:05.039Z</time></trkpt><trkpt lat="42.396865" lon="12.813325"><ele>382.0</ele><time>2026-04-04T09:30:06.039Z</time></trkpt><trkpt lat="42.3969533" lon="12.81325"><ele>382.0</ele><time>2026-04-04T09:30:07.039Z</time></trkpt><trkpt lat="42.3970467" lon="12.8131817"><ele>382.0</ele><time>2026-04-04T09:30:08.04Z</time></trkpt><trkpt lat="42.397135" lon="12.813125"><ele>382.0</ele><time>2026-04-04T09:30:09.04Z</time></trkpt><trkpt lat="42.397225" lon="12.8130717"><ele>382.0</ele><time>2026-04-04T09:30:10.039Z</time></trkpt><trkpt lat="42.39733" lon="12.8130183"><ele>382.0</ele><time>2026-04-04T09:30:11.04Z</time></trkpt><trkpt lat="42.39743" lon="12.812975"><ele>382.0</ele><time>2026-04-04T09:30:12.04Z</time></trkpt><trkpt lat="42.3975217" lon="12.8129333"><ele>382.0</ele><time>2026-04-04T09:30:13.04Z</time></trkpt><trkpt lat="42.3976233" lon="12.8128917"><ele>382.0</ele><time>2026-04-04T09:30:14.041Z</time></trkpt><trkpt lat="42.3977117" lon="12.8128483"><ele>382.0</ele><time>2026-04-04T09:30:15.04Z</time></trkpt><trkpt lat="42.397795" lon="12.8128017"><ele>382.0</ele><time>2026-04-04T09:30:16.039Z</time></trkpt><trkpt lat="42.3978983" lon="12.8127533"><ele>382.0</ele><time>2026-04-04T09:30:17.04Z</time></trkpt><trkpt lat="42.3979783" lon="12.8127283"><ele>382.0</ele><time>2026-04-04T09:30:18.04Z</time></trkpt><trkpt lat="42.398055" lon="12.8127033"><ele>382.0</ele><time>2026-04-04T09:30:19.039Z</time></trkpt><trkpt lat="42.3981333" lon="12.81268"><ele>382.0</ele><time>2026-04-04T09:30:20.04Z</time></trkpt><trkpt lat="42.3982" lon="12.81266"><ele>382.0</ele><time>2026-04-04T09:30:21.041Z</time></trkpt><trkpt lat="42.3982667" lon="12.81264"><ele>382.0</ele><time>2026-04-04T09:30:22.039Z</time></trkpt><trkpt lat="42.3983467" lon="12.81262"><ele>382.0</ele><time>2026-04-04T09:30:23.041Z</time></trkpt><trkpt lat="42.398425" lon="12.81259"><ele>382.0</ele><time>2026-04-04T09:30:24.041Z</time></trkpt><trkpt lat="42.3985167" lon="12.812535"><ele>382.0</ele><time>2026-04-04T09:30:25.041Z</time></trkpt><trkpt lat="42.3986167" lon="12.8124567"><ele>382.0</ele><time>2026-04-04T09:30:26.04Z</time></trkpt><trkpt lat="42.3987333" lon="12.8123683"><ele>381.6</ele><time>2026-04-04T09:30:27.042Z</time></trkpt><trkpt lat="42.398845" lon="12.81229"><ele>381.20000000000005</ele><time>2026-04-04T09:30:28.041Z</time></trkpt><trkpt lat="42.3989517" lon="12.8122183"><ele>380.8</ele><time>2026-04-04T09:30:29.04Z</time></trkpt><trkpt lat="42.3990467" lon="12.8121583"><ele>380.4</ele><time>2026-04-04T09:30:30.04Z</time></trkpt><trkpt lat="42.39913" lon="12.8121117"><ele>380.0</ele><time>2026-04-04T09:30:31.04Z</time></trkpt><trkpt lat="42.3992217" lon="12.8120667"><ele>380.0</ele><time>2026-04-04T09:30:32.04Z</time></trkpt><trkpt lat="42.39931" lon="12.8120267"><ele>380.0</ele><time>2026-04-04T09:30:33.04Z</time></trkpt><trkpt lat="42.3993983" lon="12.8119933"><ele>380.0</ele><time>2026-04-04T09:30:34.04Z</time></trkpt><trkpt lat="42.3994817" lon="12.811975"><ele>380.0</ele><time>2026-04-04T09:30:35.04Z</time></trkpt><trkpt lat="42.3995583" lon="12.811975"><ele>380.0</ele><time>2026-04-04T09:30:36.04Z</time></trkpt><trkpt lat="42.3996217" lon="12.8120283"><ele>380.0</ele><time>2026-04-04T09:30:37.04Z</time></trkpt><trkpt lat="42.3996767" lon="12.812125"><ele>380.0</ele><time>2026-04-04T09:30:38.04Z</time></trkpt><trkpt lat="42.3997133" lon="12.8122433"><ele>380.0</ele><time>2026-04-04T09:30:39.042Z</time></trkpt><trkpt lat="42.3997733" lon="12.8123183"><ele>380.0</ele><time>2026-04-04T09:30:40.04Z</time></trkpt><trkpt lat="42.3998467" lon="12.812385"><ele>380.0</ele><time>2026-04-04T09:30:41.041Z</time></trkpt><trkpt lat="42.39992" lon="12.8124333"><ele>380.0</ele><time>2026-04-04T09:30:42.04Z</time></trkpt><trkpt lat="42.4000317" lon="12.8124433"><ele>380.0</ele><time>2026-04-04T09:30:43.041Z</time></trkpt><trkpt lat="42.4001667" lon="12.8124483"><ele>380.0</ele><time>2026-04-04T09:30:44.04Z</time></trkpt><trkpt lat="42.400315" lon="12.8124533"><ele>380.0</ele><time>2026-04-04T09:30:45.041Z</time></trkpt><trkpt lat="42.4004767" lon="12.812455"><ele>380.0</ele><time>2026-04-04T09:30:46.039Z</time></trkpt><trkpt lat="42.4006467" lon="12.8124567"><ele>379.6666666666667</ele><time>2026-04-04T09:30:47.04Z</time></trkpt><trkpt lat="42.400825" lon="12.8124567"><ele>379.3333333333333</ele><time>2026-04-04T09:30:48.039Z</time></trkpt><trkpt lat="42.4010217" lon="12.812455"><ele>379.0</ele><time>2026-04-04T09:30:49.041Z</time></trkpt><trkpt lat="42.4012167" lon="12.8124533"><ele>379.3333333333333</ele><time>2026-04-04T09:30:50.041Z</time></trkpt><trkpt lat="42.4014217" lon="12.8124533"><ele>379.6666666666667</ele><time>2026-04-04T09:30:51.041Z</time></trkpt><trkpt lat="42.4016333" lon="12.8124517"><ele>380.0</ele><time>2026-04-04T09:30:52.039Z</time></trkpt><trkpt lat="42.4018567" lon="12.812455"><ele>380.0</ele><time>2026-04-04T09:30:53.04Z</time></trkpt><trkpt lat="42.402095" lon="12.8124583"><ele>380.0</ele><time>2026-04-04T09:30:54.04Z</time></trkpt><trkpt lat="42.4023433" lon="12.8124583"><ele>379.5</ele><time>2026-04-04T09:30:55.04Z</time></trkpt><trkpt lat="42.4026067" lon="12.8124567"><ele>379.0</ele><time>2026-04-04T09:30:56.04Z</time></trkpt><trkpt lat="42.4028633" lon="12.812455"><ele>380.0</ele><time>2026-04-04T09:30:57.041Z</time></trkpt><trkpt lat="42.4031083" lon="12.8124567"><ele>381.0</ele><time>2026-04-04T09:30:58.041Z</time></trkpt><trkpt lat="42.4033367" lon="12.8124567"><ele>381.0</ele><time>2026-04-04T09:30:59.04Z</time></trkpt><trkpt lat="42.4035533" lon="12.81245"><ele>381.0</ele><time>2026-04-04T09:31:00.04Z</time></trkpt><trkpt lat="42.4037583" lon="12.8124417"><ele>381.0</ele><time>2026-04-04T09:31:01.04Z</time></trkpt><trkpt lat="42.4039567" lon="12.8124317"><ele>381.3333333333333</ele><time>2026-04-04T09:31:02.039Z</time></trkpt><trkpt lat="42.4041467" lon="12.8124117"><ele>381.66666666666663</ele><time>2026-04-04T09:31:03.041Z</time></trkpt><trkpt lat="42.4043267" lon="12.81239"><ele>382.0</ele><time>2026-04-04T09:31:04.041Z</time></trkpt><trkpt lat="42.4044933" lon="12.8123717"><ele>382.0</ele><time>2026-04-04T09:31:05.039Z</time></trkpt><trkpt lat="42.4046483" lon="12.8123533"><ele>382.0</ele><time>2026-04-04T09:31:06.04Z</time></trkpt><trkpt lat="42.40479" lon="12.812335"><ele>382.0</ele><time>2026-04-04T09:31:07.041Z</time></trkpt><trkpt lat="42.404925" lon="12.81232"><ele>382.0</ele><time>2026-04-04T09:31:08.04Z</time></trkpt><trkpt lat="42.4050483" lon="12.8123083"><ele>381.8333333333333</ele><time>2026-04-04T09:31:09.041Z</time></trkpt><trkpt lat="42.4051633" lon="12.8122933"><ele>381.66666666666663</ele><time>2026-04-04T09:31:10.04Z</time></trkpt><trkpt lat="42.4052683" lon="12.8122767"><ele>381.5</ele><time>2026-04-04T09:31:11.04Z</time></trkpt><trkpt lat="42.4053533" lon="12.81226"><ele>381.3333333333333</ele><time>2026-04-04T09:31:12.04Z</time></trkpt><trkpt lat="42.405425" lon="12.8122433"><ele>381.1666666666667</ele><time>2026-04-04T09:31:13.041Z</time></trkpt><trkpt lat="42.4054917" lon="12.812235"><ele>381.0</ele><time>2026-04-04T09:31:14.04Z</time></trkpt><trkpt lat="42.405565" lon="12.8122217"><ele>380.5</ele><time>2026-04-04T09:31:15.041Z</time></trkpt><trkpt lat="42.40565" lon="12.812205"><ele>380.0</ele><time>2026-04-04T09:31:16.04Z</time></trkpt><trkpt lat="42.4057483" lon="12.812195"><ele>379.5</ele><time>2026-04-04T09:31:17.039Z</time></trkpt><trkpt lat="42.40587" lon="12.8121917"><ele>379.0</ele><time>2026-04-04T09:31:18.04Z</time></trkpt><trkpt lat="42.4060133" lon="12.812175"><ele>379.0</ele><time>2026-04-04T09:31:19.04Z</time></trkpt><trkpt lat="42.4061733" lon="12.8121517"><ele>379.0</ele><time>2026-04-04T09:31:20.041Z</time></trkpt><trkpt lat="42.406345" lon="12.81213"><ele>379.0</ele><time>2026-04-04T09:31:21.04Z</time></trkpt><trkpt lat="42.4065233" lon="12.8121083"><ele>378.3333333333333</ele><time>2026-04-04T09:31:22.048Z</time></trkpt><trkpt lat="42.4067067" lon="12.8120883"><ele>377.6666666666667</ele><time>2026-04-04T09:31:23.04Z</time></trkpt><trkpt lat="42.4068983" lon="12.812065"><ele>377.0</ele><time>2026-04-04T09:31:24.039Z</time></trkpt><trkpt lat="42.4070967" lon="12.812035"><ele>377.33333333333337</ele><time>2026-04-04T09:31:25.041Z</time></trkpt><trkpt lat="42.4073033" lon="12.812005"><ele>377.6666666666667</ele><time>2026-04-04T09:31:26.04Z</time></trkpt><trkpt lat="42.4075117" lon="12.81198"><ele>378.0</ele><time>2026-04-04T09:31:27.041Z</time></trkpt><trkpt lat="42.40772" lon="12.8119567"><ele>378.0</ele><time>2026-04-04T09:31:28.041Z</time></trkpt><trkpt lat="42.4079183" lon="12.811935"><ele>378.0</ele><time>2026-04-04T09:31:29.039Z</time></trkpt><trkpt lat="42.4080967" lon="12.8119183"><ele>378.0</ele><time>2026-04-04T09:31:30.039Z</time></trkpt><trkpt lat="42.408265" lon="12.8119"><ele>377.75</ele><time>2026-04-04T09:31:31.041Z</time></trkpt><trkpt lat="42.40842" lon="12.8118917"><ele>377.5</ele><time>2026-04-04T09:31:32.042Z</time></trkpt><trkpt lat="42.4085617" lon="12.8118783"><ele>377.25</ele><time>2026-04-04T09:31:33.04Z</time></trkpt><trkpt lat="42.4086833" lon="12.8118733"><ele>377.0</ele><time>2026-04-04T09:31:34.04Z</time></trkpt><trkpt lat="42.408785" lon="12.811865"><ele>377.1666666666667</ele><time>2026-04-04T09:31:35.04Z</time></trkpt><trkpt lat="42.40887" lon="12.8118517"><ele>377.33333333333337</ele><time>2026-04-04T09:31:36.04Z</time></trkpt><trkpt lat="42.4089433" lon="12.8118433"><ele>377.5</ele><time>2026-04-04T09:31:37.04Z</time></trkpt><trkpt lat="42.4090083" lon="12.8118217"><ele>377.6666666666667</ele><time>2026-04-04T09:31:38.04Z</time></trkpt><trkpt lat="42.40909" lon="12.811765"><ele>377.8333333333333</ele><time>2026-04-04T09:31:40.039Z</time></trkpt><trkpt lat="42.4091333" lon="12.8116467"><ele>378.0</ele><time>2026-04-04T09:31:42.04Z</time></trkpt><trkpt lat="42.4091217" lon="12.8115433"><ele>378.0</ele><time>2026-04-04T09:31:43.041Z</time></trkpt><trkpt lat="42.4091017" lon="12.8114233"><ele>378.0</ele><time>2026-04-04T09:31:44.042Z</time></trkpt><trkpt lat="42.4090783" lon="12.8112617"><ele>378.0</ele><time>2026-04-04T09:31:45.042Z</time></trkpt><trkpt lat="42.4090667" lon="12.8111067"><ele>378.0</ele><time>2026-04-04T09:31:46.04Z</time></trkpt><trkpt lat="42.4090633" lon="12.8109383"><ele>378.3333333333333</ele><time>2026-04-04T09:31:47.039Z</time></trkpt><trkpt lat="42.4090583" lon="12.8107367"><ele>378.66666666666663</ele><time>2026-04-04T09:31:48.039Z</time></trkpt><trkpt lat="42.409055" lon="12.8105217"><ele>379.0</ele><time>2026-04-04T09:31:49.041Z</time></trkpt><trkpt lat="42.40905" lon="12.8103083"><ele>378.66666666666663</ele><time>2026-04-04T09:31:50.041Z</time></trkpt><trkpt lat="42.409045" lon="12.8100867"><ele>378.3333333333333</ele><time>2026-04-04T09:31:51.041Z</time></trkpt><trkpt lat="42.4090433" lon="12.80986"><ele>378.0</ele><time>2026-04-04T09:31:52.04Z</time></trkpt><trkpt lat="42.4090433" lon="12.809615"><ele>378.0</ele><time>2026-04-04T09:31:53.039Z</time></trkpt><trkpt lat="42.409035" lon="12.8093583"><ele>378.0</ele><time>2026-04-04T09:31:54.04Z</time></trkpt><trkpt lat="42.4090383" lon="12.8090983"><ele>378.0</ele><time>2026-04-04T09:31:55.04Z</time></trkpt><trkpt lat="42.409035" lon="12.8088133"><ele>378.0</ele><time>2026-04-04T09:31:56.04Z</time></trkpt><trkpt lat="42.4090317" lon="12.8085217"><ele>378.0</ele><time>2026-04-04T09:31:57.04Z</time></trkpt><trkpt lat="42.4090267" lon="12.8082167"><ele>378.0</ele><time>2026-04-04T09:31:58.04Z</time></trkpt><trkpt lat="42.40902" lon="12.8079083"><ele>378.3333333333333</ele><time>2026-04-04T09:31:59.039Z</time></trkpt><trkpt lat="42.409015" lon="12.8076167"><ele>378.66666666666663</ele><time>2026-04-04T09:32:00.044Z</time></trkpt><trkpt lat="42.4090133" lon="12.8073383"><ele>379.0</ele><time>2026-04-04T09:32:01.04Z</time></trkpt><trkpt lat="42.4090117" lon="12.80707"><ele>378.66666666666663</ele><time>2026-04-04T09:32:02.039Z</time></trkpt><trkpt lat="42.4090133" lon="12.806805"><ele>378.3333333333333</ele><time>2026-04-04T09:32:03.039Z</time></trkpt><trkpt lat="42.40901" lon="12.8065317"><ele>378.0</ele><time>2026-04-04T09:32:04.04Z</time></trkpt><trkpt lat="42.4090067" lon="12.8062517"><ele>377.6666666666667</ele><time>2026-04-04T09:32:05.039Z</time></trkpt><trkpt lat="42.4090033" lon="12.8059633"><ele>377.33333333333337</ele><time>2026-04-04T09:32:06.041Z</time></trkpt><trkpt lat="42.4090033" lon="12.80567"><ele>377.0</ele><time>2026-04-04T09:32:07.041Z</time></trkpt><trkpt lat="42.4090017" lon="12.80537"><ele>377.33333333333337</ele><time>2026-04-04T09:32:08.041Z</time></trkpt><trkpt lat="42.409" lon="12.8050833"><ele>377.6666666666667</ele><time>2026-04-04T09:32:09.04Z</time></trkpt><trkpt lat="42.4090033" lon="12.80482"><ele>378.0</ele><time>2026-04-04T09:32:10.04Z</time></trkpt><trkpt lat="42.4090083" lon="12.8045733"><ele>378.0</ele><time>2026-04-04T09:32:11.04Z</time></trkpt><trkpt lat="42.409015" lon="12.80435"><ele>378.0</ele><time>2026-04-04T09:32:12.04Z</time></trkpt><trkpt lat="42.4090217" lon="12.804155"><ele>378.0</ele><time>2026-04-04T09:32:13.041Z</time></trkpt><trkpt lat="42.4090267" lon="12.80399"><ele>378.0</ele><time>2026-04-04T09:32:14.041Z</time></trkpt><trkpt lat="42.4090317" lon="12.803855"><ele>379.0</ele><time>2026-04-04T09:32:15.04Z</time></trkpt><trkpt lat="42.4090267" lon="12.8037533"><ele>379.0</ele><time>2026-04-04T09:32:16.041Z</time></trkpt><trkpt lat="42.4090033" lon="12.8036183"><ele>379.0</ele><time>2026-04-04T09:32:18.04Z</time></trkpt><trkpt lat="42.4089217" lon="12.8036067"><ele>379.0</ele><time>2026-04-04T09:32:21.04Z</time></trkpt><trkpt lat="42.408845" lon="12.803585"><ele>379.0</ele><time>2026-04-04T09:32:23.04Z</time></trkpt><trkpt lat="42.4087733" lon="12.8035783"><ele>380.0</ele><time>2026-04-04T09:32:26.039Z</time></trkpt></trkseg></trk></gpx>